# Wetter Temperatur Luftdruck Luftfeuchtigkeit Sichtweite Windgeschwindigkeit Windrichtung Zeit
1 Clouds -1 1022 79 8000 3.1 340 22:25 24.01.2020
2 Clouds -2 1022 79 8000 2.6 340 21:57 24.01.2020
3 Clouds -2 1022 79 8000 2.6 340 21:38 24.01.2020
4 Clouds -2 1022 79 8000 2.6 340 21:18 24.01.2020
5 Clouds -2 1022 79 8000 2.6 340 21:18 24.01.2020
6 Clouds -1 1023 74 8000 3.1 340 20:42 24.01.2020
7 Clouds -1 1023 74 8000 3.1 340 20:21 24.01.2020
8 Clouds -1 1023 79 6000 3.6 330 19:58 24.01.2020
9 Clouds -1 1023 79 6000 3.6 330 19:39 24.01.2020
10 Clouds -1 1023 79 6000 3.6 330 19:21 24.01.2020
11 Clouds 0 1023 80 8000 3.6 320 18:43 24.01.2020
12 Clouds 0 1023 80 8000 3.6 320 18:43 24.01.2020
13 Clouds 0 1023 80 8000 3.6 320 18:24 24.01.2020
14 Clouds 0 1022 74 8000 3.6 320 17:56 24.01.2020
15 Clouds 0 1022 74 8000 3.6 320 17:38 24.01.2020
16 Clouds 0 1022 74 8000 3.6 320 17:18 24.01.2020
17 Smoke 0 1022 74 5000 3.1 310 16:39 24.01.2020
18 Smoke 0 1022 74 5000 3.1 310 16:21 24.01.2020
19 Smoke 0 1022 79 5000 2.1 330 15:55 24.01.2020
20 Smoke 0 1022 79 5000 2.1 330 15:37 24.01.2020
21 Smoke 0 1022 79 5000 2.1 330 15:18 24.01.2020
22 Clouds 1 1021 79 8000 3.6 330 14:41 24.01.2020
23 Clouds 1 1021 90 8000 3.6 330 14:22 24.01.2020
24 Clouds 2 1021 55 9000 2.1 320 13:44 24.01.2020
25 Clouds 2 1021 55 9000 2.1 320 13:24 24.01.2020
26 Clouds 2 1022 55 7000 3.6 320 12:45 24.01.2020
27 Clouds 2 1022 55 7000 3.6 320 12:23 24.01.2020
28 Clouds 2 1022 55 6000 2.6 300 11:59 24.01.2020
29 Clouds 2 1022 55 6000 2.6 300 11:40 24.01.2020
30 Clouds 2 1022 55 6000 2.6 300 11:18 24.01.2020
31 Clouds 2 1022 47 7000 1 320 10:43 24.01.2020
32 Clouds 2 1022 47 7000 1 320 10:21 24.01.2020
33 Clouds 1 1023 50 6000 2.1 320 09:55 24.01.2020
34 Clouds 1 1023 50 6000 2.1 320 09:37 24.01.2020
35 Clouds 1 1023 50 6000 2.1 320 09:18 24.01.2020
36 Haze 1 1024 50 6000 3.1 310 08:40 24.01.2020
37 Haze 1 1024 50 6000 3.1 310 08:19 24.01.2020
38 Clouds -1 1025 54 6000 3.1 310 07:49 24.01.2020
39 Clouds -1 1025 54 6000 3.1 310 07:24 24.01.2020
40 Smoke -3 1025 63 5000 3.6 320 06:46 24.01.2020
41 Smoke -3 1025 63 5000 3.6 320 06:28 24.01.2020
42 Smoke -4 1024 62 5000 2.1 320 05:43 24.01.2020
43 Clouds -6 1024 67 8000 3.1 300 03:55 24.01.2020
44 Clouds -6 1024 73 8000 2.6 290 02:43 24.01.2020
45 Clouds -6 1024 73 8000 2.6 290 02:23 24.01.2020
46 Smoke -6 1025 73 5000 2.1 310 01:39 24.01.2020
47 Clouds -6 1025 73 6000 3.1 300 00:54 24.01.2020
48 Clouds -6 1025 73 6000 3.1 300 00:19 24.01.2020
49 Clouds -5 1025 67 7000 3.6 320 23:45 23.01.2020
50 Clouds -5 1025 67 7000 3.6 320 23:26 23.01.2020
51 Clouds -7 1026 73 6000 2.6 310 22:59 23.01.2020
52 Clouds -7 1026 73 6000 2.6 310 22:37 23.01.2020
53 Clouds -7 1026 73 6000 2.6 310 22:18 23.01.2020
54 Smoke -6 1026 67 2000 2.6 290 21:55 23.01.2020
55 Smoke -5 1026 67 2000 2.6 290 21:37 23.01.2020
56 Smoke -5 1026 67 2000 2.6 290 21:19 23.01.2020
57 Smoke -5 1026 73 3000 2.6 330 20:55 23.01.2020
58 Smoke -5 1026 73 3000 2.6 330 20:37 23.01.2020
59 Smoke -5 1026 73 3000 2.6 330 20:19 23.01.2020
60 Smoke -5 1026 73 3000 1.5 310 19:44 23.01.2020
61 Smoke -5 1026 73 3000 1.5 310 19:24 23.01.2020
62 Smoke -4 1026 68 2500 1.5 300 18:59 23.01.2020
63 Smoke -4 1026 68 2500 1.5 300 18:39 23.01.2020
64 Smoke -4 1026 68 2500 1.5 300 18:20 23.01.2020
65 Smoke -4 1026 68 3000 2.6 310 17:57 23.01.2020
66 Smoke -4 1026 68 3000 2.6 310 17:38 23.01.2020
67 Haze -4 1025 85 5000 2.6 190 17:18 23.01.2020
68 Smoke -3 1026 68 2500 1.5 280 16:39 23.01.2020
69 Smoke -3 1026 68 2500 1.5 280 16:20 23.01.2020
70 Haze -2 1025 73 5000 0.81 285 15:58 23.01.2020
71 Smoke -1 1024 58 3000 1.5 200 15:40 23.01.2020
72 Smoke -1 1024 58 3000 1.5 200 15:19 23.01.2020
73 Clouds 0 1024 58 6000 3.1 80 14:59 23.01.2020
74 Clouds 0 1024 58 6000 3.1 80 14:41 23.01.2020
75 Clouds 0 1024 58 6000 3.1 80 14:23 23.01.2020
76 Clouds 1 1025 47 8000 3.1 80 13:59 23.01.2020
77 Clouds 1 1025 47 8000 3.1 80 13:37 23.01.2020
78 Clouds 1 1025 47 8000 3.1 80 13:19 23.01.2020
79 Clouds 3 1025 37 8000 0.5 0 12:44 23.01.2020
80 Clouds 3 1025 37 8000 0.5 0 12:25 23.01.2020
81 Clouds 3 1025 40 10000 3.1 310 11:56 23.01.2020
82 Clouds 3 1025 40 10000 3.1 310 11:37 23.01.2020
83 Clouds 3 1025 40 10000 3.1 310 11:37 23.01.2020
84 Clear 3 1025 40 10000 3.1 310 11:18 23.01.2020
85 Clear 3 1027 40 10000 4.1 290 10:44 23.01.2020
86 Clear 3 1027 40 10000 4.1 290 10:22 23.01.2020
87 Clear 1 1028 43 10000 5.1 330 09:43 23.01.2020
88 Clear 1 1028 43 10000 5.1 330 09:25 23.01.2020
89 Clear 0 1028 65 10000 3.1 340 08:59 23.01.2020
90 Clear 0 1028 65 10000 3.1 340 08:40 23.01.2020
91 Clear 0 1028 47 10000 3.1 340 08:22 23.01.2020
92 Smoke -1 1029 47 9000 1.5 340 07:45 23.01.2020
93 Smoke -1 1029 47 9000 1.5 340 07:26 23.01.2020
94 Clear -4 1028 53 8000 3.6 310 06:52 23.01.2020
95 Clear -4 1028 53 8000 3.6 310 06:22 23.01.2020
96 Clear -6 1028 62 8000 3.1 310 05:57 23.01.2020
97 Clear -8 1027 57 7000 3.1 320 04:24 23.01.2020
98 Clear -8 1027 57 7000 3.1 320 04:24 23.01.2020
99 Clear -8 1026 67 10000 3.6 320 02:34 23.01.2020
100 Clear -8 1026 67 10000 2.6 330 01:33 23.01.2020
101 Clear -6 1027 62 10000 2.6 290 00:27 23.01.2020
102 Clear -5 1027 62 10000 2.6 340 23:48 22.01.2020
103 Clear -5 1027 62 10000 2.6 340 23:30 22.01.2020
104 Clear -6 1027 67 8000 3.1 330 22:59 22.01.2020
105 Clear -5 1027 67 8000 3.1 330 22:40 22.01.2020
106 Clear -5 1027 73 8000 3.6 340 22:22 22.01.2020
107 Clear -5 1027 73 8000 3.6 340 21:40 22.01.2020
108 Clear -5 1027 73 8000 3.6 340 21:22 22.01.2020
109 Clear -4 1028 68 7000 3.1 350 20:57 22.01.2020
110 Clear -4 1028 68 7000 3.1 350 20:38 22.01.2020
111 Clear -4 1028 68 7000 3.1 350 20:38 22.01.2020
112 Clear -4 1028 68 7000 3.1 350 20:20 22.01.2020
113 Clear -4 1028 73 7000 3.6 320 19:56 22.01.2020
114 Clear -4 1028 73 7000 3.6 320 19:38 22.01.2020
115 Clear -4 1028 73 7000 3.6 320 19:18 22.01.2020
116 Smoke -4 1028 68 5000 3.6 330 18:56 22.01.2020
117 Smoke -4 1028 68 5000 3.6 330 18:38 22.01.2020
118 Smoke -4 1028 68 5000 3.6 330 18:19 22.01.2020
119 Smoke -4 1028 68 5000 3.6 330 18:19 22.01.2020
120 Smoke -2 1028 68 5000 3.6 320 17:54 22.01.2020
121 Smoke -2 1028 68 5000 3.6 320 17:36 22.01.2020
122 Smoke -2 1028 68 5000 3.6 320 17:18 22.01.2020
123 Smoke -2 1027 68 5000 3.1 330 16:42 22.01.2020
124 Smoke -2 1027 68 5000 3.1 330 16:22 22.01.2020
125 Smoke -1 1027 68 5000 3.1 340 15:58 22.01.2020
126 Smoke -1 1027 68 5000 3.1 340 15:38 22.01.2020
127 Smoke -1 1027 68 5000 3.1 340 15:20 22.01.2020
128 Clear 0 1026 58 8000 3.6 240 14:40 22.01.2020
129 Clear 0 1026 73 8000 3.6 240 14:21 22.01.2020
130 Clear 2 1026 47 10000 3.6 240 13:59 22.01.2020
131 Clear 2 1026 47 10000 3.6 240 13:38 22.01.2020
132 Clear 2 1026 47 10000 3.6 240 13:20 22.01.2020
133 Clouds 3 1026 47 10000 2.6 230 12:58 22.01.2020
134 Clouds 3 1026 47 10000 2.6 230 12:40 22.01.2020
135 Clouds 3 1026 47 10000 2.6 230 12:20 22.01.2020
136 Haze 4 1025 64 4000 2.1 200 11:58 22.01.2020
137 Clouds 4 1026 44 8000 3.1 270 11:40 22.01.2020
138 Clouds 4 1026 44 8000 3.1 270 11:19 22.01.2020
139 Clouds 4 1026 44 8000 3.1 270 11:19 22.01.2020
140 Clouds 3 1027 51 10000 3.6 190 10:59 22.01.2020
141 Clouds 3 1027 51 10000 3.6 190 10:41 22.01.2020
142 Clouds 3 1027 51 10000 3.6 190 10:18 22.01.2020
143 Clouds 3 1027 51 7000 3.1 270 09:42 22.01.2020
144 Clouds 3 1027 51 7000 3.1 270 09:42 22.01.2020
145 Clouds 3 1027 51 7000 3.1 270 09:24 22.01.2020
146 Clouds 1 1028 55 7000 1.5 250 08:57 22.01.2020
147 Clouds 1 1028 55 7000 1.5 250 08:38 22.01.2020
148 Clouds 1 1028 55 7000 1.5 250 08:20 22.01.2020
149 Mist 0 1028 69 5000 4.1 330 07:46 22.01.2020
150 Mist 0 1028 69 5000 4.1 330 07:27 22.01.2020
151 Mist -2 1027 73 3000 3.1 310 06:38 22.01.2020
152 Mist -2 1027 73 3000 3.1 310 06:20 22.01.2020
153 Mist -5 1027 92 5000 2.6 300 05:19 22.01.2020
154 Mist -4 1025 92 5000 1 320 03:29 22.01.2020
155 Snow -4 1024 86 2000 1.5 210 02:50 22.01.2020
156 Mist -4 1025 92 3500 1.5 330 01:42 22.01.2020
157 Mist -4 1025 100 2000 1 180 00:43 22.01.2020
158 Mist -3 1024 92 2000 2.1 220 00:25 22.01.2020
159 Smoke -3 1025 92 1000 1.79 258 23:38 21.01.2020
160 Smoke -4 1025 92 100 2.22 248 23:20 21.01.2020
161 Smoke -6 1025 92 50 0.5 0 22:55 21.01.2020
162 Smoke -6 1025 92 50 0.5 0 22:36 21.01.2020
163 Smoke -4 1025 92 50 0.5 0 22:18 21.01.2020
164 Smoke -5 1025 92 50 1 0 21:55 21.01.2020
165 Smoke -5 1025 92 50 1 0 21:36 21.01.2020
166 Smoke -4 1025 92 50 1 0 21:18 21.01.2020
167 Smoke -3 1025 92 50 0.5 0 20:39 21.01.2020
168 Smoke -3 1025 92 50 0.5 0 20:20 21.01.2020
169 Fog -2 1025 92 50 1.5 110 19:59 21.01.2020
170 Fog -2 1025 92 50 1.5 110 19:40 21.01.2020
171 Fog -2 1025 92 50 1.5 110 19:21 21.01.2020
172 Snow -2 1024 92 50 2.17 242 18:57 21.01.2020
173 Snow -2 1024 92 50 2.17 242 18:57 21.01.2020
174 Snow -2 1024 92 50 2.17 242 18:39 21.01.2020
175 Snow -2 1024 92 50 2.17 242 18:21 21.01.2020
176 Fog -2 1024 100 50 1 140 17:58 21.01.2020
177 Fog -2 1024 100 50 1 140 17:40 21.01.2020
178 Fog -2 1024 100 50 1 140 17:18 21.01.2020
179 Fog -2 1024 100 50 1 140 17:18 21.01.2020
180 Fog -2 1023 100 50 1.5 130 16:38 21.01.2020
181 Fog -2 1023 100 50 1.5 130 16:20 21.01.2020
182 Fog -3 1023 100 200 1.5 130 15:59 21.01.2020
183 Fog -2 1023 100 200 1.5 130 15:39 21.01.2020
184 Mist -1 1022 80 6000 1.5 340 15:19 21.01.2020
185 Mist 0 1021 93 7000 5.1 350 14:40 21.01.2020
186 Mist 0 1021 95 7000 5.1 350 14:22 21.01.2020
187 Mist 1 1021 74 8000 3.1 350 13:55 21.01.2020
188 Mist 1 1021 74 8000 3.1 350 13:37 21.01.2020
189 Mist 1 1021 74 8000 3.1 350 13:18 21.01.2020
190 Clouds 5 1020 44 10000 2.1 190 12:42 21.01.2020
191 Clouds 4 1020 44 10000 2.1 190 12:24 21.01.2020
192 Clouds 3 1020 55 10000 2.1 190 11:56 21.01.2020
193 Clouds 2 1020 55 10000 2.1 190 11:38 21.01.2020
194 Clouds 2 1020 55 10000 2.1 190 11:19 21.01.2020
195 Clouds 3 1020 55 10000 2.6 150 10:43 21.01.2020
196 Clouds 3 1020 55 10000 2.6 150 10:23 21.01.2020
197 Clouds 2 1021 59 10000 2.6 190 09:56 21.01.2020
198 Clouds 2 1021 59 10000 2.6 190 09:38 21.01.2020
199 Clouds 2 1021 59 10000 2.6 190 09:19 21.01.2020
200 Mist 2 1022 59 6000 1 110 08:41 21.01.2020
201 Mist 2 1022 59 6000 1 110 08:22 21.01.2020
202 Mist 1 1021 74 3200 2.1 130 07:43 21.01.2020
203 Snow 1 1021 86 1200 1.53 154 07:43 21.01.2020
204 Mist 1 1021 74 3200 2.1 130 07:24 21.01.2020
205 Rain -1 1021 80 3200 0.5 0 06:57 21.01.2020
206 Rain -1 1021 80 3200 0.5 0 06:38 21.01.2020
207 Snow -2 1020 92 3200 1.5 200 05:53 21.01.2020
208 Snow -1 1020 100 1000 1.53 154 05:32 21.01.2020
209 Rain -2 1020 86 4000 2.1 330 04:37 21.01.2020
210 Rain -2 1019 92 2800 2.6 320 02:27 21.01.2020
211 Rain -2 1019 92 2800 2.6 320 01:36 21.01.2020
212 Rain -1 1018 100 600 0.56 288 00:41 21.01.2020
213 Rain -1 1018 100 600 0.56 288 00:22 21.01.2020
214 Snow -7 1024 95 0 0.56 288 23:41 20.01.2020
215 Rain -1 1018 100 600 0.42 14 23:19 20.01.2020
216 Rain -1 1018 100 600 0.42 14 22:59 20.01.2020
217 Snow -1 1019 100 600 0.42 14 22:39 20.01.2020
218 Snow -1 1019 100 600 0.42 14 22:21 20.01.2020
219 Snow -2 1020 92 900 1 230 21:58 20.01.2020
220 Snow -2 1020 92 900 1 230 21:38 20.01.2020
221 Snow -2 1020 92 900 1 230 21:20 20.01.2020
222 Snow -2 1019 100 600 0.42 14 20:58 20.01.2020
223 Rain -2 1020 92 900 0.5 250 20:39 20.01.2020
224 Rain -2 1020 92 900 0.5 250 20:19 20.01.2020
225 Rain -2 1020 92 900 0.5 250 20:19 20.01.2020
226 Rain -1 1020 92 1000 1.12 37 19:57 20.01.2020
227 Rain -1 1020 92 1000 1.12 37 19:38 20.01.2020
228 Rain -1 1020 92 1000 1.12 37 19:19 20.01.2020
229 Rain -1 1021 92 1200 0.5 0 18:45 20.01.2020
230 Rain -1 1021 92 1200 0.5 0 18:24 20.01.2020
231 Snow -1 1020 96 1000 1.12 37 17:59 20.01.2020
232 Snow -1 1021 92 1800 1.12 37 17:37 20.01.2020
233 Snow -1 1021 92 1800 1.69 13 17:18 20.01.2020
234 Snow -1 1021 92 2500 1 90 16:44 20.01.2020
235 Snow -1 1021 92 2500 1 90 16:25 20.01.2020
236 Snow 0 1021 80 3000 1.5 0 15:58 20.01.2020
237 Snow 0 1021 80 3000 1.5 0 15:39 20.01.2020
238 Smoke 0 1020 94 3000 1 0 15:21 20.01.2020
239 Smoke 0 1020 74 4000 1.5 300 14:44 20.01.2020
240 Smoke 0 1020 74 4000 1.5 300 14:25 20.01.2020
241 Smoke 1 1020 89 6000 2.1 300 13:59 20.01.2020
242 Smoke 1 1020 89 6000 2.1 300 13:40 20.01.2020
243 Smoke 1 1020 91 6000 2.1 300 13:22 20.01.2020
244 Smoke 1 1020 55 8000 2.1 280 12:48 20.01.2020
245 Smoke 1 1020 55 8000 2.1 280 12:29 20.01.2020
246 Smoke 1 1020 55 8000 2.1 280 12:29 20.01.2020
247 Smoke 2 1020 59 8000 2.1 310 11:59 20.01.2020
248 Smoke 1 1020 59 8000 2.1 310 11:40 20.01.2020
249 Smoke 1 1020 59 8000 2.1 310 11:22 20.01.2020
250 Smoke 1 1021 55 8000 3.6 320 10:57 20.01.2020
251 Smoke 1 1021 55 8000 3.6 320 10:39 20.01.2020
252 Smoke 1 1021 55 8000 3.6 320 10:19 20.01.2020
253 Smoke 1 1021 55 8000 3.6 320 10:19 20.01.2020
254 Smoke 2 1021 47 8000 2.1 290 09:40 20.01.2020
255 Smoke 2 1021 47 8000 2.1 290 09:21 20.01.2020
256 Smoke 2 1022 47 8000 1 0 08:49 20.01.2020
257 Smoke 2 1022 47 8000 1 0 08:30 20.01.2020
258 Smoke 0 1023 86 8000 2.6 320 07:53 20.01.2020
259 Smoke 0 1023 86 8000 2.6 320 07:30 20.01.2020
260 Haze -1 1022 86 2400 1.36 133 06:59 20.01.2020
261 Clouds -2 1023 63 3000 1.5 0 06:28 20.01.2020
262 Clouds -4 1022 68 7000 3.6 330 05:44 20.01.2020
263 Clouds -4 1022 68 7000 3.6 330 05:23 20.01.2020
264 Clouds -4 1022 73 8000 1.5 300 04:49 20.01.2020
265 Clouds -4 1022 73 10000 3.1 320 02:59 20.01.2020
266 Clouds -4 1022 73 10000 3.1 320 02:59 20.01.2020
267 Clouds -4 1022 62 8000 3.1 320 01:57 20.01.2020
268 Clouds -4 1022 62 8000 3.1 320 01:37 20.01.2020
269 Smoke -4 1023 67 5000 2.6 310 00:45 20.01.2020
270 Smoke -4 1023 67 5000 2.6 310 00:25 20.01.2020
271 Clouds -4 1023 62 7000 2.6 330 23:40 19.01.2020
272 Clouds -4 1023 62 7000 2.6 330 23:20 19.01.2020
273 Clouds -4 1024 62 5000 3.1 320 22:57 19.01.2020
274 Clouds -4 1024 62 5000 3.1 320 22:39 19.01.2020
275 Clouds -4 1024 62 5000 3.1 320 22:21 19.01.2020
276 Clouds -4 1024 62 7000 2.6 320 21:57 19.01.2020
277 Clouds -4 1024 62 7000 2.6 320 21:39 19.01.2020
278 Clouds -4 1024 62 7000 2.6 320 21:20 19.01.2020
279 Haze -4 1023 79 3200 1.17 333 20:57 19.01.2020
280 Haze -4 1023 79 3200 1.17 333 20:57 19.01.2020
281 Clouds -4 1024 58 6000 3.1 310 20:39 19.01.2020
282 Clouds -4 1024 58 6000 3.1 310 20:21 19.01.2020
283 Smoke -3 1024 58 5000 3.6 310 19:57 19.01.2020
284 Smoke -3 1024 58 5000 3.6 310 19:39 19.01.2020
285 Smoke -3 1024 58 5000 3.6 310 19:21 19.01.2020
286 Smoke -3 1025 58 5000 2.6 320 18:59 19.01.2020
287 Smoke -3 1025 58 5000 2.6 320 18:41 19.01.2020
288 Smoke -3 1025 58 5000 2.6 320 18:41 19.01.2020
289 Smoke -3 1025 58 5000 2.6 320 18:21 19.01.2020
290 Smoke -3 1025 53 4000 3.6 320 17:58 19.01.2020
291 Smoke -3 1025 53 4000 3.6 320 17:40 19.01.2020
292 Smoke -3 1025 53 4000 3.6 320 17:40 19.01.2020
293 Smoke -3 1025 53 4000 3.6 320 17:21 19.01.2020
294 Smoke -4 1024 58 3000 3.1 320 16:59 19.01.2020
295 Smoke -4 1024 58 3000 3.1 320 16:40 19.01.2020
296 Smoke -4 1024 58 3000 3.1 320 16:21 19.01.2020
297 Smoke -2 1024 53 4000 1.5 340 15:59 19.01.2020
298 Smoke -2 1024 53 4000 1.5 340 15:39 19.01.2020
299 Smoke -2 1024 53 4000 1.5 340 15:20 19.01.2020
300 Smoke -2 1024 50 5000 3.1 320 14:58 19.01.2020
301 Smoke -2 1024 50 5000 3.1 320 14:39 19.01.2020
302 Smoke -2 1024 50 5000 3.1 320 14:18 19.01.2020
303 Smoke 0 1023 71 4000 1.5 240 13:58 19.01.2020
304 Smoke 0 1023 71 4000 1.5 240 13:38 19.01.2020
305 Smoke 0 1023 69 4000 1.5 240 13:20 19.01.2020
306 Smoke 0 1023 69 5000 1.5 200 12:55 19.01.2020
307 Smoke 0 1023 69 5000 1.5 200 12:37 19.01.2020
308 Smoke 0 1023 69 5000 1.5 200 12:37 19.01.2020
309 Smoke 0 1023 69 5000 1.5 200 12:19 19.01.2020
310 Smoke 0 1023 69 7000 1.5 0 11:42 19.01.2020
311 Smoke 0 1023 57 7000 1.5 0 11:21 19.01.2020
312 Smoke -1 1023 42 8000 3.1 330 10:57 19.01.2020
313 Smoke -1 1023 42 8000 3.1 330 10:39 19.01.2020
314 Smoke -1 1023 42 8000 3.1 330 10:19 19.01.2020
315 Smoke -1 1024 39 8000 3.6 300 09:56 19.01.2020
316 Smoke -1 1024 39 8000 3.6 300 09:56 19.01.2020
317 Smoke -1 1024 39 8000 3.6 300 09:56 19.01.2020
318 Smoke -1 1024 39 8000 3.6 300 09:56 19.01.2020
319 Smoke -1 1024 39 8000 3.6 300 09:56 19.01.2020
320 Smoke -1 1024 39 8000 3.6 300 09:37 19.01.2020
321 Smoke -1 1024 39 8000 3.6 300 09:19 19.01.2020
322 Smoke -1 1025 39 8000 1.5 330 08:52 19.01.2020
323 Smoke -1 1025 39 8000 1.5 330 08:30 19.01.2020
324 Smoke -1 1026 45 8000 4.1 300 07:45 19.01.2020
325 Smoke -1 1026 45 8000 4.1 300 07:26 19.01.2020
326 Smoke -6 1026 53 8000 4.1 320 06:54 19.01.2020
327 Smoke -6 1026 53 8000 4.1 320 06:21 19.01.2020
328 Clouds -11 1024 66 10000 4.1 320 03:28 19.01.2020
329 Clouds -9 1024 61 10000 3.6 320 02:26 19.01.2020
330 Clouds -10 1024 61 10000 4.1 310 01:29 19.01.2020
331 Clouds -9 1024 61 8000 4.6 320 00:54 19.01.2020
332 Clouds -8 1024 61 8000 4.6 320 00:31 19.01.2020
333 Clouds -10 1025 72 7000 4.1 310 23:59 18.01.2020
334 Clouds -10 1025 72 7000 4.1 310 23:41 18.01.2020
335 Clouds -10 1025 72 7000 4.1 310 23:23 18.01.2020
336 Clouds -10 1025 72 7000 4.1 310 23:23 18.01.2020
337 Clear -7 1025 57 7000 3.1 330 22:55 18.01.2020
338 Clear -7 1025 57 7000 3.1 330 22:37 18.01.2020
339 Clear -7 1025 57 7000 3.1 330 22:19 18.01.2020
340 Clear -8 1025 57 7000 3.6 330 21:57 18.01.2020
341 Clear -8 1025 57 7000 3.6 330 21:38 18.01.2020
342 Clear -8 1025 57 7000 3.6 330 21:20 18.01.2020
343 Smoke -8 1025 66 5000 3.6 310 20:43 18.01.2020
344 Smoke -8 1025 66 5000 3.6 310 20:21 18.01.2020
345 Smoke -8 1025 62 4000 4.1 320 19:58 18.01.2020
346 Smoke -8 1025 62 4000 4.1 320 19:40 18.01.2020
347 Smoke -8 1025 62 4000 4.1 320 19:22 18.01.2020
348 Smoke -6 1025 53 5000 3.6 320 18:42 18.01.2020
349 Smoke -6 1025 53 5000 3.6 320 18:22 18.01.2020
350 Smoke -4 1025 49 5000 4.1 340 17:55 18.01.2020
351 Smoke -4 1025 49 5000 4.1 340 17:37 18.01.2020
352 Smoke -5 1025 49 5000 4.1 340 17:19 18.01.2020
353 Smoke -5 1025 53 5000 4.1 320 16:55 18.01.2020
354 Smoke -5 1025 53 5000 4.1 320 16:36 18.01.2020
355 Smoke -5 1025 53 5000 4.1 320 16:18 18.01.2020
356 Smoke -3 1024 45 5000 3.1 320 15:41 18.01.2020
357 Smoke -3 1024 45 5000 3.1 320 15:23 18.01.2020
358 Clear -2 1023 46 8000 3.1 320 14:55 18.01.2020
359 Clear -2 1023 46 8000 3.1 320 14:37 18.01.2020
360 Clear -2 1023 46 8000 3.1 320 14:18 18.01.2020
361 Clear 1 1023 37 9000 2.6 290 13:43 18.01.2020
362 Clear 1 1023 37 9000 2.6 290 13:24 18.01.2020
363 Clear 3 1023 34 10000 2.1 300 12:56 18.01.2020
364 Clear 3 1023 34 10000 2.1 300 12:38 18.01.2020
365 Clear 3 1023 34 10000 2.1 300 12:19 18.01.2020
366 Clear 2 1023 29 10000 2.6 290 11:44 18.01.2020
367 Clear 2 1023 29 10000 2.6 290 11:21 18.01.2020
368 Clear 2 1024 37 9000 2.1 310 10:56 18.01.2020
369 Clear 2 1024 37 9000 2.1 310 10:38 18.01.2020
370 Clear 2 1024 37 9000 2.1 310 10:18 18.01.2020
371 Clear 2 1024 37 9000 2.1 310 10:18 18.01.2020
372 Clear 0 1024 60 10000 2.6 330 09:42 18.01.2020
373 Clear 0 1024 60 10000 2.6 330 09:24 18.01.2020
374 Haze 0 1025 60 8000 3.1 320 08:55 18.01.2020
375 Haze 0 1025 60 8000 3.1 320 08:37 18.01.2020
376 Haze 0 1025 51 8000 3.1 320 08:18 18.01.2020
377 Haze -3 1026 42 8000 2.6 330 07:43 18.01.2020
378 Haze -3 1026 42 8000 2.6 330 07:25 18.01.2020
379 Haze -5 1025 49 7000 3.6 300 06:46 18.01.2020
380 Haze -9 1024 57 8000 3.6 320 05:55 18.01.2020
381 Clear -11 1024 61 9000 4.1 310 04:29 18.01.2020
382 Clear -11 1022 61 8000 3.6 310 02:50 18.01.2020
383 Clear -8 1022 57 8000 3.6 320 01:51 18.01.2020
384 Clear -8 1022 57 8000 3.6 320 00:40 18.01.2020
385 Clear -8 1022 57 8000 3.6 320 00:21 18.01.2020
386 Clear -7 1022 53 8000 3.1 320 23:59 17.01.2020
387 Clear -7 1022 53 8000 3.1 320 23:40 17.01.2020
388 Clear -7 1022 53 8000 3.1 320 23:19 17.01.2020
389 Clear -8 1022 53 7000 3.1 320 22:43 17.01.2020
390 Clear -8 1022 53 7000 3.1 320 22:21 17.01.2020
391 Clear -7 1022 57 7000 2.6 310 21:57 17.01.2020
392 Clear -7 1022 57 7000 2.6 310 21:39 17.01.2020
393 Clear -7 1022 57 7000 2.6 310 21:20 17.01.2020
394 Haze -7 1021 79 4400 1.29 267 20:55 17.01.2020
395 Haze -7 1021 79 4400 1.29 267 20:36 17.01.2020
396 Haze -6 1021 79 4400 1.64 253 20:18 17.01.2020
397 Haze -6 1021 79 4400 1.64 253 20:18 17.01.2020
398 Clouds -6 1022 49 7000 3.6 310 19:54 17.01.2020
399 Clouds -6 1022 49 7000 3.6 310 19:54 17.01.2020
400 Clouds -6 1022 49 7000 3.6 310 19:36 17.01.2020
401 Clouds -6 1022 49 7000 3.6 310 19:18 17.01.2020
402 Clouds -4 1022 49 6000 3.1 340 18:44 17.01.2020
403 Clouds -4 1022 49 6000 3.1 340 18:26 17.01.2020
404 Clouds -5 1022 53 7000 4.1 340 17:56 17.01.2020
405 Clouds -5 1022 53 7000 4.1 340 17:38 17.01.2020
406 Clouds -5 1022 53 7000 4.1 340 17:19 17.01.2020
407 Clouds -4 1021 45 5000 3.1 340 16:41 17.01.2020
408 Clouds -4 1021 45 5000 3.1 340 16:20 17.01.2020
409 Clouds -3 1021 46 6000 3.6 340 15:48 17.01.2020
410 Clouds -3 1021 46 6000 3.6 340 15:27 17.01.2020
411 Clouds -1 1021 51 9000 1.5 270 14:56 17.01.2020
412 Clouds -1 1021 51 9000 1.5 270 14:38 17.01.2020
413 Clouds -1 1021 64 9000 1.5 270 14:19 17.01.2020
414 Clouds 2 1020 31 9000 2.6 0 13:39 17.01.2020
415 Clouds 2 1020 31 9000 2.6 0 13:20 17.01.2020
416 Clouds 3 1020 32 10000 2.6 280 12:45 17.01.2020
417 Clouds 3 1020 32 10000 2.6 280 12:22 17.01.2020
418 Clouds 3 1021 29 10000 2.1 200 11:41 17.01.2020
419 Clouds 3 1021 29 10000 2.1 200 11:19 17.01.2020
420 Clouds 2 1021 34 10000 1.5 210 10:45 17.01.2020
421 Clouds 2 1021 34 10000 1.5 210 10:24 17.01.2020
422 Haze 2 1022 34 9000 1 0 09:59 17.01.2020
423 Haze 2 1022 34 9000 1 0 09:41 17.01.2020
424 Haze 2 1022 34 9000 1 0 09:20 17.01.2020
425 Haze -1 1023 60 9000 1.5 330 08:55 17.01.2020
426 Haze -1 1023 60 9000 1.5 330 08:36 17.01.2020
427 Haze -1 1023 51 9000 1.5 330 08:18 17.01.2020
428 Haze -3 1024 42 8000 2.6 310 07:42 17.01.2020
429 Haze -3 1024 42 8000 2.6 310 07:24 17.01.2020
430 Haze -5 1023 49 6000 4.6 310 06:43 17.01.2020
431 Haze -5 1023 49 6000 4.6 310 06:20 17.01.2020
432 Clouds -10 1022 66 10000 2.1 310 04:25 17.01.2020
433 Clouds -10 1022 61 10000 4.1 300 02:55 17.01.2020
434 Clouds -9 1021 66 10000 3.6 320 02:30 17.01.2020
435 Clouds -10 1021 66 8000 3.6 320 01:32 17.01.2020
436 Clouds -10 1021 66 8000 3.6 320 00:58 17.01.2020
437 Clouds -11 1022 72 8000 2.1 290 00:29 17.01.2020
438 Clouds -11 1022 72 8000 2.1 290 23:54 16.01.2020
439 Clouds -11 1022 72 8000 2.1 290 23:54 16.01.2020
440 Clouds -9 1022 67 7000 2.6 310 23:36 16.01.2020
441 Clouds -9 1022 67 7000 2.6 310 23:18 16.01.2020
442 Clouds -8 1022 66 8000 4.6 320 22:40 16.01.2020
443 Clouds -8 1022 66 8000 4.6 320 22:21 16.01.2020
444 Clouds -8 1022 66 8000 4.6 320 21:56 16.01.2020
445 Clouds -8 1022 66 8000 4.6 320 21:37 16.01.2020
446 Clouds -7 1022 67 7000 3.6 330 21:18 16.01.2020
447 Clouds -6 1022 57 7000 4.1 320 20:56 16.01.2020
448 Clouds -6 1022 57 7000 4.1 320 20:37 16.01.2020
449 Clouds -6 1022 57 7000 4.1 320 20:18 16.01.2020
450 Clouds -6 1022 58 6000 3.6 320 19:54 16.01.2020
451 Clouds -6 1022 58 6000 3.6 320 19:36 16.01.2020
452 Clouds -6 1022 58 6000 3.6 320 19:18 16.01.2020
453 Smoke -5 1022 58 5000 3.6 320 18:54 16.01.2020
454 Smoke -5 1022 58 5000 3.6 320 18:36 16.01.2020
455 Smoke -5 1022 58 5000 3.6 320 18:18 16.01.2020
456 Smoke -4 1022 53 6000 4.1 310 17:41 16.01.2020
457 Smoke -4 1022 53 6000 4.1 310 17:21 16.01.2020
458 Smoke -4 1022 58 4000 3.6 330 16:56 16.01.2020
459 Smoke -3 1022 58 4000 3.6 330 16:37 16.01.2020
460 Smoke -3 1022 58 4000 3.6 330 16:18 16.01.2020
461 Smoke -3 1022 50 5000 3.6 320 15:44 16.01.2020
462 Smoke -3 1022 50 5000 3.6 320 15:21 16.01.2020
463 Clouds -2 1022 46 10000 3.6 310 14:55 16.01.2020
464 Clouds -2 1022 46 10000 3.6 310 14:37 16.01.2020
465 Clouds -2 1022 46 10000 3.6 310 14:18 16.01.2020
466 Clouds 1 1022 37 10000 1 0 13:43 16.01.2020
467 Clouds 1 1022 37 10000 1 0 13:24 16.01.2020
468 Clouds 2 1022 40 10000 3.1 340 12:46 16.01.2020
469 Clouds 2 1022 40 10000 3.1 340 12:28 16.01.2020
470 Clouds 2 1022 43 10000 4.1 320 11:57 16.01.2020
471 Clouds 2 1022 43 10000 4.1 320 11:39 16.01.2020
472 Clear 2 1022 43 10000 4.1 320 11:21 16.01.2020
473 Clear 2 1023 37 10000 1.5 0 10:39 16.01.2020
474 Clear 2 1023 37 10000 1.5 0 10:21 16.01.2020
475 Haze 1 1024 40 8000 1 0 09:58 16.01.2020
476 Haze 1 1024 40 8000 1 0 09:39 16.01.2020
477 Haze 0 1024 40 8000 1 0 09:21 16.01.2020
478 Clear -1 1025 46 10000 3.1 330 08:52 16.01.2020
479 Clear -1 1025 46 10000 3.1 330 08:34 16.01.2020
480 Clear -4 1025 49 10000 3.6 320 07:59 16.01.2020
481 Clear -4 1025 49 10000 3.6 320 07:39 16.01.2020
482 Clear -4 1025 49 10000 3.6 320 07:20 16.01.2020
483 Clear -6 1025 57 7000 4.6 310 06:43 16.01.2020
484 Clear -6 1025 57 7000 4.6 310 06:21 16.01.2020
485 Smoke -9 1025 57 7000 3.6 290 05:45 16.01.2020
486 Clear -11 1024 66 10000 4.6 310 04:38 16.01.2020
487 Clear -10 1024 78 10000 4.1 310 03:28 16.01.2020
488 Clear -10 1023 78 10000 3.6 300 02:43 16.01.2020
489 Clear -11 1023 72 8000 4.1 320 00:54 16.01.2020
490 Clear -9 1023 72 8000 4.1 320 00:24 16.01.2020
491 Clear -8 1023 73 8000 3.6 330 23:50 15.01.2020
492 Clear -8 1023 73 8000 3.6 330 23:23 15.01.2020
493 Clear -8 1023 73 8000 3.6 320 22:59 15.01.2020
494 Clear -8 1023 73 8000 3.6 320 22:41 15.01.2020
495 Clear -8 1023 73 8000 3.6 320 22:19 15.01.2020
496 Clear -8 1023 67 6000 3.6 320 21:58 15.01.2020
497 Clear -8 1023 67 6000 3.6 320 21:40 15.01.2020
498 Clear -8 1023 67 6000 3.6 320 21:21 15.01.2020
499 Smoke -6 1023 73 5000 2.6 330 20:58 15.01.2020
500 Smoke -6 1023 73 5000 2.6 330 20:58 15.01.2020
501 Smoke -6 1023 73 5000 2.6 330 20:40 15.01.2020
502 Smoke -6 1023 73 5000 2.6 330 20:21 15.01.2020
503 Smoke -5 1023 67 5000 3.1 340 19:55 15.01.2020
504 Smoke -5 1023 67 5000 3.1 340 19:55 15.01.2020
505 Smoke -5 1023 67 5000 3.1 340 19:55 15.01.2020
506 Smoke -5 1023 67 5000 3.1 340 19:37 15.01.2020
507 Smoke -5 1023 67 5000 3.1 340 19:19 15.01.2020
508 Smoke -6 1024 67 5000 3.6 330 18:57 15.01.2020
509 Smoke -6 1024 67 5000 3.6 330 18:38 15.01.2020
510 Smoke -6 1024 67 5000 3.6 330 18:20 15.01.2020
511 Smoke -6 1024 67 5000 3.6 330 18:20 15.01.2020
512 Smoke -5 1024 67 4000 3.6 320 17:58 15.01.2020
513 Smoke -5 1024 67 4000 3.6 320 17:40 15.01.2020
514 Smoke -5 1024 67 4000 3.6 320 17:21 15.01.2020
515 Smoke -5 1023 62 4000 3.1 340 16:43 15.01.2020
516 Smoke -5 1023 62 4000 3.1 340 16:24 15.01.2020
517 Haze -5 1022 85 3200 1.5 200 15:59 15.01.2020
518 Clear -4 1023 68 6000 4.1 320 15:41 15.01.2020
519 Clear -4 1023 68 6000 4.1 320 15:20 15.01.2020
520 Clear -2 1022 58 7000 2.6 330 14:45 15.01.2020
521 Clear -2 1022 58 7000 2.6 330 14:21 15.01.2020
522 Clear -1 1022 54 8000 2.1 300 13:58 15.01.2020
523 Clear 0 1022 54 8000 2.1 300 13:40 15.01.2020
524 Clear 0 1022 54 8000 2.1 300 13:40 15.01.2020
525 Clear 0 1022 54 8000 2.1 300 13:22 15.01.2020
526 Clear 2 1022 43 10000 2.6 320 12:55 15.01.2020
527 Clear 2 1022 43 10000 2.6 320 12:55 15.01.2020
528 Clear 2 1022 43 10000 2.6 320 12:36 15.01.2020
529 Clear 2 1022 43 10000 2.6 320 12:18 15.01.2020
530 Clear 3 1022 35 10000 1.5 0 11:38 15.01.2020
531 Clear 3 1022 35 10000 1.5 0 11:20 15.01.2020
532 Clear 2 1022 38 8000 1 0 10:48 15.01.2020
533 Clear 2 1022 38 8000 1 0 10:29 15.01.2020
534 Clear 1 1023 43 8000 1 0 09:59 15.01.2020
535 Clear 1 1023 43 8000 1 0 09:41 15.01.2020
536 Clear 1 1023 43 8000 1 0 09:21 15.01.2020
537 Clear -1 1024 65 10000 3.1 330 08:44 15.01.2020
538 Clear -1 1024 63 10000 3.1 330 08:24 15.01.2020
539 Clouds -3 1024 58 8000 3.6 330 07:54 15.01.2020
540 Clouds -3 1024 58 8000 3.6 330 07:33 15.01.2020
541 Clouds -6 1023 58 6000 3.6 320 06:52 15.01.2020
542 Clouds -6 1023 58 6000 3.6 320 06:28 15.01.2020
543 Mist -10 1022 92 2600 1.11 252 04:57 15.01.2020
544 Clouds -9 1021 78 8000 2.6 320 03:20 15.01.2020
545 Clouds -10 1021 85 7000 2.1 300 01:48 15.01.2020
546 Mist -9 1020 92 5000 0.89 248 01:21 15.01.2020
547 Mist -9 1021 78 5000 3.6 320 00:37 15.01.2020
548 Mist -9 1021 78 5000 3.6 320 00:19 15.01.2020
549 Mist -8 1021 78 4000 3.1 320 23:46 14.01.2020
550 Mist -8 1021 78 4000 3.1 320 23:24 14.01.2020
551 Mist -8 1021 79 3500 2.6 330 22:57 14.01.2020
552 Mist -8 1021 79 3500 2.6 330 22:39 14.01.2020
553 Mist -8 1021 79 3500 2.6 330 22:18 14.01.2020
554 Mist -7 1021 79 3500 2.1 320 21:56 14.01.2020
555 Mist -7 1021 79 3500 2.1 320 21:37 14.01.2020
556 Mist -8 1021 79 3500 2.1 320 21:19 14.01.2020
557 Mist -6 1021 73 3500 3.1 330 20:42 14.01.2020
558 Mist -7 1021 73 3500 3.1 330 20:22 14.01.2020
559 Mist -7 1021 79 3000 2.6 330 19:57 14.01.2020
560 Mist -7 1021 79 3000 2.6 330 19:57 14.01.2020
561 Mist -7 1021 79 3000 2.6 330 19:38 14.01.2020
562 Mist -6 1020 85 5000 2.1 190 19:20 14.01.2020
563 Mist -4 1021 73 3500 2.6 330 18:59 14.01.2020
564 Mist -5 1021 73 3500 2.6 330 18:40 14.01.2020
565 Mist -4 1021 73 3500 2.6 330 18:19 14.01.2020
566 Mist -4 1021 73 3000 2.6 330 17:39 14.01.2020
567 Mist -4 1021 73 3000 2.6 330 17:20 14.01.2020
568 Mist -3 1021 73 3000 1.5 340 16:59 14.01.2020
569 Mist -3 1021 73 3000 1.5 340 16:41 14.01.2020
570 Mist -3 1021 73 3000 1.5 340 16:21 14.01.2020
571 Mist 0 1021 80 3000 1.5 60 15:55 14.01.2020
572 Mist 0 1021 80 3000 1.5 60 15:37 14.01.2020
573 Mist 0 1021 80 3000 1.5 60 15:18 14.01.2020
574 Smoke 0 1020 74 4000 1.5 140 14:43 14.01.2020
575 Smoke 0 1020 74 4000 1.5 140 14:20 14.01.2020
576 Smoke 1 1020 81 7000 2.6 10 13:43 14.01.2020
577 Smoke 1 1020 82 7000 2.6 10 13:20 14.01.2020
578 Smoke 1 1020 59 7000 2.1 330 12:59 14.01.2020
579 Smoke 1 1020 59 7000 2.1 330 12:40 14.01.2020
580 Smoke 1 1020 59 7000 2.1 330 12:20 14.01.2020
581 Smoke 1 1020 59 7000 2.1 330 12:20 14.01.2020
582 Smoke 1 1020 59 7000 2.1 330 12:20 14.01.2020
583 Smoke 1 1020 59 7000 2.1 330 12:20 14.01.2020
584 Smoke 2 1020 55 7000 2.6 340 11:43 14.01.2020
585 Smoke 2 1020 55 7000 2.6 340 11:23 14.01.2020
586 Smoke 1 1020 55 6000 3.1 310 10:59 14.01.2020
587 Smoke 1 1020 55 6000 3.1 310 10:39 14.01.2020
588 Smoke 1 1020 55 6000 3.1 310 10:20 14.01.2020
589 Smoke 2 1021 55 4000 1.5 350 09:57 14.01.2020
590 Smoke 2 1021 55 4000 1.5 350 09:39 14.01.2020
591 Smoke 2 1021 55 4000 1.5 350 09:20 14.01.2020
592 Smoke 1 1021 51 3000 1 0 08:46 14.01.2020
593 Smoke 2 1021 51 3000 1 0 08:24 14.01.2020
594 Smoke 0 1021 63 2000 1.5 140 07:53 14.01.2020
595 Smoke -1 1021 63 2000 1.5 140 07:31 14.01.2020
596 Smoke -1 1021 63 3000 2.1 90 06:51 14.01.2020
597 Smoke -1 1021 63 3000 2.1 90 06:27 14.01.2020
598 Clouds -3 1020 68 8000 1.5 290 05:25 14.01.2020
599 Clouds -4 1018 73 8000 3.1 300 03:51 14.01.2020
600 Clouds -2 1017 68 10000 2.1 310 02:42 14.01.2020
601 Clouds -1 1017 63 10000 3.1 350 01:53 14.01.2020
602 Clouds -1 1016 63 10000 1.5 320 00:51 14.01.2020
603 Clouds -1 1016 63 10000 1.5 320 00:32 14.01.2020
604 Clouds -1 1015 52 10000 3.6 220 23:54 13.01.2020
605 Clouds -1 1015 52 10000 3.6 220 23:54 13.01.2020
606 Clouds -1 1015 52 10000 3.6 220 23:36 13.01.2020
607 Clouds -1 1015 53 10000 3.6 220 23:18 13.01.2020
608 Clouds -1 1014 53 10000 4.1 210 22:41 13.01.2020
609 Clouds -1 1014 53 10000 4.1 210 22:21 13.01.2020
610 Clouds -1 1013 53 10000 2.6 230 21:56 13.01.2020
611 Clouds 0 1013 53 10000 2.6 230 21:38 13.01.2020
612 Clouds 0 1013 53 10000 2.6 230 21:19 13.01.2020
613 Clouds -2 1012 63 10000 0.5 0 20:58 13.01.2020
614 Clouds -2 1012 63 10000 0.5 0 20:40 13.01.2020
615 Clouds 0 1012 63 10000 0.5 0 20:22 13.01.2020
616 Clouds 0 1011 74 8000 2.6 340 19:58 13.01.2020
617 Clouds 0 1011 74 8000 2.6 340 19:58 13.01.2020
618 Clouds 0 1011 74 8000 2.6 340 19:39 13.01.2020
619 Clouds 0 1011 74 8000 2.6 340 19:39 13.01.2020
620 Clouds 0 1011 74 8000 2.6 340 19:19 13.01.2020
621 Clouds 0 1010 74 7000 3.1 340 18:56 13.01.2020
622 Clouds 0 1010 74 7000 3.1 340 18:37 13.01.2020
623 Clouds 0 1010 74 7000 3.1 340 18:18 13.01.2020
624 Clouds 1 1009 52 7000 3.1 340 17:42 13.01.2020
625 Clouds 1 1009 65 7000 3.1 340 17:24 13.01.2020
626 Clouds 1 1009 65 7000 3.1 340 17:24 13.01.2020
627 Clouds 1 1008 69 6000 3.1 320 16:57 13.01.2020
628 Clouds 1 1008 69 6000 3.1 320 16:38 13.01.2020
629 Clouds 1 1008 69 6000 3.1 320 16:20 13.01.2020
630 Clouds -7 1018 65 0 2.53 280 15:44 13.01.2020
631 Clouds -7 1018 65 0 2.53 280 15:23 13.01.2020
632 Clouds 1 1006 69 10000 2.1 290 14:58 13.01.2020
633 Clouds 1 1006 69 10000 2.1 290 14:38 13.01.2020
634 Snow -4 1012 93 0 1.32 201 14:20 13.01.2020
635 Snow -4 1012 93 0 1.32 201 13:42 13.01.2020
636 Snow -3 1012 90 0 1.64 221 13:24 13.01.2020
637 Snow -3 1012 90 0 1.64 221 12:59 13.01.2020
638 Clouds 3 1006 64 8000 1 320 12:41 13.01.2020
639 Clouds 3 1006 64 8000 1 320 12:23 13.01.2020
640 Clouds 3 1006 64 8000 1 320 11:57 13.01.2020
641 Clouds 3 1006 64 8000 1 320 11:37 13.01.2020
642 Mist 3 1006 74 3500 1.5 190 11:19 13.01.2020
643 Mist 1 1007 94 3000 1.5 70 10:56 13.01.2020
644 Mist 1 1007 94 3000 1.5 70 10:37 13.01.2020
645 Mist 1 1007 94 3000 1.5 70 10:19 13.01.2020
646 Mist 2 1008 86 3000 2.6 120 09:43 13.01.2020
647 Mist 2 1008 86 3000 2.6 120 09:23 13.01.2020
648 Mist 2 1008 94 4000 1.5 170 08:56 13.01.2020
649 Mist 2 1010 80 2800 1.5 100 08:36 13.01.2020
650 Mist 2 1010 80 2800 1.5 100 08:18 13.01.2020
651 Mist 1 1011 86 2800 1 110 07:42 13.01.2020
652 Mist 1 1011 86 2800 1 110 07:21 13.01.2020
653 Rain 0 1011 92 2500 1.5 70 06:37 13.01.2020
654 Rain 0 1011 92 2500 1.5 70 06:37 13.01.2020
655 Snow 0 1011 92 2000 1.5 90 05:37 13.01.2020
656 Snow -1 1011 100 600 1.5 100 04:56 13.01.2020
657 Rain -1 1012 100 4000 1.5 120 03:38 13.01.2020
658 Rain -1 1012 100 5000 1 100 02:49 13.01.2020
659 Rain -1 1012 100 5000 1 100 02:30 13.01.2020
660 Rain -1 1012 100 5000 1 100 02:30 13.01.2020
661 Rain -1 1012 100 4000 0.5 230 01:33 13.01.2020
662 Rain 0 1013 100 3000 2.1 350 00:44 13.01.2020
663 Rain 0 1013 100 3000 2.1 350 00:26 13.01.2020
664 Rain 0 1013 92 10000 1.5 100 23:57 12.01.2020
665 Rain 0 1013 92 10000 1.5 100 23:39 12.01.2020
666 Rain 0 1013 92 10000 1.5 100 23:21 12.01.2020
667 Rain 0 1013 96 10000 5.1 330 22:43 12.01.2020
668 Rain 0 1013 96 10000 5.1 330 22:43 12.01.2020
669 Rain 0 1013 96 10000 5.1 330 22:25 12.01.2020
670 Rain 0 1014 80 10000 4.1 40 21:59 12.01.2020
671 Snow 1 1014 80 10000 4.1 40 21:40 12.01.2020
672 Rain 0 1014 80 10000 4.1 40 21:20 12.01.2020
673 Rain 0 1015 80 10000 8.2 80 20:58 12.01.2020
674 Rain 0 1015 80 10000 8.2 80 20:39 12.01.2020
675 Rain 0 1015 80 10000 8.2 80 20:21 12.01.2020
676 Snow 1 1015 97 3200 1.84 13 19:56 12.01.2020
677 Snow 1 1015 97 3200 1.84 13 19:56 12.01.2020
678 Rain 0 1016 80 10000 5.7 40 19:38 12.01.2020
679 Rain 0 1016 80 10000 5.7 40 19:38 12.01.2020
680 Rain 0 1016 80 10000 5.7 40 19:19 12.01.2020
681 Rain 0 1016 80 8000 3.6 50 18:58 12.01.2020
682 Rain 0 1016 80 8000 3.6 50 18:40 12.01.2020
683 Rain 0 1016 80 8000 3.6 50 18:40 12.01.2020
684 Rain 0 1016 80 8000 3.6 50 18:21 12.01.2020
685 Snow 0 1016 97 600 1.84 13 17:58 12.01.2020
686 Rain 0 1017 97 8000 8.2 70 17:38 12.01.2020
687 Rain 0 1017 97 8000 8.2 70 17:19 12.01.2020
688 Rain 0 1017 97 10000 6.2 60 16:56 12.01.2020
689 Rain 0 1017 97 10000 6.2 60 16:37 12.01.2020
690 Rain 0 1017 97 10000 6.2 60 16:37 12.01.2020
691 Rain 0 1017 97 10000 6.2 60 16:19 12.01.2020
692 Rain 0 1018 97 10000 5.1 60 15:42 12.01.2020
693 Rain 0 1018 97 10000 5.1 60 15:24 12.01.2020
694 Rain 0 1018 97 10000 5.1 60 14:57 12.01.2020
695 Rain 0 1018 97 10000 5.1 60 14:38 12.01.2020
696 Rain 0 1018 96 10000 5.1 60 14:19 12.01.2020
697 Rain 0 1017 96 2500 1 0 13:44 12.01.2020
698 Rain 0 1017 96 2500 1 0 13:44 12.01.2020
699 Rain 0 1017 96 2500 1 0 13:25 12.01.2020
700 Rain 0 1018 96 1200 0.5 0 12:59 12.01.2020
701 Rain 0 1018 96 1200 0.5 0 12:39 12.01.2020
702 Rain 0 1018 96 1200 0.5 0 12:20 12.01.2020
703 Rain 0 1019 96 1200 1 0 11:58 12.01.2020
704 Rain 0 1019 96 1200 1 0 11:39 12.01.2020
705 Rain 0 1019 97 1200 1 0 11:20 12.01.2020
706 Rain 0 1019 97 2800 1.5 0 10:41 12.01.2020
707 Rain 0 1019 97 2800 1.5 0 10:22 12.01.2020
708 Rain 0 1020 97 2000 1 0 09:57 12.01.2020
709 Snow 0 1020 97 2000 1 0 09:38 12.01.2020
710 Snow 0 1020 97 2000 1 0 09:19 12.01.2020
711 Snow 0 1022 97 3500 1 0 08:45 12.01.2020
712 Snow 0 1021 96 600 3.16 27 08:20 12.01.2020
713 Rain -1 1022 96 3200 1 0 07:41 12.01.2020
714 Rain -1 1022 96 3200 1 0 07:23 12.01.2020
715 Rain -1 1023 96 4000 3.6 350 06:48 12.01.2020
716 Rain -1 1023 96 4000 3.6 350 06:29 12.01.2020
717 Snow -1 1023 92 2800 3.6 340 05:32 12.01.2020
718 Snow -1 1023 92 2800 3.6 340 05:32 12.01.2020
719 Rain -2 1023 100 1000 1.5 0 04:27 12.01.2020
720 Rain -2 1022 100 1600 1.5 0 03:25 12.01.2020
721 Snow -2 1022 92 2200 3.1 350 02:34 12.01.2020
722 Rain -2 1023 92 1000 1 0 01:51 12.01.2020
723 Rain -2 1023 92 1000 1 0 01:29 12.01.2020
724 Snow -2 1023 92 1200 1.5 140 00:41 12.01.2020
725 Snow -2 1023 92 1200 1.5 140 00:20 12.01.2020
726 Snow -2 1023 92 1200 1.5 140 00:20 12.01.2020
727 Snow -2 1024 92 1000 1 180 23:42 11.01.2020
728 Snow -2 1024 92 1000 1 180 23:20 11.01.2020
729 Snow -2 1024 92 2500 1.5 0 22:58 11.01.2020
730 Snow -2 1024 92 2500 1.5 0 22:58 11.01.2020
731 Snow -2 1024 92 2500 1.5 0 22:40 11.01.2020
732 Snow -2 1024 92 2500 1.5 0 22:20 11.01.2020
733 Snow -1 1024 86 3500 2.6 180 21:58 11.01.2020
734 Snow -1 1024 86 3500 2.6 180 21:40 11.01.2020
735 Snow -1 1024 86 3500 2.6 180 21:18 11.01.2020
736 Snow -1 1024 86 4000 4.1 350 20:41 11.01.2020
737 Snow -1 1024 86 4000 4.1 350 20:22 11.01.2020
738 Smoke -1 1024 74 2800 3.6 180 19:58 11.01.2020
739 Smoke -2 1024 74 2800 3.6 180 19:39 11.01.2020
740 Smoke -1 1024 74 2800 3.6 180 19:21 11.01.2020
741 Smoke 0 1024 68 4000 1 0 18:58 11.01.2020
742 Smoke 0 1024 68 4000 1 0 18:39 11.01.2020
743 Smoke 0 1024 68 4000 1 0 18:20 11.01.2020
744 Smoke -1 1024 63 4000 1.5 320 17:57 11.01.2020
745 Smoke -1 1024 63 4000 1.5 320 17:39 11.01.2020
746 Smoke -1 1024 63 4000 1.5 320 17:19 11.01.2020
747 Smoke -1 1024 68 4000 4.1 280 16:45 11.01.2020
748 Smoke -1 1024 68 4000 4.1 280 16:27 11.01.2020
749 Smoke 0 1024 63 5000 3.6 320 15:59 11.01.2020
750 Smoke 0 1024 63 5000 3.6 320 15:40 11.01.2020
751 Smoke 0 1024 63 5000 3.6 320 15:22 11.01.2020
752 Smoke 0 1024 54 7000 3.1 340 14:57 11.01.2020
753 Smoke 0 1024 54 7000 3.1 340 14:38 11.01.2020
754 Smoke 0 1024 54 7000 3.1 340 14:20 11.01.2020
755 Smoke 0 1024 63 8000 4.6 330 13:40 11.01.2020
756 Smoke 0 1024 61 8000 4.6 330 13:20 11.01.2020
757 Smoke 1 1025 61 6000 2.6 0 12:58 11.01.2020
758 Smoke 1 1025 61 6000 2.6 0 12:39 11.01.2020
759 Smoke 1 1025 61 6000 2.6 0 12:21 11.01.2020
760 Smoke 0 1024 61 7000 2.6 320 11:47 11.01.2020
761 Smoke 0 1024 61 7000 2.6 320 11:26 11.01.2020
762 Smoke 0 1025 46 7000 4.1 310 10:51 11.01.2020
763 Smoke 0 1025 46 7000 4.1 310 10:30 11.01.2020
764 Smoke 0 1025 46 6000 1.5 330 09:57 11.01.2020
765 Smoke 0 1025 46 6000 1.5 330 09:37 11.01.2020
766 Smoke 0 1025 46 6000 1.5 330 09:19 11.01.2020
767 Smoke -1 1026 46 8000 3.6 320 08:41 11.01.2020
768 Smoke -1 1026 46 8000 3.6 320 08:21 11.01.2020
769 Smoke -1 1027 50 2500 2.1 320 07:44 11.01.2020
770 Smoke -1 1027 50 2500 2.1 320 07:25 11.01.2020
771 Smoke -2 1027 58 3500 1.5 300 06:48 11.01.2020
772 Smoke -4 1026 49 4000 1.5 270 05:40 11.01.2020
773 Smoke -5 1026 62 7000 2.6 310 04:46 11.01.2020
774 Smoke -5 1026 62 7000 2.6 310 04:27 11.01.2020
775 Clouds -5 1026 62 8000 1.5 310 02:49 11.01.2020
776 Clouds -5 1026 62 8000 1.5 310 02:20 11.01.2020
777 Smoke -6 1025 57 5000 3.6 320 01:42 11.01.2020
778 Smoke -6 1025 57 5000 3.6 320 01:18 11.01.2020
779 Clouds -6 1026 62 8000 1.5 300 00:38 11.01.2020
780 Clouds -5 1026 62 8000 3.1 320 23:59 10.01.2020
781 Clouds -5 1026 62 8000 3.1 320 23:40 10.01.2020
782 Clouds -5 1026 62 8000 3.1 320 23:21 10.01.2020
783 Clouds -5 1026 57 6000 3.6 320 22:57 10.01.2020
784 Clouds -5 1026 57 6000 3.6 320 22:39 10.01.2020
785 Clouds -5 1026 57 6000 3.6 320 22:20 10.01.2020
786 Clouds -6 1026 57 6000 1 290 21:56 10.01.2020
787 Clouds -6 1026 57 6000 1 290 21:36 10.01.2020
788 Clouds -6 1026 57 6000 1 290 21:18 10.01.2020
789 Haze -5 1025 67 4000 1.52 251 20:43 10.01.2020
790 Haze -5 1025 67 4000 1.52 251 20:43 10.01.2020
791 Haze -6 1025 67 4000 0.63 292 20:24 10.01.2020
792 Clouds -6 1027 57 8000 3.6 310 19:56 10.01.2020
793 Clouds -6 1027 57 8000 3.6 310 19:37 10.01.2020
794 Clouds -6 1027 57 8000 3.6 310 19:19 10.01.2020
795 Clouds -6 1027 57 8000 3.6 310 19:19 10.01.2020
796 Clouds -4 1027 53 6000 3.6 330 18:42 10.01.2020
797 Clouds -4 1027 53 6000 3.6 330 18:19 10.01.2020
798 Clouds -4 1027 53 6000 3.6 330 18:19 10.01.2020
799 Clouds -6 1026 53 7000 4.1 330 17:57 10.01.2020
800 Clouds -6 1026 53 7000 4.1 330 17:39 10.01.2020
801 Clear -6 1026 53 7000 4.1 330 17:20 10.01.2020
802 Clear -5 1026 53 6000 3.6 320 16:55 10.01.2020
803 Clear -5 1026 53 6000 3.6 320 16:37 10.01.2020
804 Clear -5 1026 53 6000 3.6 320 16:19 10.01.2020
805 Smoke -3 1025 45 5000 3.6 340 15:55 10.01.2020
806 Smoke -3 1025 45 5000 3.6 340 15:36 10.01.2020
807 Smoke -3 1025 45 5000 3.6 340 15:18 10.01.2020
808 Clear -3 1025 49 8000 4.1 320 14:54 10.01.2020
809 Clear -3 1025 49 8000 4.1 320 14:36 10.01.2020
810 Clear -1 1025 49 8000 4.1 320 14:18 10.01.2020
811 Clear 0 1024 46 8000 3.1 310 13:41 10.01.2020
812 Clear 0 1024 46 8000 3.1 310 13:23 10.01.2020
813 Smoke 1 1024 56 8000 3.1 320 12:58 10.01.2020
814 Smoke 1 1024 56 8000 3.1 320 12:38 10.01.2020
815 Smoke 1 1024 56 8000 3.1 320 12:19 10.01.2020
816 Smoke 1 1025 56 8000 3.1 330 11:55 10.01.2020
817 Smoke 1 1025 56 8000 3.1 330 11:37 10.01.2020
818 Smoke 1 1025 56 8000 3.1 330 11:18 10.01.2020
819 Smoke 1 1026 56 9000 3.6 310 10:42 10.01.2020
820 Smoke 1 1026 56 9000 3.6 310 10:24 10.01.2020
821 Smoke 0 1027 36 8000 3.1 320 09:56 10.01.2020
822 Smoke 0 1027 36 8000 3.1 320 09:38 10.01.2020
823 Smoke 0 1027 36 8000 3.1 320 09:20 10.01.2020
824 Smoke -1 1027 42 8000 3.6 330 08:42 10.01.2020
825 Smoke -1 1027 42 8000 3.6 330 08:23 10.01.2020
826 Smoke -3 1028 45 8000 3.6 320 07:45 10.01.2020
827 Smoke -3 1028 45 8000 3.6 320 07:26 10.01.2020
828 Smoke -5 1028 48 7000 4.1 310 06:46 10.01.2020
829 Smoke -5 1028 48 7000 4.1 310 06:26 10.01.2020
830 Smoke -9 1027 56 7000 3.1 310 05:51 10.01.2020
831 Haze -11 1026 72 3000 1.47 263 03:45 10.01.2020
832 Clear -10 1026 66 10000 3.6 330 03:22 10.01.2020
833 Clear -9 1025 61 10000 3.6 320 02:49 10.01.2020
834 Clear -9 1025 61 10000 4.6 320 01:44 10.01.2020
835 Clear -9 1025 61 10000 4.6 320 01:26 10.01.2020
836 Clear -9 1026 61 7000 4.1 320 00:40 10.01.2020
837 Smoke -9 1026 66 4000 2.6 320 23:58 09.01.2020
838 Smoke -9 1026 66 4000 2.6 320 23:39 09.01.2020
839 Smoke -9 1026 66 4000 2.6 320 23:20 09.01.2020
840 Smoke -8 1026 66 3500 2.6 320 22:57 09.01.2020
841 Smoke -8 1026 66 3500 2.6 320 22:39 09.01.2020
842 Smoke -8 1026 66 3500 2.6 320 22:19 09.01.2020
843 Smoke -8 1026 56 2800 3.1 330 21:57 09.01.2020
844 Smoke -8 1026 56 2800 3.1 330 21:38 09.01.2020
845 Smoke -8 1026 56 2800 3.1 330 21:19 09.01.2020
846 Smoke -7 1026 61 2500 2.1 330 20:57 09.01.2020
847 Smoke -7 1026 61 2500 2.1 330 20:39 09.01.2020
848 Smoke -7 1026 61 2500 2.1 330 20:19 09.01.2020
849 Smoke -8 1026 61 1600 2.6 320 19:57 09.01.2020
850 Smoke -8 1026 61 1600 2.6 320 19:37 09.01.2020
851 Smoke -8 1026 61 1600 2.6 320 19:19 09.01.2020
852 Smoke -7 1025 61 2000 2.6 320 18:55 09.01.2020
853 Smoke -7 1025 61 2000 2.6 320 18:36 09.01.2020
854 Smoke -7 1025 61 2000 2.6 320 18:18 09.01.2020
855 Smoke -6 1025 61 4000 2.1 310 17:41 09.01.2020
856 Smoke -6 1025 61 4000 2.1 310 17:18 09.01.2020
857 Smoke -6 1024 48 4000 2.1 320 16:49 09.01.2020
858 Smoke -6 1024 48 4000 2.1 320 16:24 09.01.2020
859 Smoke -5 1023 49 5000 2.6 310 15:59 09.01.2020
860 Smoke -5 1023 49 5000 2.6 310 15:40 09.01.2020
861 Smoke -5 1023 49 5000 2.6 310 15:19 09.01.2020
862 Smoke -3 1023 39 5000 3.1 340 14:42 09.01.2020
863 Smoke -3 1023 39 5000 3.1 340 14:22 09.01.2020
864 Clear 0 1022 42 6000 2.6 330 13:57 09.01.2020
865 Clear 0 1022 42 6000 2.6 330 13:39 09.01.2020
866 Clear 0 1022 42 6000 2.6 330 13:20 09.01.2020
867 Clear 2 1022 34 6000 3.1 210 12:59 09.01.2020
868 Clear 2 1022 34 6000 3.1 210 12:40 09.01.2020
869 Clear 2 1022 34 6000 3.1 210 12:40 09.01.2020
870 Clear 2 1022 34 6000 3.1 210 12:20 09.01.2020
871 Clear 2 1022 31 7000 2.6 160 11:57 09.01.2020
872 Clear 2 1022 31 7000 2.6 160 11:38 09.01.2020
873 Clear 2 1022 31 7000 2.6 160 11:20 09.01.2020
874 Clear 2 1022 31 7000 2.6 320 10:43 09.01.2020
875 Clear 2 1022 31 7000 2.6 320 10:22 09.01.2020
876 Clear 1 1023 27 7000 2.6 330 09:56 09.01.2020
877 Clear 2 1023 27 7000 2.6 330 09:38 09.01.2020
878 Clear 1 1023 27 7000 2.6 330 09:18 09.01.2020
879 Clear 1 1024 25 7000 2.1 300 08:55 09.01.2020
880 Clear 1 1024 25 7000 2.1 300 08:37 09.01.2020
881 Clear 1 1024 25 7000 2.1 300 08:19 09.01.2020
882 Clear 0 1024 27 10000 1.5 280 07:42 09.01.2020
883 Clear 0 1024 27 10000 1.5 280 07:23 09.01.2020
884 Clear -5 1024 35 10000 3.1 290 06:38 09.01.2020
885 Smoke -5 1024 38 3000 2.1 310 06:19 09.01.2020
886 Clear -7 1023 52 6000 1 290 05:44 09.01.2020
887 Clear -10 1023 56 10000 3.6 340 04:42 09.01.2020
888 Clear -9 1022 52 10000 3.6 330 03:31 09.01.2020
889 Clear -9 1022 61 10000 1.5 320 02:52 09.01.2020
890 Clear -9 1022 61 10000 1.5 320 02:24 09.01.2020
891 Clear -8 1021 52 10000 3.1 340 01:38 09.01.2020
892 Clear -8 1022 66 10000 2.1 320 00:42 09.01.2020
893 Clear -8 1022 66 10000 2.1 320 00:42 09.01.2020
894 Clear -8 1022 66 10000 2.1 320 00:21 09.01.2020
895 Clear -8 1022 61 10000 1.5 330 23:42 08.01.2020
896 Clear -8 1022 61 10000 1.5 330 23:42 08.01.2020
897 Clear -8 1022 61 10000 1.5 330 23:24 08.01.2020
898 Haze -8 1021 67 8000 1.5 210 22:58 08.01.2020
899 Haze -8 1021 67 8000 1.5 210 22:38 08.01.2020
900 Haze -9 1021 67 8000 1.5 210 22:20 08.01.2020
901 Clear -7 1022 56 6000 2.1 320 21:57 08.01.2020
902 Clear -9 1022 56 6000 2.1 320 21:38 08.01.2020
903 Clear -9 1022 56 6000 2.1 320 21:19 08.01.2020
904 Clear -8 1022 57 4000 3.6 310 20:57 08.01.2020
905 Clear -8 1022 57 4000 3.6 310 20:38 08.01.2020
906 Clear -8 1022 57 4000 3.6 310 20:19 08.01.2020
907 Clear -6 1022 53 6000 3.6 330 19:55 08.01.2020
908 Clear -6 1022 53 6000 3.6 330 19:55 08.01.2020
909 Clear -6 1022 53 6000 3.6 330 19:36 08.01.2020
910 Clear -6 1022 53 6000 3.6 330 19:18 08.01.2020
911 Clear -6 1022 53 6000 3.6 330 18:54 08.01.2020
912 Clear -6 1022 53 6000 3.6 330 18:54 08.01.2020
913 Clear -6 1022 53 6000 3.6 330 18:36 08.01.2020
914 Clear -6 1022 53 6000 3.6 330 18:18 08.01.2020
915 Clear -6 1022 53 6000 3.6 330 18:18 08.01.2020
916 Clear -5 1021 52 6000 3.1 330 17:42 08.01.2020
917 Clear -5 1021 52 6000 3.1 330 17:23 08.01.2020
918 Clear -4 1022 52 7000 3.6 320 16:57 08.01.2020
919 Clear -4 1022 52 7000 3.6 320 16:39 08.01.2020
920 Clear -4 1022 52 7000 3.6 320 16:19 08.01.2020
921 Clear -4 1022 52 7000 3.6 320 16:19 08.01.2020
922 Clear -4 1021 48 10000 2.1 320 15:56 08.01.2020
923 Clear -4 1021 48 10000 2.1 320 15:38 08.01.2020
924 Clear -4 1021 48 10000 2.1 320 15:18 08.01.2020
925 Clear 0 1020 33 10000 2.1 260 14:41 08.01.2020
926 Clear 0 1020 33 10000 2.1 260 14:21 08.01.2020
927 Clear 1 1020 29 10000 3.1 270 13:56 08.01.2020
928 Clear 1 1020 29 10000 3.1 270 13:37 08.01.2020
929 Clear 1 1020 29 10000 3.1 270 13:18 08.01.2020
930 Clear 3 1019 23 10000 2.6 270 12:40 08.01.2020
931 Clear 3 1019 23 10000 2.6 270 12:18 08.01.2020
932 Clear 3 1019 29 10000 4.1 250 11:55 08.01.2020
933 Clear 3 1019 29 10000 4.1 250 11:36 08.01.2020
934 Clear 3 1019 29 10000 4.1 250 11:18 08.01.2020
935 Clear 3 1019 25 10000 2.6 250 10:41 08.01.2020
936 Clear 3 1019 25 10000 2.6 250 10:22 08.01.2020
937 Clear 3 1019 34 10000 2.1 320 09:58 08.01.2020
938 Clear 3 1019 34 10000 2.1 320 09:38 08.01.2020
939 Clear 2 1019 34 10000 2.1 320 09:18 08.01.2020
940 Clear 2 1020 34 10000 1.5 330 08:42 08.01.2020
941 Clear 2 1020 34 10000 1.5 330 08:24 08.01.2020
942 Clear 0 1021 46 10000 4.1 320 07:59 08.01.2020
943 Clear 0 1021 46 10000 4.1 320 07:41 08.01.2020
944 Clear 0 1021 46 10000 4.1 320 07:23 08.01.2020
945 Clear -3 1021 49 8000 4.1 320 06:44 08.01.2020
946 Clear -5 1020 52 8000 6.2 320 05:57 08.01.2020
947 Clear -5 1020 52 8000 6.2 320 05:27 08.01.2020
948 Clear -8 1020 61 10000 5.1 300 04:39 08.01.2020
949 Clear -7 1019 61 10000 5.1 310 03:31 08.01.2020
950 Clear -7 1018 61 10000 4.1 330 02:36 08.01.2020
951 Clear -7 1018 61 10000 4.1 330 02:18 08.01.2020
952 Clear -7 1018 66 10000 3.6 330 01:39 08.01.2020
953 Clear -6 1018 67 10000 5.1 330 00:52 08.01.2020
954 Clear -6 1018 67 10000 5.1 330 00:24 08.01.2020
955 Clear -6 1018 67 8000 3.6 330 23:46 07.01.2020
956 Clear -6 1018 67 8000 3.6 330 23:21 07.01.2020
957 Clear -6 1018 67 8000 3.6 330 23:21 07.01.2020
958 Clear -6 1018 61 8000 4.6 320 22:57 07.01.2020
959 Clear -6 1018 61 8000 4.6 320 22:38 07.01.2020
960 Clear -6 1018 61 8000 4.6 320 22:19 07.01.2020
961 Clear -5 1018 67 8000 4.6 330 21:42 07.01.2020
962 Clear -5 1018 67 8000 4.6 330 21:22 07.01.2020
963 Clear -5 1018 67 8000 4.6 340 20:58 07.01.2020
964 Clear -5 1018 67 8000 4.6 340 20:40 07.01.2020
965 Clear -5 1018 67 8000 4.6 340 20:22 07.01.2020
966 Clear -5 1019 67 7000 4.6 330 19:57 07.01.2020
967 Clear -5 1019 67 7000 4.6 330 19:38 07.01.2020
968 Clear -5 1019 67 7000 4.6 330 19:19 07.01.2020
969 Clear -4 1018 67 7000 5.7 330 18:56 07.01.2020
970 Clear -4 1018 67 7000 5.7 330 18:38 07.01.2020
971 Clear -4 1018 67 7000 5.7 330 18:18 07.01.2020
972 Clear -4 1018 67 7000 6.7 320 17:56 07.01.2020
973 Clear -4 1018 67 7000 6.7 320 17:37 07.01.2020
974 Clear -4 1018 67 7000 6.7 320 17:18 07.01.2020
975 Clear -3 1018 67 7000 4.6 330 16:55 07.01.2020
976 Clear -3 1018 67 7000 4.6 330 16:37 07.01.2020
977 Clear -3 1018 67 7000 4.6 330 16:18 07.01.2020
978 Clear -3 1018 62 7000 4.1 320 15:43 07.01.2020
979 Clear -3 1018 62 7000 4.1 320 15:24 07.01.2020
980 Clear -3 1018 62 7000 4.1 320 15:24 07.01.2020
981 Clear -2 1018 58 10000 2.6 280 14:58 07.01.2020
982 Clear -2 1018 58 10000 2.6 280 14:58 07.01.2020
983 Clear -2 1018 58 10000 2.6 280 14:40 07.01.2020
984 Clear -2 1018 58 10000 2.6 280 14:21 07.01.2020
985 Clear 0 1018 50 10000 4.1 250 13:46 07.01.2020
986 Clear 0 1018 50 10000 4.1 250 13:21 07.01.2020
987 Clear 1 1018 72 10000 4.6 240 12:56 07.01.2020
988 Clear 1 1018 72 10000 4.6 240 12:38 07.01.2020
989 Clear 1 1018 72 10000 4.6 240 12:19 07.01.2020
990 Clouds 2 1018 47 10000 3.1 230 11:42 07.01.2020
991 Clouds 2 1018 47 10000 3.1 230 11:23 07.01.2020
992 Clear 1 1019 70 10000 5.7 210 10:58 07.01.2020
993 Clear 1 1019 70 10000 5.7 210 10:39 07.01.2020
994 Clear 1 1019 70 10000 5.7 210 10:21 07.01.2020
995 Clear 0 1020 58 10000 4.6 220 09:55 07.01.2020
996 Clear 0 1020 58 10000 4.6 220 09:37 07.01.2020
997 Clear 0 1020 58 10000 4.6 220 09:19 07.01.2020
998 Clear 0 1021 58 10000 3.1 240 08:41 07.01.2020
999 Clear 0 1021 58 10000 3.1 240 08:18 07.01.2020
1000 Clear -1 1021 63 10000 5.7 210 07:47 07.01.2020
1001 Clear -1 1021 63 10000 5.7 210 07:20 07.01.2020
1002 Clear -3 1022 68 9000 4.6 230 06:49 07.01.2020
1003 Mist -3 1022 73 5000 2.6 320 06:29 07.01.2020
1004 Clear -6 1021 85 6000 4.1 320 05:41 07.01.2020
1005 Mist -9 1020 92 5000 1.82 257 03:47 07.01.2020
1006 Clouds -8 1021 92 10000 3.1 290 03:25 07.01.2020
1007 Clouds -7 1020 92 8000 2.1 320 02:20 07.01.2020
1008 Clouds -6 1020 85 8000 3.1 320 01:40 07.01.2020
1009 Mist -5 1020 92 2800 1.36 274 00:59 07.01.2020
1010 Clouds -4 1021 92 7000 3.1 310 00:21 07.01.2020
1011 Mist -3 1021 85 4000 2.6 320 23:57 06.01.2020
1012 Mist -3 1021 85 4000 2.6 320 23:38 06.01.2020
1013 Mist -3 1021 85 4000 2.6 320 23:20 06.01.2020
1014 Snow -3 1020 92 2400 1.31 275 22:44 06.01.2020
1015 Mist -3 1021 92 4000 2.1 290 22:25 06.01.2020
1016 Mist -2 1021 92 1200 1 240 21:59 06.01.2020
1017 Mist -3 1021 92 1200 1 240 21:40 06.01.2020
1018 Mist -2 1021 92 1200 1 240 21:21 06.01.2020
1019 Mist -3 1021 100 1200 1 170 20:58 06.01.2020
1020 Mist -3 1021 100 1200 1 170 20:40 06.01.2020
1021 Mist -2 1022 92 2000 1 110 20:21 06.01.2020
1022 Mist -2 1022 92 3000 1 170 19:57 06.01.2020
1023 Mist -2 1022 92 3000 1 170 19:39 06.01.2020
1024 Mist -2 1022 92 3000 1 170 19:20 06.01.2020
1025 Mist -3 1021 92 4000 2.1 100 18:48 06.01.2020
1026 Mist -3 1021 92 4000 2.1 100 18:25 06.01.2020
1027 Mist -2 1021 100 4000 1.5 0 18:00 06.01.2020
1028 Mist -2 1021 100 4000 1.5 0 17:39 06.01.2020
1029 Mist -2 1021 100 4000 1.5 0 17:19 06.01.2020
1030 Mist -2 1021 92 3000 1 0 16:55 06.01.2020
1031 Mist -2 1021 92 3000 1 0 16:36 06.01.2020
1032 Mist -2 1021 92 3000 1 0 16:18 06.01.2020
1033 Mist -2 1021 100 2500 1 0 15:42 06.01.2020
1034 Mist -2 1021 100 2500 1 0 15:20 06.01.2020
1035 Mist 0 1019 84 1600 1.2 282 14:59 06.01.2020
1036 Mist 0 1019 84 1600 1.2 282 14:41 06.01.2020
1037 Mist 0 1019 84 1600 1.2 282 14:41 06.01.2020
1038 Mist -1 1019 97 1600 0.39 8 14:21 06.01.2020
1039 Snow 0 1020 92 6000 2.1 340 13:58 06.01.2020
1040 Snow 0 1020 92 6000 2.1 340 13:38 06.01.2020
1041 Snow 0 1020 92 6000 2.1 340 13:19 06.01.2020
1042 Snow 1 1020 97 6000 2.6 330 12:43 06.01.2020
1043 Snow 1 1020 97 6000 2.6 330 12:21 06.01.2020
1044 Mist 0 1019 97 1200 0.49 17 11:58 06.01.2020
1045 Snow 0 1020 97 2800 1.5 320 11:39 06.01.2020
1046 Snow 0 1020 96 2800 1.5 320 11:21 06.01.2020
1047 Fog 0 1019 96 800 1.95 73 10:57 06.01.2020
1048 Rain 0 1021 96 2000 3.1 360 10:39 06.01.2020
1049 Rain 0 1021 96 2000 3.1 360 10:20 06.01.2020
1050 Rain -1 1021 92 1400 1 120 09:38 06.01.2020
1051 Rain -1 1021 92 1400 1 120 09:19 06.01.2020
1052 Snow -1 1022 92 1200 3.1 340 08:43 06.01.2020
1053 Snow -1 1022 92 1200 3.1 340 08:25 06.01.2020
1054 Snow -1 1022 100 800 2.19 37 07:53 06.01.2020
1055 Rain -1 1022 92 1200 2.19 37 07:28 06.01.2020
1056 Snow -1 1022 92 900 1 80 06:45 06.01.2020
1057 Snow -1 1022 92 900 1 80 06:20 06.01.2020
1058 Snow -1 1022 92 1200 1 150 05:45 06.01.2020
1059 Snow -2 1022 100 1200 1.5 160 04:37 06.01.2020
1060 Snow -2 1022 100 1200 1.5 160 04:18 06.01.2020
1061 Rain -2 1021 92 7000 2.6 350 02:46 06.01.2020
1062 Rain -2 1021 92 7000 2.6 350 02:23 06.01.2020
1063 Rain -2 1022 100 4000 1.5 190 01:44 06.01.2020
1064 Rain -2 1022 100 4000 1.5 190 01:24 06.01.2020
1065 Rain -2 1022 92 3200 3.1 30 00:41 06.01.2020
1066 Rain -2 1022 92 3200 3.1 30 00:21 06.01.2020
1067 Rain -2 1022 100 3200 2.1 180 23:41 05.01.2020
1068 Rain -2 1022 100 3200 2.1 180 23:22 05.01.2020
1069 Snow -2 1022 92 3200 4.1 350 22:56 05.01.2020
1070 Snow -2 1022 92 3200 4.1 350 22:37 05.01.2020
1071 Snow -2 1022 92 3200 4.1 350 22:19 05.01.2020
1072 Snow -2 1022 100 800 2.21 15 21:54 05.01.2020
1073 Snow -2 1022 92 3200 1.5 10 21:36 05.01.2020
1074 Rain -1 1022 92 3200 1.5 10 21:18 05.01.2020
1075 Rain -2 1023 100 3200 1.5 200 20:55 05.01.2020
1076 Rain -2 1023 100 3200 1.5 200 20:55 05.01.2020
1077 Rain -2 1023 100 3200 1.5 200 20:36 05.01.2020
1078 Rain -2 1023 100 3200 1.5 200 20:18 05.01.2020
1079 Snow -2 1023 100 800 1.57 39 19:54 05.01.2020
1080 Snow -2 1023 92 3200 2.6 160 19:36 05.01.2020
1081 Snow -2 1023 92 3200 2.6 160 19:18 05.01.2020
1082 Rain -1 1023 92 3200 3.6 110 18:54 05.01.2020
1083 Rain -1 1023 92 3200 3.6 110 18:36 05.01.2020
1084 Rain -1 1023 92 3200 3.6 110 18:18 05.01.2020
1085 Snow -2 1023 92 3200 1 0 17:39 05.01.2020
1086 Snow -2 1023 92 3200 1 0 17:20 05.01.2020
1087 Rain -2 1022 92 3200 1.5 360 16:57 05.01.2020
1088 Rain -2 1022 92 3200 1.5 360 16:39 05.01.2020
1089 Rain -2 1022 92 3200 1.5 360 16:20 05.01.2020
1090 Snow -3 1022 100 2000 1.87 15 15:41 05.01.2020
1091 Snow -2 1022 92 2000 1 0 15:22 05.01.2020
1092 Snow -2 1022 92 2000 1 0 15:22 05.01.2020
1093 Snow -2 1022 92 2000 1 0 15:22 05.01.2020
1094 Rain -2 1022 92 1800 1.5 160 14:57 05.01.2020
1095 Rain -2 1022 92 1800 1.5 160 14:39 05.01.2020
1096 Rain -3 1022 100 1000 2.68 16 14:21 05.01.2020
1097 Snow -2 1021 92 1200 1 0 13:58 05.01.2020
1098 Rain -2 1021 92 1200 1 0 13:38 05.01.2020
1099 Rain -2 1021 92 1200 1 0 13:20 05.01.2020
1100 Snow -2 1021 92 800 3.06 14 12:57 05.01.2020
1101 Snow -2 1021 92 1200 2.1 340 12:38 05.01.2020
1102 Snow -2 1021 92 1200 2.1 340 12:20 05.01.2020
1103 Rain -2 1021 92 1000 2.6 340 11:54 05.01.2020
1104 Rain -2 1021 92 1000 2.6 340 11:36 05.01.2020
1105 Rain -2 1021 92 1000 2.6 340 11:18 05.01.2020
1106 Rain -2 1021 92 1000 2.1 320 10:41 05.01.2020
1107 Rain -2 1021 92 1000 2.1 320 10:20 05.01.2020
1108 Snow -2 1021 92 1200 2.99 40 09:55 05.01.2020
1109 Snow -2 1022 86 1000 2.1 330 09:36 05.01.2020
1110 Snow -2 1022 86 1000 2.1 330 09:18 05.01.2020
1111 Snow -2 1022 92 800 2.99 40 08:44 05.01.2020
1112 Snow -2 1023 86 1200 2.6 330 08:21 05.01.2020
1113 Snow -2 1023 86 2000 2.38 28 07:44 05.01.2020
1114 Snow -2 1023 86 2000 2.38 28 07:44 05.01.2020
1115 Snow -2 1023 92 1000 1 0 07:26 05.01.2020
1116 Snow -2 1023 74 3200 2.38 28 06:54 05.01.2020
1117 Snow -2 1023 68 2500 1.5 100 05:41 05.01.2020
1118 Smoke -3 1021 79 4000 1 0 04:56 05.01.2020
1119 Smoke -3 1021 79 4000 1 0 04:19 05.01.2020
1120 Smoke -3 1021 79 4000 1 0 04:19 05.01.2020
1121 Smoke -4 1021 68 4000 1 330 03:31 05.01.2020
1122 Smoke -4 1020 85 4000 1.5 330 02:33 05.01.2020
1123 Smoke -5 1021 79 5000 0.5 150 01:49 05.01.2020
1124 Smoke -5 1021 79 5000 0.5 150 01:20 05.01.2020
1125 Smoke -5 1021 73 5000 1 330 00:57 05.01.2020
1126 Smoke -5 1021 73 5000 1 330 00:39 05.01.2020
1127 Smoke -5 1021 73 5000 1 330 00:19 05.01.2020
1128 Smoke -5 1021 68 5000 2.1 230 23:41 04.01.2020
1129 Smoke -5 1021 73 2400 2.1 330 23:20 04.01.2020
1130 Smoke -5 1021 79 1600 1.5 150 22:56 04.01.2020
1131 Smoke -5 1021 79 1600 1.5 150 22:38 04.01.2020
1132 Smoke -5 1021 79 1600 1.5 150 22:20 04.01.2020
1133 Smoke -4 1022 79 1600 0.5 0 21:55 04.01.2020
1134 Smoke -3 1022 79 1600 0.5 0 21:36 04.01.2020
1135 Smoke -4 1022 79 1600 0.5 0 21:18 04.01.2020
1136 Smoke -5 1022 73 2000 0.5 0 20:41 04.01.2020
1137 Smoke -5 1022 73 2000 0.5 0 20:22 04.01.2020
1138 Smoke -5 1022 79 2000 1 140 19:57 04.01.2020
1139 Smoke -5 1022 79 2000 1 140 19:39 04.01.2020
1140 Smoke -5 1022 79 2000 1 140 19:21 04.01.2020
1141 Smoke -4 1022 68 3000 1 120 18:57 04.01.2020
1142 Smoke -4 1022 68 3000 1 120 18:38 04.01.2020
1143 Smoke -4 1022 68 3000 1 120 18:19 04.01.2020
1144 Smoke -4 1021 68 4000 1 90 17:42 04.01.2020
1145 Smoke -4 1021 68 4000 1 90 17:42 04.01.2020
1146 Smoke -4 1021 68 4000 1 90 17:24 04.01.2020
1147 Smoke -4 1021 68 4000 1 90 17:24 04.01.2020
1148 Smoke -3 1021 68 5000 1.5 110 16:59 04.01.2020
1149 Smoke -3 1021 68 5000 1.5 110 16:40 04.01.2020
1150 Smoke -3 1021 68 5000 1.5 110 16:22 04.01.2020
1151 Smoke -3 1021 68 5000 1.5 110 16:22 04.01.2020
1152 Clear -1 1021 54 8000 1 310 15:56 04.01.2020
1153 Clear -1 1021 54 8000 1 310 15:38 04.01.2020
1154 Clear -1 1021 54 8000 1 310 15:19 04.01.2020
1155 Clear 0 1020 43 10000 1 0 14:55 04.01.2020
1156 Clear 0 1020 43 10000 1 0 14:36 04.01.2020
1157 Clear 0 1020 43 10000 1 0 14:18 04.01.2020
1158 Clear 2 1020 40 10000 2.1 0 13:39 04.01.2020
1159 Clear 2 1020 40 10000 2.1 0 13:20 04.01.2020
1160 Clear 3 1020 35 10000 1.5 0 12:59 04.01.2020
1161 Clear 3 1020 35 10000 1.5 0 12:41 04.01.2020
1162 Clear 3 1020 35 10000 1.5 0 12:19 04.01.2020
1163 Clear 3 1019 32 10000 2.6 220 11:57 04.01.2020
1164 Clear 3 1019 32 10000 2.6 220 11:38 04.01.2020
1165 Clear 3 1019 32 10000 2.6 220 11:19 04.01.2020
1166 Clear 2 1020 29 10000 3.6 210 10:41 04.01.2020
1167 Clear 2 1020 29 10000 3.6 210 10:22 04.01.2020
1168 Haze 2 1019 26 4000 2.13 136 09:50 04.01.2020
1169 Clear 1 1020 35 10000 2.6 220 09:26 04.01.2020
1170 Clear 0 1021 34 9000 3.6 200 08:58 04.01.2020
1171 Clear 0 1021 34 9000 3.6 200 08:39 04.01.2020
1172 Clear 0 1021 34 9000 3.6 200 08:20 04.01.2020
1173 Haze -1 1022 40 8000 5.1 190 07:42 04.01.2020
1174 Mist -3 1022 100 2400 2.1 220 06:52 04.01.2020
1175 Haze -3 1022 54 8000 2.6 340 06:33 04.01.2020
1176 Clear -4 1022 58 7000 3.1 360 05:18 04.01.2020
1177 Clear -5 1021 73 10000 2.6 330 04:33 04.01.2020
1178 Mist -5 1021 92 1000 2.6 230 03:43 04.01.2020
1179 Clear -4 1021 85 10000 2.1 340 03:18 04.01.2020
1180 Clear -5 1020 100 8000 1.5 310 02:21 04.01.2020
1181 Mist -3 1020 92 5000 2.6 320 01:55 04.01.2020
1182 Mist -3 1020 92 5000 2.6 320 01:31 04.01.2020
1183 Mist -4 1020 92 3200 2.1 330 00:43 04.01.2020
1184 Mist -4 1020 92 3200 2.1 330 00:23 04.01.2020
1185 Mist -4 1021 92 3000 1.5 110 23:44 03.01.2020
1186 Mist -4 1021 92 3000 1.5 110 23:25 03.01.2020
1187 Mist -3 1021 92 3000 2.1 330 22:41 03.01.2020
1188 Mist -3 1021 92 3000 2.1 330 22:20 03.01.2020
1189 Mist -3 1021 92 3000 1 70 21:59 03.01.2020
1190 Mist -5 1021 92 3000 1 70 21:38 03.01.2020
1191 Mist -2 1021 92 3000 1 70 21:19 03.01.2020
1192 Fog -3 1021 92 2000 1 150 20:58 03.01.2020
1193 Fog -3 1021 92 2000 1 150 20:40 03.01.2020
1194 Fog -3 1021 92 2000 1 150 20:18 03.01.2020
1195 Fog -4 1021 100 800 1.5 210 19:56 03.01.2020
1196 Fog -4 1021 92 2000 0.5 130 19:37 03.01.2020
1197 Fog -4 1021 92 2000 0.5 130 19:19 03.01.2020
1198 Mist -3 1021 100 1600 1.5 150 18:43 03.01.2020
1199 Fog -3 1022 92 400 2.1 100 18:24 03.01.2020
1200 Smoke -3 1022 92 800 1.5 110 17:55 03.01.2020
1201 Smoke -3 1022 92 800 1.5 110 17:37 03.01.2020
1202 Smoke -3 1022 92 800 1.5 110 17:37 03.01.2020
1203 Smoke -3 1021 100 50 1 90 17:18 03.01.2020
1204 Smoke -3 1021 100 50 1 90 17:18 03.01.2020
1205 Smoke -2 1021 100 50 1 120 16:42 03.01.2020
1206 Smoke -2 1021 100 50 1 120 16:22 03.01.2020
1207 Fog -1 1021 92 100 1.5 140 15:44 03.01.2020
1208 Fog -1 1021 92 100 1.5 140 15:19 03.01.2020
1209 Fog -1 1021 100 600 2.1 130 14:59 03.01.2020
1210 Fog -1 1021 100 600 2.1 130 14:38 03.01.2020
1211 Mist -1 1021 92 1000 2.1 110 14:19 03.01.2020
1212 Mist -1 1021 100 1000 2.1 100 13:44 03.01.2020
1213 Mist 1 1021 86 4500 2.1 80 13:24 03.01.2020
1214 Mist 1 1021 74 7000 2.1 80 12:58 03.01.2020
1215 Mist 1 1021 74 7000 2.1 80 12:39 03.01.2020
1216 Mist 1 1021 74 7000 2.1 80 12:21 03.01.2020
1217 Mist 3 1021 69 7000 1.5 0 11:44 03.01.2020
1218 Mist 3 1021 69 7000 1.5 0 11:21 03.01.2020
1219 Mist 3 1022 60 7000 4.1 210 10:44 03.01.2020
1220 Mist 3 1022 60 7000 4.1 210 10:26 03.01.2020
1221 Mist 3 1022 93 4000 1.5 130 09:58 03.01.2020
1222 Mist 3 1023 64 6000 4.1 220 09:39 03.01.2020
1223 Mist 3 1023 64 6000 4.1 220 09:21 03.01.2020
1224 Mist 2 1023 100 2000 1.5 50 08:56 03.01.2020
1225 Mist 2 1024 74 3000 1 0 08:38 03.01.2020
1226 Mist 2 1024 74 3000 1 0 08:19 03.01.2020
1227 Snow 1 1025 87 2000 2.1 80 07:40 03.01.2020
1228 Snow 1 1025 87 2000 2.1 80 07:18 03.01.2020
1229 Snow 1 1025 87 2000 2.1 80 07:18 03.01.2020
1230 Mist 0 1025 100 1600 1.46 141 06:47 03.01.2020
1231 Snow 1 1025 87 1200 1.5 100 06:29 03.01.2020
1232 Rain 0 1024 87 1600 1 0 05:39 03.01.2020
1233 Rain 0 1024 100 1600 1 0 04:21 03.01.2020
1234 Snow -1 1023 92 800 1.19 300 02:56 03.01.2020
1235 Snow -1 1023 92 800 1.19 300 02:56 03.01.2020
1236 Snow 0 1023 100 2500 1.19 300 02:33 03.01.2020
1237 Rain 0 1024 100 2000 1 0 01:42 03.01.2020
1238 Rain 0 1024 100 2000 1 0 01:42 03.01.2020
1239 Snow -1 1023 98 200 0.85 30 00:50 03.01.2020
1240 Rain 0 1024 92 1800 1 0 00:30 03.01.2020
1241 Snow -1 1024 98 600 0.85 30 23:55 02.01.2020
1242 Rain 0 1025 100 2500 0.85 30 23:37 02.01.2020
1243 Rain 0 1025 100 2500 1.19 38 23:18 02.01.2020
1244 Rain 0 1025 100 1600 1.19 38 22:45 02.01.2020
1245 Rain 0 1025 100 1600 1.19 38 22:45 02.01.2020
1246 Rain 0 1025 100 1600 1.19 38 22:21 02.01.2020
1247 Snow -1 1024 98 400 1.19 38 21:59 02.01.2020
1248 Snow 0 1025 100 3000 1.5 0 21:41 02.01.2020
1249 Snow 0 1025 100 3000 1.5 0 21:23 02.01.2020
1250 Rain 0 1026 100 1600 1 0 20:58 02.01.2020
1251 Rain 0 1026 100 1600 1 0 20:39 02.01.2020
1252 Rain 0 1026 100 1600 1 0 20:39 02.01.2020
1253 Rain 0 1026 100 1600 1 0 20:20 02.01.2020
1254 Rain 0 1026 100 1600 0.43 13 19:55 02.01.2020
1255 Rain 0 1026 100 1600 0.43 13 19:37 02.01.2020
1256 Rain 0 1026 100 1600 0.43 13 19:37 02.01.2020
1257 Rain 0 1026 100 1600 0.43 13 19:19 02.01.2020
1258 Mist 0 1027 100 2000 0.43 13 18:56 02.01.2020
1259 Mist 0 1027 100 2000 0.43 13 18:38 02.01.2020
1260 Mist 0 1027 100 2000 0.43 13 18:19 02.01.2020
1261 Snow 0 1027 100 2000 1 0 17:55 02.01.2020
1262 Snow 0 1027 100 2000 1 0 17:36 02.01.2020
1263 Snow 0 1027 100 2000 1 0 17:36 02.01.2020
1264 Snow 0 1027 100 2000 1 0 17:18 02.01.2020
1265 Snow 0 1027 100 2000 1 0 17:18 02.01.2020
1266 Snow -1 1026 97 400 1.62 2 16:54 02.01.2020
1267 Rain 0 1027 100 1600 1 0 16:36 02.01.2020
1268 Rain 0 1027 100 1600 1 0 16:18 02.01.2020
1269 Rain 0 1026 100 1600 1.5 0 15:41 02.01.2020
1270 Snow 0 1026 100 1600 1.5 0 15:23 02.01.2020
1271 Snow 0 1026 100 1000 1.5 0 14:57 02.01.2020
1272 Snow 0 1026 100 1000 1.5 0 14:37 02.01.2020
1273 Snow 0 1026 100 1000 1.5 0 14:37 02.01.2020
1274 Rain 0 1026 100 1000 1.5 0 14:18 02.01.2020
1275 Rain 0 1026 98 1000 1.5 0 13:55 02.01.2020
1276 Rain 0 1026 98 1000 1.5 0 13:36 02.01.2020
1277 Rain 0 1025 97 1600 2.1 340 12:58 02.01.2020
1278 Snow 0 1025 97 1600 2.1 340 12:39 02.01.2020
1279 Snow 0 1025 97 1600 2.1 340 12:20 02.01.2020
1280 Rain 1 1025 97 1200 2.1 340 11:41 02.01.2020
1281 Rain 1 1025 95 1200 2.1 340 11:21 02.01.2020
1282 Snow 1 1026 95 2500 2.6 360 10:45 02.01.2020
1283 Snow 1 1026 95 2500 2.6 360 10:27 02.01.2020
1284 Mist 0 1025 100 1600 1.8 28 09:56 02.01.2020
1285 Snow 1 1027 95 2500 3.1 350 09:35 02.01.2020
1286 Rain 0 1028 86 4000 2.1 320 08:53 02.01.2020
1287 Rain 0 1028 86 4000 2.1 320 08:32 02.01.2020
1288 Snow 0 1027 96 1600 1.86 44 07:58 02.01.2020
1289 Snow 0 1029 96 1600 1.5 130 07:31 02.01.2020
1290 Snow 0 1029 96 2000 1.5 0 06:57 02.01.2020
1291 Rain 0 1029 96 2000 1.5 0 06:39 02.01.2020
1292 Rain 0 1028 100 1200 1.5 100 05:38 02.01.2020
1293 Snow 0 1027 100 1000 1.5 0 04:34 02.01.2020
1294 Snow 0 1026 100 3500 3.6 330 03:23 02.01.2020
1295 Rain 0 1026 92 2500 1 90 02:20 02.01.2020
1296 Snow 0 1026 92 2500 1 90 01:48 02.01.2020
1297 Snow 0 1026 92 1200 2.1 90 01:23 02.01.2020
1298 Rain 0 1026 92 1000 1.5 130 00:38 02.01.2020
1299 Rain 0 1026 92 1000 1.5 130 00:38 02.01.2020
1300 Rain 0 1027 92 3000 2.6 350 00:19 02.01.2020
1301 Rain 0 1026 92 4000 1.5 0 23:41 01.01.2020
1302 Rain 0 1026 92 4000 1.5 0 23:21 01.01.2020
1303 Rain 0 1027 92 5000 3.1 360 22:39 01.01.2020
1304 Rain 0 1027 92 5000 3.1 360 22:20 01.01.2020
1305 Clouds -1 1027 92 6000 1.5 0 21:58 01.01.2020
1306 Clouds -1 1027 92 6000 1.5 0 21:39 01.01.2020
1307 Rain 0 1027 92 6000 1.5 0 21:20 01.01.2020
1308 Rain 0 1027 92 6000 2.98 348 20:56 01.01.2020
1309 Rain 0 1027 92 6000 2.98 348 20:38 01.01.2020
1310 Rain 0 1027 92 6000 3.52 344 20:19 01.01.2020
1311 Snow -1 1027 90 1000 3.52 344 19:55 01.01.2020
1312 Snow -1 1027 90 1000 3.52 344 19:55 01.01.2020
1313 Snow -1 1027 90 1000 3.52 344 19:55 01.01.2020
1314 Snow -1 1027 90 1000 3.52 344 19:55 01.01.2020
1315 Rain 0 1027 92 4000 2.6 30 19:37 01.01.2020
1316 Rain 0 1027 92 4000 2.6 30 19:19 01.01.2020
1317 Rain 0 1027 100 2500 3.1 350 18:56 01.01.2020
1318 Rain 0 1027 100 2500 3.1 350 18:36 01.01.2020
1319 Rain 0 1027 100 2500 3.1 350 18:18 01.01.2020
1320 Snow 0 1027 100 2500 2.1 10 17:56 01.01.2020
1321 Snow 0 1027 100 2500 2.1 10 17:56 01.01.2020
1322 Snow 0 1027 100 2500 2.1 10 17:38 01.01.2020
1323 Snow 0 1027 100 2500 2.1 10 17:19 01.01.2020
1324 Rain 0 1027 100 1800 2.1 360 16:42 01.01.2020
1325 Rain 0 1027 100 1800 2.1 360 16:23 01.01.2020
1326 Rain 0 1026 100 2000 2.6 10 15:58 01.01.2020
1327 Rain 0 1026 100 2000 2.6 10 15:40 01.01.2020
1328 Rain 0 1026 87 4000 4.14 340 15:21 01.01.2020
1329 Rain 1 1026 87 2000 4.6 10 14:59 01.01.2020
1330 Rain 1 1026 87 2000 4.6 10 14:40 01.01.2020
1331 Rain 1 1026 75 2000 4.6 10 14:21 01.01.2020
1332 Snow 1 1025 75 3000 6.2 350 13:56 01.01.2020
1333 Snow 1 1025 75 3000 6.2 350 13:37 01.01.2020
1334 Snow 1 1025 75 3000 6.2 350 13:37 01.01.2020
1335 Snow 1 1025 75 3000 6.2 350 13:37 01.01.2020
1336 Snow 1 1025 73 3000 6.2 350 13:18 01.01.2020
1337 Rain 1 1025 100 4000 2.6 270 12:56 01.01.2020
1338 Rain 1 1025 100 4000 2.6 270 12:56 01.01.2020
1339 Snow 1 1025 73 2000 2.6 30 12:38 01.01.2020
1340 Snow 1 1025 73 2000 2.6 30 12:19 01.01.2020
1341 Rain 1 1025 73 2000 5.1 360 11:43 01.01.2020
1342 Snow 1 1025 77 5000 5.1 350 11:23 01.01.2020
1343 Snow 2 1025 80 3000 5.7 10 10:59 01.01.2020
1344 Snow 2 1025 80 3000 5.7 10 10:41 01.01.2020
1345 Snow 2 1025 80 3000 5.7 10 10:21 01.01.2020
1346 Snow 2 1025 80 3000 5.7 10 10:21 01.01.2020
1347 Snow 2 1025 80 4000 2.1 360 09:58 01.01.2020
1348 Snow 2 1025 80 4000 2.1 360 09:37 01.01.2020
1349 Snow 2 1026 86 2000 3.6 320 09:18 01.01.2020
1350 Snow 2 1026 86 2000 3.6 320 09:18 01.01.2020
1351 Snow 2 1026 80 2500 2.6 360 08:55 01.01.2020
1352 Snow 2 1026 80 2500 2.6 360 08:36 01.01.2020
1353 Snow 2 1026 80 5000 4.1 350 08:18 01.01.2020
1354 Mist 1 1026 61 6000 1.5 340 07:54 01.01.2020
1355 Snow 2 1027 86 5000 2.6 340 07:35 01.01.2020
1356 Mist 1 1026 61 7000 1.5 110 06:44 01.01.2020
1357 Mist 1 1026 61 7000 1.5 110 06:21 01.01.2020
1358 Mist 0 1025 92 5000 1.5 130 05:22 01.01.2020
1359 Snow 0 1024 55 5000 2.69 330 03:45 01.01.2020
1360 Snow 0 1024 92 5000 1.5 0 03:23 01.01.2020
1361 Mist 0 1023 55 9000 2.69 330 02:57 01.01.2020
1362 Snow 0 1023 92 4000 1 290 02:35 01.01.2020
1363 Clouds 1 1023 66 10000 2.64 331 01:56 01.01.2020
1364 Rain 1 1023 66 9000 2.64 331 01:38 01.01.2020
1365 Rain 0 1023 66 9000 2.69 327 01:19 01.01.2020
1366 Clouds 0 1023 66 10000 2.69 327 00:44 01.01.2020
1367 Rain 0 1023 92 4000 2.6 320 00:25 01.01.2020
1368 Snow 1 1023 66 7000 5.7 350 23:41 31.12.2019
1369 Snow 1 1023 75 7000 5.7 350 23:21 31.12.2019
1370 Clouds 1 1023 80 10000 2.61 338 22:57 31.12.2019
1371 Clouds 2 1023 59 10000 1.5 0 22:39 31.12.2019
1372 Clouds 2 1023 59 10000 1.5 0 22:20 31.12.2019
1373 Clouds 2 1023 64 10000 5.1 350 21:57 31.12.2019
1374 Clouds 1 1023 64 10000 5.1 350 21:38 31.12.2019
1375 Clouds 2 1023 64 10000 5.1 350 21:20 31.12.2019
1376 Clouds 2 1023 59 10000 5.1 20 20:55 31.12.2019
1377 Clouds 2 1023 59 10000 5.1 20 20:36 31.12.2019
1378 Clouds 2 1023 59 10000 5.1 20 20:18 31.12.2019
1379 Clouds 3 1023 51 10000 5.1 10 19:42 31.12.2019
1380 Clouds 3 1023 51 10000 5.1 10 19:24 31.12.2019
1381 Clouds 4 1023 55 10000 6.2 40 18:59 31.12.2019
1382 Clouds 4 1023 55 10000 6.2 40 18:40 31.12.2019
1383 Clouds 4 1023 55 10000 6.2 40 18:20 31.12.2019
1384 Clouds 5 1023 51 10000 5.1 120 17:57 31.12.2019
1385 Clouds 5 1023 51 10000 5.1 120 17:38 31.12.2019
1386 Clouds 5 1023 51 10000 5.1 120 17:19 31.12.2019
1387 Clouds 5 1022 44 10000 4.6 70 16:57 31.12.2019
1388 Clouds 5 1022 44 10000 4.6 70 16:57 31.12.2019
1389 Clouds 5 1022 44 10000 4.6 70 16:38 31.12.2019
1390 Clouds 5 1022 44 10000 4.6 70 16:19 31.12.2019
1391 Clouds 6 1022 35 10000 3.1 70 15:57 31.12.2019
1392 Clouds 6 1022 35 10000 3.1 70 15:39 31.12.2019
1393 Clouds 6 1022 35 10000 3.1 70 15:21 31.12.2019
1394 Clouds 6 1021 35 10000 3.1 90 14:58 31.12.2019
1395 Clouds 6 1021 35 10000 3.1 90 14:39 31.12.2019
1396 Clouds 6 1021 35 10000 3.1 90 14:19 31.12.2019
1397 Clouds 7 1020 35 10000 5.1 120 13:58 31.12.2019
1398 Clouds 7 1020 35 10000 5.1 120 13:40 31.12.2019
1399 Clouds 7 1020 35 10000 5.1 120 13:21 31.12.2019
1400 Clouds 8 1020 33 10000 5.1 120 12:58 31.12.2019
1401 Clouds 8 1020 33 10000 5.1 120 12:40 31.12.2019
1402 Clouds 8 1020 33 10000 5.1 120 12:20 31.12.2019
1403 Clouds 9 1020 31 10000 5.1 120 11:56 31.12.2019
1404 Clouds 9 1020 31 10000 5.1 120 11:38 31.12.2019
1405 Clouds 9 1020 31 10000 5.1 120 11:38 31.12.2019
1406 Clouds 9 1020 31 10000 5.1 120 11:20 31.12.2019
1407 Clouds 9 1021 28 9000 3.1 110 10:58 31.12.2019
1408 Clouds 9 1021 28 9000 3.1 110 10:38 31.12.2019
1409 Clouds 9 1021 28 9000 3.1 110 10:20 31.12.2019
1410 Clouds 8 1022 30 9000 1 90 09:59 31.12.2019
1411 Clouds 8 1022 30 9000 1 90 09:39 31.12.2019
1412 Clouds 8 1022 30 9000 1 90 09:20 31.12.2019
1413 Clouds 7 1023 30 9000 1 100 08:57 31.12.2019
1414 Clouds 7 1023 30 9000 1 100 08:39 31.12.2019
1415 Haze 6 1021 36 5000 1.52 56 08:19 31.12.2019
1416 Smoke 5 1023 38 6000 1 190 07:43 31.12.2019
1417 Smoke 5 1023 38 6000 1 190 07:21 31.12.2019
1418 Smoke 3 1023 38 3000 1 0 06:50 31.12.2019
1419 Smoke -1 1022 63 2500 1 0 05:57 31.12.2019
1420 Smoke -4 1022 68 2500 1 0 04:29 31.12.2019
1421 Smoke -3 1021 68 3000 1 310 03:28 31.12.2019
1422 Smoke -3 1021 73 3000 1.5 110 02:55 31.12.2019
1423 Smoke -3 1021 73 3000 1.5 110 02:18 31.12.2019
1424 Smoke -3 1020 63 1600 1 0 01:42 31.12.2019
1425 Smoke -3 1020 63 1600 1 0 01:23 31.12.2019
1426 Smoke -2 1021 63 1600 1.5 300 00:46 31.12.2019
1427 Smoke -2 1021 63 1600 1.5 300 00:22 31.12.2019
1428 Smoke -1 1021 58 1200 1.5 290 23:56 30.12.2019
1429 Smoke -1 1021 58 1200 1.5 290 23:38 30.12.2019
1430 Smoke -1 1021 58 1200 1.5 290 23:20 30.12.2019
1431 Smoke 1 1020 58 1000 1.5 0 22:57 30.12.2019
1432 Smoke 1 1020 58 1000 1.5 0 22:38 30.12.2019
1433 Smoke 1 1020 58 1000 1.5 0 22:20 30.12.2019
1434 Smoke 1 1020 63 1000 1.5 320 21:56 30.12.2019
1435 Smoke 1 1020 63 1000 1.5 320 21:38 30.12.2019
1436 Smoke 1 1020 63 1000 1.5 320 21:18 30.12.2019
1437 Smoke 2 1021 58 1200 1.5 310 20:56 30.12.2019
1438 Smoke 2 1021 58 1200 1.5 310 20:38 30.12.2019
1439 Smoke 2 1021 58 1200 1.5 310 20:20 30.12.2019
1440 Smoke 5 1021 47 1200 1.5 0 19:57 30.12.2019
1441 Smoke 5 1021 47 1200 1.5 0 19:37 30.12.2019
1442 Smoke 5 1021 47 1200 1.5 0 19:19 30.12.2019
1443 Smoke 5 1020 47 2500 1.5 0 18:56 30.12.2019
1444 Smoke 5 1020 47 2500 1.5 0 18:37 30.12.2019
1445 Smoke 5 1020 47 2500 1.5 0 18:19 30.12.2019
1446 Smoke 6 1019 40 3000 1 0 17:55 30.12.2019
1447 Smoke 6 1019 40 3000 1 0 17:36 30.12.2019
1448 Smoke 6 1019 40 3000 1 0 17:36 30.12.2019
1449 Smoke 6 1019 40 3000 1 0 17:18 30.12.2019
1450 Smoke 5 1019 40 3000 1.5 0 16:55 30.12.2019
1451 Smoke 5 1019 40 3000 1.5 0 16:36 30.12.2019
1452 Smoke 5 1019 40 3000 1.5 0 16:18 30.12.2019
1453 Smoke 5 1019 40 3000 1.5 0 16:18 30.12.2019
1454 Haze 5 1017 33 6000 1.35 313 15:54 30.12.2019
1455 Smoke 5 1019 38 3000 2.1 130 15:36 30.12.2019
1456 Smoke 5 1019 38 3000 2.1 130 15:18 30.12.2019
1457 Smoke 6 1018 35 3000 2.1 130 14:42 30.12.2019
1458 Haze 7 1018 28 5000 1 0 14:19 30.12.2019
1459 Clear 8 1018 21 8000 3.1 60 13:54 30.12.2019
1460 Clear 8 1018 21 8000 3.1 60 13:36 30.12.2019
1461 Clouds 10 1018 21 8000 3.1 60 13:18 30.12.2019
1462 Clouds 10 1018 18 10000 1 0 12:42 30.12.2019
1463 Clouds 10 1018 18 10000 1 0 12:20 30.12.2019
1464 Clouds 11 1018 17 10000 2.1 160 11:58 30.12.2019
1465 Clouds 11 1018 17 10000 2.1 160 11:39 30.12.2019
1466 Clear 11 1018 17 10000 2.1 160 11:19 30.12.2019
1467 Haze 10 1019 18 7000 1 0 10:43 30.12.2019
1468 Haze 10 1019 18 7000 1 0 10:21 30.12.2019
1469 Haze 9 1017 26 3200 1.64 150 09:57 30.12.2019
1470 Haze 8 1018 36 2800 1.64 150 09:37 30.12.2019
1471 Haze 8 1018 36 2800 1.64 150 09:19 30.12.2019
1472 Smoke 8 1021 24 7000 2.6 350 08:49 30.12.2019
1473 Smoke 5 1021 24 7000 2.6 350 08:23 30.12.2019
1474 Smoke 4 1022 30 3000 2.6 330 07:55 30.12.2019
1475 Smoke 4 1022 30 3000 2.6 330 07:33 30.12.2019
1476 Smoke 2 1022 38 3000 1.5 300 06:52 30.12.2019
1477 Haze -2 1020 73 8000 0.86 270 04:56 30.12.2019
1478 Haze -3 1020 73 3200 0.86 270 03:53 30.12.2019
1479 Smoke -4 1021 58 4000 1.5 300 02:50 30.12.2019
1480 Smoke -3 1021 58 4000 1.5 300 02:32 30.12.2019
1481 Smoke -2 1021 28 4000 2.6 330 01:50 30.12.2019
1482 Smoke -2 1021 27 4000 2.6 330 01:20 30.12.2019
1483 Smoke -3 1021 54 2500 2.1 320 00:44 30.12.2019
1484 Smoke -3 1021 54 2500 2.1 320 00:18 30.12.2019
1485 Smoke -4 1022 68 1000 1.5 0 23:39 29.12.2019
1486 Smoke -4 1022 68 1000 1.5 0 23:21 29.12.2019
1487 Smoke -2 1022 68 1000 1.5 0 22:42 29.12.2019
1488 Smoke -2 1022 68 1000 1.5 0 22:23 29.12.2019
1489 Smoke -2 1022 58 1200 1.5 0 21:59 29.12.2019
1490 Smoke -1 1022 58 1200 1.5 0 21:41 29.12.2019
1491 Smoke -2 1022 58 1200 1.5 0 21:20 29.12.2019
1492 Smoke -2 1022 58 1200 1.5 0 21:20 29.12.2019
1493 Smoke -2 1022 58 1000 1.5 0 20:57 29.12.2019
1494 Smoke -2 1022 58 1000 1.5 0 20:39 29.12.2019
1495 Smoke -2 1022 58 1000 1.5 0 20:20 29.12.2019
1496 Smoke -1 1022 58 1200 1.5 0 19:58 29.12.2019
1497 Smoke -1 1022 58 1200 1.5 0 19:39 29.12.2019
1498 Smoke -1 1022 58 1200 1.5 0 19:20 29.12.2019
1499 Smoke -1 1022 31 1200 1 0 18:57 29.12.2019
1500 Smoke -1 1022 31 1200 1 0 18:38 29.12.2019
1501 Smoke -1 1023 31 1600 1 280 18:19 29.12.2019
1502 Smoke -1 1022 50 2500 1 360 17:57 29.12.2019
1503 Smoke -1 1022 50 2500 1 360 17:39 29.12.2019
1504 Smoke -1 1022 50 2500 1 360 17:20 29.12.2019
1505 Smoke 0 1022 43 2000 1.5 140 16:56 29.12.2019
1506 Smoke 0 1022 43 2000 1.5 140 16:37 29.12.2019
1507 Smoke 0 1022 43 2000 1.5 140 16:19 29.12.2019
1508 Haze 2 1021 35 4400 2.1 200 15:57 29.12.2019
1509 Smoke 3 1022 34 3000 1.5 100 15:38 29.12.2019
1510 Smoke 3 1022 34 3000 1.5 100 15:19 29.12.2019
1511 Smoke 8 1021 28 5000 1.5 140 14:56 29.12.2019
1512 Smoke 8 1021 28 5000 1.5 140 14:38 29.12.2019
1513 Smoke 8 1021 28 5000 1.5 140 14:18 29.12.2019
1514 Clear 9 1021 23 7000 2.6 150 13:57 29.12.2019
1515 Clear 9 1021 23 7000 2.6 150 13:37 29.12.2019
1516 Clear 9 1021 23 7000 2.6 150 13:37 29.12.2019
1517 Clear 9 1021 23 7000 2.6 150 13:19 29.12.2019
1518 Clear 11 1021 23 7000 0.45 270 12:44 29.12.2019
1519 Clear 11 1021 23 7000 0.45 270 12:25 29.12.2019
1520 Clear 12 1022 17 6000 1 250 11:56 29.12.2019
1521 Clear 12 1022 17 6000 1 250 11:38 29.12.2019
1522 Clear 12 1022 17 6000 1 250 11:38 29.12.2019
1523 Clear 12 1022 17 6000 1 250 11:20 29.12.2019
1524 Haze 10 1022 20 4000 1.5 320 10:42 29.12.2019
1525 Haze 10 1022 20 4000 1.5 320 10:23 29.12.2019
1526 Haze 9 1023 25 2500 1.5 200 09:57 29.12.2019
1527 Haze 10 1023 25 2500 1.5 200 09:38 29.12.2019
1528 Haze 10 1023 25 2500 1.5 200 09:20 29.12.2019
1529 Haze 8 1025 28 3000 1.5 0 08:47 29.12.2019
1530 Haze 4 1025 28 3000 1.5 0 08:24 29.12.2019
1531 Haze 5 1025 32 4000 1.5 320 07:55 29.12.2019
1532 Haze 1 1025 32 4000 1.5 320 07:28 29.12.2019
1533 Haze 1 1025 37 4000 3.1 320 06:55 29.12.2019
1534 Haze 1 1025 37 4000 3.1 320 06:25 29.12.2019
1535 Haze -1 1024 16 4000 2.1 320 05:51 29.12.2019
1536 Smoke -2 1024 50 3500 2.6 320 04:36 29.12.2019
1537 Smoke -4 1024 68 3000 3.1 330 03:51 29.12.2019
1538 Smoke -5 1024 68 3000 3.1 330 03:20 29.12.2019
1539 Smoke -5 1023 79 1000 1.5 290 02:20 29.12.2019
1540 Smoke -3 1023 79 1000 1.5 323 01:31 29.12.2019
1541 Smoke -4 1023 79 800 1.46 323 00:57 29.12.2019
1542 Smoke -4 1023 79 800 1.46 323 00:39 29.12.2019
1543 Smoke -4 1023 79 800 1.46 323 00:21 29.12.2019
1544 Smoke -4 1023 68 800 1.46 323 23:42 28.12.2019
1545 Smoke -4 1023 68 800 1.46 323 23:42 28.12.2019
1546 Smoke -4 1023 68 800 1.51 313 23:18 28.12.2019
1547 Smoke -2 1023 68 800 1.51 313 22:39 28.12.2019
1548 Smoke -2 1023 68 800 1.51 313 22:39 28.12.2019
1549 Smoke -2 1023 68 1000 1 0 22:20 28.12.2019
1550 Smoke -3 1023 63 1000 1.51 313 21:58 28.12.2019
1551 Smoke -3 1023 63 1000 1.51 313 21:58 28.12.2019
1552 Smoke -3 1023 63 1000 1.51 313 21:39 28.12.2019
1553 Smoke -3 1023 63 1000 1.51 313 21:21 28.12.2019
1554 Smoke -3 1023 63 1000 1.51 313 21:21 28.12.2019
1555 Smoke -2 1023 63 1200 0.5 120 20:57 28.12.2019
1556 Smoke -2 1023 63 1200 0.5 120 20:37 28.12.2019
1557 Smoke -2 1023 63 1200 0.5 120 20:19 28.12.2019
1558 Smoke -2 1023 54 1500 1.41 327 19:56 28.12.2019
1559 Smoke -2 1023 54 1500 1.41 327 19:38 28.12.2019
1560 Smoke -2 1023 54 1500 1.41 327 19:19 28.12.2019
1561 Smoke -1 1023 27 1500 1.41 327 18:56 28.12.2019
1562 Smoke -1 1023 27 1500 1.41 327 18:38 28.12.2019
1563 Smoke -1 1023 27 1500 1.41 327 18:18 28.12.2019
1564 Smoke 0 1022 50 1200 0.5 0 17:43 28.12.2019
1565 Smoke 0 1022 50 1200 0.5 0 17:21 28.12.2019
1566 Smoke 0 1022 50 1200 1 230 16:59 28.12.2019
1567 Smoke 0 1022 50 1200 1 230 16:41 28.12.2019
1568 Smoke 1 1022 47 3000 1.2 317 16:23 28.12.2019
1569 Smoke 3 1021 35 3000 2.6 110 15:43 28.12.2019
1570 Smoke 3 1021 35 3000 2.6 110 15:23 28.12.2019
1571 Haze 7 1021 30 4500 1 140 14:56 28.12.2019
1572 Haze 7 1021 30 4500 1 140 14:37 28.12.2019
1573 Haze 7 1021 30 4500 1 140 14:19 28.12.2019
1574 Haze 10 1020 24 4500 1 120 13:42 28.12.2019
1575 Haze 10 1020 24 4500 1 120 13:21 28.12.2019
1576 Haze 10 1020 24 4500 1 120 13:21 28.12.2019
1577 Haze 11 1020 21 4000 2.1 70 12:58 28.12.2019
1578 Haze 11 1020 21 4000 2.1 70 12:40 28.12.2019
1579 Haze 11 1020 21 4000 2.1 70 12:21 28.12.2019
1580 Smoke 11 1021 18 4000 0.49 52 11:40 28.12.2019
1581 Smoke 11 1021 18 4000 1.16 136 11:21 28.12.2019
1582 Smoke 11 1021 20 4000 1 0 10:57 28.12.2019
1583 Smoke 11 1021 20 4000 1 0 10:38 28.12.2019
1584 Smoke 11 1021 20 4000 1 0 10:19 28.12.2019
1585 Smoke 9 1022 23 4000 1 0 09:54 28.12.2019
1586 Smoke 10 1022 23 4000 1 0 09:36 28.12.2019
1587 Smoke 10 1022 23 4000 1 0 09:36 28.12.2019
1588 Smoke 7 1022 23 4000 1 0 09:18 28.12.2019
1589 Smoke 7 1023 24 4000 1.5 340 08:42 28.12.2019
1590 Smoke 7 1023 24 4000 1.5 340 08:23 28.12.2019
1591 Haze 5 1024 30 3500 1.5 290 07:47 28.12.2019
1592 Haze 5 1024 30 3500 1.5 290 07:22 28.12.2019
1593 Haze -1 1023 16 4000 1.5 320 05:46 28.12.2019
1594 Haze -4 1021 73 4000 0.83 262 03:48 28.12.2019
1595 Smoke -3 1022 58 2400 1.5 330 02:51 28.12.2019
1596 Smoke -3 1022 58 2400 1.5 330 02:20 28.12.2019
1597 Smoke -3 1022 63 1600 1.5 310 01:55 28.12.2019
1598 Smoke -3 1022 63 1600 1.5 310 01:23 28.12.2019
1599 Smoke -3 1022 22 1000 1.12 299 00:48 28.12.2019
1600 Smoke -3 1022 22 1000 1.12 299 00:30 28.12.2019
1601 Smoke -3 1022 68 1000 0.5 340 23:58 27.12.2019
1602 Smoke -3 1022 68 1000 0.5 340 23:58 27.12.2019
1603 Smoke -3 1022 68 1000 0.5 340 23:38 27.12.2019
1604 Smoke -3 1022 68 1000 0.5 340 23:18 27.12.2019
1605 Smoke -2 1022 63 800 1 150 22:55 27.12.2019
1606 Smoke -2 1022 63 800 1 150 22:37 27.12.2019
1607 Smoke -2 1022 63 800 1 150 22:19 27.12.2019
1608 Smoke -2 1022 63 800 6.2 120 21:43 27.12.2019
1609 Smoke -3 1022 63 1000 0.5 190 21:24 27.12.2019
1610 Smoke -2 1022 22 800 1 250 20:45 27.12.2019
1611 Smoke -2 1022 23 800 1 250 20:26 27.12.2019
1612 Smoke -1 1022 58 1600 1.5 310 19:59 27.12.2019
1613 Smoke -1 1022 58 1600 1.5 310 19:40 27.12.2019
1614 Smoke -1 1022 54 3000 1 10 19:20 27.12.2019
1615 Smoke -1 1022 25 3000 0.5 310 18:56 27.12.2019
1616 Smoke -1 1022 25 3000 0.5 310 18:37 27.12.2019
1617 Smoke -1 1022 25 3000 0.5 310 18:18 27.12.2019
1618 Smoke 1 1022 43 4000 1 250 17:55 27.12.2019
1619 Smoke 1 1022 43 4000 1 250 17:55 27.12.2019
1620 Smoke 1 1022 43 4000 1 250 17:37 27.12.2019
1621 Smoke 1 1022 43 4000 1 250 17:18 27.12.2019
1622 Smoke 1 1021 40 5000 1 0 16:43 27.12.2019
1623 Smoke 1 1021 40 5000 1 0 16:23 27.12.2019
1624 Smoke 5 1020 38 5000 0.5 130 15:58 27.12.2019
1625 Smoke 5 1020 38 5000 0.5 130 15:37 27.12.2019
1626 Smoke 5 1020 38 5000 0.5 130 15:19 27.12.2019
1627 Clear 8 1020 30 7000 1.5 170 14:56 27.12.2019
1628 Clear 8 1020 30 7000 1.5 170 14:38 27.12.2019
1629 Clear 8 1020 30 7000 1.5 170 14:19 27.12.2019
1630 Smoke 10 1019 25 7000 2.1 90 13:47 27.12.2019
1631 Smoke 10 1019 25 7000 2.1 90 13:24 27.12.2019
1632 Smoke 12 1019 16 7000 1.5 100 12:56 27.12.2019
1633 Smoke 12 1019 16 7000 1.5 100 12:37 27.12.2019
1634 Smoke 12 1019 16 7000 1.5 100 12:18 27.12.2019
1635 Smoke 12 1019 17 7000 1.5 0 11:42 27.12.2019
1636 Smoke 12 1019 17 7000 1.5 0 11:20 27.12.2019
1637 Haze 12 1018 17 5000 1.1 135 10:47 27.12.2019
1638 Smoke 11 1020 18 7000 1.5 210 10:24 27.12.2019
1639 Smoke 10 1021 21 8000 1.5 180 09:59 27.12.2019
1640 Smoke 10 1021 21 8000 1.5 180 09:39 27.12.2019
1641 Smoke 10 1021 21 8000 1.5 180 09:21 27.12.2019
1642 Smoke 9 1022 21 8000 1.5 0 08:49 27.12.2019
1643 Smoke 9 1022 21 8000 1.5 0 08:30 27.12.2019
1644 Smoke 6 1023 21 3000 1.5 0 07:48 27.12.2019
1645 Smoke 6 1023 21 3000 1.5 0 07:26 27.12.2019
1646 Smoke 2 1023 38 4000 1.5 0 06:33 27.12.2019
1647 Haze -2 1021 73 2800 0.87 232 04:51 27.12.2019
1648 Smoke -4 1021 53 5000 3.1 330 02:49 27.12.2019
1649 Smoke -3 1021 63 1800 1.5 310 01:56 27.12.2019
1650 Smoke -3 1022 68 1000 2.1 290 01:23 27.12.2019
1651 Smoke -3 1022 63 1000 1 310 00:53 27.12.2019
1652 Smoke -3 1022 63 1000 1 310 00:34 27.12.2019
1653 Smoke -2 1022 63 800 1 0 23:59 26.12.2019
1654 Smoke -2 1022 63 800 1 0 23:40 26.12.2019
1655 Smoke -2 1022 63 800 1 0 23:21 26.12.2019
1656 Smoke -2 1022 63 1000 0.5 0 22:43 26.12.2019
1657 Smoke -2 1022 63 1000 0.5 0 22:21 26.12.2019
1658 Smoke -1 1022 63 1000 1 160 21:56 26.12.2019
1659 Smoke -1 1022 63 1000 1 160 21:37 26.12.2019
1660 Smoke -1 1022 63 1000 1 160 21:19 26.12.2019
1661 Smoke -2 1022 58 800 1.5 320 20:44 26.12.2019
1662 Smoke -2 1022 58 800 1.5 320 20:22 26.12.2019
1663 Smoke 0 1022 22 800 0.63 232 19:58 26.12.2019
1664 Smoke 0 1022 22 800 0.63 232 19:39 26.12.2019
1665 Smoke 0 1022 22 800 0.63 232 19:20 26.12.2019
1666 Smoke 0 1022 58 800 1.5 170 18:57 26.12.2019
1667 Smoke 0 1022 58 800 1.5 170 18:38 26.12.2019
1668 Smoke 0 1022 22 1200 0.5 0 18:19 26.12.2019
1669 Smoke 1 1022 50 1200 0.63 232 17:42 26.12.2019
1670 Smoke 1 1022 50 1200 1.35 239 17:22 26.12.2019
1671 Smoke 2 1022 40 2000 1.5 290 16:58 26.12.2019
1672 Smoke 2 1022 40 2000 1.5 290 16:39 26.12.2019
1673 Smoke 2 1022 40 2000 1.5 290 16:20 26.12.2019
1674 Smoke 4 1021 30 2000 1.5 0 15:41 26.12.2019
1675 Smoke 4 1021 30 2000 1.5 0 15:21 26.12.2019
1676 Smoke 8 1021 28 4000 2.1 210 14:58 26.12.2019
1677 Smoke 8 1021 28 4000 2.1 210 14:38 26.12.2019
1678 Clear 7 1020 26 8000 1.5 270 14:20 26.12.2019
1679 Clear 10 1020 17 8000 1.5 90 13:43 26.12.2019
1680 Clear 10 1020 17 8000 1.5 90 13:20 26.12.2019
1681 Smoke 13 1020 12 8000 1.5 0 12:56 26.12.2019
1682 Smoke 13 1020 12 8000 1.5 0 12:56 26.12.2019
1683 Smoke 13 1020 12 8000 1.5 0 12:37 26.12.2019
1684 Clouds 13 1018 12 10000 1.59 224 12:19 26.12.2019
1685 Smoke 13 1021 12 8000 1.5 0 11:56 26.12.2019
1686 Smoke 13 1021 12 8000 1.5 0 11:37 26.12.2019
1687 Smoke 13 1021 12 8000 1.5 0 11:37 26.12.2019
1688 Smoke 13 1021 12 8000 1.5 0 11:19 26.12.2019
1689 Smoke 12 1021 15 7000 1.5 0 10:41 26.12.2019
1690 Smoke 12 1021 15 7000 1.5 0 10:41 26.12.2019
1691 Smoke 12 1021 15 7000 1.5 0 10:18 26.12.2019
1692 Smoke 11 1023 17 6000 1.5 0 09:43 26.12.2019
1693 Smoke 11 1023 17 6000 1.5 0 09:25 26.12.2019
1694 Smoke 8 1024 22 5000 1.5 0 08:42 26.12.2019
1695 Smoke 8 1024 22 5000 1.5 0 08:23 26.12.2019
1696 Smoke 7 1025 22 6000 1.5 0 07:52 26.12.2019
1697 Smoke 7 1025 22 6000 1.5 0 07:26 26.12.2019
1698 Smoke 2 1025 32 6000 3.1 320 06:48 26.12.2019
1699 Smoke 2 1025 32 6000 3.1 320 06:30 26.12.2019
1700 Smoke -1 1024 17 7000 1.5 330 05:45 26.12.2019
1701 Clear -2 1024 49 10000 1.5 320 04:38 26.12.2019
1702 Haze -4 1022 58 9000 2.1 250 03:47 26.12.2019
1703 Clear -3 1023 49 9000 2.1 330 02:50 26.12.2019
1704 Clear -3 1023 49 9000 2.1 330 02:32 26.12.2019
1705 Clear -3 1023 46 9000 1.62 219 01:46 26.12.2019
1706 Clear -3 1023 46 9000 1.62 219 01:26 26.12.2019
1707 Clear -1 1023 39 10000 3.1 330 00:48 26.12.2019
1708 Clear -1 1023 39 10000 3.1 330 00:24 26.12.2019
1709 Clear -1 1023 39 10000 3.1 330 00:24 26.12.2019
1710 Clear -1 1023 39 10000 3.1 330 00:24 26.12.2019
1711 Clear 0 1024 39 10000 4.1 330 23:58 25.12.2019
1712 Clear 0 1024 39 10000 4.1 330 23:38 25.12.2019
1713 Clear 0 1024 39 10000 4.1 330 23:20 25.12.2019
1714 Smoke 0 1024 42 5000 3.6 330 22:58 25.12.2019
1715 Smoke 0 1024 42 5000 3.6 330 22:38 25.12.2019
1716 Smoke 0 1024 42 5000 3.6 330 22:38 25.12.2019
1717 Smoke 0 1024 42 5000 3.6 330 22:19 25.12.2019
1718 Smoke 0 1024 42 3500 3.1 330 21:57 25.12.2019
1719 Smoke -1 1024 42 3500 3.1 330 21:39 25.12.2019
1720 Smoke -1 1024 50 1800 2.1 330 21:19 25.12.2019
1721 Smoke -1 1024 26 1800 2.1 340 20:41 25.12.2019
1722 -273 0 0 0 0 0 20:22 25.12.2019
1723 Smoke -1 1024 26 1600 1 0 19:59 25.12.2019
1724 Smoke -1 1024 26 1600 1 0 19:41 25.12.2019
1725 Smoke -1 1024 26 1600 1 0 19:22 25.12.2019
1726 Smoke 0 1024 40 1600 1.5 320 18:54 25.12.2019
1727 Smoke 0 1024 40 1600 1.5 320 18:36 25.12.2019
1728 Smoke 0 1024 40 1600 1.5 320 18:18 25.12.2019
1729 Smoke 6 1024 34 1600 3.1 230 17:40 25.12.2019
1730 Smoke 6 1024 34 1600 3.1 230 17:18 25.12.2019
1731 Smoke 6 1024 32 3000 2.1 240 16:55 25.12.2019
1732 Smoke 6 1024 32 3000 2.1 240 16:37 25.12.2019
1733 Clear 8 1024 20 10000 3.1 350 16:18 25.12.2019
1734 Clear 7 1023 22 10000 2.6 360 15:56 25.12.2019
1735 Clear 7 1023 22 10000 2.6 360 15:37 25.12.2019
1736 Clear 7 1023 22 10000 2.6 360 15:18 25.12.2019
1737 Clear 7 1023 22 10000 2.6 360 15:18 25.12.2019
1738 Clear 8 1023 19 10000 3.1 330 14:56 25.12.2019
1739 Clear 7 1023 19 10000 3.1 330 14:37 25.12.2019
1740 Clear 10 1023 19 10000 3.1 330 14:18 25.12.2019
1741 Clear 10 1022 16 10000 4.6 360 13:42 25.12.2019
1742 Clear 10 1022 16 10000 4.6 360 13:21 25.12.2019
1743 Clear 11 1023 16 10000 3.1 10 12:44 25.12.2019
1744 Clear 11 1023 16 10000 3.1 10 12:23 25.12.2019
1745 Clear 12 1023 15 10000 0.5 0 11:58 25.12.2019
1746 Clear 12 1023 15 10000 0.5 0 11:40 25.12.2019
1747 Clear 12 1023 15 10000 0.5 0 11:21 25.12.2019
1748 Clear 10 1023 17 10000 1.5 160 10:41 25.12.2019
1749 Clear 10 1023 17 10000 1.5 160 10:21 25.12.2019
1750 Smoke 10 1024 21 6000 4.1 190 09:59 25.12.2019
1751 Smoke 10 1024 21 6000 4.1 190 09:41 25.12.2019
1752 Smoke 10 1024 21 6000 4.1 190 09:23 25.12.2019
1753 Smoke 8 1025 24 6000 1.5 190 08:44 25.12.2019
1754 Smoke 8 1025 24 6000 1.5 190 08:24 25.12.2019
1755 Smoke 6 1025 26 5000 1 360 07:44 25.12.2019
1756 Smoke 6 1025 26 5000 1 360 07:23 25.12.2019
1757 Smoke 4 1025 32 5000 2.1 310 06:24 25.12.2019
1758 Smoke -1 1025 25 5000 2.1 320 05:51 25.12.2019
1759 Smoke -4 1025 58 5000 1 270 04:46 25.12.2019
1760 Haze -3 1023 73 4000 1.37 248 04:24 25.12.2019
1761 Haze -3 1023 73 4000 1.37 248 03:46 25.12.2019
1762 Clear -4 1024 53 10000 3.1 330 03:18 25.12.2019
1763 Clear -4 1024 58 8000 2.1 290 02:30 25.12.2019
1764 Clear -3 1023 58 8000 1.5 290 01:54 25.12.2019
1765 Clear -3 1023 58 8000 1.5 290 01:24 25.12.2019
1766 Clear -4 1024 54 6000 3.1 340 00:45 25.12.2019
1767 Clear -4 1024 54 6000 3.1 340 00:26 25.12.2019
1768 Smoke -2 1024 54 2000 1.5 320 23:40 24.12.2019
1769 Smoke -2 1024 54 2000 1.5 320 23:20 24.12.2019
1770 Smoke -1 1024 63 1600 2.1 310 22:55 24.12.2019
1771 Smoke -1 1024 63 1600 2.1 310 22:37 24.12.2019
1772 Smoke -1 1024 63 1600 2.1 310 22:19 24.12.2019
1773 Smoke -2 1024 63 1600 1.5 340 21:41 24.12.2019
1774 Smoke -1 1024 63 1600 1.5 340 21:20 24.12.2019
1775 Smoke -1 1024 63 1600 1.5 320 20:43 24.12.2019
1776 Smoke -1 1024 63 1600 1.5 320 20:23 24.12.2019
1777 Smoke 0 1024 54 1600 1.35 287 19:56 24.12.2019
1778 Smoke 0 1024 54 1600 1.35 287 19:37 24.12.2019
1779 Smoke 0 1024 54 1600 1.35 287 19:18 24.12.2019
1780 Smoke 0 1024 55 1600 1 150 18:42 24.12.2019
1781 Smoke 0 1024 55 1600 1 150 18:19 24.12.2019
1782 Smoke 0 1024 47 3000 1 0 17:44 24.12.2019
1783 Smoke 0 1024 47 3000 1 0 17:23 24.12.2019
1784 Smoke 2 1024 37 3000 1 40 16:58 24.12.2019
1785 Smoke 2 1024 37 3000 1 40 16:58 24.12.2019
1786 Smoke 2 1024 37 3000 1 40 16:40 24.12.2019
1787 Smoke 2 1024 37 3000 1 40 16:21 24.12.2019
1788 Smoke 2 1024 37 3000 1 40 16:21 24.12.2019
1789 Smoke 5 1023 35 3500 1.5 120 15:58 24.12.2019
1790 Smoke 5 1023 35 3500 1.5 120 15:58 24.12.2019
1791 Smoke 5 1023 35 3500 1.5 120 15:37 24.12.2019
1792 Smoke 5 1023 35 3500 1.5 120 15:19 24.12.2019
1793 Smoke 6 1023 35 4000 2.1 130 14:58 24.12.2019
1794 Smoke 6 1023 35 4000 2.1 130 14:40 24.12.2019
1795 Clear 7 1023 30 8000 1 0 14:22 24.12.2019
1796 Clear 9 1022 24 8000 1 0 13:56 24.12.2019
1797 Clear 9 1022 24 8000 1 0 13:38 24.12.2019
1798 Clear 9 1022 24 8000 1 0 13:20 24.12.2019
1799 Clear 11 1022 19 8000 1.5 0 12:57 24.12.2019
1800 Clear 11 1022 19 8000 1.5 0 12:38 24.12.2019
1801 Clear 11 1022 19 8000 1.5 0 12:19 24.12.2019
1802 Smoke 10 1022 20 8000 1.5 0 11:57 24.12.2019
1803 Smoke 10 1022 20 8000 1.5 0 11:37 24.12.2019
1804 Smoke 10 1022 20 8000 1.5 0 11:19 24.12.2019
1805 Smoke 10 1023 23 7000 1.5 0 10:56 24.12.2019
1806 Smoke 10 1023 23 7000 1.5 0 10:38 24.12.2019
1807 Smoke 10 1023 23 7000 1.5 0 10:20 24.12.2019
1808 Smoke 9 1023 23 7000 1.5 0 09:56 24.12.2019
1809 Smoke 9 1023 23 7000 1.5 0 09:38 24.12.2019
1810 Smoke 9 1023 23 7000 1.5 0 09:20 24.12.2019
1811 Smoke 7 1024 28 7000 1.5 330 08:47 24.12.2019
1812 Smoke 7 1024 28 7000 1.5 330 08:24 24.12.2019
1813 Smoke 6 1025 30 5000 1.5 340 07:55 24.12.2019
1814 Smoke 7 1025 30 5000 1.5 340 07:37 24.12.2019
1815 Smoke 3 1025 33 2500 1.5 0 07:18 24.12.2019
1816 Smoke 3 1024 41 2000 1.5 0 06:39 24.12.2019
1817 Smoke 3 1024 41 2000 1.5 0 06:19 24.12.2019
1818 Smoke 0 1024 43 4000 1.5 0 05:50 24.12.2019
1819 Mist 0 1024 47 6000 1 280 05:19 24.12.2019
1820 Mist -2 1023 54 7000 2.6 330 04:21 24.12.2019
1821 Mist -2 1022 58 6000 2.6 330 03:45 24.12.2019
1822 Mist -2 1021 68 2400 1 320 02:28 24.12.2019
1823 Smoke -3 1021 68 2400 0.95 309 01:53 24.12.2019
1824 Smoke -3 1021 68 2400 0.88 304 01:23 24.12.2019
1825 Smoke -2 1021 68 2400 1.5 170 00:56 24.12.2019
1826 Smoke -2 1021 68 2400 1.5 170 00:37 24.12.2019
1827 Haze -2 1020 74 6000 0.88 304 00:19 24.12.2019
1828 Haze -2 1020 74 6000 0.88 304 00:19 24.12.2019
1829 Smoke -3 1021 68 1600 0.88 304 23:41 23.12.2019
1830 Smoke -3 1021 68 1600 0.88 304 23:23 23.12.2019
1831 Smoke -2 1021 73 1600 1.24 318 22:56 23.12.2019
1832 Smoke -2 1021 73 1600 1.24 318 22:37 23.12.2019
1833 Smoke -2 1021 73 1600 1.24 318 22:19 23.12.2019
1834 Smoke -2 1021 68 1600 1.24 318 21:55 23.12.2019
1835 Smoke -3 1021 68 1600 1.24 318 21:36 23.12.2019
1836 Smoke -3 1021 68 1600 1.24 318 21:18 23.12.2019
1837 Smoke -2 1021 54 3200 1.5 320 20:57 23.12.2019
1838 Smoke -2 1021 54 3200 1.5 320 20:39 23.12.2019
1839 Smoke -2 1021 54 3200 1.5 320 20:39 23.12.2019
1840 Smoke -2 1021 54 3200 1.5 320 20:39 23.12.2019
1841 Smoke -2 1021 54 3200 1.5 320 20:18 23.12.2019
1842 Smoke -1 1021 38 2500 1 0 19:56 23.12.2019
1843 Smoke -1 1021 38 2500 1 0 19:38 23.12.2019
1844 Smoke -1 1021 38 2500 1 0 19:19 23.12.2019
1845 Smoke 0 1021 47 4000 2.1 120 18:58 23.12.2019
1846 Smoke 0 1021 47 4000 2.1 120 18:58 23.12.2019
1847 Smoke 0 1021 47 4000 2.1 120 18:38 23.12.2019
1848 Smoke 0 1021 47 4000 2.1 120 18:20 23.12.2019
1849 Smoke 1 1020 47 4000 1 0 17:56 23.12.2019
1850 Smoke 1 1020 47 4000 1 0 17:38 23.12.2019
1851 Smoke 1 1020 47 4000 1 0 17:19 23.12.2019
1852 Smoke 1 1020 47 4000 1 0 17:19 23.12.2019
1853 Clouds 1 1020 43 7000 1 0 16:55 23.12.2019
1854 Clouds 1 1020 43 7000 1 0 16:55 23.12.2019
1855 Clouds 1 1020 43 7000 1 0 16:36 23.12.2019
1856 Clouds 1 1020 43 7000 1 0 16:18 23.12.2019
1857 Clouds 1 1020 43 7000 1 0 16:18 23.12.2019
1858 Clouds 4 1019 40 7000 1 140 15:55 23.12.2019
1859 Clouds 4 1019 40 7000 1 140 15:36 23.12.2019
1860 Clouds 4 1019 40 7000 1 140 15:18 23.12.2019
1861 Clouds 6 1019 35 7000 2.1 70 14:45 23.12.2019
1862 Clouds 6 1019 35 7000 2.1 70 14:26 23.12.2019
1863 Clouds 6 1019 35 7000 2.1 70 14:26 23.12.2019
1864 Clouds 9 1019 24 8000 1.5 70 13:59 23.12.2019
1865 Clouds 9 1019 24 8000 1.5 70 13:41 23.12.2019
1866 Clouds 9 1019 24 8000 1.5 70 13:22 23.12.2019
1867 Clouds 9 1019 23 8000 3.1 220 12:58 23.12.2019
1868 Clouds 9 1019 23 8000 3.1 220 12:58 23.12.2019
1869 Clouds 9 1019 23 8000 3.1 220 12:39 23.12.2019
1870 Clouds 9 1019 23 8000 3.1 220 12:21 23.12.2019
1871 Clouds 9 1020 23 10000 1.5 160 11:55 23.12.2019
1872 Clouds 9 1020 23 10000 1.5 160 11:37 23.12.2019
1873 Clouds 9 1020 23 10000 1.5 160 11:18 23.12.2019
1874 Clouds 9 1021 24 10000 3.1 190 10:54 23.12.2019
1875 Clouds 9 1021 24 10000 3.1 190 10:36 23.12.2019
1876 Clouds 9 1021 24 10000 3.1 190 10:18 23.12.2019
1877 Clouds 9 1021 24 10000 3.1 190 10:18 23.12.2019
1878 Clouds 9 1022 24 10000 3.1 180 09:40 23.12.2019
1879 Clouds 9 1022 24 10000 3.1 180 09:22 23.12.2019
1880 Haze 8 1020 27 8000 1.2 144 08:58 23.12.2019
1881 Smoke 8 1023 30 8000 1 50 08:40 23.12.2019
1882 Smoke 8 1023 30 8000 1 50 08:22 23.12.2019
1883 Smoke 7 1023 28 8000 1.5 140 07:48 23.12.2019
1884 Smoke 7 1023 33 1600 1 170 07:21 23.12.2019
1885 Haze 4 1022 45 5000 1.49 176 06:57 23.12.2019
1886 Smoke 4 1024 37 4000 3.1 300 06:27 23.12.2019
1887 Smoke 1 1024 47 4000 2.1 320 05:56 23.12.2019
1888 Clouds 0 1023 50 0 0.5 0 05:29 23.12.2019
1889 Clouds -4 1023 62 10000 3.1 310 04:34 23.12.2019
1890 Clouds -4 1023 53 8000 2.6 330 03:26 23.12.2019
1891 Clouds -2 1022 58 8000 1.5 330 02:42 23.12.2019
1892 Clouds -2 1022 58 8000 1.5 330 02:19 23.12.2019
1893 Clouds -3 1023 68 8000 1 0 01:43 23.12.2019
1894 Clouds -3 1023 68 8000 1 0 01:25 23.12.2019
1895 Clouds -3 1023 58 7000 2.1 320 00:43 23.12.2019
1896 Clouds -3 1023 58 7000 2.1 320 00:23 23.12.2019
1897 Clouds -1 1023 50 7000 3.1 330 23:40 22.12.2019
1898 Clouds -1 1023 50 7000 3.1 330 23:22 22.12.2019
1899 Smoke -3 1024 63 1600 1.5 0 22:58 22.12.2019
1900 Smoke -3 1024 63 1600 1.5 0 22:58 22.12.2019
1901 Smoke -3 1024 63 1600 1.5 0 22:40 22.12.2019
1902 Smoke -3 1024 63 1600 1.5 0 22:21 22.12.2019
1903 Smoke -1 1024 34 1200 1.5 180 21:58 22.12.2019
1904 Smoke -1 1024 34 1200 1.5 180 21:58 22.12.2019
1905 Smoke -1 1024 34 1200 1.5 180 21:40 22.12.2019
1906 Smoke -1 1024 34 1200 1.5 180 21:21 22.12.2019
1907 Smoke 0 1024 54 1200 2.6 320 20:58 22.12.2019
1908 Smoke 0 1024 54 1200 2.6 320 20:39 22.12.2019
1909 Smoke 0 1024 54 1200 2.6 320 20:19 22.12.2019
1910 Smoke -1 1024 54 1600 1.5 0 19:56 22.12.2019
1911 Smoke -1 1024 54 1600 1.5 0 19:37 22.12.2019
1912 Smoke -1 1024 54 1600 1.5 0 19:19 22.12.2019
1913 Smoke 0 1024 43 1600 1.08 280 18:41 22.12.2019
1914 Smoke 0 1024 43 1600 1.08 280 18:23 22.12.2019
1915 Smoke 1 1024 43 1200 1 0 17:56 22.12.2019
1916 Smoke 1 1024 43 1200 1 0 17:37 22.12.2019
1917 Smoke 1 1024 43 1200 1 0 17:18 22.12.2019
1918 Smoke 1 1024 43 1200 1 0 17:18 22.12.2019
1919 Smoke 2 1024 37 1200 1 0 16:57 22.12.2019
1920 Smoke 2 1024 37 1200 1 0 16:38 22.12.2019
1921 Smoke 2 1024 34 3000 1 360 16:19 22.12.2019
1922 Smoke 4 1024 30 3000 1.5 150 15:56 22.12.2019
1923 Smoke 4 1024 30 3000 1.5 150 15:37 22.12.2019
1924 Smoke 4 1024 30 3000 1.5 150 15:37 22.12.2019
1925 Smoke 4 1024 29 7000 1 100 15:19 22.12.2019
1926 Clear 7 1023 20 10000 1 100 14:54 22.12.2019
1927 Clear 7 1023 20 10000 1 100 14:36 22.12.2019
1928 Clear 7 1023 20 10000 1 100 14:18 22.12.2019
1929 Clear 9 1023 19 10000 0.5 0 13:55 22.12.2019
1930 Clear 9 1023 19 10000 0.5 0 13:36 22.12.2019
1931 Clear 9 1023 19 10000 0.5 0 13:18 22.12.2019
1932 Clear 9 1023 19 10000 0.5 0 13:18 22.12.2019
1933 Clouds 12 1021 17 10000 3.1 230 12:55 22.12.2019
1934 Clouds 11 1021 17 10000 3.1 230 12:37 22.12.2019
1935 Clouds 11 1021 17 10000 3.1 230 12:18 22.12.2019
1936 Clear 11 1024 16 10000 2.6 210 11:39 22.12.2019
1937 Clear 11 1024 16 10000 2.6 210 11:21 22.12.2019
1938 Clear 11 1025 18 10000 2.1 190 10:59 22.12.2019
1939 Clear 11 1025 18 10000 2.1 190 10:40 22.12.2019
1940 Clear 11 1025 18 10000 2.1 190 10:21 22.12.2019
1941 Clouds 12 1023 17 10000 2.1 230 09:59 22.12.2019
1942 Clouds 12 1023 17 10000 2.1 230 09:40 22.12.2019
1943 Clouds 10 1023 17 10000 2.1 230 09:21 22.12.2019
1944 Clear 9 1026 19 10000 2.6 180 08:59 22.12.2019
1945 Clear 9 1026 19 10000 2.6 180 08:37 22.12.2019
1946 Clear 9 1026 19 10000 2.6 180 08:18 22.12.2019
1947 Clear 9 1026 19 10000 2.6 180 08:18 22.12.2019
1948 Clear 9 1026 19 10000 2.6 180 08:18 22.12.2019
1949 Smoke 8 1027 21 10000 2.1 290 07:38 22.12.2019
1950 Smoke 8 1027 21 10000 2.1 290 07:19 22.12.2019
1951 Smoke 4 1026 30 6000 3.6 320 06:40 22.12.2019
1952 Smoke 1 1027 40 5000 1 310 05:53 22.12.2019
1953 Smoke 1 1027 40 5000 1 310 05:21 22.12.2019
1954 Clear -2 1026 63 10000 0.5 0 04:29 22.12.2019
1955 Haze -4 1024 68 9000 1.13 238 03:52 22.12.2019
1956 Clear -2 1024 63 10000 1.5 0 02:40 22.12.2019
1957 Clear -2 1024 42 10000 2.1 330 01:42 22.12.2019
1958 Clear -2 1024 42 10000 2.1 330 01:22 22.12.2019
1959 Clear -2 1024 42 10000 2.1 340 00:45 22.12.2019
1960 Clear -2 1024 42 10000 2.1 340 00:22 22.12.2019
1961 Clear -3 1024 46 9000 3.1 330 23:55 21.12.2019
1962 Clear -3 1024 46 9000 3.1 330 23:37 21.12.2019
1963 Clear -3 1024 46 9000 3.1 330 23:18 21.12.2019
1964 Clear -1 1024 53 6000 3.1 330 22:40 21.12.2019
1965 Clear -1 1024 53 6000 3.1 330 22:40 21.12.2019
1966 Smoke 0 1024 50 2500 1.5 330 22:19 21.12.2019
1967 Smoke 0 1024 50 2500 1.5 330 22:19 21.12.2019
1968 Smoke -1 1024 29 2000 1.5 330 21:57 21.12.2019
1969 Smoke -1 1024 29 2000 1.5 330 21:37 21.12.2019
1970 Smoke -1 1024 63 1200 1.5 0 21:19 21.12.2019
1971 Smoke 0 1024 29 1000 1.5 180 20:58 21.12.2019
1972 Smoke 0 1024 29 1000 1.5 180 20:39 21.12.2019
1973 Smoke 0 1024 29 1000 1.5 180 20:39 21.12.2019
1974 Smoke 0 1024 28 1000 1.5 180 20:21 21.12.2019
1975 Smoke -1 1024 43 1200 0.5 0 19:58 21.12.2019
1976 Smoke -1 1024 43 1200 0.5 0 19:40 21.12.2019
1977 Smoke -1 1024 43 1200 0.5 0 19:19 21.12.2019
1978 Smoke -1 1024 43 1200 0.5 0 19:19 21.12.2019
1979 Smoke 0 1024 43 1600 1.5 320 18:45 21.12.2019
1980 Smoke 0 1024 43 1600 1.5 320 18:24 21.12.2019
1981 Smoke 2 1023 37 2000 1.5 0 17:57 21.12.2019
1982 Smoke 2 1023 37 2000 1.5 0 17:39 21.12.2019
1983 Smoke 2 1023 37 2000 1.5 0 17:39 21.12.2019
1984 Smoke 2 1023 37 2000 1.5 0 17:21 21.12.2019
1985 Clear 3 1023 30 3000 1.5 190 16:58 21.12.2019
1986 Clear 3 1023 30 3000 1.5 190 16:40 21.12.2019
1987 Clear 3 1023 30 3000 1.5 190 16:18 21.12.2019
1988 Clear 3 1023 30 3000 1.5 190 16:18 21.12.2019
1989 Clear 5 1022 24 10000 1 60 15:57 21.12.2019
1990 Clear 5 1022 24 10000 1 60 15:57 21.12.2019
1991 Clear 5 1022 24 10000 1 60 15:38 21.12.2019
1992 Clear 5 1021 41 10000 1.57 267 15:19 21.12.2019
1993 Clear 8 1022 24 10000 3.1 60 14:55 21.12.2019
1994 Clear 8 1022 24 10000 3.1 60 14:37 21.12.2019
1995 Clear 8 1022 24 10000 3.1 60 14:18 21.12.2019
1996 Clear 10 1022 16 10000 1 240 13:54 21.12.2019
1997 Clear 10 1022 16 10000 1 240 13:36 21.12.2019
1998 Clear 10 1022 16 10000 1 240 13:18 21.12.2019
1999 Clear 12 1022 17 10000 1.5 140 12:54 21.12.2019
2000 Clear 12 1022 17 10000 1.5 140 12:36 21.12.2019
2001 Clear 12 1022 17 10000 1.5 140 12:36 21.12.2019
2002 Clear 12 1022 17 10000 1.5 140 12:18 21.12.2019
2003 Clear 12 1022 17 10000 3.6 140 11:41 21.12.2019
2004 Clear 12 1022 17 10000 3.6 140 11:41 21.12.2019
2005 Clear 12 1022 17 10000 3.6 140 11:23 21.12.2019
2006 Clear 10 1023 18 10000 2.6 150 10:54 21.12.2019
2007 Clear 10 1023 18 10000 2.6 150 10:36 21.12.2019
2008 Clear 11 1023 18 10000 2.6 150 10:18 21.12.2019
2009 Clear 9 1024 19 10000 4.1 180 09:42 21.12.2019
2010 Clear 10 1024 19 10000 4.1 180 09:20 21.12.2019
2011 Clear 10 1025 21 10000 1 0 08:56 21.12.2019
2012 Clear 10 1025 21 10000 1 0 08:37 21.12.2019
2013 Clear 10 1025 21 10000 1 0 08:18 21.12.2019
2014 Clear 9 1025 24 8000 1 0 07:41 21.12.2019
2015 Clear 9 1025 24 8000 1 0 07:21 21.12.2019
2016 Haze 6 1025 35 7000 1.5 0 06:43 21.12.2019
2017 Haze 6 1025 35 7000 1.5 0 06:25 21.12.2019
2018 Haze 3 1024 40 9000 3.6 310 05:47 21.12.2019
2019 Clear -1 1023 50 10000 2.6 320 04:58 21.12.2019
2020 Haze -2 1022 68 8000 1.06 229 03:57 21.12.2019
2021 Clear -2 1022 50 10000 3.6 330 02:50 21.12.2019
2022 Haze -2 1020 68 9000 0.99 246 01:55 21.12.2019
2023 Haze -2 1020 68 9000 0.98 241 01:27 21.12.2019
2024 Clear -2 1022 46 10000 3.1 330 00:52 21.12.2019
2025 Haze -2 1020 74 9000 3.6 40 00:31 21.12.2019
2026 Clear -2 1022 46 9000 3.6 330 23:56 20.12.2019
2027 Clear -2 1022 46 9000 3.6 330 23:37 20.12.2019
2028 Clear -2 1022 46 9000 3.6 330 23:18 20.12.2019
2029 Clear -1 1022 50 9000 3.1 310 22:40 20.12.2019
2030 Clear -1 1022 50 9000 3.1 310 22:21 20.12.2019
2031 Smoke 0 1022 47 9000 3.1 340 21:57 20.12.2019
2032 Smoke 0 1022 47 9000 3.1 340 21:39 20.12.2019
2033 Smoke 0 1022 47 9000 3.1 340 21:19 20.12.2019
2034 Smoke 1 1022 47 8000 2.6 340 20:39 20.12.2019
2035 Smoke 0 1022 58 1600 2.6 320 20:19 20.12.2019
2036 Smoke 0 1021 31 1600 1.5 230 19:58 20.12.2019
2037 Smoke 0 1021 31 1600 1.5 230 19:40 20.12.2019
2038 Smoke 0 1021 31 1600 1.5 230 19:19 20.12.2019
2039 Smoke 0 1021 55 1600 1 0 18:42 20.12.2019
2040 Smoke 0 1021 55 1600 1 0 18:24 20.12.2019
2041 Haze 1 1019 74 9000 1.5 200 17:59 20.12.2019
2042 Haze 1 1019 74 9000 1.5 200 17:41 20.12.2019
2043 Haze 2 1019 74 9000 1.5 200 17:21 20.12.2019
2044 Haze 2 1019 74 9000 1.5 200 17:21 20.12.2019
2045 Smoke 3 1020 43 3000 1 360 16:59 20.12.2019
2046 Smoke 3 1020 43 3000 1 360 16:39 20.12.2019
2047 Smoke 3 1020 43 3000 1 360 16:20 20.12.2019
2048 Smoke 3 1020 38 4000 1 0 15:56 20.12.2019
2049 Smoke 3 1020 38 4000 1 0 15:38 20.12.2019
2050 Smoke 3 1020 38 4000 1 0 15:19 20.12.2019
2051 Clear 7 1019 28 10000 1.5 0 14:54 20.12.2019
2052 Clear 7 1019 28 10000 1.5 0 14:36 20.12.2019
2053 Clear 7 1019 28 10000 1.5 0 14:18 20.12.2019
2054 Clear 9 1019 20 10000 0.68 188 13:41 20.12.2019
2055 Clear 9 1019 20 10000 0.64 192 13:20 20.12.2019
2056 Clear 10 1019 26 10000 2.1 100 12:57 20.12.2019
2057 Clear 10 1019 26 10000 2.1 100 12:38 20.12.2019
2058 Clear 10 1019 26 10000 2.1 100 12:19 20.12.2019
2059 Clear 10 1020 23 10000 1 0 11:58 20.12.2019
2060 Clear 10 1020 23 10000 1 0 11:39 20.12.2019
2061 Clear 10 1020 23 10000 1 0 11:19 20.12.2019
2062 Clear 10 1020 25 10000 1 0 10:57 20.12.2019
2063 Clear 10 1020 25 10000 1 0 10:57 20.12.2019
2064 Clear 10 1020 25 10000 1 0 10:38 20.12.2019
2065 Clear 10 1020 25 10000 1 0 10:20 20.12.2019
2066 Clear 9 1021 29 10000 1.5 0 09:44 20.12.2019
2067 Clear 9 1021 29 10000 1.5 0 09:22 20.12.2019
2068 Clear 8 1022 28 10000 1 0 08:59 20.12.2019
2069 Clear 8 1022 28 10000 1 0 08:41 20.12.2019
2070 Clear 7 1020 36 10000 1.03 151 08:21 20.12.2019
2071 Clear 6 1022 38 10000 1.5 320 07:57 20.12.2019
2072 Clear 6 1022 38 10000 1.5 320 07:39 20.12.2019
2073 Clear 6 1022 38 10000 1.5 320 07:18 20.12.2019
2074 Haze 4 1021 60 9000 1.03 151 06:48 20.12.2019
2075 Haze 4 1021 60 9000 1.03 151 06:30 20.12.2019
2076 Smoke 1 1022 59 7000 1.5 330 05:49 20.12.2019
2077 Smoke 1 1022 59 7000 1.5 330 05:49 20.12.2019
2078 Smoke 1 1022 59 7000 1.5 330 05:21 20.12.2019
2079 Mist -2 1020 68 5000 1.5 340 03:50 20.12.2019
2080 Mist -2 1020 68 5000 1.5 340 03:21 20.12.2019
2081 Mist -2 1020 92 4000 0.9 260 02:31 20.12.2019
2082 Smoke -1 1020 86 4000 1 250 01:36 20.12.2019
2083 Smoke -2 1020 86 1600 1.5 250 00:58 20.12.2019
2084 Smoke -2 1020 86 1600 1.5 250 00:39 20.12.2019
2085 Smoke -2 1020 92 1600 1.5 200 23:58 19.12.2019
2086 Smoke -2 1020 92 1600 1.5 200 23:40 19.12.2019
2087 Smoke -2 1020 92 1600 1.5 200 23:21 19.12.2019
2088 Smoke -1 1020 46 1600 1.22 314 22:40 19.12.2019
2089 Smoke -1 1020 46 1600 1.22 314 22:22 19.12.2019
2090 Smoke 0 1020 46 2000 1 350 21:59 19.12.2019
2091 Smoke 0 1020 46 2000 1 350 21:41 19.12.2019
2092 Smoke 0 1020 46 2000 1 350 21:20 19.12.2019
2093 Smoke 0 1021 46 2000 1 140 20:58 19.12.2019
2094 Smoke 0 1021 46 2000 1 140 20:38 19.12.2019
2095 Smoke 0 1021 47 2000 1 140 20:20 19.12.2019
2096 Smoke 1 1021 74 3000 1.5 120 19:58 19.12.2019
2097 Smoke 1 1021 74 3000 1.5 120 19:40 19.12.2019
2098 Clouds 1 1021 69 6000 2.1 190 19:19 19.12.2019
2099 Clouds 1 1021 69 6000 2.1 190 19:19 19.12.2019
2100 Clouds 1 1021 69 6000 2.1 190 19:19 19.12.2019
2101 Clouds 1 1021 69 6000 2.1 190 19:19 19.12.2019
2102 Clouds 3 1021 64 8000 1 330 18:58 19.12.2019
2103 Clouds 3 1021 64 8000 1 330 18:40 19.12.2019
2104 Clouds 3 1021 64 8000 1 330 18:20 19.12.2019
2105 Mist 6 1021 60 4000 1.73 307 17:56 19.12.2019
2106 Mist 6 1021 60 4000 1.73 307 17:38 19.12.2019
2107 Mist 6 1021 60 4000 2.21 293 17:18 19.12.2019
2108 Clouds 6 1021 60 4000 1.5 300 16:56 19.12.2019
2109 Clouds 6 1021 60 4000 1.5 300 16:37 19.12.2019
2110 Clear 6 1019 39 10000 2.1 320 16:19 19.12.2019
2111 Clouds 7 1020 56 10000 3.1 280 15:57 19.12.2019
2112 Clouds 7 1020 56 10000 3.1 280 15:57 19.12.2019
2113 Clouds 7 1020 56 10000 3.1 280 15:37 19.12.2019
2114 Clouds 7 1020 56 10000 3.1 280 15:19 19.12.2019
2115 Clouds 7 1020 56 10000 3.1 280 15:19 19.12.2019
2116 Clouds 7 1020 56 10000 3.1 280 15:19 19.12.2019
2117 Clouds 8 1020 51 10000 45.8 360 14:44 19.12.2019
2118 Clouds 8 1020 61 10000 45.8 360 14:20 19.12.2019
2119 Clouds 9 1020 61 9000 4.1 360 13:59 19.12.2019
2120 Clouds 9 1020 61 9000 4.1 360 13:38 19.12.2019
2121 Clouds 9 1020 61 9000 4.1 360 13:19 19.12.2019
2122 Clouds 9 1018 39 10000 7.2 40 12:57 19.12.2019
2123 Clouds 10 1020 61 9000 4.1 340 12:39 19.12.2019
2124 Clouds 10 1018 37 10000 8.7 360 12:19 19.12.2019
2125 Clouds 11 1020 61 9000 3.6 350 11:58 19.12.2019
2126 Clouds 11 1020 61 9000 3.6 350 11:40 19.12.2019
2127 Clouds 11 1020 53 9000 3.6 350 11:18 19.12.2019
2128 Clouds 10 1021 57 8000 3.6 360 10:58 19.12.2019
2129 Clouds 10 1021 57 8000 3.6 360 10:38 19.12.2019
2130 Clouds 10 1021 57 8000 3.6 360 10:20 19.12.2019
2131 Clouds 10 1022 57 6000 2.1 0 09:54 19.12.2019
2132 Clouds 9 1022 57 6000 2.1 0 09:36 19.12.2019
2133 Clouds 9 1022 57 6000 2.1 0 09:18 19.12.2019
2134 Smoke 9 1023 53 6000 1 0 08:41 19.12.2019
2135 Smoke 9 1023 45 6000 1 0 08:20 19.12.2019
2136 Smoke 9 1023 45 6000 1 0 08:20 19.12.2019
2137 Smoke 7 1024 45 5000 1.5 80 07:59 19.12.2019
2138 Smoke 7 1024 45 5000 1.5 80 07:38 19.12.2019
2139 Smoke 7 1024 45 5000 1.5 80 07:38 19.12.2019
2140 Smoke 7 1024 45 5000 1.5 80 07:20 19.12.2019
2141 Mist 6 1022 75 5000 1.02 144 06:52 19.12.2019
2142 Smoke 6 1024 65 2000 1 100 06:32 19.12.2019
2143 Smoke 3 1023 60 2500 1 50 05:57 19.12.2019
2144 Smoke 3 1023 60 2500 1 50 05:39 19.12.2019
2145 Smoke 2 1023 64 1600 1.5 200 04:56 19.12.2019
2146 Mist 3 1022 59 2500 1 150 03:45 19.12.2019
2147 Mist 3 1022 69 1600 1.5 150 02:24 19.12.2019
2148 Smoke 3 1021 59 2000 0.77 256 01:23 19.12.2019
2149 Smoke 3 1022 64 2000 1.5 240 00:44 19.12.2019
2150 Smoke 3 1022 64 2000 1.5 240 00:25 19.12.2019
2151 Clouds 2 1020 64 10000 2.1 190 23:58 18.12.2019
2152 Smoke 2 1022 69 2000 2.1 80 23:38 18.12.2019
2153 Smoke 2 1022 69 2000 2.1 80 23:19 18.12.2019
2154 Smoke 2 1022 69 1600 1.5 320 22:56 18.12.2019
2155 Smoke 2 1022 69 1600 1.5 320 22:37 18.12.2019
2156 Smoke 2 1022 69 1600 1.5 320 22:19 18.12.2019
2157 Haze 3 1020 74 6000 2.1 40 21:57 18.12.2019
2158 Haze 3 1020 74 6000 2.1 40 21:39 18.12.2019
2159 Haze 2 1020 74 6000 2.1 40 21:19 18.12.2019
2160 Smoke 3 1022 64 2500 1.5 0 20:55 18.12.2019
2161 Smoke 3 1022 64 2500 1.5 0 20:37 18.12.2019
2162 Smoke 3 1022 64 2500 1.5 0 20:19 18.12.2019
2163 Smoke 3 1023 59 2500 2.6 260 19:55 18.12.2019
2164 Smoke 3 1023 59 2500 2.6 260 19:37 18.12.2019
2165 Smoke 3 1023 59 2500 2.6 260 19:37 18.12.2019
2166 Smoke 3 1023 59 2500 2.6 260 19:18 18.12.2019
2167 Smoke 3 1023 55 2500 1 280 18:44 18.12.2019
2168 Smoke 3 1023 55 2500 1 280 18:25 18.12.2019
2169 Smoke 3 1023 51 2500 1 120 17:57 18.12.2019
2170 Smoke 3 1023 51 2500 1 120 17:39 18.12.2019
2171 Smoke 3 1023 51 2500 1 120 17:20 18.12.2019
2172 Smoke 4 1023 48 3000 1.5 200 16:57 18.12.2019
2173 Smoke 4 1023 48 3000 1.5 200 16:57 18.12.2019
2174 Smoke 4 1023 48 3000 1.5 200 16:38 18.12.2019
2175 Smoke 4 1023 48 3000 1.5 200 16:20 18.12.2019
2176 Smoke 5 1022 45 4000 2.1 200 15:55 18.12.2019
2177 Smoke 5 1022 45 4000 2.1 200 15:37 18.12.2019
2178 Smoke 5 1022 45 4000 2.1 200 15:37 18.12.2019
2179 Smoke 5 1022 45 4000 2.1 200 15:19 18.12.2019
2180 Smoke 7 1022 39 5000 1.5 200 14:42 18.12.2019
2181 Smoke 7 1022 39 5000 1.5 200 14:22 18.12.2019
2182 Smoke 9 1022 36 6000 2.1 80 13:57 18.12.2019
2183 Smoke 9 1022 36 6000 2.1 80 13:39 18.12.2019
2184 Smoke 9 1022 36 6000 2.1 80 13:20 18.12.2019
2185 Smoke 10 1022 34 5000 2.1 110 12:58 18.12.2019
2186 Smoke 10 1022 34 5000 2.1 110 12:38 18.12.2019
2187 Smoke 10 1022 34 5000 2.1 110 12:38 18.12.2019
2188 Smoke 10 1022 34 5000 2.1 110 12:20 18.12.2019
2189 Haze 11 1020 27 6000 0.62 176 11:56 18.12.2019
2190 Haze 11 1020 27 6000 0.62 176 11:38 18.12.2019
2191 Haze 10 1020 27 6000 1.15 163 11:19 18.12.2019
2192 Haze 10 1020 29 6000 1.15 163 10:55 18.12.2019
2193 Smoke 10 1022 31 5000 1.5 0 10:37 18.12.2019
2194 Smoke 10 1022 31 5000 1.5 0 10:37 18.12.2019
2195 Smoke 10 1022 31 5000 1.5 0 10:19 18.12.2019
2196 Haze 8 1021 36 3200 1.5 50 09:50 18.12.2019
2197 Haze 8 1021 36 3200 1.5 50 09:50 18.12.2019
2198 Smoke 9 1024 33 5000 2.6 10 09:18 18.12.2019
2199 Smoke 6 1025 33 3000 1.5 0 08:41 18.12.2019
2200 Smoke 6 1025 33 3000 1.5 0 08:22 18.12.2019
2201 Smoke 6 1026 31 4000 1.5 280 07:43 18.12.2019
2202 Smoke 6 1026 31 4000 1.5 280 07:23 18.12.2019
2203 Smoke 3 1026 55 5000 1.5 100 06:56 18.12.2019
2204 Smoke 3 1026 55 5000 1.5 100 06:27 18.12.2019
2205 Clouds 2 1025 51 5000 1 0 05:57 18.12.2019
2206 Smoke 1 1025 55 5000 1.5 170 04:59 18.12.2019
2207 Smoke 0 1024 64 8000 1 330 02:55 18.12.2019
2208 Smoke 0 1024 64 8000 1 330 02:37 18.12.2019
2209 Smoke 0 1024 64 8000 1 330 02:18 18.12.2019
2210 Smoke 0 1024 59 3600 1 290 01:41 18.12.2019
2211 Smoke 0 1024 59 3600 1 290 01:22 18.12.2019
2212 Smoke 0 1024 59 3600 1 290 01:22 18.12.2019
2213 Smoke -1 1024 34 2000 2.1 340 00:41 18.12.2019
2214 Smoke -1 1024 34 2000 2.1 340 00:23 18.12.2019
2215 Smoke -1 1025 68 2000 1.5 310 23:57 17.12.2019
2216 Smoke -1 1025 68 2000 1.5 310 23:38 17.12.2019
2217 Smoke -1 1025 68 2000 1.5 310 23:19 17.12.2019
2218 Smoke 0 1025 36 2000 1 200 22:56 17.12.2019
2219 Smoke 0 1025 36 2000 1 200 22:37 17.12.2019
2220 Smoke 0 1025 36 2000 1 200 22:18 17.12.2019
2221 Smoke 1 1025 55 3600 1.5 220 21:55 17.12.2019
2222 Smoke 1 1025 55 3600 1.5 220 21:37 17.12.2019
2223 Smoke 1 1025 55 3600 1.5 220 21:18 17.12.2019
2224 Smoke 0 1026 36 3600 0.5 0 20:56 17.12.2019
2225 Smoke 0 1026 36 3600 0.5 0 20:37 17.12.2019
2226 Smoke 0 1026 37 3600 0.5 0 20:18 17.12.2019
2227 Smoke 0 1026 37 3600 0.5 0 19:54 17.12.2019
2228 Smoke 0 1026 37 3600 0.5 0 19:36 17.12.2019
2229 Smoke 0 1026 37 3600 0.5 0 19:18 17.12.2019
2230 Smoke 1 1026 50 3600 0.5 0 18:42 17.12.2019
2231 Smoke 0 1026 50 3600 0.5 0 18:22 17.12.2019
2232 Smoke 0 1026 47 3600 2.1 100 17:59 17.12.2019
2233 Smoke 1 1026 47 3600 2.1 100 17:41 17.12.2019
2234 Smoke 1 1026 47 3600 2.1 100 17:19 17.12.2019
2235 Smoke 3 1026 40 3200 1.5 340 16:56 17.12.2019
2236 Smoke 3 1026 40 3200 1.5 340 16:56 17.12.2019
2237 Smoke 3 1026 40 3200 1.5 340 16:37 17.12.2019
2238 Smoke 3 1026 40 3200 1.5 340 16:37 17.12.2019
2239 Smoke 3 1026 40 3200 1.5 340 16:19 17.12.2019
2240 Smoke 3 1025 35 3500 1.5 120 15:56 17.12.2019
2241 Smoke 4 1025 35 3500 1.5 120 15:37 17.12.2019
2242 Smoke 4 1025 35 3500 1.5 120 15:37 17.12.2019
2243 Smoke 4 1025 35 3500 1.5 120 15:19 17.12.2019
2244 Smoke 4 1025 35 3500 1.5 120 15:19 17.12.2019
2245 Smoke 5 1024 30 6000 1.5 170 14:55 17.12.2019
2246 Smoke 7 1024 30 6000 1.5 170 14:36 17.12.2019
2247 Smoke 7 1024 30 6000 1.5 170 14:18 17.12.2019
2248 Clouds 8 1025 24 10000 1.5 180 13:55 17.12.2019
2249 Clouds 8 1025 24 10000 1.5 180 13:55 17.12.2019
2250 Clouds 8 1025 24 10000 1.5 180 13:37 17.12.2019
2251 Clear 9 1025 24 10000 1.5 180 13:18 17.12.2019
2252 Clear 9 1025 21 10000 2.6 210 12:41 17.12.2019
2253 Clear 9 1025 21 10000 2.6 210 12:19 17.12.2019
2254 Clear 9 1025 21 10000 2.6 210 12:19 17.12.2019
2255 Clear 9 1025 21 10000 2.6 210 12:19 17.12.2019
2256 Clear 9 1025 23 10000 2.6 200 11:59 17.12.2019
2257 Clear 9 1025 23 10000 2.6 200 11:37 17.12.2019
2258 Clear 8 1025 23 10000 2.6 200 11:19 17.12.2019
2259 Clear 8 1025 23 10000 2.6 200 11:19 17.12.2019
2260 Clear 8 1026 23 10000 3.6 200 10:59 17.12.2019
2261 Clear 8 1026 23 10000 3.6 200 10:41 17.12.2019
2262 Clear 8 1026 23 10000 3.6 200 10:41 17.12.2019
2263 Clear 8 1026 23 10000 3.6 200 10:22 17.12.2019
2264 Clear 7 1027 26 10000 2.1 220 09:59 17.12.2019
2265 Clear 8 1027 26 10000 2.1 220 09:41 17.12.2019
2266 Clear 7 1027 26 10000 2.1 220 09:20 17.12.2019
2267 Clear 6 1028 28 10000 2.6 260 08:56 17.12.2019
2268 Clear 6 1028 28 10000 2.6 260 08:38 17.12.2019
2269 Clouds 6 1028 28 10000 2.6 260 08:19 17.12.2019
2270 Smoke 4 1029 35 8000 1 0 07:46 17.12.2019
2271 Smoke 4 1029 35 4000 1.5 0 07:26 17.12.2019
2272 Haze 2 1028 59 3200 2 177 06:56 17.12.2019
2273 Haze 1 1028 64 2800 2 177 06:35 17.12.2019
2274 Haze -1 1028 22 5000 2.1 310 05:53 17.12.2019
2275 Haze -1 1028 22 5000 2.1 310 05:34 17.12.2019
2276 Clouds -4 1028 63 10000 1 280 04:30 17.12.2019
2277 Clouds -4 1027 63 6000 3.1 330 02:34 17.12.2019
2278 Smoke -4 1027 79 3000 2.1 350 01:54 17.12.2019
2279 Haze -3 1026 79 8000 0.85 263 00:58 17.12.2019
2280 Haze -3 1026 79 8000 0.85 263 00:37 17.12.2019
2281 Smoke -2 1027 73 2000 2.1 320 00:18 17.12.2019
2282 Smoke -2 1027 73 2000 2.1 320 23:41 16.12.2019
2283 Smoke -2 1027 73 2000 2.1 320 23:19 16.12.2019
2284 Smoke -2 1027 73 2000 2.1 320 23:19 16.12.2019
2285 Smoke -3 1028 68 2000 1 0 22:56 16.12.2019
2286 Smoke -3 1028 68 2000 1 0 22:37 16.12.2019
2287 Smoke -3 1028 68 2000 1 0 22:19 16.12.2019
2288 Smoke -2 1028 63 2000 1 300 21:55 16.12.2019
2289 Smoke -1 1028 63 2000 1 300 21:37 16.12.2019
2290 Smoke -1 1028 63 2000 1 300 21:37 16.12.2019
2291 Smoke -2 1028 63 2000 1 300 21:18 16.12.2019
2292 Smoke -2 1028 68 2000 1.5 320 20:56 16.12.2019
2293 Smoke -2 1028 68 2000 1.5 320 20:56 16.12.2019
2294 Smoke -2 1028 68 2000 1.5 320 20:37 16.12.2019
2295 Smoke -2 1028 68 2000 1.5 320 20:19 16.12.2019
2296 Smoke -1 1028 68 2000 1.5 130 19:55 16.12.2019
2297 Smoke -1 1028 68 2000 1.5 130 19:36 16.12.2019
2298 Smoke -1 1028 68 2000 1.5 130 19:18 16.12.2019
2299 Smoke -1 1027 26 2000 1 180 18:55 16.12.2019
2300 Smoke -1 1027 26 2000 1 180 18:37 16.12.2019
2301 Smoke -1 1027 26 2000 1 180 18:18 16.12.2019
2302 Smoke -1 1027 55 2500 0.77 279 17:56 16.12.2019
2303 Smoke -1 1027 55 2500 0.77 279 17:37 16.12.2019
2304 Smoke 1 1027 55 2500 0.96 292 17:19 16.12.2019
2305 Smoke 1 1026 51 4000 1.5 240 16:54 16.12.2019
2306 Smoke 1 1026 51 4000 1.5 240 16:36 16.12.2019
2307 Smoke 1 1026 51 4000 1.5 240 16:18 16.12.2019
2308 Smoke 2 1026 51 4000 1 0 15:55 16.12.2019
2309 Smoke 2 1026 51 4000 1 0 15:55 16.12.2019
2310 Smoke 2 1026 51 4000 1 0 15:37 16.12.2019
2311 Smoke 2 1026 51 4000 1 0 15:37 16.12.2019
2312 Smoke 2 1026 43 7000 1 0 15:19 16.12.2019
2313 Smoke 5 1025 35 8000 2.1 70 14:54 16.12.2019
2314 Smoke 5 1025 35 8000 2.1 70 14:36 16.12.2019
2315 Smoke 6 1025 35 8000 2.1 70 14:18 16.12.2019
2316 Smoke 6 1025 35 8000 2.1 70 14:18 16.12.2019
2317 Smoke 6 1025 32 8000 2.1 70 13:38 16.12.2019
2318 Smoke 6 1025 32 8000 2.1 70 13:20 16.12.2019
2319 Smoke 8 1025 30 8000 1.5 0 12:59 16.12.2019
2320 Smoke 8 1025 30 8000 1.5 0 12:59 16.12.2019
2321 Smoke 8 1025 30 8000 1.5 0 12:41 16.12.2019
2322 Smoke 8 1025 30 8000 1.5 0 12:20 16.12.2019
2323 Smoke 8 1025 26 7000 1.5 0 11:59 16.12.2019
2324 Smoke 8 1025 26 7000 1.5 0 11:59 16.12.2019
2325 Smoke 8 1025 26 7000 1.5 0 11:41 16.12.2019
2326 Smoke 8 1025 26 7000 1.5 0 11:22 16.12.2019
2327 Smoke 8 1025 31 6000 1.5 0 10:59 16.12.2019
2328 Smoke 8 1025 31 6000 1.5 0 10:40 16.12.2019
2329 Smoke 8 1025 31 6000 1.5 0 10:21 16.12.2019
2330 Smoke 7 1026 33 5000 1.5 0 09:46 16.12.2019
2331 Smoke 7 1026 33 5000 1.5 0 09:28 16.12.2019
2332 Smoke 6 1027 35 3500 1.5 0 08:58 16.12.2019
2333 Smoke 6 1027 35 3500 1.5 0 08:38 16.12.2019
2334 Smoke 6 1027 35 3500 1.5 0 08:19 16.12.2019
2335 Smoke 3 1027 41 4000 1.5 0 07:49 16.12.2019
2336 Smoke 3 1027 41 4000 1.5 0 07:30 16.12.2019
2337 Smoke 2 1027 47 3500 2.6 320 06:46 16.12.2019
2338 Smoke 2 1027 47 3500 2.6 320 06:26 16.12.2019
2339 Mist -2 1026 63 3000 3.1 320 05:56 16.12.2019
2340 Mist -2 1026 63 3000 3.1 320 05:35 16.12.2019
2341 Mist -4 1025 85 4000 0.96 261 04:33 16.12.2019
2342 Mist -4 1025 85 2000 0.96 261 02:50 16.12.2019
2343 Haze -3 1024 79 8000 0.99 311 01:45 16.12.2019
2344 Mist -3 1025 73 1800 1 140 00:55 16.12.2019
2345 Mist -3 1025 73 1800 1 140 00:36 16.12.2019
2346 Mist -3 1025 73 1800 1 140 00:18 16.12.2019
2347 Smoke -3 1025 74 2000 1.5 270 23:40 15.12.2019
2348 Smoke -3 1025 74 2000 1.5 270 23:21 15.12.2019
2349 Smoke -3 1025 74 2500 1 350 22:56 15.12.2019
2350 Smoke -3 1025 74 2500 1 350 22:38 15.12.2019
2351 Smoke -3 1025 74 2500 1 350 22:18 15.12.2019
2352 Smoke -3 1025 68 2500 1.52 314 21:57 15.12.2019
2353 Smoke -2 1025 68 2500 1.52 314 21:38 15.12.2019
2354 Smoke -1 1025 68 2500 1.52 314 21:19 15.12.2019
2355 Smoke -1 1026 68 2500 1.5 140 20:56 15.12.2019
2356 Smoke -1 1026 68 2500 1.5 140 20:37 15.12.2019
2357 Smoke -1 1026 68 2500 1.5 140 20:19 15.12.2019
2358 Smoke -1 1026 63 2500 1 120 19:57 15.12.2019
2359 Smoke -1 1026 63 2500 1 120 19:39 15.12.2019
2360 Smoke -1 1026 63 2500 1 120 19:18 15.12.2019
2361 Smoke -1 1025 28 3000 1 310 18:56 15.12.2019
2362 Smoke -1 1025 28 3000 1 310 18:56 15.12.2019
2363 Smoke -1 1025 28 3000 1 310 18:38 15.12.2019
2364 Smoke -1 1025 28 3000 1 310 18:18 15.12.2019
2365 Smoke 0 1025 55 3000 1 180 17:56 15.12.2019
2366 Smoke 0 1025 55 3000 1 180 17:37 15.12.2019
2367 Smoke 2 1025 55 3000 1 180 17:18 15.12.2019
2368 Smoke 2 1025 55 3000 1.5 170 16:55 15.12.2019
2369 Smoke 2 1025 55 3000 1.5 170 16:55 15.12.2019
2370 Smoke 2 1025 55 3000 1.5 170 16:37 15.12.2019
2371 Smoke 2 1024 51 3500 1.5 190 16:19 15.12.2019
2372 Clear 3 1024 43 6000 1.34 310 15:54 15.12.2019
2373 Clear 3 1024 43 6000 1.34 310 15:36 15.12.2019
2374 Clear 3 1024 43 6000 1.34 310 15:18 15.12.2019
2375 Clear 5 1023 35 10000 1 0 14:54 15.12.2019
2376 Clear 5 1023 35 10000 1 0 14:36 15.12.2019
2377 Clear 6 1023 35 10000 1 0 14:18 15.12.2019
2378 Clear 6 1023 35 10000 1 0 14:18 15.12.2019
2379 Clear 7 1023 28 10000 1 0 13:54 15.12.2019
2380 Clear 7 1023 28 10000 1 0 13:36 15.12.2019
2381 Clear 7 1023 28 10000 1 0 13:18 15.12.2019
2382 Clear 8 1023 24 10000 1 0 12:55 15.12.2019
2383 Clear 8 1023 24 10000 1 0 12:36 15.12.2019
2384 Clear 8 1023 24 10000 1 0 12:18 15.12.2019
2385 Clear 8 1023 22 10000 1 0 11:38 15.12.2019
2386 Clear 7 1023 22 10000 1 0 11:19 15.12.2019
2387 Clear 7 1023 22 10000 1 0 11:19 15.12.2019
2388 Clear 7 1023 26 10000 2.1 10 10:56 15.12.2019
2389 Clear 7 1023 26 10000 2.1 10 10:38 15.12.2019
2390 Clear 7 1023 26 10000 2.1 10 10:38 15.12.2019
2391 Clear 7 1023 26 10000 2.1 10 10:19 15.12.2019
2392 Clear 7 1024 26 10000 3.1 150 09:57 15.12.2019
2393 Clear 6 1024 26 10000 3.1 150 09:37 15.12.2019
2394 Clear 5 1024 26 10000 3.1 150 09:19 15.12.2019
2395 Clear 5 1025 27 10000 3.1 200 08:42 15.12.2019
2396 Clear 5 1025 27 10000 3.1 200 08:42 15.12.2019
2397 Clear 5 1025 27 10000 3.1 200 08:23 15.12.2019
2398 Clear 4 1025 30 10000 1 0 07:59 15.12.2019
2399 Clear 4 1025 30 10000 1 0 07:38 15.12.2019
2400 Clear 4 1025 30 10000 1 0 07:19 15.12.2019
2401 Clear 2 1025 44 9000 1.5 310 06:24 15.12.2019
2402 Smoke 0 1025 55 8000 2.1 330 05:42 15.12.2019
2403 Smoke -2 1025 55 8000 2.1 330 05:20 15.12.2019
2404 Clear -3 1024 63 10000 2.1 320 04:19 15.12.2019
2405 Clear -3 1024 63 7000 2.6 330 02:49 15.12.2019
2406 Clear -3 1024 63 7000 2.6 330 02:30 15.12.2019
2407 Clear -1 1024 63 7000 2.6 340 01:40 15.12.2019
2408 Mist -2 1024 80 4000 2.1 350 01:18 15.12.2019
2409 Mist -2 1022 86 8000 2.1 200 00:47 15.12.2019
2410 Mist -2 1022 86 8000 2.1 200 00:47 15.12.2019
2411 Mist -2 1022 86 8000 2.1 200 00:29 15.12.2019
2412 Mist -2 1024 86 2500 0.5 120 23:41 14.12.2019
2413 Mist -1 1024 86 2500 0.5 120 23:22 14.12.2019
2414 Mist -1 1024 86 4000 0.5 10 22:59 14.12.2019
2415 Mist -1 1024 86 4000 0.5 10 22:41 14.12.2019
2416 Mist -1 1024 86 4000 0.5 10 22:22 14.12.2019
2417 Mist 1 1024 69 4000 0.5 40 21:56 14.12.2019
2418 Mist 1 1024 69 4000 0.5 40 21:38 14.12.2019
2419 Mist 0 1024 69 4000 0.5 40 21:19 14.12.2019
2420 Mist 0 1024 80 4000 1.5 130 20:57 14.12.2019
2421 Mist 0 1024 80 4000 1.5 130 20:39 14.12.2019
2422 Mist 0 1024 80 4000 1.5 130 20:19 14.12.2019
2423 Mist 0 1024 80 3000 1 350 19:57 14.12.2019
2424 Mist 0 1024 80 3000 1 350 19:37 14.12.2019
2425 Mist 0 1024 80 3000 1 350 19:19 14.12.2019
2426 Mist 1 1024 41 2500 1.5 320 18:56 14.12.2019
2427 Mist 1 1024 41 2500 1.5 320 18:37 14.12.2019
2428 Mist 1 1024 41 2500 1.5 320 18:19 14.12.2019
2429 Smoke 0 1024 74 2500 1 160 17:43 14.12.2019
2430 Smoke 0 1024 74 2500 1 160 17:24 14.12.2019
2431 Smoke 3 1023 64 2500 1.5 150 16:58 14.12.2019
2432 Smoke 3 1023 64 2500 1.5 150 16:39 14.12.2019
2433 Smoke 3 1023 64 2500 1.5 150 16:39 14.12.2019
2434 Smoke 3 1023 64 2500 1.5 150 16:39 14.12.2019
2435 Smoke 3 1023 64 2500 1.5 150 16:18 14.12.2019
2436 Smoke 4 1023 55 3000 1.5 180 15:43 14.12.2019
2437 Smoke 4 1023 55 3000 1.5 180 15:22 14.12.2019
2438 Clouds 6 1022 48 9000 4.6 350 14:59 14.12.2019
2439 Clouds 6 1022 48 9000 4.6 350 14:38 14.12.2019
2440 Clouds 6 1022 48 9000 4.6 350 14:19 14.12.2019
2441 Clouds 7 1022 38 10000 1.5 40 13:55 14.12.2019
2442 Clouds 7 1022 38 10000 1.5 40 13:37 14.12.2019
2443 Clouds 7 1022 38 10000 1.5 40 13:18 14.12.2019
2444 Clouds 8 1022 36 10000 4.6 330 12:41 14.12.2019
2445 Clouds 8 1022 36 10000 4.6 330 12:21 14.12.2019
2446 Clouds 8 1022 36 10000 4.6 330 12:21 14.12.2019
2447 Clouds 9 1022 33 10000 1 0 11:59 14.12.2019
2448 Clouds 9 1022 33 10000 1 0 11:40 14.12.2019
2449 Clouds 9 1022 33 10000 1 0 11:20 14.12.2019
2450 Clouds 9 1023 29 10000 2.1 250 10:59 14.12.2019
2451 Clouds 9 1023 29 10000 2.1 250 10:59 14.12.2019
2452 Clouds 9 1023 29 10000 2.1 250 10:40 14.12.2019
2453 Clouds 9 1023 29 10000 2.1 250 10:22 14.12.2019
2454 Clouds 8 1023 31 10000 1.5 0 09:59 14.12.2019
2455 Clouds 8 1023 31 10000 1.5 0 09:40 14.12.2019
2456 Clouds 8 1023 31 10000 1.5 0 09:20 14.12.2019
2457 Clouds 6 1024 30 10000 3.1 200 08:43 14.12.2019
2458 Clouds 5 1024 30 10000 3.1 200 08:20 14.12.2019
2459 Clouds 5 1024 35 10000 2.6 250 07:44 14.12.2019
2460 Clouds 5 1024 35 10000 2.6 250 07:24 14.12.2019
2461 Haze 5 1023 65 5000 0.73 120 06:58 14.12.2019
2462 Clouds 4 1024 38 10000 2.6 190 06:38 14.12.2019
2463 Clouds 2 1024 38 10000 2.6 190 06:18 14.12.2019
2464 Clouds -1 1021 45 10000 2.1 330 04:48 14.12.2019
2465 Clouds 0 1020 59 10000 1.5 340 02:44 14.12.2019
2466 Clouds 0 1020 59 10000 1.5 340 02:22 14.12.2019
2467 Clouds -1 1019 64 10000 2.6 350 01:37 14.12.2019
2468 Clouds 0 1019 64 10000 2.1 330 00:50 14.12.2019
2469 Clouds 0 1019 64 10000 2.1 330 00:29 14.12.2019
2470 Clouds 0 1019 64 10000 2.1 330 00:29 14.12.2019
2471 Clouds 1 1019 64 10000 2.1 360 23:57 13.12.2019
2472 Clouds 1 1019 64 10000 2.1 360 23:38 13.12.2019
2473 Clouds 1 1019 64 10000 2.1 360 23:19 13.12.2019
2474 Clouds 1 1018 64 10000 2.6 360 22:42 13.12.2019
2475 Clouds 1 1018 64 10000 2.6 360 22:19 13.12.2019
2476 Clouds 1 1018 64 10000 2.6 360 22:19 13.12.2019
2477 Clouds 1 1018 64 10000 2.6 360 22:19 13.12.2019
2478 Clouds 1 1018 64 10000 2.1 350 21:56 13.12.2019
2479 Clouds 1 1018 64 10000 2.1 350 21:38 13.12.2019
2480 Mist 1 1016 49 9000 1.34 272 21:20 13.12.2019
2481 Clear 2 1018 64 10000 2.6 350 20:54 13.12.2019
2482 Clear 2 1018 64 10000 2.6 350 20:36 13.12.2019
2483 Clear 2 1018 64 10000 2.6 350 20:36 13.12.2019
2484 Clear 3 1018 64 10000 2.6 350 20:18 13.12.2019
2485 Clouds 3 1017 59 10000 1.5 300 19:42 13.12.2019
2486 Clouds 3 1017 59 10000 1.5 300 19:23 13.12.2019
2487 Clouds 3 1017 55 10000 2.1 230 18:59 13.12.2019
2488 Clouds 3 1017 55 10000 2.1 230 18:41 13.12.2019
2489 Clouds 3 1017 55 10000 2.1 230 18:19 13.12.2019
2490 Mist 4 1015 46 9000 2.1 200 17:57 13.12.2019
2491 Clouds 4 1017 56 10000 3.1 190 17:39 13.12.2019
2492 Clouds 4 1017 56 10000 3.1 190 17:18 13.12.2019
2493 Smoke 3 1016 60 5000 2.1 120 16:54 13.12.2019
2494 Smoke 3 1016 60 5000 2.1 120 16:36 13.12.2019
2495 Smoke 3 1016 60 5000 2.1 120 16:18 13.12.2019
2496 Haze 4 1014 53 8000 1.5 290 15:40 13.12.2019
2497 Haze 4 1014 53 8000 1.5 290 15:20 13.12.2019
2498 Clouds 7 1015 45 9000 2.1 70 14:55 13.12.2019
2499 Clouds 7 1015 45 9000 2.1 70 14:36 13.12.2019
2500 Clouds 8 1015 45 9000 2.1 70 14:18 13.12.2019
2501 Clouds 8 1014 45 10000 2.1 70 13:41 13.12.2019
2502 Clouds 8 1014 45 10000 2.1 70 13:21 13.12.2019
2503 Clouds 10 1014 42 10000 2.1 90 12:44 13.12.2019
2504 Clouds 10 1014 42 10000 2.1 90 12:23 13.12.2019
2505 Clouds 10 1014 42 10000 2.1 0 11:59 13.12.2019
2506 Clouds 10 1014 42 10000 2.1 0 11:41 13.12.2019
2507 Clouds 10 1014 42 10000 2.1 0 11:23 13.12.2019
2508 Clouds 10 1014 42 10000 2.1 0 10:56 13.12.2019
2509 Clouds 10 1014 42 10000 2.1 0 10:38 13.12.2019
2510 Clouds 10 1014 42 10000 2.1 0 10:19 13.12.2019
2511 Clouds 9 1015 49 10000 2.1 0 09:41 13.12.2019
2512 Clouds 9 1015 49 10000 2.1 0 09:20 13.12.2019
2513 Clouds 7 1015 52 7000 3.1 220 08:44 13.12.2019
2514 Clouds 7 1015 52 7000 3.1 220 08:25 13.12.2019
2515 Haze 5 1016 52 6000 4.1 190 07:48 13.12.2019
2516 Mist 5 1016 53 2500 1.5 0 07:24 13.12.2019
2517 Mist 4 1014 80 5000 1.44 160 06:55 13.12.2019
2518 Mist 2 1016 80 1500 1.5 110 06:29 13.12.2019
2519 Mist 1 1015 53 2000 1.5 10 05:51 13.12.2019
2520 Mist 0 1015 100 1200 1.5 350 05:30 13.12.2019
2521 Mist -2 1015 92 3000 1 0 04:48 13.12.2019
2522 Fog -2 1015 100 1000 1.5 100 03:49 13.12.2019
2523 Fog -1 1014 100 2500 1 110 02:35 13.12.2019
2524 Mist 0 1014 92 5000 1 0 01:50 13.12.2019
2525 Mist 0 1014 92 5000 1 0 01:21 13.12.2019
2526 Mist 0 1014 92 5000 1 90 00:46 13.12.2019
2527 Mist 0 1014 92 5000 1 90 00:24 13.12.2019
2528 Clouds 1 1014 67 6000 1.5 310 23:41 12.12.2019
2529 Clouds 1 1014 70 6000 1.5 310 23:22 12.12.2019
2530 Mist 1 1014 70 5000 1 140 22:56 12.12.2019
2531 Mist 1 1014 70 5000 1 140 22:38 12.12.2019
2532 Mist 1 1014 70 5000 1 140 22:19 12.12.2019
2533 Mist 1 1014 70 5000 1 140 22:19 12.12.2019
2534 Clouds 1 1015 86 6000 2.1 110 21:55 12.12.2019
2535 Clouds 1 1015 86 6000 2.1 110 21:37 12.12.2019
2536 Clouds 1 1015 86 6000 2.1 110 21:19 12.12.2019
2537 Clouds 2 1015 70 8000 1 130 20:57 12.12.2019
2538 Clouds 2 1015 70 8000 1 130 20:38 12.12.2019
2539 Clouds 2 1015 75 8000 1 130 20:20 12.12.2019
2540 Clouds 3 1016 64 10000 1.56 341 19:55 12.12.2019
2541 Clouds 3 1016 64 10000 1.56 341 19:37 12.12.2019
2542 Clouds 3 1016 64 10000 1.56 341 19:18 12.12.2019
2543 Clouds 3 1016 64 10000 1.5 150 18:55 12.12.2019
2544 Clouds 3 1016 64 10000 1.5 150 18:36 12.12.2019
2545 Clouds 3 1016 64 10000 1.5 150 18:18 12.12.2019
2546 Clouds 3 1015 80 10000 1.56 341 17:55 12.12.2019
2547 Clouds 3 1015 80 10000 1.56 341 17:55 12.12.2019
2548 Clouds 4 1016 64 10000 2.1 100 17:37 12.12.2019
2549 Clouds 4 1016 66 10000 2.1 100 17:18 12.12.2019
2550 Clouds 4 1016 66 10000 3.6 340 16:42 12.12.2019
2551 Clouds 4 1016 66 10000 3.6 340 16:21 12.12.2019
2552 Clouds 4 1016 66 10000 4.6 350 15:59 12.12.2019
2553 Clouds 4 1016 66 10000 4.6 350 15:41 12.12.2019
2554 Clouds 4 1016 66 10000 4.6 350 15:19 12.12.2019
2555 Clouds 5 1016 66 10000 3.6 330 14:57 12.12.2019
2556 Clouds 5 1016 66 10000 3.6 330 14:36 12.12.2019
2557 Clouds 5 1016 63 10000 3.6 330 14:18 12.12.2019
2558 Clouds 5 1014 75 10000 2.78 336 13:54 12.12.2019
2559 Clouds 5 1015 63 10000 5.1 90 13:36 12.12.2019
2560 Clouds 7 1015 64 10000 5.1 90 13:18 12.12.2019
2561 Clouds 7 1015 64 10000 7.2 120 12:41 12.12.2019
2562 Thunderstorm 7 1015 64 10000 7.2 140 12:22 12.12.2019
2563 Thunderstorm 8 1015 64 10000 9.8 140 11:59 12.12.2019
2564 Thunderstorm 8 1015 64 10000 9.8 140 11:40 12.12.2019
2565 Rain 7 1014 70 10000 3.6 40 11:21 12.12.2019
2566 Clouds 7 1014 75 10000 3.6 10 10:58 12.12.2019
2567 Rain 8 1016 73 10000 2.6 100 10:40 12.12.2019
2568 Rain 8 1016 73 10000 2.6 100 10:21 12.12.2019
2569 Rain 8 1017 57 10000 1.5 0 09:56 12.12.2019
2570 Rain 9 1017 57 10000 1.5 0 09:38 12.12.2019
2571 Rain 9 1017 57 10000 1.5 0 09:19 12.12.2019
2572 Clouds 8 1018 65 10000 3.1 350 08:47 12.12.2019
2573 Clouds 8 1018 65 10000 3.1 350 08:28 12.12.2019
2574 Rain 7 1017 61 9000 1.49 36 07:54 12.12.2019
2575 Clouds 8 1019 70 8000 1.5 20 07:36 12.12.2019
2576 Clouds 8 1019 70 8000 1.5 20 07:18 12.12.2019
2577 Mist 6 1019 75 4000 2.1 320 06:41 12.12.2019
2578 Mist 5 1019 90 3200 1 330 06:21 12.12.2019
2579 Rain 3 1019 90 3200 1.5 30 05:26 12.12.2019
2580 Mist 2 1019 79 2000 1.5 140 04:31 12.12.2019
2581 Mist 1 1018 79 4000 1.5 120 02:41 12.12.2019
2582 Mist 1 1018 79 4000 1.5 120 02:23 12.12.2019
2583 Clouds 1 1018 80 6000 1.5 130 01:54 12.12.2019
2584 Clouds 1 1018 80 6000 1.5 130 01:35 12.12.2019
2585 Clouds 3 1018 82 7000 1 0 00:48 12.12.2019
2586 Clouds 3 1018 82 7000 1 0 00:21 12.12.2019
2587 Clouds 3 1018 82 7000 1 280 23:58 11.12.2019
2588 Clouds 3 1018 82 7000 1 280 23:36 11.12.2019
2589 Clouds 3 1018 70 7000 1 280 23:18 11.12.2019
2590 Clouds 2 1018 70 7000 1.5 320 22:55 11.12.2019
2591 Clouds 2 1018 70 7000 1.5 320 22:36 11.12.2019
2592 Clouds 4 1018 70 7000 1.5 320 22:18 11.12.2019
2593 Clouds 2 1019 70 6000 1 270 21:39 11.12.2019
2594 Clouds 5 1019 70 6000 1 270 21:20 11.12.2019
2595 Clouds 4 1019 70 6000 1 0 20:58 11.12.2019
2596 Clouds 4 1019 70 6000 1 0 20:40 11.12.2019
2597 Clouds 4 1019 62 6000 1 0 20:20 11.12.2019
2598 Clouds 5 1017 75 10000 3.6 80 19:59 11.12.2019
2599 Clouds 5 1017 75 10000 3.6 80 19:40 11.12.2019
2600 Clouds 5 1017 75 10000 3.6 80 19:21 11.12.2019
2601 Clouds 3 1019 62 7000 1.5 320 18:58 11.12.2019
2602 Clouds 3 1019 62 7000 1.5 320 18:39 11.12.2019
2603 Clouds 3 1019 62 7000 1.5 320 18:18 11.12.2019
2604 Clouds 4 1019 62 9000 1 0 17:55 11.12.2019
2605 Clouds 4 1019 62 9000 1 0 17:37 11.12.2019
2606 Clouds 5 1019 57 9000 1 0 17:18 11.12.2019
2607 Clouds 5 1018 69 9000 2.6 130 16:55 11.12.2019
2608 Clouds 5 1018 69 9000 2.6 130 16:36 11.12.2019
2609 Clouds 5 1018 69 9000 2.6 130 16:18 11.12.2019
2610 Clouds 5 1018 57 9000 4.1 130 15:54 11.12.2019
2611 Clouds 5 1018 57 9000 4.1 130 15:36 11.12.2019
2612 Clouds 5 1018 57 9000 4.1 130 15:18 11.12.2019
2613 Clouds 5 1018 57 10000 4.6 130 14:54 11.12.2019
2614 Clouds 5 1018 57 10000 4.6 130 14:36 11.12.2019
2615 Clouds 5 1018 57 10000 4.6 130 14:36 11.12.2019
2616 Clouds 5 1018 58 10000 4.6 130 14:18 11.12.2019
2617 Clouds 6 1017 58 10000 4.6 130 13:41 11.12.2019
2618 Clouds 6 1017 59 10000 4.6 130 13:21 11.12.2019
2619 Clouds 9 1017 49 10000 4.6 120 12:57 11.12.2019
2620 Clouds 9 1017 49 10000 4.6 120 12:38 11.12.2019
2621 Clouds 9 1017 49 10000 4.6 120 12:38 11.12.2019
2622 Mist 9 1017 61 9000 1.23 350 12:20 11.12.2019
2623 Clouds 10 1017 39 10000 1.5 190 11:57 11.12.2019
2624 Clouds 10 1017 39 10000 1.5 190 11:38 11.12.2019
2625 Clouds 10 1017 39 10000 1.5 190 11:38 11.12.2019
2626 Clouds 10 1017 39 10000 1.5 190 11:18 11.12.2019
2627 Clouds 10 1017 39 10000 1.5 190 11:18 11.12.2019
2628 Clouds 10 1017 39 10000 1.5 190 11:18 11.12.2019
2629 Clouds 9 1017 37 10000 1.5 0 10:55 11.12.2019
2630 Clouds 9 1017 37 10000 1.5 0 10:37 11.12.2019
2631 Clouds 9 1017 37 10000 1.5 0 10:19 11.12.2019
2632 Clouds 8 1018 42 10000 2.6 210 09:41 11.12.2019
2633 Clouds 8 1018 42 10000 2.6 210 09:21 11.12.2019
2634 Clouds 8 1019 49 10000 2.6 210 08:58 11.12.2019
2635 Clouds 8 1019 49 10000 2.6 210 08:38 11.12.2019
2636 Clouds 8 1019 49 10000 2.6 210 08:19 11.12.2019
2637 Clear 6 1020 55 10000 1 0 07:56 11.12.2019
2638 Clear 6 1020 55 10000 1 0 07:38 11.12.2019
2639 Clear 6 1020 55 10000 1 0 07:19 11.12.2019
2640 Clear 5 1020 75 8000 2.1 350 06:44 11.12.2019
2641 Clear 5 1020 75 8000 2.1 350 06:22 11.12.2019
2642 Clouds 4 1019 55 8000 2.1 10 05:41 11.12.2019
2643 Clouds 4 1019 75 8000 2.1 10 05:20 11.12.2019
2644 Clouds 1 1019 75 9000 2.1 350 04:28 11.12.2019
2645 Clear 2 1018 75 10000 1 310 02:49 11.12.2019
2646 Clouds 3 1018 80 10000 1.5 350 01:25 11.12.2019
2647 Clouds 4 1018 86 10000 2.1 360 00:47 11.12.2019
2648 Clouds 4 1018 86 10000 2.1 360 00:22 11.12.2019
2649 Clouds 3 1016 86 10000 2.6 230 23:50 10.12.2019
2650 Clouds 4 1018 93 10000 1.5 310 23:30 10.12.2019
2651 Rain 3 1016 86 10000 2.6 240 22:59 10.12.2019
2652 Rain 3 1016 86 10000 2.6 240 22:59 10.12.2019
2653 Clouds 3 1018 93 8000 1.5 130 22:40 10.12.2019
2654 Clouds 3 1018 93 8000 1.5 130 22:40 10.12.2019
2655 Clouds 3 1018 93 8000 1.5 130 22:22 10.12.2019
2656 Clouds 4 1019 93 8000 1.5 100 21:57 10.12.2019
2657 Clouds 4 1019 93 8000 1.5 100 21:39 10.12.2019
2658 Clouds 4 1019 93 8000 1.5 100 21:21 10.12.2019
2659 Clouds 4 1019 86 8000 1.5 0 20:57 10.12.2019
2660 Clouds 4 1019 86 8000 1.5 0 20:38 10.12.2019
2661 Clouds 4 1019 86 8000 1.5 0 20:19 10.12.2019
2662 Clouds 6 1020 86 9000 1.5 0 19:55 10.12.2019
2663 Clouds 6 1020 86 9000 1.5 0 19:37 10.12.2019
2664 Clouds 6 1020 86 9000 1.5 0 19:18 10.12.2019
2665 Rain 6 1020 86 6000 3.6 250 18:40 10.12.2019
2666 Rain 6 1020 86 6000 3.6 250 18:20 10.12.2019
2667 Rain 6 1019 80 5000 4.1 280 17:58 10.12.2019
2668 Rain 6 1019 80 5000 4.1 280 17:40 10.12.2019
2669 Rain 6 1019 80 5000 4.1 280 17:20 10.12.2019
2670 Clouds 6 1018 75 10000 1.24 292 16:54 10.12.2019
2671 Rain 7 1020 70 8000 1.5 0 16:36 10.12.2019
2672 Clouds 7 1018 70 10000 1.24 292 16:18 10.12.2019
2673 Clouds 7 1018 70 10000 1.24 292 16:18 10.12.2019
2674 Clouds 7 1018 70 10000 1.24 292 16:18 10.12.2019
2675 Clouds 7 1019 65 6000 1.5 260 15:38 10.12.2019
2676 Rain 7 1019 70 1600 3.1 220 15:18 10.12.2019
2677 Mist 8 1019 65 1600 2.1 160 14:56 10.12.2019
2678 Mist 8 1019 65 1600 2.1 160 14:37 10.12.2019
2679 Mist 8 1019 65 1600 2.1 160 14:19 10.12.2019
2680 Mist 8 1019 65 2000 1 160 13:56 10.12.2019
2681 Mist 8 1019 65 2000 1 160 13:38 10.12.2019
2682 Clouds 8 1019 65 8000 2.1 100 13:19 10.12.2019
2683 Clouds 8 1019 65 8000 2.1 100 12:47 10.12.2019
2684 Clouds 9 1017 66 10000 1.5 90 12:26 10.12.2019
2685 Clouds 9 1020 61 6000 2.6 110 11:55 10.12.2019
2686 Clouds 9 1020 61 6000 2.6 110 11:36 10.12.2019
2687 Clouds 9 1020 61 6000 2.6 110 11:18 10.12.2019
2688 Mist 9 1021 61 5000 2.1 310 10:42 10.12.2019
2689 Mist 9 1021 61 5000 2.1 310 10:23 10.12.2019
2690 Clouds 9 1022 65 5000 2.1 240 09:56 10.12.2019
2691 Clouds 9 1022 65 5000 2.1 240 09:56 10.12.2019
2692 Clouds 9 1022 65 5000 2.1 240 09:38 10.12.2019
2693 Clouds 9 1022 65 5000 2.1 240 09:38 10.12.2019
2694 Clouds 9 1022 65 5000 2.1 240 09:20 10.12.2019
2695 Haze 9 1021 61 9000 0.9 133 08:57 10.12.2019
2696 Haze 9 1021 61 9000 0.9 133 08:38 10.12.2019
2697 Haze 9 1021 61 9000 0.72 177 08:19 10.12.2019
2698 Haze 9 1021 61 9000 0.72 177 08:19 10.12.2019
2699 Clouds 6 1024 80 7000 2.1 170 07:44 10.12.2019
2700 Clouds 6 1024 80 7000 2.1 170 07:26 10.12.2019
2701 Mist 5 1023 80 3200 0.72 177 06:49 10.12.2019
2702 Rain 4 1025 75 7000 1 190 06:24 10.12.2019
2703 Rain 5 1024 86 3200 0.72 177 05:55 10.12.2019
2704 Rain 4 1025 42 6000 2.1 100 05:19 10.12.2019
2705 Haze 4 1022 74 2800 1.5 130 03:47 10.12.2019
2706 Smoke 2 1022 74 1800 1 330 02:48 10.12.2019
2707 Smoke 2 1022 74 1800 1 330 02:48 10.12.2019
2708 Haze 2 1020 80 8000 1.54 303 01:51 10.12.2019
2709 Haze 2 1020 80 8000 1.54 303 01:26 10.12.2019
2710 Haze 2 1020 80 8000 1.54 303 01:26 10.12.2019
2711 Smoke 1 1022 80 1800 1.61 306 00:51 10.12.2019
2712 Smoke 1 1022 80 1800 1.61 306 00:24 10.12.2019
2713 Smoke 3 1022 69 2000 1.61 306 23:45 09.12.2019
2714 Smoke 3 1022 69 2000 1.41 300 23:24 09.12.2019
2715 Smoke 3 1023 64 2500 1.41 300 22:59 09.12.2019
2716 Smoke 3 1023 64 2500 1.41 300 22:40 09.12.2019
2717 Smoke 3 1023 64 2500 1.41 300 22:21 09.12.2019
2718 Smoke 4 1023 64 3500 1.5 120 21:58 09.12.2019
2719 Smoke 4 1023 64 3500 1.5 120 21:39 09.12.2019
2720 Smoke 4 1023 64 3500 1.5 120 21:19 09.12.2019
2721 Smoke 5 1024 56 3500 1.5 310 20:57 09.12.2019
2722 Smoke 5 1024 56 3500 1.5 310 20:39 09.12.2019
2723 Smoke 5 1024 56 3500 1.5 310 20:20 09.12.2019
2724 Smoke 5 1024 56 3500 1 280 19:56 09.12.2019
2725 Smoke 5 1024 56 3500 1 280 19:38 09.12.2019
2726 Smoke 5 1024 56 3500 1 280 19:38 09.12.2019
2727 Smoke 5 1024 56 3500 1 280 19:19 09.12.2019
2728 Smoke 5 1024 56 3500 1 280 19:19 09.12.2019
2729 Smoke 6 1024 52 2800 1 180 18:58 09.12.2019
2730 Smoke 6 1024 52 2800 1 180 18:39 09.12.2019
2731 Smoke 6 1024 52 2800 1 180 18:20 09.12.2019
2732 Smoke 5 1024 56 4000 1.5 50 17:58 09.12.2019
2733 Smoke 5 1024 56 4000 1.5 50 17:40 09.12.2019
2734 Smoke 4 1024 56 4000 1.5 50 17:21 09.12.2019
2735 Smoke 4 1024 56 4000 1.5 140 16:56 09.12.2019
2736 Smoke 4 1024 56 4000 1.5 140 16:56 09.12.2019
2737 Smoke 4 1024 56 4000 1.5 140 16:38 09.12.2019
2738 Smoke 4 1024 56 4000 1.5 140 16:20 09.12.2019
2739 Haze 5 1022 60 9000 1.92 300 15:56 09.12.2019
2740 Haze 5 1022 60 9000 1.92 300 15:37 09.12.2019
2741 Clouds 5 1023 48 5000 1.5 200 15:19 09.12.2019
2742 Clouds 8 1023 39 5000 1.5 0 14:57 09.12.2019
2743 Clouds 8 1023 39 5000 1.5 0 14:39 09.12.2019
2744 Clouds 9 1023 39 5000 1.5 0 14:18 09.12.2019
2745 Clouds 10 1023 34 6000 2.6 50 13:40 09.12.2019
2746 Clouds 10 1023 34 6000 2.6 50 13:21 09.12.2019
2747 Clouds 11 1023 29 7000 3.1 70 12:58 09.12.2019
2748 Clouds 11 1023 29 7000 3.1 70 12:40 09.12.2019
2749 Clouds 11 1023 29 7000 3.1 70 12:21 09.12.2019
2750 Clouds 11 1023 28 8000 1 0 11:59 09.12.2019
2751 Clouds 11 1023 28 8000 1 0 11:40 09.12.2019
2752 Clouds 11 1023 28 8000 1 0 11:21 09.12.2019
2753 Clouds 11 1024 25 10000 1.5 360 10:57 09.12.2019
2754 Clouds 11 1024 25 10000 1.5 360 10:38 09.12.2019
2755 Clouds 11 1024 25 10000 1.5 360 10:19 09.12.2019
2756 Clouds 10 1025 27 9000 1.5 330 09:43 09.12.2019
2757 Clouds 10 1025 27 9000 1.5 330 09:23 09.12.2019
2758 Smoke 10 1026 27 9000 1.5 300 08:55 09.12.2019
2759 Smoke 10 1026 27 9000 1.5 300 08:37 09.12.2019
2760 Smoke 9 1026 32 4000 1.5 260 08:19 09.12.2019
2761 Smoke 5 1027 42 1200 1.5 210 07:44 09.12.2019
2762 Smoke 5 1027 45 1500 1.5 160 07:25 09.12.2019
2763 Smoke 4 1027 52 1800 1.5 160 06:55 09.12.2019
2764 Smoke 5 1027 42 2500 1 300 06:27 09.12.2019
2765 Smoke 3 1026 55 4000 1.5 320 05:30 09.12.2019
2766 Smoke 1 1024 55 4000 1.5 10 04:51 09.12.2019
2767 Smoke 1 1025 64 2500 1.5 280 04:20 09.12.2019
2768 Smoke 1 1024 69 2000 1 0 02:27 09.12.2019
2769 Smoke -1 1024 24 2000 2.1 290 01:44 09.12.2019
2770 Smoke 0 1024 26 2000 2.1 320 00:55 09.12.2019
2771 Smoke 0 1024 26 2000 2.1 320 00:32 09.12.2019
2772 Smoke 0 1024 80 1600 1 0 23:54 08.12.2019
2773 Smoke 0 1024 80 1600 1 0 23:36 08.12.2019
2774 Smoke 0 1024 80 1600 1 0 23:18 08.12.2019
2775 Smoke 0 1025 69 1600 1 240 22:56 08.12.2019
2776 Smoke 0 1025 69 1600 1 240 22:37 08.12.2019
2777 Smoke 0 1025 69 1600 1 240 22:18 08.12.2019
2778 Smoke 0 1025 69 1600 0.5 0 21:54 08.12.2019
2779 Smoke 1 1025 69 1600 0.5 0 21:36 08.12.2019
2780 Smoke 1 1025 69 1600 0.5 0 21:18 08.12.2019
2781 Smoke 1 1025 23 2000 0.5 270 20:54 08.12.2019
2782 Smoke 1 1025 23 2000 0.5 270 20:54 08.12.2019
2783 Smoke 1 1025 23 2000 0.5 270 20:36 08.12.2019
2784 Smoke 1 1025 24 2000 0.5 270 20:18 08.12.2019
2785 Smoke 1 1026 64 3000 1 340 19:42 08.12.2019
2786 Smoke 1 1026 64 3000 1 340 19:24 08.12.2019
2787 Smoke 1 1026 59 3000 0.5 0 18:56 08.12.2019
2788 Smoke 1 1026 59 3000 0.5 0 18:37 08.12.2019
2789 Smoke 2 1026 59 3000 0.5 0 18:19 08.12.2019
2790 Smoke 3 1026 48 2500 2.6 100 17:57 08.12.2019
2791 Smoke 3 1026 48 2500 2.6 100 17:39 08.12.2019
2792 Smoke 3 1026 48 2500 2.6 100 17:20 08.12.2019
2793 Smoke 3 1026 48 2000 1 0 16:58 08.12.2019
2794 Smoke 3 1026 48 2000 1 0 16:40 08.12.2019
2795 Smoke 3 1026 48 2000 1 0 16:22 08.12.2019
2796 Smoke 5 1025 45 2800 1.5 210 15:57 08.12.2019
2797 Smoke 5 1025 45 2800 1.5 210 15:37 08.12.2019
2798 Clouds 5 1025 38 6000 1 0 15:18 08.12.2019
2799 Clouds 8 1025 36 6000 1 0 14:44 08.12.2019
2800 Clouds 8 1025 36 6000 1 0 14:25 08.12.2019
2801 Clouds 10 1025 29 7000 2.6 80 13:59 08.12.2019
2802 Clouds 10 1025 29 7000 2.6 80 13:40 08.12.2019
2803 Clouds 10 1025 29 7000 2.6 80 13:22 08.12.2019
2804 Clouds 11 1025 22 8000 1.5 0 12:58 08.12.2019
2805 Clouds 11 1025 22 8000 1.5 0 12:39 08.12.2019
2806 Clouds 11 1025 22 8000 1.5 0 12:19 08.12.2019
2807 Clouds 12 1025 22 8000 1.5 0 11:57 08.12.2019
2808 Clouds 12 1025 22 8000 1.5 0 11:37 08.12.2019
2809 Clouds 12 1025 22 8000 1.5 0 11:19 08.12.2019
2810 Clouds 11 1026 22 8000 2.1 140 10:55 08.12.2019
2811 Clouds 11 1026 22 8000 2.1 140 10:36 08.12.2019
2812 Clouds 11 1026 22 8000 2.1 140 10:18 08.12.2019
2813 Smoke 11 1027 23 9000 2.6 160 09:54 08.12.2019
2814 Smoke 11 1027 23 9000 2.6 160 09:36 08.12.2019
2815 Smoke 10 1027 23 9000 2.6 160 09:18 08.12.2019
2816 Smoke 9 1028 34 8000 1.5 0 08:41 08.12.2019
2817 Smoke 9 1028 34 8000 1.5 0 08:22 08.12.2019
2818 Haze 8 1026 42 5000 0.75 177 07:49 08.12.2019
2819 Smoke 7 1028 36 3000 1.5 0 07:21 08.12.2019
2820 Smoke 6 1029 36 4000 1.5 240 06:58 08.12.2019
2821 Smoke 5 1029 36 4000 1.5 240 06:38 08.12.2019
2822 Smoke 2 1028 38 5000 2.6 310 06:18 08.12.2019
2823 Smoke 1 1028 55 5000 1.5 320 05:22 08.12.2019
2824 Haze -1 1027 79 3600 0.87 279 04:20 08.12.2019
2825 Clear -2 1028 63 9000 2.6 320 03:38 08.12.2019
2826 Clear -2 1027 63 8000 1.5 330 02:41 08.12.2019
2827 Clear -2 1027 63 8000 1.5 330 02:19 08.12.2019
2828 Clear -1 1027 50 10000 3.1 340 01:34 08.12.2019
2829 Clear -1 1028 23 7000 3.6 340 00:45 08.12.2019
2830 Clear -1 1028 23 7000 3.6 340 00:21 08.12.2019
2831 Clear 0 1027 55 6000 2.1 320 23:57 07.12.2019
2832 Clear 0 1027 55 6000 2.1 320 23:36 07.12.2019
2833 Clear 0 1027 55 6000 2.1 320 23:18 07.12.2019
2834 Clear 0 1028 23 6000 2.6 330 22:54 07.12.2019
2835 Clear 0 1028 23 6000 2.6 330 22:36 07.12.2019
2836 Smoke 0 1028 68 3000 3.1 330 22:18 07.12.2019
2837 Smoke 0 1028 74 800 0.5 260 21:55 07.12.2019
2838 Smoke 0 1028 74 800 0.5 260 21:36 07.12.2019
2839 Smoke 0 1028 74 800 0.5 260 21:18 07.12.2019
2840 Smoke 0 1028 23 1000 1 290 20:38 07.12.2019
2841 Smoke 0 1028 26 1000 1 290 20:20 07.12.2019
2842 Smoke 1 1028 69 1000 1.25 306 19:57 07.12.2019
2843 Smoke 1 1028 69 1000 1.25 306 19:39 07.12.2019
2844 Smoke 1 1028 69 600 1 150 19:21 07.12.2019
2845 Smoke 2 1028 64 1500 0.5 0 18:58 07.12.2019
2846 Smoke 2 1028 64 1500 0.5 0 18:39 07.12.2019
2847 Smoke 2 1028 55 2000 1 320 18:18 07.12.2019
2848 Smoke 1 1028 64 2000 1.25 306 17:55 07.12.2019
2849 Smoke 1 1028 64 2000 1.25 306 17:37 07.12.2019
2850 Smoke 1 1028 64 2000 1.37 295 17:18 07.12.2019
2851 Smoke 3 1027 55 3500 0.5 0 16:55 07.12.2019
2852 Smoke 3 1027 55 3500 0.5 0 16:36 07.12.2019
2853 Smoke 3 1027 55 3500 0.5 0 16:18 07.12.2019
2854 Clear 5 1027 48 4000 1 0 15:40 07.12.2019
2855 Clear 5 1027 48 4000 1 0 15:22 07.12.2019
2856 Clear 7 1027 45 4000 1.5 150 14:43 07.12.2019
2857 Clear 8 1027 39 7000 2.1 110 14:20 07.12.2019
2858 Clear 10 1027 27 7000 1 100 13:59 07.12.2019
2859 Clear 10 1027 27 7000 1 100 13:39 07.12.2019
2860 Clear 10 1027 27 7000 1 100 13:20 07.12.2019
2861 Clear 10 1027 27 7000 1 100 13:20 07.12.2019
2862 Clear 13 1027 17 9000 0.81 267 12:55 07.12.2019
2863 Clear 13 1027 17 9000 0.81 267 12:37 07.12.2019
2864 Clear 13 1027 17 9000 0.81 267 12:18 07.12.2019
2865 Clear 13 1026 22 9000 1 290 11:41 07.12.2019
2866 Clear 13 1026 22 9000 1 290 11:23 07.12.2019
2867 Clear 12 1027 25 8000 1.5 190 10:56 07.12.2019
2868 Clear 12 1027 25 8000 1.5 190 10:36 07.12.2019
2869 Clear 12 1027 25 8000 1.5 190 10:18 07.12.2019
2870 Clear 11 1028 29 6000 1.5 180 09:39 07.12.2019
2871 Clear 11 1028 29 6000 1.5 180 09:21 07.12.2019
2872 Haze 10 1029 29 5000 0.7 132 08:46 07.12.2019
2873 Haze 10 1029 29 5000 0.9 117 08:25 07.12.2019
2874 Haze 10 1029 29 5000 0.97 152 08:25 07.12.2019
2875 Haze 10 1029 29 5000 0.7 132 08:25 07.12.2019
2876 Haze 10 1029 29 5000 0.7 132 08:25 07.12.2019
2877 Haze 9 1028 42 5000 1.03 164 07:53 07.12.2019
2878 Haze 8 1030 31 5000 2.1 260 07:29 07.12.2019
2879 Haze 5 1031 39 5000 1.5 260 06:53 07.12.2019
2880 Haze 5 1031 39 5000 1.5 260 06:27 07.12.2019
2881 Haze 1 1030 51 7000 3.1 340 05:49 07.12.2019
2882 Clear -1 1029 26 9000 1.5 320 04:48 07.12.2019
2883 Clear -1 1028 79 4000 1.02 259 03:51 07.12.2019
2884 Haze -1 1027 86 9000 2.1 230 02:23 07.12.2019
2885 Smoke -1 1028 27 6000 1 280 01:51 07.12.2019
2886 Smoke -1 1028 28 6000 1 280 01:25 07.12.2019
2887 Smoke -1 1029 28 6000 2.6 320 00:36 07.12.2019
2888 Smoke -1 1029 28 6000 2.6 320 00:18 07.12.2019
2889 Smoke -1 1029 28 6000 2.6 320 00:18 07.12.2019
2890 Smoke -1 1029 28 5000 3.1 330 23:42 06.12.2019
2891 Smoke 0 1029 59 1400 3.6 340 23:20 06.12.2019
2892 Haze 0 1027 29 8000 1.06 281 22:39 06.12.2019
2893 Haze 0 1027 29 8000 1.06 281 22:21 06.12.2019
2894 Smoke 1 1029 29 1200 0.5 0 21:59 06.12.2019
2895 Smoke 1 1029 29 1200 0.5 0 21:41 06.12.2019
2896 Smoke 1 1029 29 1200 0.5 0 21:21 06.12.2019
2897 Smoke 2 1029 64 1200 1.5 330 20:59 06.12.2019
2898 Smoke 2 1029 64 1200 1.5 330 20:41 06.12.2019
2899 Smoke 2 1029 64 1200 1.5 330 20:20 06.12.2019
2900 Smoke 2 1029 64 1200 1.5 300 19:43 06.12.2019
2901 Smoke 2 1029 64 1600 1 320 19:24 06.12.2019
2902 Smoke 2 1029 64 2000 1 150 18:59 06.12.2019
2903 Smoke 2 1029 64 2000 1 150 18:40 06.12.2019
2904 Haze 3 1027 74 8000 1.5 210 18:21 06.12.2019
2905 Smoke 2 1029 59 2000 1 140 17:58 06.12.2019
2906 Smoke 2 1029 59 2000 1 140 17:40 06.12.2019
2907 Smoke 2 1029 59 2000 1 140 17:40 06.12.2019
2908 Haze 4 1027 80 8000 2.6 230 17:22 06.12.2019
2909 Smoke 4 1028 44 4000 0.5 50 16:57 06.12.2019
2910 Smoke 4 1028 44 4000 0.5 50 16:37 06.12.2019
2911 Smoke 4 1028 44 4000 0.5 50 16:19 06.12.2019
2912 Smoke 6 1028 45 2500 1.5 190 15:41 06.12.2019
2913 Smoke 6 1028 45 2500 1.5 190 15:22 06.12.2019
2914 Haze 7 1026 56 8000 1.7 293 14:58 06.12.2019
2915 Clear 9 1028 36 7000 2.1 100 14:40 06.12.2019
2916 Clear 9 1028 36 7000 2.1 100 14:20 06.12.2019
2917 Clear 11 1028 29 8000 1.5 100 13:46 06.12.2019
2918 Clear 11 1028 29 8000 1.5 100 13:27 06.12.2019
2919 Clear 13 1028 19 8000 1.5 0 12:58 06.12.2019
2920 Clear 13 1028 19 8000 1.5 0 12:39 06.12.2019
2921 Clear 13 1028 19 8000 1.5 0 12:21 06.12.2019
2922 Smoke 13 1028 19 8000 1.5 0 11:42 06.12.2019
2923 Smoke 13 1028 19 8000 1.5 0 11:23 06.12.2019
2924 Smoke 12 1029 22 8000 1.5 0 10:56 06.12.2019
2925 Smoke 12 1029 22 8000 1.5 0 10:38 06.12.2019
2926 Smoke 12 1029 22 8000 1.5 0 10:20 06.12.2019
2927 Smoke 11 1030 32 5000 1.5 0 09:55 06.12.2019
2928 Smoke 11 1030 32 5000 1.5 0 09:36 06.12.2019
2929 Smoke 11 1030 32 5000 1.5 0 09:18 06.12.2019
2930 Smoke 12 1030 32 6000 1.5 0 08:42 06.12.2019
2931 Smoke 8 1030 32 6000 1.5 0 08:24 06.12.2019
2932 Smoke 7 1031 42 6000 2.6 330 07:42 06.12.2019
2933 Smoke 7 1031 42 6000 2.6 330 07:22 06.12.2019
2934 Smoke 5 1031 45 5000 2.6 310 06:48 06.12.2019
2935 Smoke 5 1031 45 5000 2.6 310 06:25 06.12.2019
2936 Smoke 1 1031 59 5000 2.6 330 05:49 06.12.2019
2937 Mist -1 1029 33 4000 2.1 320 02:51 06.12.2019
2938 Mist -1 1029 35 2500 1.5 330 01:45 06.12.2019
2939 Mist 0 1029 74 2000 1 320 00:56 06.12.2019
2940 Mist 0 1029 74 2000 1 320 00:24 06.12.2019
2941 Mist -1 1029 35 1500 1 280 23:52 05.12.2019
2942 Haze 0 1027 86 8000 1.83 292 23:21 05.12.2019
2943 Mist 1 1029 33 1200 1.83 292 22:58 05.12.2019
2944 Mist 1 1029 33 1200 1.83 292 22:39 05.12.2019
2945 Mist 1 1029 33 1200 1.83 292 22:20 05.12.2019
2946 Mist 2 1029 80 1200 1.5 170 21:58 05.12.2019
2947 Mist 2 1029 80 1200 1.5 170 21:40 05.12.2019
2948 Mist 2 1029 80 1200 1.5 170 21:21 05.12.2019
2949 Mist 0 1029 74 1800 0.5 250 20:57 05.12.2019
2950 Mist 0 1029 74 1800 0.5 250 20:38 05.12.2019
2951 Haze 2 1027 32 8000 1.5 240 20:19 05.12.2019
2952 Mist 2 1029 64 2500 1.5 350 19:43 05.12.2019
2953 Mist 2 1029 64 2500 1.5 350 19:25 05.12.2019
2954 Mist 3 1029 69 2000 1.5 170 18:59 05.12.2019
2955 Mist 3 1029 69 2000 1.5 170 18:39 05.12.2019
2956 Mist 3 1029 69 2000 1.5 170 18:20 05.12.2019
2957 Smoke 3 1029 60 2500 1.99 296 17:56 05.12.2019
2958 Smoke 3 1029 60 2500 1.99 296 17:37 05.12.2019
2959 Smoke 3 1029 60 2500 2.27 293 17:18 05.12.2019
2960 Smoke 4 1028 56 2500 0.5 150 16:54 05.12.2019
2961 Smoke 4 1028 56 2500 0.5 150 16:36 05.12.2019
2962 Smoke 4 1028 56 2500 0.5 150 16:18 05.12.2019
2963 Smoke 7 1028 45 3000 1 180 15:40 05.12.2019
2964 Smoke 7 1028 45 3000 1 180 15:21 05.12.2019
2965 Smoke 8 1028 45 3000 1 160 14:57 05.12.2019
2966 Smoke 8 1028 45 3000 1 160 14:39 05.12.2019
2967 Clear 9 1027 42 7000 0.5 0 14:20 05.12.2019
2968 Clear 12 1027 32 9000 0.5 0 13:59 05.12.2019
2969 Clear 12 1027 32 9000 0.5 0 13:40 05.12.2019
2970 Clear 12 1027 32 9000 0.5 0 13:21 05.12.2019
2971 Clear 13 1027 25 9000 3.1 350 12:59 05.12.2019
2972 Clear 13 1027 25 9000 3.1 350 12:40 05.12.2019
2973 Clear 13 1027 25 9000 3.1 350 12:22 05.12.2019
2974 Haze 13 1027 26 8000 3.6 340 11:56 05.12.2019
2975 Haze 13 1027 26 8000 3.6 340 11:37 05.12.2019
2976 Haze 13 1027 26 8000 3.6 340 11:18 05.12.2019
2977 Haze 13 1028 24 6000 1.5 0 10:54 05.12.2019
2978 Haze 13 1028 24 6000 1.5 0 10:36 05.12.2019
2979 Haze 13 1028 24 6000 1.5 0 10:18 05.12.2019
2980 Haze 12 1029 28 6000 2.1 0 09:42 05.12.2019
2981 Haze 12 1029 28 6000 2.1 0 09:20 05.12.2019
2982 Haze 10 1027 37 3200 0.51 71 08:57 05.12.2019
2983 Haze 9 1029 43 3000 3.1 160 08:37 05.12.2019
2984 Haze 9 1029 43 3000 3.1 160 08:19 05.12.2019
2985 Haze 7 1030 42 4000 1.5 340 07:44 05.12.2019
2986 Haze 7 1030 42 4000 1.5 340 07:24 05.12.2019
2987 Haze 5 1030 48 4000 2.6 300 06:49 05.12.2019
2988 Haze 5 1030 48 4000 2.6 300 06:24 05.12.2019
2989 Smoke 2 1029 52 3000 1 0 05:58 05.12.2019
2990 Smoke 2 1029 52 3000 1 0 05:38 05.12.2019
2991 Haze 1 1029 59 6000 2.1 330 05:18 05.12.2019
2992 Smoke -1 1028 64 6000 3.1 340 03:43 05.12.2019
2993 Mist -2 1027 30 3000 2.1 310 02:42 05.12.2019
2994 Mist -2 1027 28 3000 2.1 310 02:23 05.12.2019
2995 Smoke 0 1027 59 3000 2.1 330 01:51 05.12.2019
2996 Smoke 0 1027 59 3000 2.1 330 01:51 05.12.2019
2997 Smoke 0 1027 59 3000 2.1 330 01:24 05.12.2019
2998 Smoke 0 1027 69 2500 2.6 330 00:46 05.12.2019
2999 Mist 0 1027 80 1200 1 260 00:21 05.12.2019
3000 Smoke 0 1027 80 700 1.5 190 23:56 04.12.2019
3001 Smoke 0 1027 80 700 1.5 190 23:37 04.12.2019
3002 Smoke 0 1027 80 700 1.5 190 23:18 04.12.2019
3003 Smoke 0 1027 27 700 1 100 22:39 04.12.2019
3004 Smoke 0 1027 27 700 1 100 22:20 04.12.2019
3005 Smoke 1 1027 80 700 1 220 21:58 04.12.2019
3006 Smoke 1 1027 80 700 1 220 21:39 04.12.2019
3007 Smoke 1 1027 80 700 1 220 21:20 04.12.2019
3008 Smoke 1 1027 80 700 0.5 250 20:58 04.12.2019
3009 Smoke 1 1027 80 700 0.5 250 20:40 04.12.2019
3010 Smoke 1 1027 80 900 1 270 20:21 04.12.2019
3011 Mist 2 1027 74 1000 0.5 240 19:57 04.12.2019
3012 Mist 2 1027 74 1000 0.5 240 19:38 04.12.2019
3013 Mist 2 1027 74 1800 1.98 297 19:20 04.12.2019
3014 Smoke 2 1026 64 2000 1.98 297 18:42 04.12.2019
3015 Smoke 2 1026 64 2000 1.98 297 18:24 04.12.2019
3016 Smoke 3 1026 64 2500 0.5 220 17:59 04.12.2019
3017 Smoke 3 1026 64 2500 0.5 220 17:39 04.12.2019
3018 Smoke 3 1026 64 2500 0.5 220 17:39 04.12.2019
3019 Smoke 3 1026 64 2500 0.5 220 17:20 04.12.2019
3020 Smoke 5 1025 52 2500 1 130 16:56 04.12.2019
3021 Smoke 5 1025 52 2500 1 130 16:38 04.12.2019
3022 Smoke 5 1025 52 2500 1 130 16:19 04.12.2019
3023 Smoke 5 1025 52 2500 1 130 16:19 04.12.2019
3024 Smoke 4 1025 52 2000 2.1 130 15:55 04.12.2019
3025 Smoke 4 1025 52 2000 2.1 130 15:37 04.12.2019
3026 Smoke 5 1025 56 1000 1.5 160 15:18 04.12.2019
3027 Smoke 9 1025 48 4000 1.5 200 14:43 04.12.2019
3028 Clear 9 1024 39 8000 1 0 14:23 04.12.2019
3029 Clear 12 1024 27 10000 1.5 80 13:57 04.12.2019
3030 Clear 12 1024 27 10000 1.5 80 13:37 04.12.2019
3031 Clear 12 1024 27 10000 1.5 80 13:19 04.12.2019
3032 Clear 14 1024 26 9000 2.6 70 12:44 04.12.2019
3033 Clear 14 1024 26 9000 2.6 70 12:24 04.12.2019
3034 Clear 14 1024 24 9000 1.16 306 11:55 04.12.2019
3035 Clear 14 1024 24 9000 1.16 306 11:36 04.12.2019
3036 Clear 14 1024 24 9000 0.72 28 11:18 04.12.2019
3037 Clear 13 1025 28 9000 1 310 10:42 04.12.2019
3038 Clear 13 1025 28 9000 1 310 10:22 04.12.2019
3039 Haze 12 1023 34 5000 0.72 28 09:55 04.12.2019
3040 Clear 11 1026 34 7000 1.5 150 09:36 04.12.2019
3041 Clear 11 1026 34 7000 1.5 150 09:18 04.12.2019
3042 Clear 11 1026 34 7000 1.5 150 09:18 04.12.2019
3043 Clear 9 1027 34 9000 1 330 08:39 04.12.2019
3044 Clear 9 1027 34 9000 1 330 08:19 04.12.2019
3045 Haze 9 1025 32 2800 0.09 78 07:47 04.12.2019
3046 Haze 9 1025 32 2800 0.09 78 07:47 04.12.2019
3047 Clear 8 1028 37 9000 1 320 07:29 04.12.2019
3048 Smoke 5 1028 48 6000 2.1 320 06:34 04.12.2019
3049 Smoke 2 1027 60 6000 2.6 310 05:48 04.12.2019
3050 Clear -1 1027 29 7000 2.1 320 04:58 04.12.2019
3051 Haze 0 1025 29 4000 1.3 294 03:54 04.12.2019
3052 Smoke -1 1026 29 5000 2.1 320 02:37 04.12.2019
3053 Mist 1 1026 28 1100 0.5 190 00:50 04.12.2019
3054 Mist 1 1026 28 1100 0.5 190 00:23 04.12.2019
3055 Mist 0 1026 80 1400 1.5 300 23:57 03.12.2019
3056 Mist 0 1026 80 1400 1.5 300 23:38 03.12.2019
3057 Mist 0 1026 80 1400 1.5 300 23:19 03.12.2019
3058 Mist 0 1026 74 1200 1 300 22:40 03.12.2019
3059 Mist 0 1026 74 1200 1 300 22:19 03.12.2019
3060 Mist 1 1025 74 1200 1.46 304 21:58 03.12.2019
3061 Mist 1 1025 74 1200 1.46 304 21:38 03.12.2019
3062 Mist 1 1025 74 1200 1.46 304 21:38 03.12.2019
3063 Mist 2 1025 74 1200 1.46 304 21:19 03.12.2019
3064 Mist 2 1026 74 1200 1.46 304 20:57 03.12.2019
3065 Mist 2 1026 74 1200 1.46 304 20:39 03.12.2019
3066 Mist 2 1026 74 1200 1.44 310 20:18 03.12.2019
3067 Smoke 1 1025 69 2500 1 80 19:55 03.12.2019
3068 Smoke 1 1025 69 2500 1 80 19:37 03.12.2019
3069 Smoke 1 1025 69 2500 1 80 19:18 03.12.2019
3070 Smoke 1 1025 69 2500 1 80 19:18 03.12.2019
3071 Smoke 3 1025 64 2000 1 130 18:55 03.12.2019
3072 Smoke 3 1025 64 2000 1 130 18:37 03.12.2019
3073 Smoke 3 1025 64 2000 1 130 18:19 03.12.2019
3074 Smoke 3 1025 60 1200 1 340 17:40 03.12.2019
3075 Smoke 3 1025 60 1200 1 340 17:19 03.12.2019
3076 Smoke 4 1025 60 1200 1 340 16:59 03.12.2019
3077 Smoke 4 1025 60 1200 1 340 16:40 03.12.2019
3078 Smoke 4 1025 60 1000 1 240 16:21 03.12.2019
3079 Smoke 6 1024 42 5000 1.5 70 15:59 03.12.2019
3080 Smoke 6 1024 42 5000 1.5 70 15:39 03.12.2019
3081 Smoke 6 1024 42 5000 1.5 70 15:20 03.12.2019
3082 Clouds 8 1023 39 7000 1.5 110 14:56 03.12.2019
3083 Clouds 8 1023 39 7000 1.5 110 14:38 03.12.2019
3084 Clouds 8 1023 39 7000 1.5 110 14:18 03.12.2019
3085 Clouds 10 1023 37 10000 2.1 90 13:38 03.12.2019
3086 Clouds 10 1023 37 10000 2.1 90 13:20 03.12.2019
3087 Clouds 13 1023 20 10000 0.63 255 12:58 03.12.2019
3088 Clouds 13 1023 20 10000 0.63 255 12:37 03.12.2019
3089 Clouds 13 1023 20 10000 0.63 255 12:18 03.12.2019
3090 Clouds 13 1023 26 10000 1.5 0 11:56 03.12.2019
3091 Clouds 13 1023 26 10000 1.5 0 11:37 03.12.2019
3092 Clouds 13 1023 26 10000 1.5 0 11:19 03.12.2019
3093 Clouds 13 1024 24 10000 1 0 10:54 03.12.2019
3094 Clouds 13 1024 24 10000 1 0 10:36 03.12.2019
3095 Haze 12 1022 34 6000 0.96 175 10:18 03.12.2019
3096 Clouds 11 1025 32 10000 1.5 0 09:42 03.12.2019
3097 Clouds 11 1025 32 10000 1.5 0 09:23 03.12.2019
3098 Haze 11 1024 37 5000 0.96 175 08:56 03.12.2019
3099 Haze 10 1026 34 9000 1 0 08:38 03.12.2019
3100 Haze 10 1026 34 9000 1 0 08:19 03.12.2019
3101 Haze 9 1024 49 3200 1.18 171 07:50 03.12.2019
3102 Haze 8 1027 36 9000 1 0 07:24 03.12.2019
3103 Clouds 5 1027 45 9000 2.6 350 06:24 03.12.2019
3104 Clouds 3 1027 60 8000 2.6 320 05:59 03.12.2019
3105 Clouds -1 1027 69 10000 4.1 350 04:55 03.12.2019
3106 Clouds -1 1026 25 10000 1.5 310 03:41 03.12.2019
3107 Clouds -1 1026 25 10000 1.5 310 03:20 03.12.2019
3108 Clouds -1 1026 25 10000 1.5 310 03:20 03.12.2019
3109 Clouds 0 1026 25 6000 2.1 330 02:50 03.12.2019
3110 Clouds 0 1026 25 6000 2.1 330 02:31 03.12.2019
3111 Mist 0 1026 86 4000 1.5 310 01:53 03.12.2019
3112 Mist 0 1026 86 4000 1.5 310 01:34 03.12.2019
3113 Mist 0 1026 80 3000 1.5 230 00:57 03.12.2019
3114 Mist 0 1026 80 3000 1.5 230 00:39 03.12.2019
3115 Mist 0 1026 80 3000 1.5 230 00:20 03.12.2019
3116 Mist 0 1026 29 1200 1.5 310 23:43 02.12.2019
3117 Mist 0 1026 33 1200 1.5 310 23:20 02.12.2019
3118 Mist 0 1026 33 1200 1.5 310 23:20 02.12.2019
3119 Mist 0 1026 80 1200 1.5 300 22:43 02.12.2019
3120 Mist 0 1026 80 1200 1.5 300 22:23 02.12.2019
3121 Smoke 2 1026 80 1000 1.5 190 21:59 02.12.2019
3122 Smoke 2 1026 80 1000 1.5 190 21:59 02.12.2019
3123 Smoke 2 1026 80 1000 1.5 190 21:38 02.12.2019
3124 Smoke 2 1026 80 1000 1.5 190 21:19 02.12.2019
3125 Smoke 2 1026 80 1000 1.5 290 20:56 02.12.2019
3126 Smoke 2 1026 80 1000 1.5 290 20:56 02.12.2019
3127 Smoke 2 1026 80 1000 1.5 290 20:38 02.12.2019
3128 Smoke 2 1026 80 1000 1.5 290 20:20 02.12.2019
3129 Smoke 1 1026 80 1200 1 0 19:55 02.12.2019
3130 Smoke 1 1026 80 1200 1 0 19:37 02.12.2019
3131 Smoke 1 1026 80 1200 1 0 19:19 02.12.2019
3132 Smoke 2 1026 69 1400 1.5 0 18:44 02.12.2019
3133 Smoke 2 1026 69 1400 1.5 0 18:20 02.12.2019
3134 Smoke 4 1026 60 1200 1.5 0 17:58 02.12.2019
3135 Smoke 4 1026 60 1200 1.5 0 17:40 02.12.2019
3136 Smoke 4 1026 60 1200 1.5 0 17:40 02.12.2019
3137 Clear 4 1026 56 1600 1 0 17:20 02.12.2019
3138 Clear 4 1026 56 1600 1 0 16:54 02.12.2019
3139 Clear 4 1026 56 1600 1 0 16:36 02.12.2019
3140 Haze 6 1024 43 8000 1.5 210 16:18 02.12.2019
3141 Haze 6 1024 43 8000 1.51 273 15:54 02.12.2019
3142 Clear 6 1025 48 8000 1 0 15:36 02.12.2019
3143 Clear 6 1025 48 8000 1 0 15:18 02.12.2019
3144 Clear 9 1025 42 10000 1.5 90 14:39 02.12.2019
3145 Clear 9 1025 42 10000 1.5 90 14:20 02.12.2019
3146 Clear 9 1025 42 10000 1.5 90 14:20 02.12.2019
3147 Clear 11 1025 37 10000 4.1 70 13:58 02.12.2019
3148 Clear 11 1025 37 10000 4.1 70 13:39 02.12.2019
3149 Clear 11 1025 37 10000 4.1 70 13:20 02.12.2019
3150 Clear 13 1025 28 10000 1.5 0 12:57 02.12.2019
3151 Clear 13 1025 28 10000 1.5 0 12:37 02.12.2019
3152 Clear 13 1025 28 10000 1.5 0 12:19 02.12.2019
3153 Clear 13 1025 28 10000 3.1 130 11:55 02.12.2019
3154 Clear 13 1025 28 10000 3.1 130 11:36 02.12.2019
3155 Clear 13 1025 28 10000 3.1 130 11:18 02.12.2019
3156 Clear 13 1025 26 10000 3.1 250 10:54 02.12.2019
3157 Clear 13 1025 26 10000 3.1 250 10:36 02.12.2019
3158 Clear 13 1025 26 10000 3.1 250 10:18 02.12.2019
3159 Clear 11 1026 34 10000 3.1 190 09:39 02.12.2019
3160 Clear 11 1026 34 10000 3.1 190 09:19 02.12.2019
3161 Clear 11 1026 34 10000 3.1 190 09:19 02.12.2019
3162 Clear 10 1025 40 10000 1.81 200 08:55 02.12.2019
3163 Clear 10 1025 40 10000 1.81 200 08:55 02.12.2019
3164 Clear 10 1027 37 10000 3.6 200 08:37 02.12.2019
3165 Clear 10 1027 37 10000 3.6 200 08:37 02.12.2019
3166 Clear 10 1027 37 10000 3.6 200 08:19 02.12.2019
3167 Haze 8 1028 42 5000 3.1 300 07:40 02.12.2019
3168 Haze 8 1028 42 5000 3.1 300 07:20 02.12.2019
3169 Haze 6 1028 45 5000 2.6 330 06:45 02.12.2019
3170 Haze 6 1028 48 2000 1.5 320 06:27 02.12.2019
3171 Mist 2 1027 64 4000 1.5 340 05:24 02.12.2019
3172 Mist -1 1027 86 4000 1 290 04:19 02.12.2019
3173 Mist 0 1026 86 2000 1.5 310 02:51 02.12.2019
3174 Mist 0 1026 86 2000 1.5 310 02:23 02.12.2019
3175 Mist -2 1026 86 1600 1.5 310 01:23 02.12.2019
3176 Mist -1 1025 45 1600 1.5 190 00:45 02.12.2019
3177 Mist -1 1025 45 1600 1.5 190 00:23 02.12.2019
3178 Mist 0 1025 45 1600 1.5 190 23:45 01.12.2019
3179 Mist 0 1026 86 1200 1.5 320 23:23 01.12.2019
3180 Mist 0 1026 80 1000 1.5 250 22:58 01.12.2019
3181 Mist 0 1026 80 1000 1.5 250 22:39 01.12.2019
3182 Mist 0 1026 80 1000 1.5 250 22:20 01.12.2019
3183 Mist 0 1026 80 1600 1 0 21:58 01.12.2019
3184 Mist 0 1026 80 1600 1 0 21:40 01.12.2019
3185 Mist 0 1026 80 1600 1 0 21:21 01.12.2019
3186 Mist 2 1026 80 1600 1 0 20:58 01.12.2019
3187 Mist 2 1026 80 1600 1 0 20:40 01.12.2019
3188 Mist 2 1026 80 1600 1 0 20:21 01.12.2019
3189 Smoke 1 1025 74 2000 1 0 19:58 01.12.2019
3190 Smoke 1 1025 74 2000 1 0 19:39 01.12.2019
3191 Smoke 1 1025 74 2000 1 0 19:39 01.12.2019
3192 Smoke 1 1025 74 2000 1 0 19:39 01.12.2019
3193 Smoke 1 1025 74 2000 1 0 19:21 01.12.2019
3194 Smoke 1 1025 74 2000 1 0 19:21 01.12.2019
3195 Smoke 2 1025 69 2000 1.5 30 18:57 01.12.2019
3196 Smoke 2 1025 69 2000 1.5 30 18:38 01.12.2019
3197 Smoke 2 1025 69 2000 1.5 30 18:19 01.12.2019
3198 Smoke 3 1025 69 2000 1.5 190 17:57 01.12.2019
3199 Smoke 3 1025 69 2000 1.5 190 17:39 01.12.2019
3200 Smoke 3 1025 64 5000 1.5 140 17:20 01.12.2019
3201 Smoke 3 1025 64 5000 1.5 140 17:20 01.12.2019
3202 Smoke 3 1025 64 5000 1.5 110 16:55 01.12.2019
3203 Smoke 3 1025 64 5000 1.5 110 16:36 01.12.2019
3204 Smoke 3 1025 64 5000 1.5 110 16:18 01.12.2019
3205 Smoke 5 1024 56 5000 1 300 15:44 01.12.2019
3206 Smoke 5 1024 56 5000 1 300 15:44 01.12.2019
3207 Smoke 5 1024 56 5000 1 300 15:26 01.12.2019
3208 Smoke 5 1024 56 5000 1 300 15:26 01.12.2019
3209 Smoke 5 1024 56 5000 1 300 15:26 01.12.2019
3210 Smoke 5 1024 56 5000 1 300 15:26 01.12.2019
3211 Clouds 8 1024 52 7000 1.5 350 14:39 01.12.2019
3212 Clouds 8 1024 52 7000 1.5 350 14:19 01.12.2019
3213 Clouds 10 1023 42 6000 2.1 60 13:43 01.12.2019
3214 Clouds 10 1023 42 6000 2.1 60 13:25 01.12.2019
3215 Clouds 10 1023 42 6000 2.1 60 13:25 01.12.2019
3216 Clouds 10 1023 42 6000 2.1 60 13:25 01.12.2019
3217 Clouds 10 1023 42 6000 2.1 60 13:25 01.12.2019
3218 Clouds 11 1023 39 6000 2.1 50 12:59 01.12.2019
3219 Clouds 11 1023 39 6000 2.1 50 12:40 01.12.2019
3220 Clouds 11 1023 39 6000 2.1 50 12:40 01.12.2019
3221 Clouds 11 1023 32 8000 0.5 0 11:54 01.12.2019
3222 Clouds 11 1023 32 8000 0.5 0 11:36 01.12.2019
3223 Clouds 11 1023 32 8000 0.5 0 11:18 01.12.2019
3224 Clouds 11 1023 32 8000 0.5 0 11:18 01.12.2019
3225 Clouds 11 1023 32 8000 0.5 0 11:18 01.12.2019
3226 Clouds 11 1024 34 9000 1.5 0 10:42 01.12.2019
3227 Clouds 11 1024 34 9000 1.5 0 10:20 01.12.2019
3228 Clouds 11 1024 34 9000 1.5 0 10:20 01.12.2019
3229 Clouds 10 1025 34 9000 1.5 250 09:42 01.12.2019
3230 Clouds 10 1025 34 9000 1.5 250 09:23 01.12.2019
3231 Haze 8 1025 39 5000 1 0 08:57 01.12.2019
3232 Haze 8 1025 39 5000 1 0 08:37 01.12.2019
3233 Haze 8 1025 39 5000 1 0 08:18 01.12.2019
3234 Haze 7 1026 42 3000 1.5 0 07:47 01.12.2019
3235 Haze 6 1026 42 1800 0.5 0 07:28 01.12.2019
3236 Smoke 4 1026 60 2000 1.5 330 06:52 01.12.2019
3237 Smoke 1 1026 64 5000 1.5 330 05:58 01.12.2019
3238 Smoke -1 1025 42 6000 3.1 330 04:55 01.12.2019
3239 Smoke -1 1025 42 6000 3.1 330 04:28 01.12.2019
3240 Mist -1 1025 74 3500 2.6 330 02:45 01.12.2019
3241 Mist -1 1025 74 3500 2.6 330 02:27 01.12.2019
3242 Mist -1 1024 74 3000 2.1 340 01:54 01.12.2019
3243 Mist -1 1024 74 3000 2.1 340 01:54 01.12.2019
3244 Mist -1 1024 74 3000 2.1 340 01:31 01.12.2019
3245 Mist -1 1024 86 1200 0.5 0 00:47 01.12.2019
3246 Mist -1 1024 86 1200 0.5 0 00:26 01.12.2019
3247 Mist 0 1025 44 1200 1.5 300 23:56 30.11.2019
3248 Mist 0 1025 44 1200 1.5 300 23:37 30.11.2019
3249 Mist 0 1025 44 1200 1.5 300 23:18 30.11.2019
3250 Smoke 0 1025 44 1500 1.2 289 22:41 30.11.2019
3251 Smoke 0 1025 44 1500 1.2 289 22:23 30.11.2019
3252 Smoke 0 1025 44 3000 0.5 0 21:48 30.11.2019
3253 Smoke 0 1025 44 3000 0.5 0 21:28 30.11.2019
3254 Smoke 1 1025 69 5000 1.5 350 20:58 30.11.2019
3255 Smoke 1 1025 69 5000 1.5 350 20:40 30.11.2019
3256 Smoke 1 1025 69 5000 1.5 350 20:20 30.11.2019
3257 Smoke 0 1025 69 5000 0.5 0 19:57 30.11.2019
3258 Smoke 0 1025 69 5000 0.5 0 19:39 30.11.2019
3259 Smoke 0 1025 69 5000 0.5 0 19:21 30.11.2019
3260 Smoke 1 1025 69 5000 0.5 0 18:59 30.11.2019
3261 Smoke 1 1025 69 5000 0.5 0 18:39 30.11.2019
3262 Smoke 1 1025 69 5000 0.5 0 18:21 30.11.2019
3263 Smoke 2 1025 69 5000 1.5 140 17:58 30.11.2019
3264 Smoke 2 1025 69 5000 1.5 140 17:40 30.11.2019
3265 Smoke 2 1025 69 5000 1.5 140 17:22 30.11.2019
3266 Smoke 2 1025 64 5000 1 0 16:58 30.11.2019
3267 Smoke 2 1025 64 5000 1 0 16:58 30.11.2019
3268 Smoke 2 1025 64 5000 1 0 16:40 30.11.2019
3269 Clear 2 1025 55 7000 1.5 0 16:21 30.11.2019
3270 Clear 2 1025 55 7000 1.5 0 16:21 30.11.2019
3271 Clear 4 1024 44 8000 1.5 0 15:43 30.11.2019
3272 Clear 4 1024 44 8000 1.5 0 15:20 30.11.2019
3273 Clear 7 1024 44 10000 2.1 340 14:58 30.11.2019
3274 Clear 7 1024 44 10000 2.1 340 14:38 30.11.2019
3275 Clouds 7 1024 44 10000 2.1 340 14:20 30.11.2019
3276 Clouds 9 1024 36 9000 0.51 312 13:58 30.11.2019
3277 Clouds 9 1024 36 9000 0.51 312 13:40 30.11.2019
3278 Clear 9 1024 36 9000 0.53 291 13:22 30.11.2019
3279 Clear 10 1024 34 7000 3.1 70 12:47 30.11.2019
3280 Clear 10 1024 34 7000 3.1 70 12:29 30.11.2019
3281 Clear 10 1024 29 7000 2.6 120 11:59 30.11.2019
3282 Clear 10 1024 29 7000 2.6 120 11:40 30.11.2019
3283 Clear 10 1024 29 7000 2.6 120 11:18 30.11.2019
3284 Haze 9 1025 29 6000 1 0 10:45 30.11.2019
3285 Haze 9 1025 29 6000 1 0 10:21 30.11.2019
3286 Haze 8 1026 36 6000 2.6 200 09:59 30.11.2019
3287 Haze 8 1026 36 6000 2.6 200 09:41 30.11.2019
3288 Haze 8 1026 36 6000 2.6 200 09:20 30.11.2019
3289 Haze 8 1027 42 1800 3.6 150 08:41 30.11.2019
3290 Haze 8 1027 42 1800 3.6 150 08:19 30.11.2019
3291 Smoke 7 1027 36 3600 1 0 07:44 30.11.2019
3292 Smoke 7 1027 36 3600 1 0 07:25 30.11.2019
3293 Smoke 5 1027 48 3600 1.5 300 06:46 30.11.2019
3294 Smoke 5 1027 48 3600 1.5 300 06:28 30.11.2019
3295 Smoke 0 1027 64 8000 1.5 340 05:29 30.11.2019
3296 Smoke -2 1026 86 7000 1 300 03:40 30.11.2019
3297 Smoke -1 1025 86 3500 1.5 320 02:26 30.11.2019
3298 Smoke -1 1025 80 2500 1 0 01:56 30.11.2019
3299 Smoke -2 1025 80 2500 1 0 01:24 30.11.2019
3300 Smoke -2 1024 80 3500 1 290 00:46 30.11.2019
3301 Smoke -2 1024 80 3500 1 290 00:27 30.11.2019
3302 Smoke -1 1025 23 3500 1.5 290 23:46 29.11.2019
3303 Smoke -1 1025 23 3500 1.5 290 23:25 29.11.2019
3304 Smoke -1 1025 24 3000 1 290 22:58 29.11.2019
3305 Smoke -1 1025 24 3000 1 290 22:39 29.11.2019
3306 Smoke -1 1025 24 3000 1 290 22:21 29.11.2019
3307 Clear -3 1026 24 0 1.1 273 21:41 29.11.2019
3308 Smoke 0 1026 24 2500 1.1 273 21:22 29.11.2019
3309 Smoke 0 1026 24 2500 1.1 273 20:56 29.11.2019
3310 Smoke 0 1026 24 2500 1.1 273 20:37 29.11.2019
3311 Smoke 0 1026 28 2500 1.22 277 20:18 29.11.2019
3312 Smoke 1 1026 64 4000 1 0 19:55 29.11.2019
3313 Smoke 1 1026 64 4000 1 0 19:37 29.11.2019
3314 Smoke 1 1026 64 4000 1 0 19:37 29.11.2019
3315 Smoke 1 1026 64 4000 1 0 19:19 29.11.2019
3316 Smoke 1 1026 64 4000 1.22 277 18:42 29.11.2019
3317 Smoke 1 1026 64 4000 1.22 277 18:24 29.11.2019
3318 Smoke 2 1025 59 4000 1.5 130 17:58 29.11.2019
3319 Smoke 2 1025 59 4000 1.5 130 17:58 29.11.2019
3320 Smoke 2 1025 59 4000 1.5 130 17:40 29.11.2019
3321 Smoke 2 1025 59 4000 1.5 130 17:21 29.11.2019
3322 Smoke 3 1026 51 4000 0.5 0 16:43 29.11.2019
3323 Smoke 3 1026 51 4000 0.5 0 16:21 29.11.2019
3324 Clear 3 1025 47 9000 1.5 70 15:57 29.11.2019
3325 Clear 3 1025 47 9000 1.5 70 15:39 29.11.2019
3326 Clear 3 1025 47 9000 1.5 70 15:20 29.11.2019
3327 Clear 5 1025 41 9000 2.1 90 14:40 29.11.2019
3328 Clear 8 1025 41 9000 2.1 90 14:21 29.11.2019
3329 Clear 8 1024 33 10000 2.6 70 13:57 29.11.2019
3330 Clear 8 1024 33 10000 2.6 70 13:38 29.11.2019
3331 Clear 8 1024 33 10000 2.6 70 13:19 29.11.2019
3332 Clear 8 1024 33 10000 3.1 70 12:43 29.11.2019
3333 Clear 9 1024 33 10000 3.1 70 12:24 29.11.2019
3334 Clear 10 1024 24 10000 1.5 0 11:56 29.11.2019
3335 Clear 10 1024 24 10000 1.5 0 11:56 29.11.2019
3336 Clear 10 1024 24 10000 1.5 0 11:38 29.11.2019
3337 Clear 10 1024 24 10000 1.5 0 11:19 29.11.2019
3338 Clear 8 1025 26 10000 1.5 0 10:57 29.11.2019
3339 Clear 8 1025 26 10000 1.5 0 10:39 29.11.2019
3340 Clear 9 1025 26 10000 1.5 0 10:20 29.11.2019
3341 Clear 9 1026 26 10000 1.5 0 09:57 29.11.2019
3342 Clear 9 1026 26 10000 1.5 0 09:38 29.11.2019
3343 Clear 8 1026 26 10000 1.5 0 09:20 29.11.2019
3344 Clear 8 1026 36 10000 2.6 0 08:55 29.11.2019
3345 Clear 7 1026 36 10000 2.6 0 08:36 29.11.2019
3346 Clear 6 1026 36 10000 2.6 0 08:18 29.11.2019
3347 Clear 7 1027 30 10000 4.1 220 07:41 29.11.2019
3348 Clear 5 1027 30 10000 4.1 220 07:23 29.11.2019
3349 Clear 5 1027 38 10000 4.1 220 06:47 29.11.2019
3350 Clear 3 1027 38 10000 4.1 220 06:28 29.11.2019
3351 Clear 2 1027 51 9000 2.1 360 05:32 29.11.2019
3352 Clear -1 1026 63 10000 1.5 320 04:56 29.11.2019
3353 Clear 0 1025 24 10000 2.1 340 03:37 29.11.2019
3354 Clear -1 1025 24 10000 2.1 340 03:18 29.11.2019
3355 Clear -1 1025 24 10000 2.1 340 03:18 29.11.2019
3356 Clear -1 1025 31 10000 3.1 330 02:22 29.11.2019
3357 Clear -1 1024 29 10000 3.1 330 01:27 29.11.2019
3358 Clear -1 1024 29 9000 2.1 340 00:51 29.11.2019
3359 Clear -1 1024 29 9000 2.1 340 00:23 29.11.2019
3360 Smoke 0 1024 29 5000 2.1 310 23:59 28.11.2019
3361 Smoke 0 1024 29 5000 2.1 310 23:39 28.11.2019
3362 Smoke 0 1024 36 5000 2.1 310 23:20 28.11.2019
3363 Smoke 0 1024 36 5000 2.1 310 23:20 28.11.2019
3364 Smoke 0 1024 36 5000 2.1 310 23:20 28.11.2019
3365 Smoke 1 1025 36 3500 1 0 22:56 28.11.2019
3366 Smoke 1 1025 36 3500 1 0 22:36 28.11.2019
3367 Smoke 1 1025 36 3500 1 0 22:18 28.11.2019
3368 Smoke 0 1025 36 2500 1.66 288 21:42 28.11.2019
3369 Smoke 1 1025 36 2500 1.66 288 21:21 28.11.2019
3370 Smoke 1 1025 74 2500 1.66 288 20:59 28.11.2019
3371 Smoke 1 1025 74 2500 1.66 288 20:40 28.11.2019
3372 Smoke 1 1025 74 2500 2.04 286 20:21 28.11.2019
3373 Smoke 1 1025 74 3500 1 0 19:57 28.11.2019
3374 Smoke 1 1025 74 3500 1 0 19:38 28.11.2019
3375 Smoke 1 1025 74 3500 1 0 19:19 28.11.2019
3376 Smoke 1 1025 74 3500 1 0 19:19 28.11.2019
3377 Smoke 1 1025 69 5000 1.98 287 18:57 28.11.2019
3378 Smoke 1 1025 69 5000 1.98 287 18:39 28.11.2019
3379 Smoke 2 1025 69 5000 1.98 287 18:18 28.11.2019
3380 Smoke 2 1025 64 5000 1.98 287 17:43 28.11.2019
3381 Smoke 2 1025 64 5000 1.98 287 17:43 28.11.2019
3382 Smoke 3 1025 64 5000 2.34 292 17:25 28.11.2019
3383 Clear 4 1025 55 9000 2.1 0 16:59 28.11.2019
3384 Clear 4 1025 55 9000 2.1 0 16:40 28.11.2019
3385 Clear 4 1025 55 9000 2.1 0 16:19 28.11.2019
3386 Clear 5 1024 45 10000 2.6 350 15:57 28.11.2019
3387 Clear 5 1024 45 10000 2.6 350 15:39 28.11.2019
3388 Clear 5 1024 45 10000 2.6 350 15:19 28.11.2019
3389 Clear 8 1024 45 10000 2.6 360 14:57 28.11.2019
3390 Clear 8 1024 45 10000 2.6 360 14:39 28.11.2019
3391 Clouds 8 1024 45 10000 2.6 360 14:19 28.11.2019
3392 Clouds 9 1024 33 10000 3.1 60 13:42 28.11.2019
3393 Clouds 9 1024 33 10000 3.1 60 13:23 28.11.2019
3394 Clouds 10 1024 24 10000 2.1 0 12:56 28.11.2019
3395 Clouds 10 1024 24 10000 2.1 0 12:37 28.11.2019
3396 Clouds 10 1024 24 10000 2.1 0 12:19 28.11.2019
3397 -273 0 0 0 0 0 11:54 28.11.2019
3398 Clouds 11 1024 23 10000 2.1 0 11:36 28.11.2019
3399 Clouds 11 1024 23 10000 2.1 0 11:36 28.11.2019
3400 Clouds 11 1024 23 10000 2.1 0 11:18 28.11.2019
3401 Clouds 10 1025 24 10000 2.6 0 10:42 28.11.2019
3402 Clouds 10 1025 24 10000 2.6 0 10:21 28.11.2019
3403 Clouds 10 1025 29 10000 2.1 0 09:55 28.11.2019
3404 Clouds 10 1025 29 10000 2.1 0 09:37 28.11.2019
3405 Clouds 10 1025 29 10000 2.1 0 09:18 28.11.2019
3406 Clouds 9 1026 26 10000 2.6 240 08:40 28.11.2019
3407 Clouds 9 1026 26 10000 2.6 240 08:21 28.11.2019
3408 Clouds 8 1026 39 10000 3.6 270 07:43 28.11.2019
3409 -273 0 0 0 0 0 07:25 28.11.2019
3410 Haze 6 1026 48 7000 1.5 330 06:58 28.11.2019
3411 Haze 6 1026 48 7000 1.5 330 06:37 28.11.2019
3412 Haze 3 1025 60 7000 2.1 330 05:53 28.11.2019
3413 Haze 3 1025 60 7000 2.1 330 05:33 28.11.2019
3414 Clear 0 1023 69 10000 2.1 330 03:49 28.11.2019
3415 Clear 1 1022 69 10000 3.1 330 02:30 28.11.2019
3416 Clear 1 1022 74 10000 2.1 320 01:21 28.11.2019
3417 Clear 1 1022 74 10000 3.1 340 00:37 28.11.2019
3418 Clear 1 1022 74 10000 3.1 340 00:18 28.11.2019
3419 Clear 1 1022 69 9000 2.6 340 23:38 27.11.2019
3420 Clear 1 1022 69 9000 2.6 340 23:20 27.11.2019
3421 Clear 2 1022 74 8000 3.6 340 22:55 27.11.2019
3422 Clear 2 1022 74 8000 3.6 340 22:36 27.11.2019
3423 Clear 2 1022 74 8000 3.6 340 22:18 27.11.2019
3424 Clear 2 1022 69 7000 3.1 340 21:55 27.11.2019
3425 Clear 2 1022 69 7000 3.1 340 21:36 27.11.2019
3426 Clear 2 1022 69 7000 3.1 340 21:18 27.11.2019
3427 Clear 2 1022 69 7000 3.1 340 21:18 27.11.2019
3428 Clear 2 1022 69 6000 3.1 340 20:55 27.11.2019
3429 Clear 2 1022 69 6000 3.1 340 20:36 27.11.2019
3430 Clouds 2 1020 44 10000 1.5 230 20:18 27.11.2019
3431 Mist 3 1022 44 4000 1.5 0 19:54 27.11.2019
3432 Mist 3 1022 44 4000 1.5 0 19:54 27.11.2019
3433 Mist 3 1022 44 4000 1.5 0 19:36 27.11.2019
3434 Mist 3 1022 44 4000 1.5 0 19:18 27.11.2019
3435 Mist 4 1022 80 4000 1.5 0 18:38 27.11.2019
3436 Mist 4 1022 80 4000 1.5 0 18:38 27.11.2019
3437 Mist 4 1022 80 4000 1.5 0 18:19 27.11.2019
3438 Mist 5 1022 44 4000 1 0 17:59 27.11.2019
3439 Mist 5 1022 44 4000 1 0 17:40 27.11.2019
3440 Mist 5 1022 51 4000 1 0 17:22 27.11.2019
3441 Clear 7 1021 70 9000 2.6 190 16:58 27.11.2019
3442 Clear 7 1021 70 9000 2.6 190 16:39 27.11.2019
3443 Clear 7 1021 70 9000 2.6 190 16:21 27.11.2019
3444 Clear 6 1020 51 9000 2.1 320 15:57 27.11.2019
3445 Clear 6 1020 51 9000 2.1 320 15:39 27.11.2019
3446 Clear 7 1020 51 9000 2.1 320 15:21 27.11.2019
3447 -273 0 0 0 0 0 14:58 27.11.2019
3448 Clouds 7 1020 51 9000 1 360 14:39 27.11.2019
3449 Clouds 7 1020 51 9000 1 360 14:39 27.11.2019
3450 Clouds 7 1020 58 9000 1 360 14:21 27.11.2019
3451 Clouds 9 1020 58 9000 2.6 360 13:58 27.11.2019
3452 Clouds 9 1020 58 9000 2.6 360 13:39 27.11.2019
3453 Clouds 9 1020 58 9000 2.6 360 13:19 27.11.2019
3454 Clouds 10 1020 61 9000 4.6 360 12:56 27.11.2019
3455 Clouds 10 1020 61 9000 4.6 360 12:38 27.11.2019
3456 Clouds 10 1020 61 9000 4.6 360 12:19 27.11.2019
3457 Rain 10 1020 65 9000 5.7 360 11:38 27.11.2019
3458 Rain 10 1020 65 9000 5.7 360 11:19 27.11.2019
3459 Clouds 10 1021 57 9000 2.6 20 10:58 27.11.2019
3460 Clouds 10 1021 57 9000 2.6 20 10:40 27.11.2019
3461 Clouds 10 1021 57 9000 2.6 20 10:22 27.11.2019
3462 Clouds 10 1021 43 9000 3.1 0 09:44 27.11.2019
3463 Clouds 10 1021 43 9000 3.1 0 09:26 27.11.2019
3464 Clouds 9 1022 53 7000 3.1 210 08:57 27.11.2019
3465 Clouds 9 1022 52 7000 3.1 210 08:38 27.11.2019
3466 Clouds 9 1022 50 7000 3.1 210 08:19 27.11.2019
3467 Haze 8 1022 57 6000 2.6 180 07:45 27.11.2019
3468 Haze 7 1023 65 3500 2.1 0 07:27 27.11.2019
3469 Mist 7 1023 70 2500 1 350 06:47 27.11.2019
3470 Mist 7 1023 70 2500 1 350 06:29 27.11.2019
3471 Fog 5 1022 80 1200 1 320 05:27 27.11.2019
3472 Fog 4 1022 86 1200 1.16 264 04:59 27.11.2019
3473 Fog 4 1022 86 1200 1.16 264 04:39 27.11.2019
3474 Mist 3 1021 93 2500 1 290 03:51 27.11.2019
3475 Mist 3 1021 93 2500 1 290 03:22 27.11.2019
3476 Mist 3 1021 93 1600 1.16 264 02:54 27.11.2019
3477 Mist 3 1021 93 2000 0.5 0 01:35 27.11.2019
3478 Mist 3 1022 93 2000 1 240 00:44 27.11.2019
3479 Mist 3 1022 93 2000 1 240 00:25 27.11.2019
3480 Mist 4 1022 93 4000 1 270 23:47 26.11.2019
3481 Mist 4 1022 93 4000 1 270 23:26 26.11.2019
3482 Mist 4 1022 86 4000 1.57 288 22:57 26.11.2019
3483 Mist 4 1022 86 4000 1.57 288 22:38 26.11.2019
3484 Mist 4 1022 86 4000 1.57 288 22:19 26.11.2019
3485 Mist 4 1022 93 4000 0.5 0 21:57 26.11.2019
3486 Mist 3 1022 93 4000 0.5 0 21:37 26.11.2019
3487 Mist 4 1022 93 4000 0.5 0 21:19 26.11.2019
3488 Mist 4 1022 93 4000 0.5 0 21:19 26.11.2019
3489 Mist 4 1023 93 4000 1 0 20:54 26.11.2019
3490 Mist 4 1023 93 4000 1 0 20:36 26.11.2019
3491 Mist 4 1023 93 4000 1 0 20:18 26.11.2019
3492 Mist 5 1023 86 4000 1 0 19:54 26.11.2019
3493 Mist 5 1023 86 4000 1 0 19:54 26.11.2019
3494 Mist 5 1023 86 4000 1 0 19:36 26.11.2019
3495 Mist 5 1023 86 4000 1 0 19:18 26.11.2019
3496 Mist 5 1023 86 4000 2.1 90 18:54 26.11.2019
3497 Mist 5 1023 86 4000 2.1 90 18:36 26.11.2019
3498 Mist 5 1023 86 4000 2.1 90 18:18 26.11.2019
3499 Mist 6 1023 80 5000 1.5 0 17:42 26.11.2019
3500 Mist 6 1023 80 5000 1.5 0 17:23 26.11.2019
3501 Mist 6 1021 87 9000 2.61 297 16:58 26.11.2019
3502 Clouds 6 1022 75 7000 1.5 0 16:38 26.11.2019
3503 Clouds 6 1022 75 7000 1.5 0 16:20 26.11.2019
3504 Clouds 8 1022 70 8000 2.1 350 16:00 26.11.2019
3505 Clouds 8 1022 70 8000 2.1 350 15:39 26.11.2019
3506 Clouds 8 1022 70 8000 2.1 350 15:21 26.11.2019
3507 Rain 8 1022 70 7000 2.1 350 14:59 26.11.2019
3508 Rain 8 1022 70 7000 2.1 350 14:41 26.11.2019
3509 Rain 8 1022 70 7000 2.1 350 14:23 26.11.2019
3510 Clouds 9 1022 65 7000 4.1 10 13:43 26.11.2019
3511 Clouds 9 1022 65 7000 4.1 10 13:24 26.11.2019
3512 Clouds 10 1022 57 8000 2.6 10 12:56 26.11.2019
3513 Clouds 10 1022 57 8000 2.6 10 12:36 26.11.2019
3514 Clouds 10 1022 57 8000 2.6 10 12:18 26.11.2019
3515 Clouds 11 1022 53 8000 3.1 360 11:55 26.11.2019
3516 Clouds 11 1022 53 8000 3.1 360 11:36 26.11.2019
3517 Clouds 11 1022 53 8000 3.1 360 11:18 26.11.2019
3518 Clouds 11 1023 53 8000 3.6 10 10:54 26.11.2019
3519 Clouds 11 1023 53 8000 3.6 10 10:36 26.11.2019
3520 Clouds 11 1023 53 8000 3.6 10 10:18 26.11.2019
3521 Clouds 10 1024 46 9000 0.59 77 09:42 26.11.2019
3522 Clouds 10 1024 46 9000 0.59 77 09:23 26.11.2019
3523 Clouds 10 1024 46 9000 0.59 77 09:23 26.11.2019
3524 Clouds 10 1025 52 9000 1.5 300 08:47 26.11.2019
3525 Clouds 10 1025 51 9000 1.5 300 08:27 26.11.2019
3526 Clouds 8 1025 50 9000 1.5 350 07:57 26.11.2019
3527 Clouds 8 1025 50 9000 1.5 350 07:38 26.11.2019
3528 Clouds 8 1025 50 9000 1.5 350 07:19 26.11.2019
3529 Clouds 7 1025 60 6000 1.5 330 06:46 26.11.2019
3530 Clouds 5 1025 65 8000 2.6 320 05:58 26.11.2019
3531 Clouds 4 1025 65 8000 2.6 320 05:19 26.11.2019
3532 Clouds 4 1024 69 8000 2.1 330 03:21 26.11.2019
3533 Clouds 4 1024 69 8000 2.1 330 03:21 26.11.2019
3534 Clouds 4 1023 74 6000 2.1 340 01:37 26.11.2019
3535 Clouds 4 1023 74 6000 2.1 340 01:18 26.11.2019
3536 Clouds 4 1023 53 6000 1.5 340 00:40 26.11.2019
3537 Mist 4 1024 86 4000 0.5 290 23:59 25.11.2019
3538 Mist 4 1024 86 4000 0.5 290 23:59 25.11.2019
3539 Mist 4 1024 86 4000 0.5 290 23:38 25.11.2019
3540 Mist 5 1024 86 4000 0.5 290 23:19 25.11.2019
3541 Mist 5 1024 75 4000 1 310 22:39 25.11.2019
3542 Mist 5 1024 75 4000 1 310 22:19 25.11.2019
3543 Mist 4 1024 86 4000 1 320 21:59 25.11.2019
3544 Mist 4 1024 86 4000 1 320 21:59 25.11.2019
3545 Mist 4 1024 86 4000 1 320 21:41 25.11.2019
3546 Mist 4 1024 86 4000 1 320 21:22 25.11.2019
3547 Mist 4 1024 86 4000 1 310 20:58 25.11.2019
3548 Mist 4 1024 86 4000 1 310 20:40 25.11.2019
3549 Mist 5 1024 86 4000 1 310 20:20 25.11.2019
3550 Mist 5 1024 80 5000 1.5 150 19:57 25.11.2019
3551 Mist 5 1024 80 5000 1.5 150 19:39 25.11.2019
3552 Mist 5 1024 80 5000 1.5 150 19:20 25.11.2019
3553 Mist 5 1024 75 5000 1.5 90 18:58 25.11.2019
3554 Mist 5 1024 75 5000 1.5 90 18:58 25.11.2019
3555 Mist 5 1024 75 5000 1.5 90 18:40 25.11.2019
3556 Mist 5 1024 75 5000 1.5 90 18:22 25.11.2019
3557 Mist 6 1024 70 5000 1 320 17:58 25.11.2019
3558 Mist 6 1024 70 5000 1 320 17:40 25.11.2019
3559 Mist 6 1024 70 5000 1 320 17:40 25.11.2019
3560 Mist 6 1024 70 5000 1 320 17:21 25.11.2019
3561 Mist 6 1023 70 5000 2.1 100 16:59 25.11.2019
3562 Mist 6 1023 70 5000 2.1 100 16:40 25.11.2019
3563 Mist 6 1023 70 5000 2.1 100 16:22 25.11.2019
3564 Haze 7 1021 81 6000 1.5 260 15:56 25.11.2019
3565 Mist 8 1023 70 8000 1.5 130 15:37 25.11.2019
3566 Mist 8 1023 70 8000 1.5 130 15:19 25.11.2019
3567 Clouds 8 1023 61 10000 1.5 170 14:43 25.11.2019
3568 Clouds 8 1023 61 10000 1.5 170 14:25 25.11.2019
3569 Clouds 9 1022 61 10000 3.1 80 13:57 25.11.2019
3570 Clouds 9 1022 61 10000 3.1 80 13:57 25.11.2019
3571 Clouds 9 1022 61 10000 3.1 80 13:57 25.11.2019
3572 Clouds 9 1022 61 10000 3.1 80 13:37 25.11.2019
3573 Clouds 9 1022 61 10000 3.1 80 13:18 25.11.2019
3574 Clouds 10 1022 49 10000 5.1 360 12:57 25.11.2019
3575 Clouds 10 1022 49 10000 5.1 360 12:38 25.11.2019
3576 Clouds 10 1022 49 10000 5.1 360 12:19 25.11.2019
3577 Clouds 10 1022 49 10000 5.1 360 12:19 25.11.2019
3578 Clouds 10 1023 43 10000 1.5 0 11:40 25.11.2019
3579 Clouds 10 1023 43 10000 1.5 0 11:40 25.11.2019
3580 Clouds 10 1023 43 10000 1.5 0 11:40 25.11.2019
3581 Clouds 10 1023 43 10000 1.5 0 11:21 25.11.2019
3582 Clouds 10 1023 37 8000 1.5 250 10:58 25.11.2019
3583 Clouds 10 1023 37 8000 1.5 250 10:39 25.11.2019
3584 Clouds 10 1023 37 8000 1.5 250 10:19 25.11.2019
3585 Clouds 10 1024 39 8000 3.6 260 09:42 25.11.2019
3586 Clouds 10 1024 39 8000 3.6 260 09:24 25.11.2019
3587 Clouds 9 1024 43 10000 3.1 290 08:42 25.11.2019
3588 Clouds 9 1024 43 10000 3.1 290 08:24 25.11.2019
3589 Clouds 9 1025 49 10000 1 0 07:56 25.11.2019
3590 Clouds 9 1025 49 10000 1 0 07:37 25.11.2019
3591 Clouds 7 1025 49 10000 1 0 07:18 25.11.2019
3592 Clouds 5 1025 56 10000 2.1 330 06:24 25.11.2019
3593 Clouds 5 1025 56 10000 2.1 330 06:24 25.11.2019
3594 Clouds 5 1025 56 10000 2.1 330 06:24 25.11.2019
3595 Clouds 5 1025 56 10000 2.1 330 06:24 25.11.2019
3596 Clouds 5 1025 60 10000 1.5 340 05:57 25.11.2019
3597 Clouds 5 1025 60 10000 1.5 340 05:32 25.11.2019
3598 Clouds 3 1024 47 10000 0.5 0 04:48 25.11.2019
3599 Clouds 3 1023 74 10000 2.1 300 02:36 25.11.2019
3600 Clouds 4 1023 74 10000 2.1 340 01:43 25.11.2019
3601 Clouds 4 1023 74 10000 2.1 340 01:24 25.11.2019
3602 Clouds 3 1023 46 10000 1.5 310 00:59 25.11.2019
3603 Clouds 3 1023 46 10000 1.5 310 00:20 25.11.2019
3604 Clouds 3 1023 46 7000 0.5 150 23:45 24.11.2019
3605 Clouds 3 1023 43 7000 0.5 150 23:21 24.11.2019
3606 Clouds 3 1023 43 6000 0.5 360 22:58 24.11.2019
3607 Clouds 3 1023 43 6000 0.5 360 22:39 24.11.2019
3608 Clouds 3 1023 43 6000 0.5 360 22:19 24.11.2019
3609 Mist 3 1023 43 4000 1.5 350 21:57 24.11.2019
3610 Mist 3 1023 43 4000 1.5 350 21:38 24.11.2019
3611 Mist 3 1023 43 4000 1.5 350 21:20 24.11.2019
3612 Mist 4 1023 43 3000 1.5 300 20:57 24.11.2019
3613 Mist 4 1023 43 3000 1.5 300 20:37 24.11.2019
3614 Clear 4 1022 86 10000 1.71 290 20:18 24.11.2019
3615 Mist 4 1023 80 4000 0.5 310 19:56 24.11.2019
3616 Mist 4 1023 80 4000 0.5 310 19:56 24.11.2019
3617 Mist 4 1023 80 4000 0.5 310 19:38 24.11.2019
3618 Mist 5 1023 80 4000 0.5 310 19:19 24.11.2019
3619 Mist 5 1023 80 4000 0.5 310 18:56 24.11.2019
3620 Mist 5 1023 80 4000 0.5 310 18:36 24.11.2019
3621 Mist 5 1023 70 5000 2.6 240 18:18 24.11.2019
3622 Mist 5 1023 75 5000 0.5 0 17:55 24.11.2019
3623 Mist 5 1023 75 5000 0.5 0 17:37 24.11.2019
3624 Mist 7 1023 75 5000 0.5 0 17:18 24.11.2019
3625 Mist 7 1023 75 5000 0.5 0 17:18 24.11.2019
3626 Mist 8 1023 70 5000 1.5 130 16:54 24.11.2019
3627 Mist 8 1023 70 5000 1.5 130 16:36 24.11.2019
3628 Mist 8 1023 70 5000 1.5 130 16:18 24.11.2019
3629 Clear 8 1023 58 8000 1 110 15:42 24.11.2019
3630 Clear 8 1023 58 8000 1 110 15:24 24.11.2019
3631 Clear 8 1023 58 8000 1 110 15:24 24.11.2019
3632 Clear 9 1022 58 10000 1.5 110 14:56 24.11.2019
3633 Clear 9 1022 58 10000 1.5 110 14:38 24.11.2019
3634 Clouds 10 1022 67 10000 1.5 110 14:18 24.11.2019
3635 Clouds 11 1022 46 10000 1 0 13:39 24.11.2019
3636 Clouds 11 1022 46 10000 1 0 13:21 24.11.2019
3637 Clouds 12 1022 43 10000 1 0 12:58 24.11.2019
3638 Clouds 12 1022 43 10000 1 0 12:39 24.11.2019
3639 Clouds 12 1022 43 10000 1 0 12:18 24.11.2019
3640 Clouds 12 1020 43 10000 1.19 245 11:55 24.11.2019
3641 Clouds 13 1023 40 10000 1 0 11:36 24.11.2019
3642 Clouds 12 1023 40 10000 1 0 11:18 24.11.2019
3643 Clouds 12 1023 43 10000 1.5 0 10:46 24.11.2019
3644 Clouds 12 1023 43 10000 1.5 0 10:28 24.11.2019
3645 Clouds 11 1024 46 10000 0.5 0 09:55 24.11.2019
3646 Clouds 11 1024 46 10000 0.5 0 09:36 24.11.2019
3647 Clouds 11 1024 46 10000 0.5 0 09:18 24.11.2019
3648 Clouds 11 1025 61 10000 1 0 08:43 24.11.2019
3649 Clouds 11 1025 59 10000 1 0 08:21 24.11.2019
3650 Clouds 9 1026 59 10000 1 0 07:55 24.11.2019
3651 Clouds 9 1026 59 10000 1 0 07:36 24.11.2019
3652 Clouds 8 1026 59 10000 1 0 07:18 24.11.2019
3653 Clouds 7 1026 59 10000 2.6 330 06:19 24.11.2019
3654 Clouds 4 1025 74 10000 2.6 340 04:47 24.11.2019
3655 Clouds 4 1025 74 10000 3.1 330 03:25 24.11.2019
3656 Clouds 4 1024 64 10000 1.5 330 01:58 24.11.2019
3657 Clouds 4 1024 64 10000 1.5 330 01:39 24.11.2019
3658 Clouds 4 1024 64 10000 1.5 330 01:20 24.11.2019
3659 Clouds 4 1024 86 10000 1 280 00:46 24.11.2019
3660 Clouds 4 1024 86 10000 1 280 00:23 24.11.2019
3661 Clouds 5 1025 64 10000 1.5 320 23:44 23.11.2019
3662 Clouds 5 1025 59 10000 1.5 320 23:22 23.11.2019
3663 Clouds 5 1025 59 10000 2.6 330 22:58 23.11.2019
3664 Clouds 5 1025 59 10000 2.6 330 22:39 23.11.2019
3665 Clouds 5 1025 59 10000 2.6 330 22:21 23.11.2019
3666 Clouds 4 1025 59 7000 2.6 330 21:58 23.11.2019
3667 Clouds 4 1025 59 7000 2.6 330 21:40 23.11.2019
3668 Clouds 4 1025 59 7000 2.6 330 21:21 23.11.2019
3669 Clouds 4 1026 80 6000 2.1 330 20:55 23.11.2019
3670 Clouds 4 1026 80 6000 2.1 330 20:36 23.11.2019
3671 Clouds 4 1026 80 6000 2.1 330 20:18 23.11.2019
3672 Mist 4 1026 86 5000 2.6 320 19:54 23.11.2019
3673 Mist 4 1026 86 5000 2.6 320 19:36 23.11.2019
3674 Mist 4 1026 86 5000 2.6 320 19:18 23.11.2019
3675 Mist 5 1026 75 4000 1.5 340 18:39 23.11.2019
3676 Mist 5 1026 75 4000 1.5 340 18:20 23.11.2019
3677 Clouds 5 1026 80 3000 1.78 302 17:54 23.11.2019
3678 Clouds 5 1026 80 3000 1.78 302 17:36 23.11.2019
3679 Clear 6 1026 80 3000 2.03 307 17:18 23.11.2019
3680 Clear 7 1025 75 6000 2.03 307 16:54 23.11.2019
3681 Clear 7 1025 75 6000 2.03 307 16:36 23.11.2019
3682 Clear 7 1025 75 6000 2.03 307 16:18 23.11.2019
3683 Mist 8 1025 65 5000 1 110 15:39 23.11.2019
3684 Mist 8 1025 65 5000 1 110 15:19 23.11.2019
3685 Mist 8 1025 65 5000 1 110 15:19 23.11.2019
3686 Mist 8 1025 65 5000 1 110 15:19 23.11.2019
3687 Clear 9 1025 65 10000 1.5 160 14:58 23.11.2019
3688 Clear 9 1025 65 10000 1.5 160 14:40 23.11.2019
3689 Clear 9 1025 65 10000 1.5 160 14:21 23.11.2019
3690 Clear 10 1024 57 10000 2.1 150 13:56 23.11.2019
3691 Clear 10 1024 57 10000 2.1 150 13:38 23.11.2019
3692 Clear 11 1024 57 10000 2.1 150 13:18 23.11.2019
3693 Clouds 11 1025 53 10000 2.6 190 12:42 23.11.2019
3694 Clouds 11 1025 53 10000 2.6 190 12:24 23.11.2019
3695 Clouds 11 1025 53 10000 3.1 190 11:45 23.11.2019
3696 Clouds 11 1025 53 10000 3.1 190 11:23 23.11.2019
3697 Clouds 11 1025 53 10000 2.6 190 10:46 23.11.2019
3698 Clouds 11 1025 53 10000 2.6 190 10:23 23.11.2019
3699 Clouds 9 1026 57 10000 4.1 190 09:59 23.11.2019
3700 Clouds 9 1026 57 10000 4.1 190 09:40 23.11.2019
3701 Clouds 9 1026 57 10000 4.1 190 09:18 23.11.2019
3702 Clouds 9 1027 61 10000 4.1 220 08:41 23.11.2019
3703 Clouds 9 1027 61 10000 4.1 220 08:41 23.11.2019
3704 Clouds 9 1027 61 10000 4.1 220 08:19 23.11.2019
3705 Clouds 9 1027 61 10000 5.1 240 07:42 23.11.2019
3706 Clouds 6 1027 65 10000 3.1 200 06:53 23.11.2019
3707 Clouds 6 1027 65 10000 3.1 200 06:27 23.11.2019
3708 Clouds 5 1027 86 6000 2.1 330 05:57 23.11.2019
3709 Clouds 5 1027 86 6000 2.1 330 05:32 23.11.2019
3710 Mist 4 1026 100 4000 0.69 301 04:58 23.11.2019
3711 Clouds 4 1026 93 8000 1.5 280 04:34 23.11.2019
3712 Clouds 5 1026 93 7000 0.69 301 03:27 23.11.2019
3713 Mist 5 1025 93 5000 1 0 02:38 23.11.2019
3714 Rain 5 1025 93 6000 0.95 312 01:40 23.11.2019
3715 Mist 5 1025 93 5000 1.09 293 00:48 23.11.2019
3716 Mist 5 1025 93 5000 1.09 293 00:19 23.11.2019
3717 Mist 5 1025 93 3500 1.5 180 23:55 22.11.2019
3718 Mist 5 1025 93 3500 1.5 180 23:36 22.11.2019
3719 Mist 5 1025 93 3500 1.5 180 23:18 22.11.2019
3720 Rain 4 1024 100 10000 1.46 281 22:55 22.11.2019
3721 Mist 5 1026 93 5000 1.46 281 22:36 22.11.2019
3722 Mist 5 1026 93 5000 1.46 281 22:18 22.11.2019
3723 Mist 5 1026 93 5000 1.46 281 22:18 22.11.2019
3724 Mist 5 1026 93 5000 1.46 281 22:18 22.11.2019
3725 Clouds 5 1026 93 6000 1 0 21:40 22.11.2019
3726 Clouds 5 1026 93 6000 1 0 21:21 22.11.2019
3727 Clouds 4 1025 100 10000 1.46 281 20:55 22.11.2019
3728 Clouds 5 1026 93 8000 1.5 0 20:37 22.11.2019
3729 Clouds 5 1026 93 8000 1.5 0 20:19 22.11.2019
3730 Clouds 5 1026 93 8000 1.18 347 19:39 22.11.2019
3731 Clouds 5 1026 93 8000 1.18 347 19:20 22.11.2019
3732 Clouds 5 1026 93 8000 1.5 110 18:59 22.11.2019
3733 Clouds 5 1026 93 8000 1.5 110 18:37 22.11.2019
3734 Clouds 5 1026 93 8000 1.5 110 18:19 22.11.2019
3735 Clouds 5 1026 93 9000 1 110 17:42 22.11.2019
3736 Clouds 5 1026 93 9000 1 110 17:22 22.11.2019
3737 Clouds 5 1025 93 10000 1.5 80 16:48 22.11.2019
3738 Clouds 5 1025 93 10000 1.5 80 16:30 22.11.2019
3739 Clouds 5 1025 93 8000 1.5 110 15:58 22.11.2019
3740 Clouds 5 1025 93 8000 1.5 110 15:38 22.11.2019
3741 Clouds 5 1025 93 8000 1.5 110 15:20 22.11.2019
3742 Rain 5 1024 93 6000 1 70 14:54 22.11.2019
3743 Rain 5 1024 93 6000 1 70 14:36 22.11.2019
3744 Rain 5 1024 93 6000 1 70 14:18 22.11.2019
3745 Rain 5 1024 93 3600 1.5 120 13:38 22.11.2019
3746 Rain 5 1024 93 3600 1.5 120 13:19 22.11.2019
3747 Mist 6 1024 86 3000 1.5 120 12:58 22.11.2019
3748 Mist 6 1024 86 3000 1.5 120 12:40 22.11.2019
3749 Mist 6 1024 86 3000 1.5 120 12:19 22.11.2019
3750 Mist 6 1023 87 9000 1.27 22 11:56 22.11.2019
3751 Mist 6 1024 86 2000 1.5 110 11:36 22.11.2019
3752 Mist 6 1024 86 2000 1.5 110 11:18 22.11.2019
3753 Mist 5 1025 93 1500 1.5 120 10:42 22.11.2019
3754 Mist 5 1025 93 1500 1.5 120 10:23 22.11.2019
3755 Drizzle 5 1026 93 1500 1 120 09:59 22.11.2019
3756 Drizzle 5 1026 93 1500 1 120 09:40 22.11.2019
3757 Drizzle 5 1026 93 1500 1 120 09:21 22.11.2019
3758 Drizzle 5 1026 93 1500 1 120 08:57 22.11.2019
3759 Drizzle 5 1026 93 1500 1 120 08:57 22.11.2019
3760 Drizzle 5 1026 93 1500 1 120 08:38 22.11.2019
3761 Drizzle 5 1026 86 1200 1.42 34 08:20 22.11.2019
3762 Rain 4 1027 93 1200 1.5 120 07:41 22.11.2019
3763 Rain 4 1027 93 1200 1.5 120 07:20 22.11.2019
3764 Rain 4 1027 93 1200 1 190 06:47 22.11.2019
3765 Rain 4 1027 93 1500 1 210 06:27 22.11.2019
3766 Mist 3 1026 93 1500 1.5 160 05:33 22.11.2019
3767 Rain 3 1024 100 2500 1 210 03:26 22.11.2019
3768 Mist 3 1024 98 3000 1 130 02:39 22.11.2019
3769 Rain 3 1023 93 10000 1.75 20 02:20 22.11.2019
3770 Rain 3 1024 93 5000 2.1 160 01:43 22.11.2019
3771 Rain 3 1024 93 5000 2.1 160 01:18 22.11.2019
3772 Rain 4 1024 93 10000 3.6 350 00:40 22.11.2019
3773 Rain 4 1024 93 10000 3.6 350 00:19 22.11.2019
3774 Rain 4 1023 93 10000 4.1 340 23:43 21.11.2019
3775 Rain 4 1023 93 10000 4.1 340 23:24 21.11.2019
3776 Rain 4 1023 93 9000 2.39 5 22:56 21.11.2019
3777 Rain 4 1024 93 9000 1.5 100 22:37 21.11.2019
3778 Rain 4 1024 93 9000 1.5 100 22:19 21.11.2019
3779 Rain 4 1025 100 9000 1.5 310 21:54 21.11.2019
3780 Rain 4 1025 100 9000 1.5 310 21:36 21.11.2019
3781 Rain 4 1025 100 9000 1.5 310 21:18 21.11.2019
3782 Rain 4 1025 100 7000 2.39 5 20:55 21.11.2019
3783 Rain 4 1025 100 7000 2.39 5 20:36 21.11.2019
3784 Rain 4 1025 100 7000 2.39 5 20:36 21.11.2019
3785 Rain 4 1025 100 7000 2.65 40 20:18 21.11.2019
3786 Rain 4 1025 93 3500 1 180 19:42 21.11.2019
3787 Rain 4 1025 93 3500 1 180 19:23 21.11.2019
3788 Rain 4 1025 93 3500 1 180 19:23 21.11.2019
3789 Rain 4 1025 93 3500 1 180 19:23 21.11.2019
3790 Rain 4 1024 93 9000 2.65 40 18:59 21.11.2019
3791 Rain 4 1026 93 3000 1 140 18:40 21.11.2019
3792 Rain 4 1026 93 3000 1 140 18:21 21.11.2019
3793 Rain 4 1025 93 9000 2.65 40 17:58 21.11.2019
3794 Rain 4 1026 93 2800 1.5 150 17:39 21.11.2019
3795 Rain 4 1026 93 2800 1.5 150 17:21 21.11.2019
3796 Clouds 4 1025 93 10000 2.23 10 16:57 21.11.2019
3797 Rain 4 1026 93 2800 1 160 16:39 21.11.2019
3798 Rain 4 1026 93 2800 1 160 16:20 21.11.2019
3799 Rain 4 1025 93 4000 0.5 0 15:43 21.11.2019
3800 Rain 4 1025 93 4000 0.5 0 15:21 21.11.2019
3801 Rain 4 1025 93 9000 2.23 10 14:57 21.11.2019
3802 Rain 4 1025 93 9000 2.23 10 14:57 21.11.2019
3803 Rain 4 1025 93 6000 2.23 10 14:38 21.11.2019
3804 Rain 4 1025 93 6000 1.14 1 14:19 21.11.2019
3805 Rain 4 1025 93 7000 2.1 310 13:57 21.11.2019
3806 Rain 4 1025 93 7000 2.1 310 13:37 21.11.2019
3807 Rain 4 1025 93 7000 2.1 310 13:18 21.11.2019
3808 Rain 4 1025 93 7000 2.1 310 13:18 21.11.2019
3809 Clouds 3 1025 86 7000 1 340 12:40 21.11.2019
3810 Clouds 3 1025 86 7000 1 340 12:22 21.11.2019
3811 Rain 5 1025 93 6000 2.6 310 11:55 21.11.2019
3812 Rain 5 1025 93 6000 2.6 310 11:37 21.11.2019
3813 Rain 5 1025 93 6000 2.6 310 11:19 21.11.2019
3814 Rain 5 1025 86 5000 3.6 340 10:42 21.11.2019
3815 Rain 5 1025 86 5000 3.6 340 10:24 21.11.2019
3816 Rain 5 1025 93 5000 4.6 350 09:58 21.11.2019
3817 Rain 5 1025 93 5000 4.6 350 09:39 21.11.2019
3818 Rain 5 1025 93 5000 4.6 350 09:21 21.11.2019
3819 Rain 6 1024 93 5000 2.1 330 08:44 21.11.2019
3820 Rain 6 1026 86 5000 2.6 340 08:23 21.11.2019
3821 Rain 6 1025 93 4000 3.6 290 07:45 21.11.2019
3822 Rain 6 1026 86 6000 2.6 350 07:20 21.11.2019
3823 Rain 6 1025 87 6000 1.5 270 06:58 21.11.2019
3824 Rain 6 1026 86 8000 3.1 340 06:34 21.11.2019
3825 Rain 6 1024 93 4000 1.5 250 05:50 21.11.2019
3826 Rain 6 1025 86 6000 2.6 340 03:36 21.11.2019
3827 Rain 6 1024 86 8000 1.5 340 02:42 21.11.2019
3828 Rain 6 1024 86 8000 1.5 340 02:23 21.11.2019
3829 Rain 6 1024 86 7000 1 320 01:47 21.11.2019
3830 Rain 7 1024 86 7000 1 320 01:20 21.11.2019
3831 Rain 7 1024 86 7000 2.1 300 00:38 21.11.2019
3832 Rain 7 1024 86 7000 2.1 300 00:19 21.11.2019
3833 Rain 7 1024 81 10000 2.6 340 23:42 20.11.2019
3834 Rain 7 1024 81 10000 2.6 340 23:21 20.11.2019
3835 Clouds 7 1022 81 10000 2.1 290 22:58 20.11.2019
3836 Clouds 8 1024 75 10000 0.5 0 22:38 20.11.2019
3837 Clouds 8 1024 75 10000 0.5 0 22:19 20.11.2019
3838 Clouds 8 1024 75 10000 0.5 0 22:19 20.11.2019
3839 Rain 7 1022 75 10000 2.1 220 21:58 20.11.2019
3840 Rain 8 1024 75 10000 1.5 250 21:38 20.11.2019
3841 Rain 8 1024 75 10000 1.5 250 21:38 20.11.2019
3842 Rain 8 1024 75 10000 1.5 250 21:19 20.11.2019
3843 Rain 8 1024 75 10000 1.5 250 21:19 20.11.2019
3844 Rain 8 1024 75 10000 1 0 20:56 20.11.2019
3845 Rain 8 1024 75 10000 1 0 20:38 20.11.2019
3846 Rain 8 1024 75 10000 1 0 20:19 20.11.2019
3847 Clouds 9 1024 70 10000 1 0 19:55 20.11.2019
3848 Clouds 9 1024 70 10000 1 0 19:55 20.11.2019
3849 Clouds 9 1024 70 10000 1 0 19:36 20.11.2019
3850 Clouds 9 1024 70 10000 1 0 19:18 20.11.2019
3851 Rain 9 1024 75 10000 2.1 310 18:57 20.11.2019
3852 Rain 9 1024 75 10000 2.1 310 18:38 20.11.2019
3853 Rain 9 1024 75 10000 2.1 310 18:20 20.11.2019
3854 Rain 9 1024 75 10000 2.1 310 18:20 20.11.2019
3855 Rain 9 1024 61 10000 2.6 350 17:55 20.11.2019
3856 Rain 9 1024 61 10000 2.6 350 17:37 20.11.2019
3857 Rain 9 1024 61 10000 2.6 350 17:18 20.11.2019
3858 Rain 9 1024 61 10000 5.1 350 16:41 20.11.2019
3859 Rain 9 1024 61 10000 5.1 350 16:20 20.11.2019
3860 Clouds 10 1023 43 8000 2.1 0 15:58 20.11.2019
3861 Clouds 10 1023 43 8000 2.1 0 15:40 20.11.2019
3862 Clouds 10 1023 43 8000 2.1 0 15:20 20.11.2019
3863 Haze 11 1022 39 8000 1.5 0 14:57 20.11.2019
3864 Haze 11 1022 39 8000 1.5 0 14:57 20.11.2019
3865 Haze 11 1022 39 8000 1.5 0 14:38 20.11.2019
3866 Haze 11 1022 39 8000 1.5 0 14:19 20.11.2019
3867 Haze 11 1020 37 8000 2.1 80 13:56 20.11.2019
3868 Haze 11 1020 37 8000 2.1 80 13:37 20.11.2019
3869 Haze 11 1020 37 8000 2.1 80 13:18 20.11.2019
3870 Haze 11 1020 30 8000 2.6 360 12:42 20.11.2019
3871 Haze 11 1020 30 8000 2.6 360 12:23 20.11.2019
3872 Clouds 12 1020 26 9000 3.1 330 11:55 20.11.2019
3873 Clouds 12 1020 26 9000 3.1 330 11:37 20.11.2019
3874 Clouds 12 1020 26 9000 3.1 330 11:18 20.11.2019
3875 Haze 12 1020 32 9000 3.6 340 10:54 20.11.2019
3876 Haze 12 1020 32 9000 3.6 340 10:36 20.11.2019
3877 Haze 12 1020 32 9000 3.6 340 10:18 20.11.2019
3878 Haze 12 1021 26 8000 1 0 09:42 20.11.2019
3879 Haze 12 1021 26 8000 1 0 09:20 20.11.2019
3880 Haze 11 1023 30 8000 2.1 360 08:47 20.11.2019
3881 Haze 11 1023 30 8000 2.1 360 08:28 20.11.2019
3882 Haze 9 1023 37 8000 1 320 07:57 20.11.2019
3883 Haze 9 1023 37 8000 1 320 07:37 20.11.2019
3884 Haze 9 1023 37 8000 1 320 07:18 20.11.2019
3885 Haze 8 1023 34 6000 2.6 280 06:45 20.11.2019
3886 Haze 8 1023 34 6000 2.6 280 06:19 20.11.2019
3887 Haze 4 1021 34 5000 0.55 334 04:50 20.11.2019
3888 Haze 4 1021 34 5000 0.55 334 04:50 20.11.2019
3889 Mist 2 1022 74 3000 1 320 02:29 20.11.2019
3890 Mist 2 1022 74 3200 0.5 0 01:38 20.11.2019
3891 Mist 2 1022 80 3600 0.5 0 00:58 20.11.2019
3892 Mist 2 1022 80 3600 0.5 0 00:34 20.11.2019
3893 Mist 2 1022 74 3600 1 0 23:43 19.11.2019
3894 Mist 2 1022 74 3600 1 0 23:23 19.11.2019
3895 Mist 4 1022 64 5000 0.5 0 22:56 19.11.2019
3896 Mist 4 1022 64 5000 0.5 0 22:38 19.11.2019
3897 Mist 4 1022 64 5000 0.5 0 22:18 19.11.2019
3898 Mist 4 1022 65 5000 1.5 270 21:55 19.11.2019
3899 Mist 4 1022 65 5000 1.5 270 21:36 19.11.2019
3900 Mist 4 1022 65 5000 1.5 270 21:18 19.11.2019
3901 Mist 5 1022 60 5000 0.92 352 20:55 19.11.2019
3902 Mist 5 1022 60 5000 0.92 352 20:36 19.11.2019
3903 Mist 5 1022 60 5000 0.59 320 20:18 19.11.2019
3904 Mist 6 1022 60 5000 0.5 0 19:42 19.11.2019
3905 Mist 6 1022 60 5000 0.5 0 19:20 19.11.2019
3906 Clouds 8 1022 52 7000 1.5 120 18:58 19.11.2019
3907 Clouds 8 1022 52 7000 1.5 120 18:40 19.11.2019
3908 Clouds 8 1022 52 7000 1.5 120 18:20 19.11.2019
3909 Clouds 7 1022 52 7000 2.6 120 17:57 19.11.2019
3910 Clouds 7 1022 52 7000 2.6 120 17:39 19.11.2019
3911 Clouds 7 1022 52 7000 2.6 120 17:20 19.11.2019
3912 Clouds 8 1021 45 9000 1.5 220 16:59 19.11.2019
3913 Clouds 8 1021 45 9000 1.5 220 16:39 19.11.2019
3914 Clouds 8 1021 45 9000 1.5 220 16:19 19.11.2019
3915 Clouds 10 1021 37 8000 1.5 250 15:45 19.11.2019
3916 Clouds 10 1021 37 8000 1.5 250 15:26 19.11.2019
3917 Haze 11 1021 34 7000 1.5 10 14:57 19.11.2019
3918 Haze 11 1021 34 7000 1.5 10 14:39 19.11.2019
3919 Haze 11 1021 34 7000 1.5 10 14:20 19.11.2019
3920 Haze 13 1021 27 7000 2.1 90 13:42 19.11.2019
3921 Haze 13 1021 27 7000 2.1 90 13:20 19.11.2019
3922 Clouds 14 1021 20 7000 1.5 120 12:54 19.11.2019
3923 Clouds 14 1021 20 7000 1.5 120 12:36 19.11.2019
3924 Clouds 14 1021 20 7000 1.5 120 12:18 19.11.2019
3925 Clouds 15 1021 22 8000 1.5 0 11:54 19.11.2019
3926 Clouds 15 1021 22 8000 1.5 0 11:36 19.11.2019
3927 Clouds 15 1021 22 8000 1.5 0 11:18 19.11.2019
3928 Clouds 14 1021 19 8000 1 0 10:42 19.11.2019
3929 Clouds 14 1021 19 8000 1 0 10:20 19.11.2019
3930 Clouds 14 1021 19 8000 1 0 10:20 19.11.2019
3931 Clouds 13 1022 22 9000 1.5 0 09:43 19.11.2019
3932 Clouds 13 1022 22 9000 1.5 0 09:21 19.11.2019
3933 Clouds 12 1023 24 10000 1 0 08:57 19.11.2019
3934 Clouds 12 1023 24 10000 1 0 08:38 19.11.2019
3935 Clouds 12 1023 24 10000 1 0 08:20 19.11.2019
3936 Clouds 11 1024 29 9000 0.5 0 07:42 19.11.2019
3937 Clouds 11 1024 29 9000 0.5 0 07:23 19.11.2019
3938 Clouds 10 1024 30 8000 1.5 0 06:58 19.11.2019
3939 Clouds 10 1024 30 8000 1.5 0 06:37 19.11.2019
3940 Clouds 6 1024 42 10000 1.5 0 05:52 19.11.2019
3941 Clouds 4 1024 42 10000 1.5 0 05:18 19.11.2019
3942 Clouds 2 1023 55 10000 2.6 330 03:39 19.11.2019
3943 Clouds 2 1023 55 10000 2.6 330 03:19 19.11.2019
3944 Clouds 3 1023 48 10000 1.5 0 02:39 19.11.2019
3945 Clouds 1 1023 69 10000 1 0 01:47 19.11.2019
3946 Clouds 3 1023 55 10000 0.5 0 00:41 19.11.2019
3947 Clouds 3 1023 55 10000 0.5 0 00:19 19.11.2019
3948 Clouds 3 1023 51 10000 1.5 310 23:38 18.11.2019
3949 Clouds 3 1023 51 10000 1.5 310 23:19 18.11.2019
3950 Clouds 4 1023 44 10000 2.1 330 22:46 18.11.2019
3951 Clouds 4 1023 44 10000 2.1 330 22:24 18.11.2019
3952 Clouds 5 1023 36 10000 2.6 350 21:57 18.11.2019
3953 Clouds 5 1023 36 10000 2.6 350 21:39 18.11.2019
3954 Clouds 5 1023 36 10000 2.6 350 21:20 18.11.2019
3955 Clouds 6 1023 36 10000 1 330 20:57 18.11.2019
3956 Clouds 6 1023 36 10000 1 330 20:57 18.11.2019
3957 Clouds 6 1023 36 10000 1 330 20:39 18.11.2019
3958 Clouds 6 1023 36 10000 1 330 20:18 18.11.2019
3959 Clouds 7 1024 29 10000 2.6 360 19:56 18.11.2019
3960 Clouds 7 1024 29 10000 2.6 360 19:37 18.11.2019
3961 Clouds 7 1024 29 10000 2.6 360 19:19 18.11.2019
3962 Clouds 7 1024 29 10000 2.6 360 19:19 18.11.2019
3963 Clouds 8 1024 29 10000 2.1 360 18:55 18.11.2019
3964 Clouds 8 1024 29 10000 2.1 360 18:37 18.11.2019
3965 Clouds 8 1024 29 10000 2.1 360 18:19 18.11.2019
3966 Clouds 9 1024 29 10000 2.6 340 17:55 18.11.2019
3967 Clouds 9 1024 29 10000 2.6 340 17:55 18.11.2019
3968 Clouds 9 1024 29 10000 2.6 340 17:36 18.11.2019
3969 Clouds 10 1024 29 10000 2.6 340 17:18 18.11.2019
3970 Clouds 9 1024 42 9000 1 0 16:42 18.11.2019
3971 Clouds 9 1024 42 9000 1 0 16:23 18.11.2019
3972 Clouds 11 1023 34 9000 0.5 0 15:56 18.11.2019
3973 Clouds 11 1023 34 9000 0.5 0 15:38 18.11.2019
3974 Clouds 11 1023 34 9000 0.5 0 15:19 18.11.2019
3975 Clouds 12 1023 27 10000 1 300 14:43 18.11.2019
3976 Clouds 12 1023 27 10000 1 300 14:24 18.11.2019
3977 Clouds 14 1023 19 10000 1.5 0 13:57 18.11.2019
3978 Clouds 14 1023 19 10000 1.5 0 13:39 18.11.2019
3979 Clouds 14 1023 19 10000 1.5 0 13:21 18.11.2019
3980 Clouds 15 1023 19 10000 1.5 0 12:39 18.11.2019
3981 Clouds 15 1023 19 10000 1.5 0 12:19 18.11.2019
3982 Clouds 16 1024 19 10000 1.5 0 11:46 18.11.2019
3983 Clouds 16 1024 19 10000 1.5 0 11:46 18.11.2019
3984 Clouds 16 1024 19 10000 1.5 0 11:27 18.11.2019
3985 Clouds 17 1025 17 10000 2.6 250 10:59 18.11.2019
3986 Clouds 17 1025 17 10000 2.6 250 10:40 18.11.2019
3987 Clouds 17 1025 17 10000 2.6 250 10:22 18.11.2019
3988 Clouds 16 1026 19 10000 2.1 0 09:56 18.11.2019
3989 Clouds 16 1026 19 10000 2.1 0 09:56 18.11.2019
3990 Clouds 16 1026 19 10000 2.1 0 09:38 18.11.2019
3991 Clouds 16 1026 19 10000 2.1 0 09:18 18.11.2019
3992 Clouds 15 1027 24 10000 1.5 0 08:45 18.11.2019
3993 Clouds 15 1027 24 10000 1.5 0 08:22 18.11.2019
3994 Clouds 14 1028 30 10000 3.1 200 07:49 18.11.2019
3995 Clouds 14 1028 30 10000 3.1 200 07:30 18.11.2019
3996 Clouds 12 1028 40 8000 0.5 0 06:56 18.11.2019
3997 Clouds 12 1028 40 8000 0.5 0 06:37 18.11.2019
3998 Clouds 12 1028 40 8000 0.5 0 06:19 18.11.2019
3999 Haze 8 1027 52 9000 1.5 340 05:25 18.11.2019
4000 Clouds 4 1026 74 7000 4.1 330 02:59 18.11.2019
4001 Smoke 4 1026 65 7000 2.6 340 01:31 18.11.2019
4002 Mist 4 1026 38 6000 2.6 330 00:39 18.11.2019
4003 Mist 4 1026 86 5000 1.5 280 23:56 17.11.2019
4004 Mist 4 1026 86 5000 1.5 280 23:38 17.11.2019
4005 Mist 4 1026 86 5000 1.5 280 23:18 17.11.2019
4006 Mist 4 1026 86 5000 1.5 330 22:41 17.11.2019
4007 Mist 4 1026 86 5000 1.5 330 22:23 17.11.2019
4008 Smoke 5 1026 86 5000 2.1 180 21:59 17.11.2019
4009 Smoke 5 1026 86 5000 2.1 180 21:41 17.11.2019
4010 Smoke 5 1026 86 5000 2.1 180 21:19 17.11.2019
4011 Mist 5 1027 86 5000 1 0 20:57 17.11.2019
4012 Mist 5 1027 86 5000 1 0 20:38 17.11.2019
4013 Mist 5 1027 86 5000 1 0 20:20 17.11.2019
4014 Mist 5 1027 86 5000 1 0 20:20 17.11.2019
4015 Smoke 6 1027 81 5000 1.5 180 19:56 17.11.2019
4016 Clear 6 1025 87 10000 1.5 200 19:38 17.11.2019
4017 Clear 6 1025 87 10000 1.5 200 19:20 17.11.2019
4018 Clear 6 1025 93 10000 2.6 230 18:56 17.11.2019
4019 Clear 6 1025 93 10000 2.6 230 18:38 17.11.2019
4020 Clear 7 1025 93 10000 2.6 230 18:19 17.11.2019
4021 Smoke 7 1027 70 7000 1 80 17:57 17.11.2019
4022 Smoke 7 1027 70 7000 1 80 17:57 17.11.2019
4023 Smoke 7 1027 70 7000 1 80 17:39 17.11.2019
4024 Smoke 7 1027 70 7000 1 80 17:20 17.11.2019
4025 Smoke 9 1027 65 6000 1 0 16:58 17.11.2019
4026 Smoke 9 1027 65 6000 1 0 16:40 17.11.2019
4027 Smoke 9 1027 65 6000 1 0 16:21 17.11.2019
4028 Clear 10 1026 61 7000 0.9 291 15:55 17.11.2019
4029 Clear 10 1026 61 7000 0.9 291 15:37 17.11.2019
4030 Clear 10 1026 61 7000 0.9 291 15:18 17.11.2019
4031 Clear 12 1026 55 10000 2.1 350 14:55 17.11.2019
4032 Clear 12 1026 55 10000 2.1 350 14:37 17.11.2019
4033 Clouds 12 1026 49 10000 2.1 350 14:19 17.11.2019
4034 Clouds 14 1026 43 10000 2.6 330 13:55 17.11.2019
4035 Clouds 14 1026 43 10000 2.6 330 13:55 17.11.2019
4036 Clouds 14 1026 43 10000 2.6 330 13:37 17.11.2019
4037 Clouds 14 1026 43 10000 2.6 330 13:18 17.11.2019
4038 Clouds 14 1026 43 10000 3.6 340 12:41 17.11.2019
4039 Clouds 14 1026 43 10000 3.6 340 12:22 17.11.2019
4040 Clouds 14 1027 43 10000 2.6 40 11:56 17.11.2019
4041 Clouds 14 1027 43 10000 2.6 40 11:38 17.11.2019
4042 Clouds 14 1027 43 10000 2.6 40 11:19 17.11.2019
4043 Clouds 14 1027 54 10000 4.6 60 10:44 17.11.2019
4044 Clouds 14 1027 54 10000 4.6 60 10:23 17.11.2019
4045 Clouds 14 1028 47 10000 2.6 130 09:57 17.11.2019
4046 Clouds 14 1028 47 10000 2.6 130 09:39 17.11.2019
4047 Clouds 14 1028 47 10000 2.6 130 09:20 17.11.2019
4048 Clouds 13 1026 54 10000 1.5 0 08:39 17.11.2019
4049 Clouds 13 1026 54 10000 1.5 0 08:20 17.11.2019
4050 Clouds 11 1029 62 8000 1.5 0 07:46 17.11.2019
4051 Clouds 11 1029 62 8000 1.5 0 07:22 17.11.2019
4052 Mist 11 1029 62 4000 1 0 06:57 17.11.2019
4053 Mist 10 1030 71 4000 1 0 06:31 17.11.2019
4054 Mist 8 1029 81 4000 1 0 05:39 17.11.2019
4055 Fog 3 1029 100 4000 0.37 271 04:23 17.11.2019
4056 Mist 3 1028 93 4000 1 50 03:43 17.11.2019
4057 Mist 3 1028 93 4000 1 50 03:23 17.11.2019
4058 Clouds 5 1028 93 8000 1.5 90 02:25 17.11.2019
4059 Clouds 5 1027 87 7000 1.5 170 01:25 17.11.2019
4060 Clouds 4 1027 93 9000 1.5 100 00:49 17.11.2019
4061 Clouds 4 1027 93 9000 1.5 100 00:22 17.11.2019
4062 Clouds 5 1027 87 9000 1 290 23:43 16.11.2019
4063 Clouds 5 1027 87 9000 1 290 23:43 16.11.2019
4064 Clouds 5 1027 87 9000 1 290 23:19 16.11.2019
4065 Clouds 6 1027 87 9000 1 310 22:58 16.11.2019
4066 Clouds 6 1027 87 9000 1 310 22:40 16.11.2019
4067 Clouds 6 1027 87 9000 1 310 22:18 16.11.2019
4068 Clouds 7 1027 87 9000 1.5 320 21:41 16.11.2019
4069 Clouds 7 1027 87 9000 1.5 320 21:23 16.11.2019
4070 Clouds 8 1027 81 10000 1.5 120 20:58 16.11.2019
4071 Clouds 8 1027 81 10000 1.5 120 20:39 16.11.2019
4072 Clouds 8 1027 81 10000 1.5 120 20:20 16.11.2019
4073 Clouds 8 1027 87 10000 1.3 5 19:56 16.11.2019
4074 Clouds 8 1027 87 10000 1.3 5 19:38 16.11.2019
4075 Clouds 8 1027 87 10000 1.3 5 19:19 16.11.2019
4076 Clouds 8 1027 87 10000 1.5 170 18:43 16.11.2019
4077 Clouds 8 1027 87 10000 1.5 170 18:43 16.11.2019
4078 Clouds 8 1027 87 10000 1.5 170 18:25 16.11.2019
4079 Clouds 9 1026 81 10000 2.1 160 17:56 16.11.2019
4080 Clouds 9 1026 81 10000 2.1 160 17:37 16.11.2019
4081 Clouds 9 1026 81 10000 2.1 160 17:18 16.11.2019
4082 Clouds 9 1026 81 9000 1 0 16:46 16.11.2019
4083 Clouds 9 1026 81 9000 1 0 16:28 16.11.2019
4084 Clouds 10 1026 76 10000 2.6 120 15:56 16.11.2019
4085 Clouds 10 1026 76 10000 2.6 120 15:38 16.11.2019
4086 Clouds 10 1026 76 10000 2.6 120 15:19 16.11.2019
4087 Clouds 10 1025 76 10000 3.6 360 14:41 16.11.2019
4088 Clouds 11 1023 71 10000 2.6 70 14:22 16.11.2019
4089 Clouds 12 1024 71 10000 4.1 10 13:57 16.11.2019
4090 Clouds 12 1024 71 10000 4.1 10 13:39 16.11.2019
4091 Clouds 12 1024 71 10000 4.1 10 13:19 16.11.2019
4092 Clouds 12 1024 71 10000 2.6 360 12:59 16.11.2019
4093 Clouds 12 1024 71 10000 2.6 360 12:41 16.11.2019
4094 Clouds 12 1024 71 10000 2.6 360 12:20 16.11.2019
4095 Clouds 12 1024 58 10000 1.5 0 11:46 16.11.2019
4096 Clouds 12 1024 58 10000 1.5 0 11:28 16.11.2019
4097 Clouds 13 1024 54 10000 1.5 0 10:58 16.11.2019
4098 Clouds 13 1024 54 10000 1.5 0 10:40 16.11.2019
4099 Clouds 13 1024 54 10000 1.5 0 10:21 16.11.2019
4100 Clouds 12 1022 71 10000 1.5 10 09:56 16.11.2019
4101 Clouds 12 1022 71 10000 1.5 10 09:36 16.11.2019
4102 Clouds 11 1022 71 10000 1.5 10 09:18 16.11.2019
4103 Clouds 10 1025 76 9000 3.1 70 08:40 16.11.2019
4104 Clouds 10 1025 76 9000 3.1 70 08:20 16.11.2019
4105 Mist 11 1023 81 9000 2.1 50 07:43 16.11.2019
4106 Clouds 9 1025 81 8000 1 0 07:22 16.11.2019
4107 Clouds 9 1025 81 8000 1 0 06:56 16.11.2019
4108 Clouds 9 1025 81 8000 1 0 06:35 16.11.2019
4109 Clouds 8 1024 87 9000 1.5 110 05:59 16.11.2019
4110 Mist 6 1022 100 8000 1.5 230 04:21 16.11.2019
4111 Mist 6 1022 100 8000 1.5 230 04:21 16.11.2019
4112 Clouds 7 1023 87 10000 0.26 142 03:26 16.11.2019
4113 Clouds 7 1023 93 10000 2.6 330 02:35 16.11.2019
4114 Rain 7 1021 100 10000 1.5 20 01:29 16.11.2019
4115 Clouds 6 1021 100 10000 1.5 360 00:47 16.11.2019
4116 Clouds 6 1021 100 10000 1.5 360 00:47 16.11.2019
4117 Rain 7 1023 93 9000 3.1 340 00:27 16.11.2019
4118 Rain 7 1023 93 9000 2.1 310 23:43 15.11.2019
4119 Rain 7 1023 93 9000 2.1 310 23:23 15.11.2019
4120 Rain 7 1023 93 9000 1.5 100 22:59 15.11.2019
4121 Rain 7 1023 93 9000 1.5 100 22:39 15.11.2019
4122 Rain 7 1023 93 9000 1.5 100 22:19 15.11.2019
4123 Rain 7 1024 93 10000 1.5 0 21:55 15.11.2019
4124 Rain 7 1024 93 10000 1.5 0 21:36 15.11.2019
4125 Rain 7 1024 93 10000 1.5 0 21:18 15.11.2019
4126 Rain 8 1024 87 10000 1.5 0 20:55 15.11.2019
4127 Rain 8 1024 87 10000 1.5 0 20:37 15.11.2019
4128 Rain 8 1024 87 10000 1.5 0 20:18 15.11.2019
4129 Clouds 8 1023 93 10000 2.41 41 19:56 15.11.2019
4130 Clouds 8 1024 87 10000 1.5 0 19:36 15.11.2019
4131 Clouds 8 1024 87 10000 1.5 0 19:18 15.11.2019
4132 Rain 8 1024 87 10000 3.1 340 18:42 15.11.2019
4133 Rain 8 1024 87 10000 3.1 340 18:23 15.11.2019
4134 Clouds 8 1024 87 10000 3.1 350 17:55 15.11.2019
4135 Clouds 8 1024 87 10000 3.1 350 17:55 15.11.2019
4136 Clouds 8 1024 87 10000 3.1 350 17:37 15.11.2019
4137 Clouds 8 1024 87 10000 3.1 350 17:19 15.11.2019
4138 Clouds 8 1024 87 9000 5.1 350 16:40 15.11.2019
4139 Clouds 8 1024 87 9000 5.1 350 16:40 15.11.2019
4140 Clouds 8 1024 87 9000 5.1 350 16:22 15.11.2019
4141 Clouds 7 1023 93 10000 2.45 41 15:59 15.11.2019
4142 Clouds 8 1023 93 10000 3.6 360 15:36 15.11.2019
4143 Clouds 8 1023 93 10000 3.6 360 15:18 15.11.2019
4144 Clouds 8 1023 87 10000 1 0 14:55 15.11.2019
4145 Clouds 8 1023 87 10000 1 0 14:37 15.11.2019
4146 Clouds 8 1023 87 10000 1 0 14:37 15.11.2019
4147 Clouds 8 1023 87 10000 1 0 14:37 15.11.2019
4148 Clouds 8 1023 87 10000 1 0 14:18 15.11.2019
4149 Clouds 8 1022 87 10000 3.1 10 13:54 15.11.2019
4150 Clouds 8 1022 87 10000 3.1 10 13:54 15.11.2019
4151 Rain 8 1023 93 9000 4.6 60 13:36 15.11.2019
4152 Rain 8 1023 93 9000 4.6 60 13:18 15.11.2019
4153 Rain 8 1023 93 6000 2.1 70 12:56 15.11.2019
4154 Rain 8 1023 93 6000 2.1 70 12:37 15.11.2019
4155 Rain 8 1023 93 6000 2.1 70 12:18 15.11.2019
4156 Rain 9 1023 87 8000 2.1 310 11:40 15.11.2019
4157 Rain 9 1023 87 8000 2.1 310 11:21 15.11.2019
4158 Rain 8 1021 87 9000 3.1 340 10:58 15.11.2019
4159 Rain 9 1023 87 8000 2.6 290 10:39 15.11.2019
4160 Rain 9 1023 87 8000 2.6 290 10:20 15.11.2019
4161 Rain 9 1024 81 8000 2.1 70 09:41 15.11.2019
4162 Rain 9 1024 81 8000 2.1 70 09:20 15.11.2019
4163 Rain 9 1022 93 4000 1.5 330 08:57 15.11.2019
4164 Rain 9 1022 93 4000 1.5 330 08:57 15.11.2019
4165 Rain 9 1024 81 9000 2.1 80 08:39 15.11.2019
4166 Rain 9 1024 81 9000 2.1 80 08:18 15.11.2019
4167 Rain 9 1024 76 10000 2.6 360 07:42 15.11.2019
4168 Rain 9 1024 76 10000 2.6 360 07:22 15.11.2019
4169 Rain 10 1024 70 10000 2.6 320 06:36 15.11.2019
4170 Rain 10 1024 70 10000 2.6 320 06:36 15.11.2019
4171 Rain 9 1024 70 10000 2.6 340 05:52 15.11.2019
4172 Rain 9 1024 70 10000 2.6 340 05:31 15.11.2019
4173 Rain 10 1023 66 10000 2.1 330 04:45 15.11.2019
4174 Clouds 9 1022 65 10000 1 0 03:38 15.11.2019
4175 Clouds 8 1022 70 10000 1 0 02:32 15.11.2019
4176 Clouds 9 1022 65 10000 1 190 01:51 15.11.2019
4177 Clouds 9 1022 65 10000 1 190 01:24 15.11.2019
4178 Clouds 10 1022 65 10000 1.5 110 00:40 15.11.2019
4179 Clouds 9 1022 65 10000 1.5 110 00:20 15.11.2019
4180 Clouds 9 1022 65 10000 1 140 23:45 14.11.2019
4181 Clouds 9 1022 65 10000 1 140 23:25 14.11.2019
4182 Clouds 10 1023 65 10000 1 0 22:41 14.11.2019
4183 Clouds 10 1023 65 10000 1 0 22:22 14.11.2019
4184 Clouds 9 1023 65 10000 1 0 21:58 14.11.2019
4185 Clouds 9 1023 65 10000 1 0 21:40 14.11.2019
4186 Clouds 9 1024 65 10000 1.5 0 21:21 14.11.2019
4187 Clouds 10 1024 65 10000 2.6 110 20:54 14.11.2019
4188 Clouds 10 1024 65 10000 2.6 110 20:36 14.11.2019
4189 Clouds 10 1024 65 10000 2.6 110 20:18 14.11.2019
4190 Clouds 11 1025 61 10000 3.1 300 19:54 14.11.2019
4191 Clouds 11 1025 61 10000 3.1 300 19:36 14.11.2019
4192 Clouds 11 1025 61 10000 3.1 300 19:18 14.11.2019
4193 Clouds 11 1025 53 10000 1.5 0 18:42 14.11.2019
4194 Clouds 11 1025 53 10000 1.5 0 18:22 14.11.2019
4195 Clouds 11 1025 57 10000 4.1 110 17:57 14.11.2019
4196 Clouds 11 1025 57 10000 4.1 110 17:37 14.11.2019
4197 Clouds 11 1025 57 10000 4.1 110 17:19 14.11.2019
4198 Clouds 11 1025 57 10000 6.2 120 16:57 14.11.2019
4199 Clouds 11 1025 57 10000 6.2 120 16:37 14.11.2019
4200 Clouds 11 1025 57 10000 6.2 120 16:19 14.11.2019
4201 Clouds 13 1025 53 10000 5.1 140 15:57 14.11.2019
4202 Clouds 13 1025 53 10000 5.1 140 15:38 14.11.2019
4203 Clouds 13 1025 53 10000 5.1 140 15:19 14.11.2019
4204 Clouds 13 1025 53 10000 5.1 140 15:19 14.11.2019
4205 Clouds 13 1025 46 10000 6.7 130 14:46 14.11.2019
4206 Clouds 13 1025 46 10000 6.7 130 14:23 14.11.2019
4207 Clouds 14 1024 43 10000 6.7 60 13:58 14.11.2019
4208 Clouds 14 1024 43 10000 6.7 60 13:39 14.11.2019
4209 Clouds 14 1024 43 10000 6.7 60 13:20 14.11.2019
4210 Clouds 15 1024 50 10000 4.1 10 12:56 14.11.2019
4211 Clouds 15 1024 50 10000 4.1 10 12:37 14.11.2019
4212 Clouds 15 1024 50 10000 4.1 10 12:19 14.11.2019
4213 Clouds 15 1024 41 10000 4.1 340 11:54 14.11.2019
4214 Clouds 15 1024 41 10000 4.1 340 11:36 14.11.2019
4215 Clouds 15 1024 41 10000 4.1 340 11:18 14.11.2019
4216 Clouds 15 1025 41 10000 4.1 110 10:41 14.11.2019
4217 Clouds 15 1025 41 10000 4.1 110 10:20 14.11.2019
4218 Clouds 15 1026 41 10000 3.1 0 09:57 14.11.2019
4219 Clouds 15 1026 41 10000 3.1 0 09:39 14.11.2019
4220 Clouds 15 1026 41 10000 3.1 0 09:21 14.11.2019
4221 Clouds 14 1027 47 10000 2.1 330 08:47 14.11.2019
4222 Clouds 14 1027 47 10000 2.1 330 08:26 14.11.2019
4223 Clouds 13 1028 53 9000 4.6 350 07:57 14.11.2019
4224 Clouds 13 1028 53 9000 4.6 350 07:38 14.11.2019
4225 Clouds 13 1028 53 9000 4.6 350 07:19 14.11.2019
4226 Clouds 12 1028 53 8000 1.5 340 06:43 14.11.2019
4227 Clouds 12 1028 53 8000 1.5 340 06:19 14.11.2019
4228 Clouds 7 1027 65 10000 1 270 04:42 14.11.2019
4229 Clouds 9 1026 61 10000 1 0 04:23 14.11.2019
4230 Clouds 8 1024 66 10000 1.5 130 02:47 14.11.2019
4231 Clouds 9 1026 65 10000 2.1 290 02:25 14.11.2019
4232 Clouds 9 1025 68 10000 1 110 01:33 14.11.2019
4233 Clouds 10 1025 61 10000 0.5 0 00:53 14.11.2019
4234 Clouds 10 1025 61 10000 0.5 0 00:30 14.11.2019
4235 Clouds 10 1025 68 10000 1 330 23:42 13.11.2019
4236 Clouds 10 1025 62 10000 1 330 23:22 13.11.2019
4237 Clouds 10 1025 62 10000 2.6 360 22:57 13.11.2019
4238 Clouds 10 1025 62 10000 2.6 360 22:39 13.11.2019
4239 Clouds 10 1025 62 10000 2.6 360 22:21 13.11.2019
4240 Clouds 10 1026 62 10000 1.5 330 21:56 13.11.2019
4241 Clouds 10 1026 62 10000 1.5 330 21:38 13.11.2019
4242 Clouds 10 1026 62 10000 1.5 330 21:19 13.11.2019
4243 Clouds 11 1026 62 10000 1.5 270 20:57 13.11.2019
4244 Clouds 11 1026 62 10000 1.5 270 20:37 13.11.2019
4245 Clouds 11 1026 62 10000 1.5 270 20:37 13.11.2019
4246 Clouds 11 1026 62 10000 1.5 270 20:37 13.11.2019
4247 Clouds 11 1026 62 10000 1.5 270 20:37 13.11.2019
4248 Clouds 11 1026 60 10000 1.5 270 20:19 13.11.2019
4249 Clouds 10 1026 60 10000 1 280 19:44 13.11.2019
4250 Clouds 10 1026 60 10000 1 280 19:20 13.11.2019
4251 Clouds 12 1026 60 10000 0.5 330 18:58 13.11.2019
4252 Clouds 12 1026 60 10000 0.5 330 18:58 13.11.2019
4253 Clouds 12 1026 60 10000 0.5 330 18:39 13.11.2019
4254 Clouds 12 1026 60 10000 0.5 330 18:21 13.11.2019
4255 Clouds 12 1026 50 10000 2.1 180 17:59 13.11.2019
4256 Clouds 12 1026 50 10000 2.1 180 17:40 13.11.2019
4257 Clouds 12 1026 50 10000 2.1 180 17:22 13.11.2019
4258 Clouds 12 1024 54 10000 2.1 100 16:59 13.11.2019
4259 Clouds 12 1024 54 10000 2.1 100 16:59 13.11.2019
4260 Clouds 12 1024 54 10000 2.1 100 16:40 13.11.2019
4261 Clouds 12 1024 48 10000 2.1 100 16:21 13.11.2019
4262 Clouds 12 1024 48 10000 2.1 100 16:21 13.11.2019
4263 Clouds 13 1025 40 10000 3.6 250 15:58 13.11.2019
4264 Clouds 13 1025 40 10000 3.6 250 15:40 13.11.2019
4265 Clouds 13 1025 40 10000 3.6 250 15:21 13.11.2019
4266 Rain 13 1025 43 10000 1.5 140 14:43 13.11.2019
4267 Rain 13 1025 43 10000 1.5 140 14:23 13.11.2019
4268 Clouds 14 1022 38 10000 0.85 45 13:59 13.11.2019
4269 Rain 15 1024 35 10000 3.6 120 13:37 13.11.2019
4270 Rain 15 1024 35 10000 3.6 120 13:19 13.11.2019
4271 Clouds 15 1024 33 10000 6.2 90 12:57 13.11.2019
4272 Clouds 15 1024 33 10000 6.2 90 12:38 13.11.2019
4273 Clouds 15 1024 33 10000 6.2 90 12:19 13.11.2019
4274 Rain 16 1024 28 10000 8.2 120 11:41 13.11.2019
4275 Rain 16 1024 28 10000 8.2 120 11:21 13.11.2019
4276 Clouds 16 1025 35 10000 3.6 20 10:59 13.11.2019
4277 Clouds 16 1025 35 10000 3.6 20 10:41 13.11.2019
4278 Clouds 16 1025 35 10000 3.6 20 10:41 13.11.2019
4279 Clouds 16 1025 35 10000 3.6 20 10:20 13.11.2019
4280 Clouds 16 1026 35 10000 2.6 240 09:57 13.11.2019
4281 Clouds 16 1026 35 10000 2.6 240 09:39 13.11.2019
4282 Clouds 16 1026 35 10000 2.6 240 09:20 13.11.2019
4283 Clouds 15 1027 41 10000 1 0 08:39 13.11.2019
4284 Clouds 15 1027 41 10000 1 0 08:39 13.11.2019
4285 Clouds 15 1027 41 10000 1 0 08:20 13.11.2019
4286 Clouds 14 1027 47 10000 1.5 0 07:42 13.11.2019
4287 Clouds 14 1027 47 10000 1.5 0 07:21 13.11.2019
4288 Clouds 12 1027 50 10000 1.5 0 06:46 13.11.2019
4289 Clouds 12 1027 50 10000 1.5 0 06:19 13.11.2019
4290 Clouds 12 1027 50 10000 1.5 0 06:19 13.11.2019
4291 Clouds 12 1027 50 10000 1.5 0 06:19 13.11.2019
4292 Clouds 10 1027 53 10000 1 0 05:54 13.11.2019
4293 Clouds 10 1027 53 10000 1 0 05:34 13.11.2019
4294 Clouds 8 1026 65 10000 2.6 330 04:44 13.11.2019
4295 Clouds 6 1025 70 10000 1.5 200 02:19 13.11.2019
4296 Clouds 7 1025 70 10000 2.1 310 01:45 13.11.2019
4297 Clouds 8 1025 65 10000 2.6 340 00:52 13.11.2019
4298 Clouds 8 1025 65 10000 2.6 340 00:34 13.11.2019
4299 Clouds 6 1025 65 10000 0.5 0 23:42 12.11.2019
4300 Clouds 6 1025 65 10000 0.5 0 23:22 12.11.2019
4301 Clouds 8 1023 65 10000 1.11 324 22:56 12.11.2019
4302 Clouds 8 1023 65 10000 1.11 324 22:37 12.11.2019
4303 Clouds 7 1023 65 10000 1.11 324 22:18 12.11.2019
4304 Clouds 8 1025 65 10000 0.5 0 21:44 12.11.2019
4305 Clouds 8 1025 65 10000 0.5 0 21:44 12.11.2019
4306 Clouds 8 1025 65 10000 0.5 0 21:25 12.11.2019
4307 Clouds 9 1025 57 10000 1 0 20:58 12.11.2019
4308 Clouds 9 1025 57 10000 1 0 20:38 12.11.2019
4309 Clouds 9 1025 57 10000 1 0 20:19 12.11.2019
4310 Clouds 11 1025 50 10000 4.1 270 19:57 12.11.2019
4311 Clouds 11 1025 50 10000 4.1 270 19:39 12.11.2019
4312 Clouds 11 1025 50 10000 4.1 270 19:19 12.11.2019
4313 Clouds 12 1025 43 8000 4.1 210 18:59 12.11.2019
4314 Clouds 12 1025 43 8000 4.1 210 18:40 12.11.2019
4315 Clouds 12 1025 43 8000 4.1 210 18:22 12.11.2019
4316 Clouds 13 1024 40 10000 1 0 17:57 12.11.2019
4317 Clouds 13 1024 40 10000 1 0 17:39 12.11.2019
4318 Clouds 13 1024 40 10000 1 0 17:21 12.11.2019
4319 Clouds 13 1024 40 10000 1 0 17:21 12.11.2019
4320 Rain 12 1021 35 10000 6.7 270 16:57 12.11.2019
4321 Clouds 13 1023 40 10000 5.1 110 16:39 12.11.2019
4322 Clouds 13 1023 40 10000 5.1 110 16:20 12.11.2019
4323 Clouds 13 1023 40 9000 2.1 270 15:41 12.11.2019
4324 Clouds 13 1023 40 9000 2.1 270 15:21 12.11.2019
4325 Clouds 14 1022 30 9000 2.1 190 14:56 12.11.2019
4326 Clouds 14 1022 30 9000 2.1 190 14:37 12.11.2019
4327 Clouds 14 1022 30 9000 2.1 190 14:18 12.11.2019
4328 Clouds 15 1021 24 10000 5.1 120 13:56 12.11.2019
4329 Clouds 15 1021 24 10000 5.1 120 13:36 12.11.2019
4330 Clouds 15 1021 24 10000 5.1 120 13:18 12.11.2019
4331 Clouds 15 1021 22 10000 6.7 110 12:42 12.11.2019
4332 Clouds 15 1021 22 10000 6.7 110 12:42 12.11.2019
4333 Clouds 15 1021 22 10000 6.7 110 12:19 12.11.2019
4334 Clouds 16 1021 22 9000 5.1 150 11:58 12.11.2019
4335 Clouds 16 1021 22 9000 5.1 150 11:39 12.11.2019
4336 Clouds 16 1021 22 9000 5.1 150 11:21 12.11.2019
4337 Clouds 17 1021 20 10000 5.1 100 10:56 12.11.2019
4338 Clouds 17 1021 20 10000 5.1 100 10:37 12.11.2019
4339 Clouds 16 1021 20 10000 5.1 100 10:19 12.11.2019
4340 Clouds 16 1022 18 9000 3.6 0 09:40 12.11.2019
4341 Clouds 16 1022 18 9000 3.6 0 09:21 12.11.2019
4342 Smoke 15 1023 24 8000 2.1 0 08:51 12.11.2019
4343 Smoke 14 1023 24 8000 2.1 0 08:30 12.11.2019
4344 Smoke 14 1024 28 7000 2.6 170 07:45 12.11.2019
4345 Smoke 14 1024 28 7000 2.6 170 07:26 12.11.2019
4346 Smoke 10 1024 25 7000 2.6 120 06:58 12.11.2019
4347 Smoke 10 1024 25 7000 2.6 120 06:39 12.11.2019
4348 Smoke 10 1024 25 7000 2.6 120 06:21 12.11.2019
4349 Smoke 8 1024 42 8000 3.6 130 05:43 12.11.2019
4350 Clouds 6 1023 48 10000 2.6 330 04:41 12.11.2019
4351 Clouds 6 1022 39 9000 2.1 310 02:51 12.11.2019
4352 Clouds 5 1022 56 8000 1 0 01:42 12.11.2019
4353 Clouds 5 1022 56 8000 1 0 01:20 12.11.2019
4354 Clouds 5 1022 56 8000 1 0 00:45 12.11.2019
4355 Clouds 5 1022 56 8000 1 0 00:22 12.11.2019
4356 Clouds 5 1022 52 6000 1 0 23:43 11.11.2019
4357 Clouds 5 1022 52 6000 1 0 23:21 11.11.2019
4358 Clouds 6 1022 45 7000 1 0 22:40 11.11.2019
4359 Clouds 6 1022 45 7000 1 0 22:21 11.11.2019
4360 Clouds 6 1022 39 8000 1 0 21:59 11.11.2019
4361 Clouds 6 1022 39 8000 1 0 21:40 11.11.2019
4362 Clouds 6 1022 39 8000 1 0 21:22 11.11.2019
4363 Clouds 5 1022 42 8000 1 0 20:59 11.11.2019
4364 Clouds 5 1022 42 8000 1 0 20:59 11.11.2019
4365 Clouds 5 1022 42 8000 1 0 20:59 11.11.2019
4366 Clouds 5 1022 42 8000 1 0 20:41 11.11.2019
4367 Clouds 5 1022 42 8000 1 0 20:20 11.11.2019
4368 Clouds 6 1022 39 10000 1 0 19:56 11.11.2019
4369 Clouds 6 1022 39 10000 1 0 19:38 11.11.2019
4370 Clouds 6 1022 39 10000 1 0 19:38 11.11.2019
4371 Clouds 6 1022 39 10000 1 0 19:18 11.11.2019
4372 Clouds 6 1022 39 10000 1 0 19:18 11.11.2019
4373 Clouds 6 1022 42 10000 1 0 18:42 11.11.2019
4374 Clouds 6 1022 42 10000 1 0 18:22 11.11.2019
4375 Clouds 8 1022 42 10000 1 0 18:00 11.11.2019
4376 Clouds 8 1022 42 10000 1 0 17:41 11.11.2019
4377 Clouds 8 1022 42 10000 1 0 17:22 11.11.2019
4378 Clouds 10 1021 34 10000 1 0 16:40 11.11.2019
4379 Clouds 10 1021 34 10000 1 0 16:21 11.11.2019
4380 Clouds 11 1021 23 10000 1 0 15:57 11.11.2019
4381 Clouds 11 1021 23 10000 1 0 15:38 11.11.2019
4382 Clouds 11 1021 23 10000 1 0 15:19 11.11.2019
4383 Clouds 13 1021 15 10000 2.6 350 14:43 11.11.2019
4384 Clouds 13 1021 15 10000 2.6 350 14:24 11.11.2019
4385 Clouds 16 1020 13 10000 1.5 0 13:58 11.11.2019
4386 Clouds 16 1020 13 10000 1.5 0 13:37 11.11.2019
4387 Clouds 16 1020 13 10000 1.5 0 13:19 11.11.2019
4388 Clouds 17 1020 11 10000 1.5 0 12:56 11.11.2019
4389 Clouds 17 1020 11 10000 1.5 0 12:38 11.11.2019
4390 Clouds 17 1020 11 10000 1.5 0 12:20 11.11.2019
4391 Clouds 17 1021 10 10000 2.6 350 11:42 11.11.2019
4392 Clouds 17 1021 10 10000 2.6 350 11:22 11.11.2019
4393 Clouds 17 1021 11 10000 4.1 350 10:56 11.11.2019
4394 Clouds 17 1021 11 10000 4.1 350 10:38 11.11.2019
4395 Clouds 17 1021 11 10000 4.1 350 10:18 11.11.2019
4396 Clear 16 1022 12 10000 1 0 09:43 11.11.2019
4397 Clear 16 1022 12 10000 1 0 09:21 11.11.2019
4398 Clear 15 1023 18 10000 1.5 0 08:44 11.11.2019
4399 Clear 15 1023 18 10000 1.5 0 08:23 11.11.2019
4400 Haze 13 1023 24 8000 1 0 07:58 11.11.2019
4401 Haze 13 1023 24 8000 1 0 07:39 11.11.2019
4402 Haze 13 1023 24 8000 1 0 07:20 11.11.2019
4403 Clear 11 1024 25 9000 1.5 290 06:57 11.11.2019
4404 Clear 11 1024 25 9000 1.5 290 06:38 11.11.2019
4405 Clear 11 1024 25 9000 1.5 290 06:20 11.11.2019
4406 Clouds 8 1024 36 10000 2.1 300 05:48 11.11.2019
4407 Clear 1 1023 47 10000 2.1 310 03:56 11.11.2019
4408 Clear 1 1023 47 10000 2.1 310 03:56 11.11.2019
4409 Clear 1 1023 51 10000 3.1 310 02:49 11.11.2019
4410 Clear 1 1023 51 10000 3.1 310 02:18 11.11.2019
4411 Clear 3 1022 44 10000 3.1 330 01:37 11.11.2019
4412 Clear 3 1022 59 8000 2.6 330 00:58 11.11.2019
4413 Clear 3 1022 59 8000 2.6 330 00:40 11.11.2019
4414 Clear 2 1023 64 7000 0.5 0 23:58 10.11.2019
4415 Clear 2 1023 64 7000 0.5 0 23:38 10.11.2019
4416 Clear 2 1023 64 7000 0.5 0 23:38 10.11.2019
4417 Clear 2 1023 64 7000 0.5 0 23:19 10.11.2019
4418 Clear 2 1023 64 7000 0.5 0 23:19 10.11.2019
4419 Clear 2 1023 59 7000 0.51 14 22:56 10.11.2019
4420 Clear 2 1023 59 7000 0.51 14 22:38 10.11.2019
4421 Clear 2 1023 59 7000 0.51 14 22:19 10.11.2019
4422 Clear 2 1023 59 7000 0.51 14 22:19 10.11.2019
4423 Clear 3 1023 60 7000 1 0 21:55 10.11.2019
4424 Clear 3 1023 60 7000 1 0 21:37 10.11.2019
4425 Clear 3 1023 60 7000 1 0 21:19 10.11.2019
4426 Clear 4 1023 52 7000 1.5 0 20:41 10.11.2019
4427 Clear 4 1023 52 7000 1.5 0 20:22 10.11.2019
4428 Clear 5 1024 45 8000 1.29 28 19:56 10.11.2019
4429 Clear 5 1024 45 8000 1.29 28 19:37 10.11.2019
4430 Clear 5 1024 45 8000 1.29 28 19:19 10.11.2019
4431 Clear 7 1024 39 8000 1.5 0 18:58 10.11.2019
4432 Clear 7 1024 39 8000 1.5 0 18:39 10.11.2019
4433 Clear 7 1024 39 8000 1.5 0 18:19 10.11.2019
4434 Clear 7 1024 39 8000 1.5 0 18:19 10.11.2019
4435 Clear 7 1023 42 10000 1 0 17:56 10.11.2019
4436 Clear 7 1023 42 10000 1 0 17:38 10.11.2019
4437 Clear 7 1023 42 10000 1 0 17:38 10.11.2019
4438 Clear 7 1023 42 10000 1 0 17:19 10.11.2019
4439 Clear 9 1023 23 10000 1 0 16:58 10.11.2019
4440 Clear 9 1023 23 10000 1 0 16:38 10.11.2019
4441 Clear 9 1023 23 10000 1 0 16:20 10.11.2019
4442 Clear 11 1021 37 10000 2.1 80 15:55 10.11.2019
4443 Clear 11 1021 37 10000 2.1 80 15:36 10.11.2019
4444 Clear 12 1021 37 10000 2.1 80 15:18 10.11.2019
4445 Clear 14 1023 20 10000 2.1 350 14:41 10.11.2019
4446 Clear 14 1023 20 10000 2.1 350 14:23 10.11.2019
4447 Clear 16 1022 17 10000 1.5 0 13:58 10.11.2019
4448 Clear 16 1022 17 10000 1.5 0 13:40 10.11.2019
4449 Clear 17 1022 17 10000 1.5 0 13:20 10.11.2019
4450 Clear 18 1023 17 10000 2.1 0 12:44 10.11.2019
4451 Clear 17 1023 17 10000 2.1 0 12:21 10.11.2019
4452 Clear 17 1023 17 10000 3.1 0 11:57 10.11.2019
4453 Clear 17 1023 17 10000 3.1 0 11:39 10.11.2019
4454 Clear 17 1023 17 10000 3.1 0 11:20 10.11.2019
4455 Clear 17 1023 17 10000 3.1 0 11:20 10.11.2019
4456 Clear 17 1024 18 10000 4.1 330 10:59 10.11.2019
4457 Clear 17 1024 18 10000 4.1 330 10:40 10.11.2019
4458 Clear 17 1024 18 10000 4.1 330 10:40 10.11.2019
4459 Clear 17 1024 18 10000 4.1 330 10:20 10.11.2019
4460 Clear 17 1024 18 10000 4.1 330 10:20 10.11.2019
4461 Clear 16 1024 21 8000 4.1 310 09:43 10.11.2019
4462 Clear 16 1024 21 8000 4.1 310 09:43 10.11.2019
4463 Clear 16 1024 21 8000 4.1 310 09:23 10.11.2019
4464 Clear 15 1025 24 8000 2.1 0 08:41 10.11.2019
4465 Clear 14 1023 26 10000 1.37 125 08:21 10.11.2019
4466 Clear 12 1026 28 8000 1.5 0 07:58 10.11.2019
4467 Clear 12 1026 28 8000 1.5 0 07:39 10.11.2019
4468 Clear 12 1026 28 8000 1.5 0 07:18 10.11.2019
4469 Clear 10 1026 32 8000 2.1 320 06:25 10.11.2019
4470 Clear 3 1025 48 10000 1.5 310 04:46 10.11.2019
4471 Clear 3 1025 51 10000 2.6 320 02:59 10.11.2019
4472 Clear 2 1025 51 8000 2.6 330 01:43 10.11.2019
4473 Clear 2 1025 51 8000 2.6 330 01:19 10.11.2019
4474 Clear 2 1024 74 8000 1 0 00:39 10.11.2019
4475 Clear 3 1025 69 8000 1.5 0 23:43 09.11.2019
4476 Clear 3 1025 69 8000 1.5 0 23:20 09.11.2019
4477 Clear 3 1025 64 8000 1 0 22:55 09.11.2019
4478 Clear 3 1025 64 8000 1 0 22:37 09.11.2019
4479 Clear 3 1025 64 8000 1 0 22:18 09.11.2019
4480 Clear 3 1025 64 8000 0.24 23 21:55 09.11.2019
4481 Clear 3 1025 64 8000 0.24 23 21:37 09.11.2019
4482 Clear 3 1025 64 8000 0.24 23 21:19 09.11.2019
4483 Clear 3 1025 64 8000 0.24 23 21:19 09.11.2019
4484 Clear 4 1026 64 8000 1.5 0 20:41 09.11.2019
4485 Clear 4 1026 64 8000 1.5 0 20:22 09.11.2019
4486 Clear 6 1026 48 8000 1.5 0 19:57 09.11.2019
4487 Clear 6 1026 48 8000 1.5 0 19:37 09.11.2019
4488 Clear 6 1026 48 8000 1.5 0 19:18 09.11.2019
4489 Clear 6 1026 52 8000 1 0 18:40 09.11.2019
4490 Clear 6 1026 52 8000 1 0 18:19 09.11.2019
4491 Clear 6 1026 52 8000 1 0 18:19 09.11.2019
4492 Clear 6 1026 45 8000 0.5 0 17:58 09.11.2019
4493 Clear 6 1026 45 8000 0.5 0 17:40 09.11.2019
4494 Clear 6 1026 45 8000 0.5 0 17:21 09.11.2019
4495 Clear 9 1026 39 10000 1 0 16:42 09.11.2019
4496 Clear 9 1026 39 10000 1 0 16:21 09.11.2019
4497 Clear 10 1025 29 10000 1 0 15:55 09.11.2019
4498 Clear 10 1025 29 10000 1 0 15:55 09.11.2019
4499 Clear 10 1025 29 10000 1 0 15:37 09.11.2019
4500 Clear 10 1025 29 10000 1 0 15:19 09.11.2019
4501 Clear 14 1025 30 10000 2.6 350 14:41 09.11.2019
4502 Clear 14 1025 30 10000 2.6 350 14:21 09.11.2019
4503 Clear 15 1024 22 10000 3.1 40 13:57 09.11.2019
4504 Clear 15 1024 22 10000 3.1 40 13:37 09.11.2019
4505 Clear 15 1024 22 10000 3.1 40 13:18 09.11.2019
4506 Clear 16 1025 22 10000 1.5 0 12:47 09.11.2019
4507 Clear 16 1025 22 10000 1.5 0 12:29 09.11.2019
4508 Clear 17 1025 21 10000 3.1 60 11:57 09.11.2019
4509 Clear 17 1025 21 10000 3.1 60 11:38 09.11.2019
4510 Clear 17 1025 21 10000 3.1 60 11:19 09.11.2019
4511 Clouds 16 1023 25 10000 2.68 51 10:41 09.11.2019
4512 Clouds 15 1023 25 10000 2.68 51 10:20 09.11.2019
4513 Clear 15 1026 30 10000 3.1 300 09:59 09.11.2019
4514 Clear 15 1026 30 10000 3.1 300 09:59 09.11.2019
4515 Clear 15 1026 30 10000 3.1 300 09:40 09.11.2019
4516 Clear 15 1026 30 10000 3.1 300 09:19 09.11.2019
4517 Clear 13 1027 30 9000 1.5 0 08:43 09.11.2019
4518 Clear 13 1027 30 9000 1.5 0 08:24 09.11.2019
4519 Clear 11 1028 37 9000 1 0 07:49 09.11.2019
4520 Clear 11 1028 37 9000 1 0 07:25 09.11.2019
4521 Haze 9 1028 45 8000 1.5 0 06:57 09.11.2019
4522 Haze 9 1028 45 8000 1.5 0 06:39 09.11.2019
4523 Haze 9 1028 45 8000 1.5 0 06:20 09.11.2019
4524 Haze 7 1028 52 7000 2.1 330 05:38 09.11.2019
4525 Clear 2 1027 74 7000 1.5 150 03:57 09.11.2019
4526 Clear 2 1027 74 7000 1.5 150 03:57 09.11.2019
4527 Clear 2 1027 74 9000 1.5 0 02:46 09.11.2019
4528 Clear 2 1027 74 9000 1.5 0 02:24 09.11.2019
4529 Clear 2 1027 80 9000 1 0 01:18 09.11.2019
4530 Clear 2 1026 74 9000 1 0 00:39 09.11.2019
4531 Clear 2 1026 74 9000 1 0 00:21 09.11.2019
4532 Clear 2 1027 74 9000 1 0 23:40 08.11.2019
4533 Clear 2 1027 74 9000 1 0 23:21 08.11.2019
4534 Clear 2 1027 69 9000 0.5 0 22:50 08.11.2019
4535 Clear 2 1027 69 9000 0.5 0 22:22 08.11.2019
4536 Clear 3 1027 69 9000 1 100 21:58 08.11.2019
4537 Clear 3 1027 69 9000 1 100 21:40 08.11.2019
4538 Clear 3 1027 69 9000 1 100 21:22 08.11.2019
4539 Clear 4 1027 65 9000 1.5 160 20:54 08.11.2019
4540 Clear 4 1027 65 9000 1.5 160 20:36 08.11.2019
4541 Clear 4 1027 65 9000 1.5 160 20:18 08.11.2019
4542 Clear 5 1027 56 9000 1.5 0 19:39 08.11.2019
4543 Clear 5 1027 56 9000 1.5 0 19:19 08.11.2019
4544 Clear 6 1027 56 9000 2.1 200 18:56 08.11.2019
4545 Clear 6 1027 56 9000 2.1 200 18:56 08.11.2019
4546 Clear 6 1027 56 9000 2.1 200 18:38 08.11.2019
4547 Clear 6 1027 56 9000 2.1 200 18:20 08.11.2019
4548 Clear 7 1027 56 10000 1.5 350 17:56 08.11.2019
4549 Clear 7 1027 56 10000 1.5 350 17:38 08.11.2019
4550 Clear 7 1027 56 10000 1.5 350 17:19 08.11.2019
4551 Clear 9 1026 49 10000 2.1 320 16:58 08.11.2019
4552 Clear 9 1026 49 10000 2.1 320 16:39 08.11.2019
4553 Clear 9 1026 49 10000 2.1 320 16:39 08.11.2019
4554 Clear 9 1026 49 10000 2.1 320 16:39 08.11.2019
4555 Clear 9 1026 49 10000 2.1 320 16:20 08.11.2019
4556 Clear 9 1026 49 10000 2.1 320 16:20 08.11.2019
4557 Clear 11 1026 39 10000 1.5 70 15:59 08.11.2019
4558 Clear 11 1026 39 10000 1.5 70 15:40 08.11.2019
4559 Clear 11 1026 39 10000 1.5 70 15:22 08.11.2019
4560 Clear 11 1025 42 10000 4.1 110 14:56 08.11.2019
4561 Clear 11 1025 42 10000 4.1 110 14:37 08.11.2019
4562 Clear 11 1025 42 10000 4.1 110 14:18 08.11.2019
4563 Clouds 13 1025 30 10000 4.6 120 13:57 08.11.2019
4564 Clouds 13 1025 30 10000 4.6 120 13:38 08.11.2019
4565 Clouds 13 1023 26 10000 2.1 100 13:19 08.11.2019
4566 Clouds 14 1024 30 10000 4.1 100 12:43 08.11.2019
4567 Clouds 14 1024 30 10000 4.1 100 12:24 08.11.2019
4568 Clouds 14 1024 30 10000 4.1 100 12:24 08.11.2019
4569 Clouds 14 1024 28 10000 3.1 30 11:57 08.11.2019
4570 Clouds 14 1024 28 10000 3.1 30 11:38 08.11.2019
4571 Clouds 14 1022 28 10000 2.6 350 11:20 08.11.2019
4572 Clouds 14 1022 28 10000 2.6 350 11:20 08.11.2019
4573 Clouds 14 1024 28 10000 2.6 0 10:56 08.11.2019
4574 Clouds 14 1024 28 10000 2.6 0 10:38 08.11.2019
4575 Clouds 13 1022 30 10000 2.1 20 10:20 08.11.2019
4576 Clear 14 1025 26 10000 1.5 0 09:41 08.11.2019
4577 Clear 14 1025 26 10000 1.5 0 09:20 08.11.2019
4578 Clear 13 1025 32 10000 1.5 0 08:59 08.11.2019
4579 Clear 13 1025 32 10000 1.5 0 08:37 08.11.2019
4580 Clear 13 1025 32 10000 1.5 0 08:18 08.11.2019
4581 Clouds 11 1024 37 10000 1.5 90 07:40 08.11.2019
4582 Clouds 10 1024 37 10000 1.5 90 07:22 08.11.2019
4583 Clear 9 1025 39 9000 1 0 06:41 08.11.2019
4584 Clear 9 1025 39 9000 1 0 06:22 08.11.2019
4585 Clear 6 1024 48 7000 1.5 200 05:55 08.11.2019
4586 Clear 6 1024 48 7000 1.5 200 05:22 08.11.2019
4587 Clear 1 1022 74 8000 1.5 290 03:44 08.11.2019
4588 Clear 1 1022 74 8000 1.5 290 03:23 08.11.2019
4589 Clear 1 1021 80 9000 1.5 140 02:45 08.11.2019
4590 Clear 1 1021 80 9000 1.5 0 01:47 08.11.2019
4591 Clear 1 1021 80 9000 1.5 0 01:24 08.11.2019
4592 Clear 2 1020 69 8000 1.5 0 00:24 08.11.2019
4593 Clear 3 1020 69 7000 1.5 350 23:58 07.11.2019
4594 Clear 3 1020 69 7000 1.5 350 23:40 07.11.2019
4595 Clear 3 1020 69 7000 1.5 350 23:22 07.11.2019
4596 Clear 3 1019 69 6000 1.5 310 22:42 07.11.2019
4597 Clear 3 1019 69 6000 1.5 310 22:22 07.11.2019
4598 Clear 3 1019 69 6000 1.5 310 22:22 07.11.2019
4599 Clear 4 1019 69 7000 1 0 21:56 07.11.2019
4600 Clear 4 1019 69 7000 1 0 21:37 07.11.2019
4601 Clear 4 1019 69 7000 1 0 21:19 07.11.2019
4602 Clear 4 1019 69 7000 1.5 170 20:58 07.11.2019
4603 Clear 4 1019 69 7000 1.5 170 20:39 07.11.2019
4604 Clear 4 1019 69 7000 1.5 170 20:21 07.11.2019
4605 Clear 4 1019 60 8000 1.5 350 19:55 07.11.2019
4606 Clear 4 1019 60 8000 1.5 350 19:36 07.11.2019
4607 Clear 4 1019 60 8000 1.5 350 19:18 07.11.2019
4608 Clear 4 1019 60 9000 1.5 170 18:55 07.11.2019
4609 Clear 4 1019 60 9000 1.5 170 18:37 07.11.2019
4610 Clear 4 1019 60 9000 1.5 170 18:19 07.11.2019
4611 Clear 6 1019 60 9000 1 0 17:40 07.11.2019
4612 Clear 7 1019 60 9000 1 0 17:21 07.11.2019
4613 Clear 8 1019 45 10000 2.6 220 16:58 07.11.2019
4614 Clear 8 1019 45 10000 2.6 220 16:40 07.11.2019
4615 Clear 9 1019 45 10000 2.6 220 16:20 07.11.2019
4616 Clouds 9 1018 42 10000 1.2 330 15:57 07.11.2019
4617 Clouds 9 1018 42 10000 1.2 330 15:57 07.11.2019
4618 Clouds 9 1018 42 10000 1.2 330 15:38 07.11.2019
4619 Clouds 11 1018 42 10000 1.2 330 15:19 07.11.2019
4620 Clouds 11 1018 42 10000 1.2 330 15:19 07.11.2019
4621 Clouds 11 1018 37 10000 1.2 330 14:45 07.11.2019
4622 Clouds 11 1018 37 10000 1.2 330 14:27 07.11.2019
4623 Clouds 13 1018 30 10000 1.5 0 13:57 07.11.2019
4624 Clouds 13 1018 30 10000 1.5 0 13:38 07.11.2019
4625 Clouds 13 1018 30 10000 1.5 0 13:20 07.11.2019
4626 Clouds 13 1018 30 10000 1.5 0 12:58 07.11.2019
4627 Clouds 13 1018 30 10000 1.5 0 12:40 07.11.2019
4628 Clouds 13 1018 30 10000 1.5 0 12:21 07.11.2019
4629 Clouds 13 1018 27 10000 1 0 11:45 07.11.2019
4630 -273 0 0 0 0 0 11:24 07.11.2019
4631 Clouds 13 1018 30 10000 0.5 0 10:59 07.11.2019
4632 Clouds 13 1018 30 10000 0.5 0 10:40 07.11.2019
4633 Clouds 13 1018 30 10000 0.5 0 10:19 07.11.2019
4634 Clouds 12 1019 29 10000 1.5 0 09:43 07.11.2019
4635 Clouds 12 1019 29 10000 1.5 0 09:22 07.11.2019
4636 Clouds 11 1020 34 10000 1 0 08:57 07.11.2019
4637 Clouds 11 1020 34 10000 1 0 08:55 07.11.2019
4638 Clouds 11 1020 34 10000 1 0 08:37 07.11.2019
4639 Clouds 11 1020 34 10000 1 0 08:18 07.11.2019
4640 Clouds 10 1020 39 10000 1 0 07:41 07.11.2019
4641 Clouds 10 1020 39 10000 1 0 07:21 07.11.2019
4642 Clouds 10 1020 39 10000 1 0 07:21 07.11.2019
4643 Clouds 9 1020 42 10000 1.49 114 06:48 07.11.2019
4644 Clouds 9 1020 42 10000 1.49 114 06:47 07.11.2019
4645 Clouds 9 1020 42 10000 1.49 114 06:27 07.11.2019
4646 Clouds 7 1019 52 10000 1.49 114 05:51 07.11.2019
4647 Clouds 7 1019 52 10000 1.49 114 05:33 07.11.2019
4648 -273 0 0 0 0 0 04:54 07.11.2019
4649 Clouds 5 1018 56 10000 0.5 0 04:52 07.11.2019
4650 Clouds 5 1018 56 10000 0.5 0 04:31 07.11.2019
4651 Clouds 3 1017 69 10000 1.5 130 01:54 07.11.2019
4652 Clouds 4 1016 64 10000 1.5 120 00:46 07.11.2019
4653 Clouds 4 1016 64 10000 1.5 120 00:19 07.11.2019
4654 Clouds 4 1016 55 10000 1 20 23:47 06.11.2019
4655 Clouds 4 1016 55 10000 1 20 23:21 06.11.2019
4656 Clouds 5 1016 44 10000 1 290 22:55 06.11.2019
4657 Clouds 5 1016 44 10000 1 290 22:37 06.11.2019
4658 Clouds 5 1016 44 10000 1 290 22:18 06.11.2019
4659 Clouds 6 1016 44 10000 1.5 310 21:42 06.11.2019
4660 Clouds 6 1016 44 10000 1.5 310 21:20 06.11.2019
4661 Clouds 7 1016 38 10000 1.5 270 20:58 06.11.2019
4662 Clouds 7 1016 38 10000 1.5 270 20:40 06.11.2019
4663 Clear 7 1016 38 10000 1.5 270 20:21 06.11.2019
4664 Clear 8 1017 26 10000 6.2 40 19:58 06.11.2019
4665 Clear 8 1017 26 10000 6.2 40 19:39 06.11.2019
4666 Clear 8 1017 26 10000 6.2 40 19:21 06.11.2019
4667 Clear 9 1016 26 10000 7.2 30 18:57 06.11.2019
4668 Clear 9 1016 26 10000 7.2 30 18:38 06.11.2019
4669 Clear 9 1016 26 10000 7.2 30 18:18 06.11.2019
4670 Clear 9 1016 24 10000 5.1 20 17:54 06.11.2019
4671 Clear 9 1016 24 10000 5.1 20 17:36 06.11.2019
4672 Clear 9 1016 24 10000 5.1 20 17:18 06.11.2019
4673 Clear 9 1015 26 10000 7.2 20 16:54 06.11.2019
4674 Clear 9 1015 26 10000 7.2 20 16:36 06.11.2019
4675 Clear 9 1015 26 10000 7.2 20 16:18 06.11.2019
4676 Clear 10 1015 26 10000 5.7 20 15:54 06.11.2019
4677 Clear 10 1015 26 10000 5.7 20 15:36 06.11.2019
4678 Clear 10 1015 26 10000 5.7 20 15:18 06.11.2019
4679 Clouds 11 1015 27 10000 7.7 30 14:54 06.11.2019
4680 Clouds 11 1015 27 10000 7.7 30 14:36 06.11.2019
4681 Clouds 11 1015 27 10000 7.7 30 14:18 06.11.2019
4682 Clouds 12 1014 43 10000 2.6 300 13:38 06.11.2019
4683 Clouds 12 1014 43 10000 2.6 300 13:38 06.11.2019
4684 Clouds 12 1014 43 10000 2.6 300 13:20 06.11.2019
4685 Clouds 13 1014 37 10000 1 0 12:55 06.11.2019
4686 Clouds 13 1014 37 10000 1 0 12:37 06.11.2019
4687 Clouds 13 1014 37 10000 1 0 12:19 06.11.2019
4688 Thunderstorm 12 1015 24 10000 7.7 50 11:57 06.11.2019
4689 Thunderstorm 12 1015 24 10000 7.7 50 11:36 06.11.2019
4690 Thunderstorm 13 1015 27 10000 7.7 50 11:18 06.11.2019
4691 Thunderstorm 12 1015 61 10000 5.1 360 10:55 06.11.2019
4692 Thunderstorm 12 1015 61 10000 5.1 360 10:37 06.11.2019
4693 Clouds 13 1014 43 10000 5.1 310 10:19 06.11.2019
4694 Clouds 13 1014 43 10000 5.1 310 10:19 06.11.2019
4695 Rain 15 1015 40 10000 1.5 0 09:42 06.11.2019
4696 Rain 15 1015 40 10000 1.5 0 09:21 06.11.2019
4697 Clouds 14 1015 50 10000 1.5 0 08:56 06.11.2019
4698 Clouds 14 1015 50 10000 1.5 0 08:38 06.11.2019
4699 Clouds 14 1015 50 10000 1.5 0 08:19 06.11.2019
4700 Clouds 14 1013 17 10000 6.7 310 07:47 06.11.2019
4701 Clouds 14 1016 46 10000 1.5 0 07:29 06.11.2019
4702 Clouds 13 1014 18 10000 5.7 330 06:59 06.11.2019
4703 Clouds 14 1016 54 10000 1.5 0 06:38 06.11.2019
4704 Clouds 14 1016 54 10000 1.5 0 06:20 06.11.2019
4705 Clouds 7 1015 87 10000 2.6 330 03:52 06.11.2019
4706 Clouds 8 1015 81 10000 2.1 330 02:18 06.11.2019
4707 Clouds 9 1015 75 10000 1 250 00:51 06.11.2019
4708 Clouds 9 1015 75 10000 1 250 00:26 06.11.2019
4709 Clouds 10 1016 75 10000 2.6 270 23:56 05.11.2019
4710 Clouds 10 1016 75 10000 2.6 270 23:37 05.11.2019
4711 Clouds 10 1016 75 10000 2.6 270 23:37 05.11.2019
4712 Clouds 10 1016 75 10000 2.6 270 23:18 05.11.2019
4713 Rain 10 1017 81 10000 2.6 210 22:42 05.11.2019
4714 Rain 10 1017 81 10000 2.6 210 22:19 05.11.2019
4715 Rain 11 1017 61 10000 4.1 270 21:57 05.11.2019
4716 Rain 11 1017 61 10000 4.1 270 21:39 05.11.2019
4717 Rain 11 1017 61 10000 4.1 270 21:19 05.11.2019
4718 Rain 11 1018 53 10000 4.1 260 20:56 05.11.2019
4719 Rain 11 1018 53 10000 4.1 260 20:38 05.11.2019
4720 Rain 11 1018 53 10000 4.1 260 20:19 05.11.2019
4721 Rain 12 1018 50 10000 2.6 110 19:42 05.11.2019
4722 Rain 12 1018 50 10000 2.6 110 19:23 05.11.2019
4723 Clouds 12 1018 70 10000 2.6 320 18:59 05.11.2019
4724 Clouds 12 1018 70 10000 2.6 320 18:40 05.11.2019
4725 Clouds 12 1018 70 10000 2.6 320 18:22 05.11.2019
4726 Clouds 12 1018 40 10000 3.1 0 17:59 05.11.2019
4727 Clouds 12 1018 40 10000 3.1 0 17:39 05.11.2019
4728 Clouds 12 1018 40 10000 3.1 0 17:21 05.11.2019
4729 Clouds 13 1018 63 10000 3.1 20 16:58 05.11.2019
4730 Clouds 13 1018 63 10000 3.1 20 16:40 05.11.2019
4731 Clouds 13 1018 63 10000 3.1 20 16:20 05.11.2019
4732 Clouds 13 1018 63 10000 2.6 350 15:41 05.11.2019
4733 Clouds 13 1016 47 10000 6.2 330 15:20 05.11.2019
4734 Clouds 14 1018 63 10000 6.2 350 14:59 05.11.2019
4735 Clouds 14 1018 63 10000 6.2 350 14:41 05.11.2019
4736 Clouds 14 1018 54 10000 6.2 350 14:22 05.11.2019
4737 Clouds 15 1018 35 10000 5.1 340 13:58 05.11.2019
4738 Clouds 15 1018 35 10000 5.1 340 13:40 05.11.2019
4739 Clouds 15 1018 35 10000 5.1 340 13:22 05.11.2019
4740 Clouds 17 1018 26 10000 3.6 360 12:40 05.11.2019
4741 Clouds 17 1018 26 10000 3.6 360 12:22 05.11.2019
4742 Clouds 17 1019 25 10000 1.5 50 11:57 05.11.2019
4743 Clouds 17 1019 25 10000 1.5 50 11:38 05.11.2019
4744 Clouds 17 1019 25 10000 1.5 50 11:19 05.11.2019
4745 Clouds 18 1019 27 10000 1.5 0 10:48 05.11.2019
4746 Clouds 18 1019 27 10000 1.5 0 10:27 05.11.2019
4747 Clouds 19 1020 25 10000 2.1 0 09:59 05.11.2019
4748 Clouds 19 1020 25 10000 2.1 0 09:41 05.11.2019
4749 Clouds 19 1020 25 10000 2.1 0 09:21 05.11.2019
4750 Clouds 17 1021 31 10000 1.5 180 08:59 05.11.2019
4751 Clouds 17 1021 31 10000 1.5 180 08:59 05.11.2019
4752 Clouds 17 1021 31 10000 1.5 180 08:37 05.11.2019
4753 Clouds 17 1021 31 10000 1.5 180 08:19 05.11.2019
4754 Clouds 16 1022 31 10000 1.5 170 07:46 05.11.2019
4755 Clouds 16 1022 31 10000 1.5 170 07:26 05.11.2019
4756 Clouds 13 1023 31 8000 2.6 0 06:52 05.11.2019
4757 Clouds 13 1023 31 8000 2.6 0 06:33 05.11.2019
4758 Haze 12 1020 54 6000 1.47 141 05:49 05.11.2019
4759 Clouds 11 1023 57 9000 1.5 310 05:21 05.11.2019
4760 Clouds 7 1022 75 10000 1.5 0 04:22 05.11.2019
4761 Clouds 7 1022 70 10000 2.6 340 03:32 05.11.2019
4762 Clouds 5 1022 80 10000 2.1 340 02:43 05.11.2019
4763 Clouds 5 1022 75 10000 0.5 290 01:56 05.11.2019
4764 Clouds 8 1022 70 10000 1.5 80 00:48 05.11.2019
4765 Clouds 8 1022 70 10000 1.5 80 00:27 05.11.2019
4766 Clouds 7 1022 65 10000 1.5 0 23:43 04.11.2019
4767 Clouds 7 1022 65 10000 1.5 0 23:19 04.11.2019
4768 Clouds 8 1023 66 10000 1.5 250 22:57 04.11.2019
4769 Clouds 8 1023 66 10000 1.5 250 22:39 04.11.2019
4770 Clouds 8 1023 66 10000 1.5 250 22:20 04.11.2019
4771 Clouds 8 1023 66 10000 1 0 21:55 04.11.2019
4772 Clouds 8 1023 66 10000 1 0 21:37 04.11.2019
4773 Clouds 8 1023 66 10000 1 0 21:18 04.11.2019
4774 Clouds 7 1024 65 10000 1 0 20:55 04.11.2019
4775 Clouds 7 1024 65 10000 1 0 20:37 04.11.2019
4776 Clouds 7 1024 65 10000 1 0 20:19 04.11.2019
4777 Clouds 9 1024 61 10000 1.5 180 19:56 04.11.2019
4778 Clouds 9 1024 61 10000 1.5 180 19:38 04.11.2019
4779 Clouds 9 1024 61 10000 1.5 180 19:38 04.11.2019
4780 Clouds 9 1024 61 10000 1.5 180 19:20 04.11.2019
4781 Clouds 10 1024 50 10000 2.1 330 18:54 04.11.2019
4782 Clouds 10 1024 50 10000 2.1 330 18:36 04.11.2019
4783 Clouds 10 1024 50 10000 2.1 330 18:18 04.11.2019
4784 Clouds 12 1024 51 10000 2.6 260 17:38 04.11.2019
4785 Clouds 12 1024 46 10000 2.6 260 17:19 04.11.2019
4786 Clouds 12 1024 37 10000 3.1 320 16:55 04.11.2019
4787 Clouds 12 1024 37 10000 3.1 320 16:55 04.11.2019
4788 Clouds 12 1024 37 10000 3.1 320 16:36 04.11.2019
4789 Clouds 12 1024 37 10000 3.1 320 16:18 04.11.2019
4790 Clouds 15 1024 35 10000 6.2 350 15:41 04.11.2019
4791 Clouds 15 1024 35 10000 6.2 350 15:21 04.11.2019
4792 Clouds 16 1023 29 10000 5.1 350 14:58 04.11.2019
4793 Clouds 16 1023 29 10000 5.1 350 14:40 04.11.2019
4794 Clouds 16 1023 29 10000 5.1 350 14:20 04.11.2019
4795 Clouds 16 1023 29 10000 5.1 350 14:20 04.11.2019
4796 Clouds 17 1023 26 10000 6.2 360 13:58 04.11.2019
4797 Clouds 17 1023 26 10000 6.2 360 13:58 04.11.2019
4798 Clouds 17 1023 26 10000 6.2 360 13:40 04.11.2019
4799 Clouds 17 1023 26 10000 6.2 360 13:21 04.11.2019
4800 Clouds 19 1023 23 10000 3.1 50 12:56 04.11.2019
4801 Clouds 19 1023 23 10000 3.1 50 12:38 04.11.2019
4802 Clouds 19 1023 23 10000 3.1 50 12:18 04.11.2019
4803 Clouds 19 1024 23 10000 3.6 50 11:43 04.11.2019
4804 Clouds 19 1024 23 10000 3.6 50 11:23 04.11.2019
4805 Clouds 20 1024 22 10000 1.5 0 10:59 04.11.2019
4806 Clouds 20 1024 22 10000 1.5 0 10:41 04.11.2019
4807 Clouds 20 1024 22 10000 1.5 0 10:23 04.11.2019
4808 Clouds 19 1025 27 10000 2.6 90 09:45 04.11.2019
4809 Clouds 19 1025 27 10000 2.6 90 09:27 04.11.2019
4810 Clouds 18 1026 31 10000 4.1 190 08:57 04.11.2019
4811 Clouds 18 1026 31 10000 4.1 190 08:37 04.11.2019
4812 Clouds 18 1026 31 10000 4.1 190 08:18 04.11.2019
4813 Clear 17 1027 37 10000 5.7 210 07:43 04.11.2019
4814 Clear 17 1027 37 10000 5.7 210 07:21 04.11.2019
4815 Clear 16 1027 41 10000 1 0 06:56 04.11.2019
4816 Clear 16 1027 41 10000 1 0 06:18 04.11.2019
4817 Clear 11 1026 54 10000 2.6 320 05:46 04.11.2019
4818 Clear 9 1026 61 10000 1 0 04:43 04.11.2019
4819 Clear 9 1026 61 10000 1 0 04:21 04.11.2019
4820 Clear 8 1025 70 10000 3.6 340 02:25 04.11.2019
4821 Clear 8 1024 70 10000 2.1 310 01:21 04.11.2019
4822 Clear 8 1024 70 10000 2.6 330 00:40 04.11.2019
4823 Clear 8 1024 70 10000 2.6 330 00:20 04.11.2019
4824 Clear 8 1025 87 10000 2.1 320 23:41 03.11.2019
4825 Clear 8 1025 87 10000 2.1 320 23:21 03.11.2019
4826 Clear 8 1025 87 10000 2.1 320 23:21 03.11.2019
4827 Clear 9 1025 87 6000 0.63 17 22:57 03.11.2019
4828 Clear 9 1025 87 6000 0.63 17 22:39 03.11.2019
4829 Clear 9 1025 87 6000 0.63 17 22:20 03.11.2019
4830 Clear 9 1025 87 6000 0.63 17 22:20 03.11.2019
4831 Mist 9 1025 81 5000 1.5 0 21:56 03.11.2019
4832 Mist 9 1025 81 5000 1.5 0 21:38 03.11.2019
4833 Mist 9 1025 81 5000 1.5 0 21:19 03.11.2019
4834 Haze 9 1022 81 6000 0.63 17 20:54 03.11.2019
4835 Mist 10 1025 81 5000 1.5 310 20:36 03.11.2019
4836 Mist 10 1025 81 5000 1.5 310 20:18 03.11.2019
4837 Mist 11 1025 76 5000 1.5 210 19:54 03.11.2019
4838 Mist 11 1025 76 5000 1.5 210 19:36 03.11.2019
4839 Mist 11 1025 76 5000 1.5 210 19:18 03.11.2019
4840 Clouds 11 1025 66 6000 0.5 0 18:38 03.11.2019
4841 Clouds 11 1025 66 6000 0.5 0 18:18 03.11.2019
4842 Clouds 11 1025 66 6000 0.5 0 18:18 03.11.2019
4843 Clouds 11 1025 76 6000 1.5 160 17:57 03.11.2019
4844 Clouds 11 1025 76 6000 1.5 160 17:39 03.11.2019
4845 Clouds 11 1025 76 6000 1.5 160 17:18 03.11.2019
4846 Clouds 13 1025 62 7000 0.5 313 16:54 03.11.2019
4847 Clouds 13 1025 62 7000 0.5 313 16:36 03.11.2019
4848 Clouds 13 1025 62 7000 0.5 313 16:18 03.11.2019
4849 Clear 14 1024 54 9000 1 0 15:45 03.11.2019
4850 Clear 14 1024 54 9000 1 0 15:25 03.11.2019
4851 Clouds 15 1024 54 9000 2.1 70 14:58 03.11.2019
4852 Clouds 15 1024 54 9000 2.1 70 14:39 03.11.2019
4853 Clouds 15 1024 54 9000 2.1 70 14:18 03.11.2019
4854 Clouds 17 1024 47 9000 2.6 90 13:54 03.11.2019
4855 Clouds 17 1024 47 9000 2.6 90 13:36 03.11.2019
4856 Clouds 17 1024 47 9000 2.6 90 13:18 03.11.2019
4857 Clouds 19 1023 31 9000 2.6 310 12:37 03.11.2019
4858 Clouds 19 1023 31 9000 2.6 310 12:19 03.11.2019
4859 Clouds 17 1024 44 9000 2.6 50 11:54 03.11.2019
4860 Clouds 17 1024 44 9000 2.6 50 11:36 03.11.2019
4861 Clouds 17 1024 44 9000 2.6 50 11:18 03.11.2019
4862 Clouds 17 1024 44 9000 1.5 0 10:40 03.11.2019
4863 Clouds 17 1024 44 9000 1.5 0 10:22 03.11.2019
4864 Clouds 18 1025 39 9000 1.5 0 09:57 03.11.2019
4865 Clouds 18 1025 39 9000 1.5 0 09:39 03.11.2019
4866 Clouds 18 1025 39 9000 1.5 0 09:21 03.11.2019
4867 Clouds 17 1026 48 9000 2.1 0 08:41 03.11.2019
4868 Clouds 17 1026 48 9000 2.1 0 08:22 03.11.2019
4869 Clouds 15 1027 51 9000 1 0 07:46 03.11.2019
4870 Clouds 15 1027 51 9000 1 0 07:28 03.11.2019
4871 Clouds 15 1027 54 10000 1.5 0 06:50 03.11.2019
4872 Clouds 15 1027 54 10000 1.5 0 06:31 03.11.2019
4873 Clouds 13 1027 66 10000 1.5 0 05:39 03.11.2019
4874 Clouds 10 1027 76 10000 2.1 270 04:58 03.11.2019
4875 Clouds 10 1027 76 10000 2.1 270 04:36 03.11.2019
4876 Rain 9 1026 71 10000 1.5 0 03:31 03.11.2019
4877 Rain 8 1025 81 10000 2.1 280 02:42 03.11.2019
4878 Rain 8 1025 81 10000 2.1 280 02:19 03.11.2019
4879 Clouds 9 1025 87 8000 1 0 01:38 03.11.2019
4880 Clouds 9 1025 87 8000 1 0 01:20 03.11.2019
4881 Clouds 10 1025 81 8000 1.5 0 00:43 03.11.2019
4882 Clouds 10 1025 81 8000 1.5 0 00:25 03.11.2019
4883 Clouds 9 1025 81 7000 1 0 23:58 02.11.2019
4884 Clouds 9 1025 81 7000 1 0 23:38 02.11.2019
4885 Clouds 9 1025 81 7000 1 0 23:19 02.11.2019
4886 Clouds 9 1025 81 7000 1 0 23:19 02.11.2019
4887 Rain 10 1025 81 8000 1 0 22:55 02.11.2019
4888 Rain 10 1025 81 8000 1 0 22:37 02.11.2019
4889 Rain 10 1025 81 8000 1 0 22:18 02.11.2019
4890 Clouds 9 1023 93 10000 2.03 17 21:56 02.11.2019
4891 Clouds 9 1023 93 10000 2.03 17 21:37 02.11.2019
4892 Clouds 9 1023 93 10000 2.03 17 21:37 02.11.2019
4893 Clouds 9 1023 93 10000 2.03 17 21:18 02.11.2019
4894 Clouds 10 1025 87 9000 1 0 20:58 02.11.2019
4895 Clouds 10 1025 87 9000 1 0 20:39 02.11.2019
4896 Clouds 10 1025 87 9000 1 0 20:39 02.11.2019
4897 Clouds 10 1025 87 9000 1 0 20:39 02.11.2019
4898 Clouds 10 1025 87 9000 1 0 20:19 02.11.2019
4899 Clouds 11 1025 81 10000 0.5 0 19:41 02.11.2019
4900 Clouds 11 1025 81 10000 0.5 0 19:23 02.11.2019
4901 Clouds 12 1025 81 10000 1.5 220 18:56 02.11.2019
4902 Clouds 12 1025 81 10000 1.5 220 18:38 02.11.2019
4903 Clouds 12 1025 81 10000 1.5 220 18:20 02.11.2019
4904 Clouds 12 1025 76 10000 2.03 13 17:57 02.11.2019
4905 Clouds 12 1025 76 10000 2.03 13 17:38 02.11.2019
4906 Clouds 12 1025 76 10000 2.1 21 17:20 02.11.2019
4907 Clouds 14 1025 66 10000 2.1 21 16:57 02.11.2019
4908 Clouds 14 1025 66 10000 2.1 21 16:36 02.11.2019
4909 Clouds 14 1025 66 10000 2.1 21 16:18 02.11.2019
4910 Clouds 14 1024 58 10000 1 0 15:41 02.11.2019
4911 Clouds 14 1024 58 10000 1 0 15:19 02.11.2019
4912 Clouds 15 1023 58 10000 2.1 350 14:43 02.11.2019
4913 Clouds 15 1023 58 10000 2.1 350 14:23 02.11.2019
4914 Haze 15 1020 51 400 2.27 40 13:57 02.11.2019
4915 Clouds 16 1023 54 10000 4.1 340 13:38 02.11.2019
4916 Clouds 16 1023 54 10000 4.1 340 13:19 02.11.2019
4917 Clouds 16 1023 51 10000 4.1 360 12:41 02.11.2019
4918 Clouds 16 1023 51 10000 4.1 360 12:23 02.11.2019
4919 Clouds 16 1023 54 10000 2.1 0 11:58 02.11.2019
4920 Clouds 16 1023 54 10000 2.1 0 11:39 02.11.2019
4921 Clouds 16 1023 54 10000 2.1 0 11:21 02.11.2019
4922 Clouds 17 1023 51 9000 1.5 0 10:50 02.11.2019
4923 Clouds 17 1023 51 9000 1.5 0 10:28 02.11.2019
4924 Clouds 16 1024 54 9000 1.5 0 09:58 02.11.2019
4925 Clouds 16 1024 54 9000 1.5 0 09:39 02.11.2019
4926 Clouds 16 1024 54 9000 1.5 0 09:19 02.11.2019
4927 Clouds 16 1024 54 9000 1.5 0 09:19 02.11.2019
4928 Clouds 15 1025 62 10000 1.5 0 08:45 02.11.2019
4929 Clouds 15 1025 62 10000 1.5 0 08:45 02.11.2019
4930 Clouds 15 1025 62 10000 1.5 0 08:22 02.11.2019
4931 Clouds 14 1025 62 10000 2.1 140 07:48 02.11.2019
4932 Clouds 14 1025 62 10000 2.1 140 07:28 02.11.2019
4933 Clouds 13 1025 76 10000 2.1 0 06:55 02.11.2019
4934 Clouds 13 1025 76 10000 2.1 0 06:30 02.11.2019
4935 Mist 11 1025 87 7000 1.5 80 05:56 02.11.2019
4936 Mist 11 1025 87 7000 1.5 80 05:20 02.11.2019
4937 Mist 9 1025 93 4000 1 70 04:21 02.11.2019
4938 Mist 9 1025 93 4000 1 70 04:21 02.11.2019
4939 Mist 8 1024 93 4000 1 0 03:47 02.11.2019
4940 Clouds 9 1024 93 10000 1 40 02:40 02.11.2019
4941 Clouds 9 1023 93 8000 3.6 350 01:43 02.11.2019
4942 Clouds 9 1023 93 8000 3.6 350 01:21 02.11.2019
4943 Clouds 9 1022 87 10000 1.21 29 00:48 02.11.2019
4944 Rain 10 1024 93 8000 3.6 350 00:26 02.11.2019
4945 Clouds 10 1024 93 8000 1 0 23:46 01.11.2019
4946 Clouds 10 1024 93 8000 1 0 23:22 01.11.2019
4947 Clouds 10 1023 93 8000 2.1 120 22:57 01.11.2019
4948 Clouds 10 1023 93 8000 2.1 120 22:39 01.11.2019
4949 Clouds 10 1023 93 8000 2.1 120 22:20 01.11.2019
4950 Rain 10 1024 87 9000 1 0 21:41 01.11.2019
4951 Rain 10 1024 87 9000 1 0 21:23 01.11.2019
4952 Rain 11 1024 87 8000 1 140 20:56 01.11.2019
4953 Rain 11 1024 87 8000 1 140 20:38 01.11.2019
4954 Rain 11 1024 87 8000 1 140 20:19 01.11.2019
4955 Rain 11 1024 87 8000 2.1 110 19:55 01.11.2019
4956 Rain 11 1024 87 8000 2.1 110 19:36 01.11.2019
4957 Rain 11 1024 87 8000 2.1 110 19:18 01.11.2019
4958 Rain 11 1024 87 10000 0.5 210 18:39 01.11.2019
4959 Rain 11 1024 87 10000 0.5 210 18:20 01.11.2019
4960 Clouds 11 1023 81 10000 1.5 50 17:55 01.11.2019
4961 Clouds 11 1023 81 10000 1.5 50 17:36 01.11.2019
4962 Clouds 11 1023 81 10000 1.5 50 17:18 01.11.2019
4963 Rain 11 1023 81 10000 3.1 310 16:37 01.11.2019
4964 Rain 11 1023 81 10000 3.1 310 16:18 01.11.2019
4965 Rain 11 1023 81 10000 3.1 310 16:18 01.11.2019
4966 Rain 11 1023 81 10000 5.1 350 15:41 01.11.2019
4967 Rain 12 1021 87 9000 2.6 220 15:22 01.11.2019
4968 Rain 12 1020 82 9000 3.6 300 14:58 01.11.2019
4969 Rain 13 1022 71 10000 4.1 350 14:40 01.11.2019
4970 Rain 13 1022 71 10000 4.1 350 14:21 01.11.2019
4971 Rain 14 1022 71 10000 4.1 10 13:56 01.11.2019
4972 Rain 14 1022 71 10000 4.1 10 13:37 01.11.2019
4973 Rain 14 1022 71 10000 4.1 10 13:18 01.11.2019
4974 Rain 14 1022 71 10000 5.7 350 12:43 01.11.2019
4975 Rain 14 1022 71 10000 5.7 350 12:24 01.11.2019
4976 Clouds 14 1022 71 10000 3.6 10 11:43 01.11.2019
4977 Clouds 14 1022 71 10000 3.6 10 11:43 01.11.2019
4978 Clouds 15 1020 54 10000 1.5 20 11:25 01.11.2019
4979 Clouds 14 1020 54 10000 1.5 350 10:58 01.11.2019
4980 Clouds 14 1022 66 10000 4.1 50 10:39 01.11.2019
4981 Clouds 14 1022 66 10000 4.1 50 10:20 01.11.2019
4982 Clouds 14 1023 71 9000 3.6 80 09:56 01.11.2019
4983 Clouds 14 1023 71 9000 3.6 80 09:36 01.11.2019
4984 Clouds 14 1023 71 9000 3.6 80 09:18 01.11.2019
4985 Clouds 13 1024 71 9000 1.5 0 08:42 01.11.2019
4986 Clouds 13 1024 71 9000 1.5 0 08:21 01.11.2019
4987 Clouds 12 1024 76 9000 1.5 70 07:53 01.11.2019
4988 Clouds 12 1024 76 9000 1.5 70 07:25 01.11.2019
4989 Clouds 10 1025 81 9000 1.5 80 06:56 01.11.2019
4990 Clouds 10 1025 81 9000 1.5 80 06:37 01.11.2019
4991 Clouds 10 1025 81 9000 1.5 80 06:18 01.11.2019
4992 Clouds 10 1025 81 9000 1.5 80 06:18 01.11.2019
4993 Rain 10 1024 87 9000 1.5 100 05:41 01.11.2019
4994 Rain 9 1023 93 6000 1.5 80 03:33 01.11.2019
4995 Rain 9 1023 100 6000 1 0 01:51 01.11.2019
4996 Rain 9 1023 100 6000 1 0 01:26 01.11.2019
4997 Rain 9 1023 93 6000 2.6 330 00:21 01.11.2019
4998 Rain 9 1023 100 6000 1 250 23:55 31.10.2019
4999 Rain 9 1023 100 6000 1 250 23:36 31.10.2019
5000 Rain 9 1023 100 6000 1 250 23:18 31.10.2019
5001 Rain 9 1024 100 8000 1.5 80 22:42 31.10.2019
5002 Rain 9 1024 100 8000 1.5 80 22:23 31.10.2019
5003 Rain 10 1024 93 8000 2.1 330 21:57 31.10.2019
5004 Rain 10 1024 93 8000 2.1 330 21:39 31.10.2019
5005 Rain 10 1024 93 8000 2.1 330 21:18 31.10.2019
5006 Rain 10 1024 87 8000 2.1 280 20:41 31.10.2019
5007 Rain 10 1024 87 8000 2.1 280 20:22 31.10.2019
5008 Rain 10 1022 81 8000 2.21 350 19:58 31.10.2019
5009 Rain 11 1025 87 9000 0.5 0 19:38 31.10.2019
5010 Rain 11 1025 87 9000 0.5 0 19:19 31.10.2019
5011 Clouds 11 1025 76 10000 1 0 18:44 31.10.2019
5012 Clouds 11 1025 76 10000 1 0 18:25 31.10.2019
5013 Clouds 11 1025 76 10000 1 240 17:58 31.10.2019
5014 Clouds 11 1025 76 10000 1 240 17:40 31.10.2019
5015 Clouds 11 1025 76 10000 1 240 17:20 31.10.2019
5016 Clouds 11 1025 71 10000 3.6 320 16:54 31.10.2019
5017 Clouds 11 1025 71 10000 3.6 320 16:36 31.10.2019
5018 Clouds 11 1025 71 10000 3.6 320 16:18 31.10.2019
5019 Clouds 11 1025 76 10000 3.1 330 15:40 31.10.2019
5020 Clouds 11 1023 71 10000 1.02 67 15:21 31.10.2019
5021 Clouds 12 1024 66 10000 5.1 340 14:58 31.10.2019
5022 Clouds 12 1024 66 10000 5.1 340 14:40 31.10.2019
5023 Rain 11 1023 76 9000 3.1 360 14:22 31.10.2019
5024 Rain 11 1023 76 9000 3.1 360 14:22 31.10.2019
5025 Clouds 11 1025 76 10000 5.7 350 13:59 31.10.2019
5026 Clouds 11 1025 76 10000 5.7 350 13:38 31.10.2019
5027 Clouds 11 1025 76 10000 5.7 350 13:19 31.10.2019
5028 Rain 12 1023 58 9000 5.7 210 12:55 31.10.2019
5029 Rain 13 1025 81 10000 4.6 330 12:37 31.10.2019
5030 Rain 13 1025 81 10000 4.6 330 12:18 31.10.2019
5031 Rain 16 1025 58 9000 5.7 230 11:45 31.10.2019
5032 Rain 16 1025 58 9000 5.7 230 11:20 31.10.2019
5033 Dust 17 1023 38 6000 6.2 210 10:57 31.10.2019
5034 Dust 17 1023 38 6000 6.2 210 10:57 31.10.2019
5035 Dust 17 1023 38 6000 6.2 210 10:38 31.10.2019
5036 Dust 17 1023 38 6000 6.2 210 10:20 31.10.2019
5037 Clouds 17 1024 36 6000 1 0 09:45 31.10.2019
5038 Clouds 17 1024 36 6000 1 0 09:20 31.10.2019
5039 Clouds 17 1024 38 6000 2.1 190 08:57 31.10.2019
5040 Clouds 17 1024 38 6000 2.1 190 08:39 31.10.2019
5041 Haze 17 1022 45 6000 2.1 10 08:20 31.10.2019
5042 Clouds 16 1025 36 8000 1 0 07:45 31.10.2019
5043 Clouds 16 1025 36 8000 1 0 07:24 31.10.2019
5044 Clouds 15 1025 36 8000 1.5 0 06:50 31.10.2019
5045 Clouds 15 1025 36 8000 1.5 0 06:30 31.10.2019
5046 Clouds 11 1025 50 9000 2.1 290 05:18 31.10.2019
5047 Clear 7 1023 81 10000 2.6 340 02:47 31.10.2019
5048 Clear 7 1023 81 10000 2.6 340 02:22 31.10.2019
5049 Clear 8 1023 76 9000 0.19 207 00:48 31.10.2019
5050 Clear 8 1023 76 9000 0.19 207 00:24 31.10.2019
5051 Clear 9 1023 71 9000 1.5 340 23:40 30.10.2019
5052 Clear 9 1023 71 9000 1.5 340 23:22 30.10.2019
5053 Clear 10 1023 76 7000 0.5 0 22:41 30.10.2019
5054 Clear 10 1023 76 7000 0.5 0 22:19 30.10.2019
5055 Clear 10 1023 76 7000 0.5 0 21:54 30.10.2019
5056 Clear 10 1023 76 7000 0.5 0 21:36 30.10.2019
5057 Clear 10 1023 76 7000 0.5 0 21:18 30.10.2019
5058 Clear 10 1023 76 7000 0.5 0 21:18 30.10.2019
5059 Clear 10 1023 76 7000 0.5 0 21:18 30.10.2019
5060 Clear 11 1023 71 7000 1 0 20:56 30.10.2019
5061 Clear 11 1023 71 7000 1 0 20:56 30.10.2019
5062 Clear 11 1023 71 7000 1 0 20:36 30.10.2019
5063 Clear 11 1023 71 7000 1 0 20:36 30.10.2019
5064 Clouds 11 1023 71 7000 1 0 20:18 30.10.2019
5065 Clouds 11 1023 71 7000 1 0 20:18 30.10.2019
5066 Clouds 11 1023 66 7000 1 0 19:40 30.10.2019
5067 Clouds 11 1023 66 7000 1 0 19:40 30.10.2019
5068 Clouds 11 1023 66 7000 1 0 19:22 30.10.2019
5069 Clouds 13 1023 62 7000 0.82 28 18:59 30.10.2019
5070 Clouds 13 1023 62 7000 0.82 28 18:38 30.10.2019
5071 Clouds 13 1023 62 7000 0.82 28 18:18 30.10.2019
5072 Clouds 12 1023 62 8000 0.82 28 17:55 30.10.2019
5073 Clouds 12 1023 62 8000 0.82 28 17:36 30.10.2019
5074 Clouds 12 1023 62 8000 1.63 27 17:18 30.10.2019
5075 Clouds 13 1023 54 10000 1 0 16:42 30.10.2019
5076 Clouds 13 1023 54 10000 1 0 16:23 30.10.2019
5077 Clouds 15 1022 48 10000 4.1 350 15:57 30.10.2019
5078 Clouds 15 1022 48 10000 4.1 350 15:38 30.10.2019
5079 Clouds 15 1022 48 10000 4.1 350 15:19 30.10.2019
5080 Clouds 15 1022 48 10000 4.1 350 15:19 30.10.2019
5081 Clouds 16 1022 48 10000 4.6 350 14:57 30.10.2019
5082 Clouds 16 1022 48 10000 4.6 350 14:39 30.10.2019
5083 Clouds 18 1022 48 10000 4.6 350 14:21 30.10.2019
5084 Clouds 19 1021 42 10000 5.1 360 13:54 30.10.2019
5085 Clouds 19 1021 42 10000 5.1 360 13:36 30.10.2019
5086 Clouds 19 1021 42 10000 5.1 360 13:18 30.10.2019
5087 Clouds 20 1021 37 10000 4.1 360 12:43 30.10.2019
5088 Clouds 20 1021 37 10000 4.1 360 12:25 30.10.2019
5089 Clouds 21 1022 34 10000 1 0 11:56 30.10.2019
5090 Clouds 21 1022 34 10000 1 0 11:56 30.10.2019
5091 Clouds 21 1022 34 10000 1 0 11:38 30.10.2019
5092 Clouds 21 1022 34 10000 1 0 11:18 30.10.2019
5093 Clouds 20 1022 34 10000 1.5 0 10:42 30.10.2019
5094 Clouds 20 1022 34 10000 1.5 0 10:23 30.10.2019
5095 Rain 18 1023 42 10000 4.1 270 09:42 30.10.2019
5096 Rain 18 1023 42 10000 4.1 270 09:23 30.10.2019
5097 Rain 18 1024 42 10000 3.6 290 08:57 30.10.2019
5098 Rain 18 1024 42 10000 3.6 290 08:39 30.10.2019
5099 Rain 18 1024 42 10000 3.6 290 08:19 30.10.2019
5100 Clouds 16 1025 45 8000 2.1 100 07:43 30.10.2019
5101 Rain 15 1025 51 9000 2.6 20 06:59 30.10.2019
5102 Rain 15 1025 51 9000 2.6 20 06:41 30.10.2019
5103 Haze 14 1025 51 6000 1 290 05:58 30.10.2019
5104 Haze 14 1025 51 6000 1 290 05:40 30.10.2019
5105 Clouds 11 1024 71 10000 1.5 80 04:26 30.10.2019
5106 Haze 10 1022 76 4000 2.6 360 03:43 30.10.2019
5107 Rain 10 1023 76 10000 1.5 120 02:50 30.10.2019
5108 Rain 10 1024 76 10000 1.5 150 01:51 30.10.2019
5109 Rain 10 1024 71 10000 1 130 00:49 30.10.2019
5110 Rain 10 1024 71 10000 1 130 00:28 30.10.2019
5111 Clouds 9 1024 71 10000 1.5 140 23:41 29.10.2019
5112 Clouds 9 1024 71 10000 1.5 140 23:22 29.10.2019
5113 Clouds 10 1024 66 10000 1.5 40 22:45 29.10.2019
5114 Clouds 10 1024 66 10000 1.5 40 22:20 29.10.2019
5115 Clouds 11 1025 62 10000 1 20 21:56 29.10.2019
5116 Clouds 11 1025 62 10000 1 20 21:38 29.10.2019
5117 Clouds 11 1025 62 10000 1 20 21:20 29.10.2019
5118 Clouds 13 1025 54 10000 2.1 360 20:42 29.10.2019
5119 Clouds 13 1025 54 10000 2.1 360 20:23 29.10.2019
5120 Clouds 14 1025 54 10000 2.6 0 19:59 29.10.2019
5121 Clouds 14 1025 54 10000 2.6 0 19:41 29.10.2019
5122 Clouds 14 1025 54 10000 2.6 0 19:22 29.10.2019
5123 Clouds 14 1025 51 10000 5.7 340 18:59 29.10.2019
5124 Clouds 14 1025 51 10000 5.7 340 18:40 29.10.2019
5125 Clouds 14 1025 51 10000 5.7 340 18:21 29.10.2019
5126 Clouds 16 1025 44 10000 5.1 350 17:59 29.10.2019
5127 Clouds 16 1025 44 10000 5.1 350 17:40 29.10.2019
5128 Clouds 16 1025 44 10000 5.1 350 17:21 29.10.2019
5129 Clouds 16 1025 44 10000 2.1 40 16:58 29.10.2019
5130 Clouds 16 1025 44 10000 2.1 40 16:38 29.10.2019
5131 Clouds 16 1025 44 10000 2.1 40 16:18 29.10.2019
5132 Clouds 17 1022 63 10000 3.1 20 15:42 29.10.2019
5133 Clouds 18 1024 42 10000 5.1 360 15:22 29.10.2019
5134 Clouds 18 1021 45 10000 1.75 301 14:59 29.10.2019
5135 Clouds 18 1023 39 10000 3.1 170 14:41 29.10.2019
5136 Clouds 18 1023 39 10000 3.1 170 14:23 29.10.2019
5137 Rain 19 1020 45 10000 3.6 310 13:58 29.10.2019
5138 Clouds 20 1023 34 10000 1.5 0 13:39 29.10.2019
5139 Clouds 20 1023 34 10000 1.5 0 13:21 29.10.2019
5140 Rain 20 1023 32 10000 2.6 170 12:43 29.10.2019
5141 Rain 20 1023 32 10000 2.6 170 12:43 29.10.2019
5142 Rain 20 1023 32 10000 2.6 170 12:25 29.10.2019
5143 Rain 20 1023 37 10000 4.1 320 11:55 29.10.2019
5144 Rain 20 1023 37 10000 4.1 320 11:37 29.10.2019
5145 Rain 20 1023 37 10000 4.1 320 11:18 29.10.2019
5146 Clouds 21 1024 32 10000 6.2 350 10:57 29.10.2019
5147 Clouds 21 1024 32 10000 6.2 350 10:38 29.10.2019
5148 Clouds 21 1024 32 10000 6.2 350 10:19 29.10.2019
5149 Clouds 21 1024 30 9000 2.1 60 09:42 29.10.2019
5150 Clouds 21 1024 30 9000 2.1 60 09:23 29.10.2019
5151 Clouds 20 1025 32 9000 1 0 08:57 29.10.2019
5152 Clouds 20 1025 32 9000 1 0 08:39 29.10.2019
5153 Clouds 20 1025 32 9000 1 0 08:20 29.10.2019
5154 Clouds 18 1026 37 8000 1.5 260 07:48 29.10.2019
5155 Clouds 18 1026 37 8000 1.5 260 07:20 29.10.2019
5156 Clouds 17 1026 48 9000 2.6 310 06:53 29.10.2019
5157 Clouds 17 1026 48 9000 2.6 310 06:29 29.10.2019
5158 Clouds 14 1026 54 9000 1.5 330 05:54 29.10.2019
5159 Clouds 14 1026 54 9000 1.5 330 05:36 29.10.2019
5160 Clouds 12 1025 66 9000 0.91 1 04:39 29.10.2019
5161 Clouds 10 1024 76 9000 0.91 1 02:34 29.10.2019
5162 Clouds 9 1024 71 9000 1 0 01:56 29.10.2019
5163 Clouds 9 1024 71 9000 1 0 01:35 29.10.2019
5164 Clouds 10 1024 66 9000 1 0 00:52 29.10.2019
5165 Clouds 10 1024 66 9000 1 0 00:24 29.10.2019
5166 Clouds 11 1024 62 9000 1 0 23:38 28.10.2019
5167 Clouds 11 1024 62 9000 1 0 23:20 28.10.2019
5168 Clouds 11 1024 62 9000 1 0 23:20 28.10.2019
5169 Clouds 12 1024 58 9000 1 310 22:39 28.10.2019
5170 Clouds 12 1024 58 9000 1 310 22:20 28.10.2019
5171 Clouds 14 1025 54 9000 1.5 360 21:58 28.10.2019
5172 Clouds 14 1025 54 9000 1.5 360 21:39 28.10.2019
5173 Clouds 14 1025 54 9000 1.5 360 21:21 28.10.2019
5174 Clouds 15 1025 54 10000 1.5 0 20:58 28.10.2019
5175 Clouds 15 1025 54 10000 1.5 0 20:39 28.10.2019
5176 Clouds 15 1025 54 10000 1.5 0 20:20 28.10.2019
5177 Clouds 15 1025 48 10000 1.5 0 19:54 28.10.2019
5178 Clouds 15 1025 48 10000 1.5 0 19:36 28.10.2019
5179 Clouds 15 1025 48 10000 1.5 0 19:36 28.10.2019
5180 Clouds 15 1025 48 10000 1.5 0 19:18 28.10.2019
5181 Clouds 16 1025 44 10000 2.6 350 18:56 28.10.2019
5182 Clouds 16 1025 44 10000 2.6 350 18:56 28.10.2019
5183 Clouds 16 1025 44 10000 2.6 350 18:38 28.10.2019
5184 Clouds 16 1025 44 10000 2.6 350 18:20 28.10.2019
5185 Clouds 16 1024 48 9000 2.1 250 17:55 28.10.2019
5186 Clouds 16 1024 48 9000 2.1 250 17:36 28.10.2019
5187 Clouds 16 1024 48 9000 2.1 250 17:18 28.10.2019
5188 Clouds 18 1024 42 10000 1.5 20 16:44 28.10.2019
5189 Clouds 18 1024 42 10000 1.5 20 16:24 28.10.2019
5190 Clouds 19 1023 42 10000 6.2 290 15:59 28.10.2019
5191 Clouds 19 1023 42 10000 6.2 290 15:40 28.10.2019
5192 Clouds 19 1023 42 10000 6.2 290 15:22 28.10.2019
5193 Clouds 19 1023 29 10000 3.6 350 14:58 28.10.2019
5194 Clouds 19 1023 29 10000 3.6 350 14:40 28.10.2019
5195 Clouds 19 1023 29 10000 3.6 350 14:19 28.10.2019
5196 Clouds 20 1022 28 10000 3.6 350 13:58 28.10.2019
5197 Clouds 20 1022 28 10000 3.6 350 13:40 28.10.2019
5198 Clouds 21 1022 28 10000 3.6 350 13:18 28.10.2019
5199 Clouds 22 1022 26 10000 3.6 350 12:43 28.10.2019
5200 Clouds 22 1022 26 10000 3.6 350 12:21 28.10.2019
5201 Clouds 22 1019 26 10000 2.1 330 11:57 28.10.2019
5202 Clouds 22 1022 26 10000 2.1 0 11:37 28.10.2019
5203 Clouds 22 1022 26 10000 2.1 0 11:18 28.10.2019
5204 Clouds 22 1023 24 10000 1.5 0 10:40 28.10.2019
5205 Clouds 22 1023 24 10000 1.5 0 10:21 28.10.2019
5206 Clouds 21 1024 29 10000 1.5 0 09:57 28.10.2019
5207 Clouds 21 1024 29 10000 1.5 0 09:39 28.10.2019
5208 Clouds 21 1024 29 10000 1.5 0 09:19 28.10.2019
5209 Clouds 20 1025 29 8000 1.5 0 08:57 28.10.2019
5210 Clouds 20 1025 29 8000 1.5 0 08:57 28.10.2019
5211 Clouds 20 1025 29 8000 1.5 0 08:38 28.10.2019
5212 Clouds 20 1025 29 8000 1.5 0 08:38 28.10.2019
5213 Clouds 20 1025 29 8000 1.5 0 08:19 28.10.2019
5214 Haze 19 1023 34 6000 1.39 125 07:55 28.10.2019
5215 Haze 19 1023 34 6000 1.39 125 07:36 28.10.2019
5216 Haze 19 1023 34 6000 1.39 125 07:18 28.10.2019
5217 Haze 16 1023 44 4000 1.39 125 06:39 28.10.2019
5218 Haze 14 1026 44 7000 0.5 0 05:34 28.10.2019
5219 Clouds 9 1024 61 10000 1.5 320 03:45 28.10.2019
5220 Haze 8 1022 70 6000 0.47 267 02:46 28.10.2019
5221 Clouds 9 1024 75 7000 1.5 170 01:52 28.10.2019
5222 Clear 9 1023 70 7000 2.1 290 00:53 28.10.2019
5223 Clear 9 1023 70 7000 2.1 290 00:32 28.10.2019
5224 Clear 9 1023 66 7000 1.5 290 23:47 27.10.2019
5225 Clear 9 1023 66 7000 1.5 290 23:23 27.10.2019
5226 Clear 9 1024 66 7000 2.1 160 22:57 27.10.2019
5227 Clear 9 1024 66 7000 2.1 160 22:39 27.10.2019
5228 Clear 9 1024 66 7000 2.1 160 22:21 27.10.2019
5229 Clear 10 1024 62 7000 1.5 250 21:57 27.10.2019
5230 Clear 10 1024 62 7000 1.5 250 21:39 27.10.2019
5231 Clear 10 1024 62 7000 1.5 250 21:20 27.10.2019
5232 Clouds 11 1024 66 7000 1 180 20:55 27.10.2019
5233 Clear 11 1024 66 7000 1 180 20:37 27.10.2019
5234 Clear 11 1024 66 7000 1 180 20:19 27.10.2019
5235 Clear 11 1024 61 7000 1 150 19:40 27.10.2019
5236 Clear 11 1024 61 7000 1 150 19:21 27.10.2019
5237 Clear 10 1024 57 7000 1 330 18:58 27.10.2019
5238 Clear 10 1024 57 7000 1 330 18:39 27.10.2019
5239 Clear 10 1024 57 7000 1 330 18:21 27.10.2019
5240 Clear 12 1024 54 7000 1 0 17:57 27.10.2019
5241 Clear 12 1024 54 7000 1 0 17:38 27.10.2019
5242 Clear 12 1024 54 7000 1 0 17:19 27.10.2019
5243 Clear 14 1023 44 9000 1 0 16:56 27.10.2019
5244 Clear 14 1023 44 9000 1 0 16:56 27.10.2019
5245 Clear 14 1023 44 9000 1 0 16:38 27.10.2019
5246 Clear 14 1023 44 9000 1 0 16:19 27.10.2019
5247 Clear 16 1023 41 10000 2.1 310 15:55 27.10.2019
5248 Clear 16 1023 41 10000 2.1 310 15:37 27.10.2019
5249 Clear 16 1023 41 10000 2.1 310 15:18 27.10.2019
5250 Clear 18 1022 36 10000 4.1 350 14:41 27.10.2019
5251 Clouds 18 1022 36 10000 4.1 350 14:20 27.10.2019
5252 Clouds 19 1022 34 10000 4.1 350 13:56 27.10.2019
5253 Clouds 19 1022 34 10000 4.1 350 13:37 27.10.2019
5254 Clouds 19 1022 34 10000 4.1 350 13:19 27.10.2019
5255 Clouds 19 1022 34 10000 4.1 350 13:19 27.10.2019
5256 Clouds 20 1022 29 10000 4.6 340 12:43 27.10.2019
5257 Clouds 20 1022 29 10000 4.6 340 12:24 27.10.2019
5258 Clouds 21 1022 28 10000 4.1 360 11:57 27.10.2019
5259 Clouds 21 1022 28 10000 4.1 360 11:38 27.10.2019
5260 Clouds 21 1022 28 10000 4.1 360 11:20 27.10.2019
5261 Clouds 21 1023 32 10000 4.6 10 10:43 27.10.2019
5262 Clouds 21 1023 32 10000 4.6 10 10:24 27.10.2019
5263 Clouds 20 1024 32 9000 1.5 0 09:45 27.10.2019
5264 Clouds 20 1024 32 9000 1.5 0 09:20 27.10.2019
5265 Clouds 18 1025 36 9000 1 20 08:59 27.10.2019
5266 Clouds 18 1025 36 9000 1 20 08:41 27.10.2019
5267 Clouds 18 1025 36 9000 1 20 08:20 27.10.2019
5268 Clouds 17 1026 38 9000 2.1 290 07:50 27.10.2019
5269 Clouds 17 1026 38 9000 2.1 290 07:29 27.10.2019
5270 Clouds 14 1026 44 7000 2.6 300 06:56 27.10.2019
5271 Clouds 14 1026 44 7000 2.6 300 06:38 27.10.2019
5272 Clouds 14 1026 44 7000 2.6 300 06:20 27.10.2019
5273 Clouds 13 1026 54 7000 1.5 310 05:38 27.10.2019
5274 Clouds 11 1025 66 8000 1 330 04:35 27.10.2019
5275 Clouds 10 1024 61 10000 1 0 02:46 27.10.2019
5276 Clouds 10 1024 53 10000 1 260 01:36 27.10.2019
5277 Clouds 10 1024 53 10000 1 260 01:18 27.10.2019
5278 Clouds 10 1024 57 10000 1 0 00:42 27.10.2019
5279 Clouds 10 1024 57 10000 1.29 7 23:59 26.10.2019
5280 Clouds 10 1024 57 10000 1.29 7 23:40 26.10.2019
5281 Clouds 10 1024 57 10000 1.29 7 23:22 26.10.2019
5282 Clouds 11 1024 50 10000 1.5 350 22:59 26.10.2019
5283 Clouds 11 1024 50 10000 1.5 350 22:39 26.10.2019
5284 Clouds 11 1024 50 10000 1.5 350 22:20 26.10.2019
5285 Clouds 11 1024 50 10000 1 300 21:59 26.10.2019
5286 Clouds 11 1024 50 10000 1 300 21:40 26.10.2019
5287 Clouds 11 1024 50 10000 1 300 21:19 26.10.2019
5288 Clouds 13 1024 46 10000 1 310 20:45 26.10.2019
5289 Clouds 13 1024 46 10000 1 310 20:20 26.10.2019
5290 Clouds 16 1024 38 10000 1.5 170 19:57 26.10.2019
5291 Clouds 16 1024 38 10000 1.5 170 19:38 26.10.2019
5292 Clouds 16 1024 38 10000 1.5 170 19:19 26.10.2019
5293 Clouds 17 1024 36 10000 2.1 90 18:56 26.10.2019
5294 Clouds 17 1024 36 10000 2.1 90 18:37 26.10.2019
5295 Clouds 17 1024 36 10000 2.1 90 18:18 26.10.2019
5296 Clouds 18 1023 38 10000 2.6 70 17:39 26.10.2019
5297 Clouds 18 1023 38 10000 2.6 70 17:39 26.10.2019
5298 Clouds 18 1023 38 10000 2.6 70 17:21 26.10.2019
5299 Clouds 18 1023 36 10000 2.6 80 16:59 26.10.2019
5300 Clouds 18 1023 36 10000 2.6 80 16:41 26.10.2019
5301 Clouds 18 1023 36 10000 2.6 80 16:41 26.10.2019
5302 Clouds 18 1023 36 10000 2.6 80 16:22 26.10.2019
5303 Clouds 18 1022 33 10000 3.6 10 15:41 26.10.2019
5304 Clouds 18 1022 33 10000 3.6 10 15:20 26.10.2019
5305 Clouds 19 1022 37 10000 4.1 20 14:41 26.10.2019
5306 Clouds 19 1022 37 10000 4.1 20 14:22 26.10.2019
5307 Clouds 14 1017 37 0 2.81 44 13:59 26.10.2019
5308 Clouds 20 1022 29 10000 4.1 350 13:41 26.10.2019
5309 Clouds 20 1022 29 10000 4.1 350 13:21 26.10.2019
5310 Clouds 14 1017 37 0 2.81 44 12:48 26.10.2019
5311 Clouds 21 1020 28 10000 2.81 44 12:25 26.10.2019
5312 Clouds 21 1023 35 10000 1.5 0 11:50 26.10.2019
5313 Clouds 21 1023 35 10000 1.5 0 11:29 26.10.2019
5314 Clouds 20 1024 30 10000 1 0 10:57 26.10.2019
5315 Clouds 20 1024 30 10000 1 0 10:39 26.10.2019
5316 Clouds 20 1024 30 10000 1 0 10:20 26.10.2019
5317 Clouds 19 1025 34 10000 1 0 09:44 26.10.2019
5318 Clouds 19 1025 34 10000 1 0 09:26 26.10.2019
5319 Clouds 17 1026 36 9000 1.5 0 08:44 26.10.2019
5320 Clouds 17 1026 36 9000 1.5 0 08:25 26.10.2019
5321 Clear 16 1026 36 9000 1 0 07:55 26.10.2019
5322 Clear 16 1026 36 9000 1 0 07:31 26.10.2019
5323 Clear 12 1026 47 7000 1.5 260 06:46 26.10.2019
5324 Clear 12 1026 47 7000 1.5 260 06:27 26.10.2019
5325 Clouds 9 1025 65 10000 1.5 320 05:21 26.10.2019
5326 Clouds 7 1024 65 10000 1 140 04:30 26.10.2019
5327 Clear 8 1023 61 10000 1.5 250 02:49 26.10.2019
5328 Clear 7 1023 65 10000 1 320 01:56 26.10.2019
5329 Clear 7 1023 65 10000 1 320 01:29 26.10.2019
5330 Clear 8 1023 61 10000 0.5 190 00:25 26.10.2019
5331 Clear 9 1023 57 10000 1 170 23:44 25.10.2019
5332 Clear 9 1023 57 10000 1 170 23:44 25.10.2019
5333 Clear 9 1023 57 10000 1 170 23:20 25.10.2019
5334 Clear 9 1023 57 10000 1 110 22:41 25.10.2019
5335 Clear 9 1023 57 10000 1 110 22:23 25.10.2019
5336 Clouds 10 1023 53 10000 1 0 21:58 25.10.2019
5337 Clouds 10 1023 53 10000 1 0 21:40 25.10.2019
5338 Clouds 10 1023 53 10000 1 0 21:21 25.10.2019
5339 Clouds 12 1023 48 10000 1 120 20:56 25.10.2019
5340 Clouds 12 1023 48 10000 1 120 20:38 25.10.2019
5341 Clouds 12 1023 48 10000 1 120 20:18 25.10.2019
5342 Clouds 13 1023 48 10000 1.5 60 19:43 25.10.2019
5343 Clouds 13 1023 48 10000 1.5 60 19:25 25.10.2019
5344 Clouds 14 1022 41 10000 3.1 70 18:45 25.10.2019
5345 Clouds 14 1022 41 10000 3.1 70 18:23 25.10.2019
5346 Clouds 17 1022 41 10000 3.6 90 17:42 25.10.2019
5347 Clouds 17 1022 41 10000 3.6 90 17:22 25.10.2019
5348 Clouds 17 1021 38 10000 2.1 100 16:56 25.10.2019
5349 Clouds 17 1021 38 10000 2.1 100 16:37 25.10.2019
5350 Clouds 17 1021 38 10000 2.1 100 16:19 25.10.2019
5351 Clouds 17 1021 31 10000 3.1 100 15:40 25.10.2019
5352 Clear 17 1021 31 10000 3.1 100 15:22 25.10.2019
5353 Clear 19 1020 27 10000 5.1 360 14:58 25.10.2019
5354 Clear 19 1020 27 10000 5.1 360 14:58 25.10.2019
5355 Clear 19 1020 27 10000 5.1 360 14:58 25.10.2019
5356 Clear 19 1020 27 10000 5.1 360 14:39 25.10.2019
5357 Clear 19 1020 27 10000 5.1 360 14:20 25.10.2019
5358 Clouds 20 1020 25 10000 4.6 100 13:42 25.10.2019
5359 Clouds 20 1020 25 10000 4.6 100 13:24 25.10.2019
5360 Clouds 21 1021 24 10000 3.6 110 12:56 25.10.2019
5361 Clouds 21 1021 24 10000 3.6 110 12:38 25.10.2019
5362 Clouds 21 1021 24 10000 3.6 110 12:19 25.10.2019
5363 Clouds 21 1021 25 10000 3.6 320 11:40 25.10.2019
5364 Clouds 21 1021 25 10000 3.6 320 11:22 25.10.2019
5365 Clouds 20 1022 29 10000 2.6 190 10:57 25.10.2019
5366 Clouds 20 1022 29 10000 2.6 190 10:57 25.10.2019
5367 Clouds 20 1022 29 10000 2.6 190 10:38 25.10.2019
5368 Clouds 20 1022 29 10000 2.6 190 10:19 25.10.2019
5369 Clouds 19 1023 34 10000 3.1 180 09:42 25.10.2019
5370 Clouds 19 1023 34 10000 3.1 180 09:21 25.10.2019
5371 Clear 17 1024 36 10000 1.58 100 08:59 25.10.2019
5372 Clear 17 1024 36 10000 1.58 100 08:41 25.10.2019
5373 Clear 17 1024 36 10000 1.58 100 08:22 25.10.2019
5374 Clear 15 1024 36 8000 1.58 100 07:47 25.10.2019
5375 Clear 15 1024 36 8000 1.58 100 07:28 25.10.2019
5376 Clear 11 1024 43 6000 0.5 0 06:38 25.10.2019
5377 Haze 8 1021 61 6000 0.43 266 05:50 25.10.2019
5378 Haze 8 1021 61 6000 0.43 266 05:32 25.10.2019
5379 Clear 6 1023 65 10000 1 140 04:37 25.10.2019
5380 Clear 6 1022 40 10000 1 330 02:42 25.10.2019
5381 Clear 6 1022 38 10000 1 0 01:53 25.10.2019
5382 Clear 7 1022 38 10000 1 360 00:36 25.10.2019
5383 Clear 8 1022 38 10000 1.5 280 23:56 24.10.2019
5384 Clear 8 1022 38 10000 1.5 280 23:37 24.10.2019
5385 Clear 8 1022 38 10000 1.5 280 23:19 24.10.2019
5386 Clear 8 1022 49 9000 0.99 14 22:39 24.10.2019
5387 Clear 8 1022 49 9000 0.99 14 22:19 24.10.2019
5388 Clear 9 1022 43 9000 1.5 0 21:58 24.10.2019
5389 Clear 9 1022 43 9000 1.5 0 21:40 24.10.2019
5390 Clear 9 1022 43 9000 1.5 0 21:20 24.10.2019
5391 Clear 9 1022 43 8000 0.5 0 20:59 24.10.2019
5392 Clear 9 1022 43 8000 0.5 0 20:39 24.10.2019
5393 Clear 9 1022 43 8000 0.5 0 20:21 24.10.2019
5394 Clear 10 1022 34 10000 1.5 300 19:57 24.10.2019
5395 Clear 10 1022 34 10000 1.5 300 19:38 24.10.2019
5396 Clear 10 1022 34 10000 1.5 300 19:20 24.10.2019
5397 Clear 11 1022 37 10000 1 120 18:56 24.10.2019
5398 Clear 11 1022 37 10000 1 120 18:38 24.10.2019
5399 Clear 11 1022 37 10000 1 120 18:18 24.10.2019
5400 Clear 14 1021 28 10000 1 0 17:42 24.10.2019
5401 Clear 14 1021 28 10000 1 0 17:20 24.10.2019
5402 Clear 14 1021 26 10000 1.5 0 16:58 24.10.2019
5403 Clear 14 1021 26 10000 1.5 0 16:39 24.10.2019
5404 Clear 14 1021 26 10000 1.5 0 16:21 24.10.2019
5405 Clouds 18 1020 21 9000 4.1 360 15:58 24.10.2019
5406 Clouds 18 1020 21 9000 4.1 360 15:40 24.10.2019
5407 Clouds 18 1020 21 9000 4.1 360 15:21 24.10.2019
5408 Clouds 19 1020 18 9000 6.2 10 14:57 24.10.2019
5409 Clouds 19 1020 18 9000 6.2 10 14:38 24.10.2019
5410 Clouds 19 1020 18 9000 6.2 10 14:19 24.10.2019
5411 Clouds 20 1019 19 10000 6.2 350 13:40 24.10.2019
5412 Clouds 20 1019 19 10000 6.2 350 13:19 24.10.2019
5413 Clouds 20 1020 19 9000 5.1 10 12:57 24.10.2019
5414 Clouds 20 1020 19 9000 5.1 10 12:57 24.10.2019
5415 Clouds 20 1020 19 9000 5.1 10 12:39 24.10.2019
5416 Clouds 20 1020 19 9000 5.1 10 12:19 24.10.2019
5417 Clouds 21 1020 19 9000 3.1 0 11:56 24.10.2019
5418 Clouds 21 1020 19 9000 3.1 0 11:38 24.10.2019
5419 Clouds 21 1020 19 9000 3.1 0 11:19 24.10.2019
5420 Clouds 20 1022 22 8000 4.1 70 10:57 24.10.2019
5421 Clouds 20 1022 22 8000 4.1 70 10:38 24.10.2019
5422 Clouds 20 1022 22 8000 4.1 70 10:20 24.10.2019
5423 Haze 19 1023 24 8000 1.5 0 09:38 24.10.2019
5424 Haze 19 1023 24 8000 1.5 0 09:18 24.10.2019
5425 Haze 19 1023 24 8000 1.5 0 09:18 24.10.2019
5426 Haze 17 1023 25 8000 1.5 0 08:44 24.10.2019
5427 Haze 17 1023 25 8000 1.5 0 08:21 24.10.2019
5428 Haze 15 1024 31 7000 0.5 0 08:00 24.10.2019
5429 Haze 15 1024 31 7000 0.5 0 07:41 24.10.2019
5430 Haze 15 1024 31 7000 0.5 0 07:21 24.10.2019
5431 Clear 12 1024 37 6000 1 0 06:39 24.10.2019
5432 Clear 12 1024 37 6000 1 0 06:20 24.10.2019
5433 Clear 8 1023 49 10000 1 140 05:48 24.10.2019
5434 Clear 8 1023 49 10000 1 140 05:27 24.10.2019
5435 Clouds 5 1022 52 8000 1 120 03:37 24.10.2019
5436 Clouds 7 1021 48 8000 1 0 02:55 24.10.2019
5437 Clouds 6 1021 48 8000 1 0 02:24 24.10.2019
5438 Clear 6 1021 56 8000 1.5 0 01:34 24.10.2019
5439 Clear 8 1021 49 8000 1 0 00:57 24.10.2019
5440 Clear 8 1021 49 8000 1 0 00:38 24.10.2019
5441 Clear 8 1021 49 8000 1 0 00:18 24.10.2019
5442 Clear 8 1021 49 8000 1.5 0 23:42 23.10.2019
5443 Clear 8 1021 49 8000 1.5 0 23:23 23.10.2019
5444 Clear 10 1021 46 10000 1.5 0 22:57 23.10.2019
5445 Clear 10 1021 46 10000 1.5 0 22:38 23.10.2019
5446 Clear 10 1021 46 10000 1.5 0 22:18 23.10.2019
5447 Clear 10 1021 40 10000 1 0 21:57 23.10.2019
5448 Clear 10 1021 40 10000 1 0 21:38 23.10.2019
5449 Clear 10 1021 40 10000 1 0 21:19 23.10.2019
5450 Clear 10 1021 39 10000 0.5 0 20:56 23.10.2019
5451 Clear 10 1021 39 10000 0.5 0 20:37 23.10.2019
5452 Clear 10 1021 39 10000 0.5 0 20:19 23.10.2019
5453 Clear 11 1020 37 10000 0.5 0 19:54 23.10.2019
5454 Clear 11 1020 37 10000 0.5 0 19:36 23.10.2019
5455 Clear 11 1020 37 10000 0.5 0 19:18 23.10.2019
5456 Clear 13 1020 30 10000 1.5 0 18:39 23.10.2019
5457 Clear 13 1020 30 10000 1.5 0 18:19 23.10.2019
5458 Clear 14 1019 24 10000 4.1 350 17:58 23.10.2019
5459 Clear 14 1019 24 10000 4.1 350 17:58 23.10.2019
5460 Clear 14 1019 24 10000 4.1 350 17:40 23.10.2019
5461 Clear 14 1019 24 10000 4.1 350 17:19 23.10.2019
5462 Clear 15 1019 23 10000 2.6 350 16:41 23.10.2019
5463 Clear 15 1019 23 10000 2.6 350 16:21 23.10.2019
5464 Clouds 16 1018 23 10000 1.5 50 15:58 23.10.2019
5465 Clouds 16 1018 23 10000 1.5 50 15:40 23.10.2019
5466 Clouds 19 1018 23 10000 1.5 50 15:21 23.10.2019
5467 Clouds 19 1018 20 10000 2.1 60 14:56 23.10.2019
5468 Clouds 19 1018 20 10000 2.1 60 14:38 23.10.2019
5469 Clouds 19 1018 20 10000 2.1 60 14:19 23.10.2019
5470 Clouds 20 1018 19 10000 2.1 0 13:44 23.10.2019
5471 Clouds 20 1018 19 10000 2.1 0 13:44 23.10.2019
5472 Clouds 20 1018 19 10000 2.1 0 13:25 23.10.2019
5473 Clouds 21 1019 18 10000 1.5 0 12:59 23.10.2019
5474 Clouds 21 1019 18 10000 1.5 0 12:41 23.10.2019
5475 Clouds 21 1019 18 10000 1.5 0 12:19 23.10.2019
5476 Clouds 20 1019 20 10000 1.5 0 11:58 23.10.2019
5477 Clouds 20 1019 20 10000 1.5 0 11:40 23.10.2019
5478 Clouds 20 1019 20 10000 1.5 0 11:21 23.10.2019
5479 Clouds 20 1020 22 10000 2.1 0 10:57 23.10.2019
5480 Clouds 20 1020 22 10000 2.1 0 10:38 23.10.2019
5481 Clouds 20 1020 22 10000 2.1 0 10:19 23.10.2019
5482 Clouds 19 1021 25 10000 2.1 0 09:40 23.10.2019
5483 Clouds 19 1021 25 10000 2.1 0 09:40 23.10.2019
5484 Clouds 19 1021 25 10000 2.1 0 09:22 23.10.2019
5485 Clear 18 1022 27 10000 1 0 08:55 23.10.2019
5486 Clear 18 1022 27 10000 1 0 08:55 23.10.2019
5487 Clear 18 1022 27 10000 1 0 08:37 23.10.2019
5488 Clear 18 1022 27 10000 1 0 08:18 23.10.2019
5489 Clear 16 1022 30 10000 1.5 0 07:44 23.10.2019
5490 Clear 16 1022 30 10000 1.5 0 07:20 23.10.2019
5491 Clear 14 1022 43 10000 1.5 320 06:43 23.10.2019
5492 Clear 14 1022 43 10000 1.5 320 06:19 23.10.2019
5493 Clear 9 1022 61 10000 1.5 300 05:20 23.10.2019
5494 Clear 8 1021 75 10000 1 0 03:47 23.10.2019
5495 Clear 6 1021 75 10000 1 0 02:43 23.10.2019
5496 Clear 8 1021 70 10000 1 0 01:41 23.10.2019
5497 Clear 8 1021 70 10000 1 0 01:18 23.10.2019
5498 Clear 8 1021 70 10000 1.5 0 00:34 23.10.2019
5499 Clear 11 1021 70 10000 1.5 0 23:56 22.10.2019
5500 Clear 11 1021 70 10000 1.5 0 23:37 22.10.2019
5501 Clear 11 1021 70 10000 1.5 0 23:18 22.10.2019
5502 Clear 11 1021 62 10000 1 0 22:41 22.10.2019
5503 Clear 11 1021 62 10000 1 0 22:41 22.10.2019
5504 Clear 12 1021 62 10000 1 0 22:23 22.10.2019
5505 Clouds 11 1021 66 10000 1.5 0 21:57 22.10.2019
5506 Clouds 11 1021 66 10000 1.5 0 21:39 22.10.2019
5507 Clouds 11 1021 66 10000 1.5 0 21:19 22.10.2019
5508 Clouds 12 1021 54 10000 1 0 20:59 22.10.2019
5509 Clouds 12 1021 54 10000 1 0 20:40 22.10.2019
5510 Clouds 14 1021 54 10000 1 0 20:22 22.10.2019
5511 Clouds 14 1021 47 10000 2.1 0 19:59 22.10.2019
5512 Clouds 14 1021 47 10000 2.1 0 19:41 22.10.2019
5513 Clouds 14 1021 47 10000 2.1 0 19:22 22.10.2019
5514 Rain 15 1021 47 10000 7.7 300 18:56 22.10.2019
5515 Rain 15 1021 47 10000 7.7 300 18:38 22.10.2019
5516 Rain 15 1021 47 10000 7.7 300 18:20 22.10.2019
5517 Clouds 15 1020 38 10000 5.7 30 17:55 22.10.2019
5518 Clouds 15 1020 38 10000 5.7 30 17:36 22.10.2019
5519 Clouds 15 1020 38 10000 5.7 30 17:18 22.10.2019
5520 Clouds 16 1020 31 10000 7.2 30 16:39 22.10.2019
5521 Clouds 17 1020 31 10000 7.2 30 16:20 22.10.2019
5522 Clouds 17 1020 31 10000 7.2 30 16:20 22.10.2019
5523 Clouds 18 1019 27 10000 5.1 10 15:59 22.10.2019
5524 Clouds 18 1019 27 10000 5.1 10 15:41 22.10.2019
5525 Clouds 18 1019 27 10000 5.1 10 15:19 22.10.2019
5526 Clouds 19 1019 27 10000 6.7 360 14:46 22.10.2019
5527 Clouds 19 1019 27 10000 6.7 360 14:22 22.10.2019
5528 Clouds 20 1019 24 10000 4.1 340 13:56 22.10.2019
5529 Clouds 20 1019 24 10000 4.1 340 13:37 22.10.2019
5530 Clouds 20 1019 24 10000 4.1 340 13:18 22.10.2019
5531 Clouds 21 1019 24 10000 3.6 340 12:54 22.10.2019
5532 Clouds 21 1019 24 10000 3.6 340 12:36 22.10.2019
5533 Clouds 21 1019 24 10000 3.6 340 12:18 22.10.2019
5534 Clouds 20 1020 25 10000 4.1 350 11:40 22.10.2019
5535 Clouds 20 1020 25 10000 4.1 350 11:22 22.10.2019
5536 Clouds 20 1020 28 10000 3.1 340 10:58 22.10.2019
5537 Clouds 20 1020 28 10000 3.1 340 10:37 22.10.2019
5538 Clouds 20 1020 28 10000 3.1 340 10:19 22.10.2019
5539 Clouds 20 1022 28 8000 1.5 0 09:56 22.10.2019
5540 Clouds 20 1022 28 8000 1.5 0 09:37 22.10.2019
5541 Clouds 20 1022 28 8000 1.5 0 09:37 22.10.2019
5542 Clouds 20 1022 32 8000 1.5 0 09:19 22.10.2019
5543 Clouds 18 1022 33 7000 1.5 0 08:43 22.10.2019
5544 Clouds 18 1022 33 7000 1.5 0 08:22 22.10.2019
5545 Haze 16 1020 32 6000 1.63 83 07:50 22.10.2019
5546 Clouds 16 1023 36 9000 2.1 0 07:30 22.10.2019
5547 Clouds 13 1023 50 9000 1.5 150 06:52 22.10.2019
5548 Clouds 13 1023 50 9000 1.5 150 06:32 22.10.2019
5549 Clouds 11 1022 66 10000 1.5 140 05:59 22.10.2019
5550 Clouds 11 1022 66 10000 1.5 140 05:24 22.10.2019
5551 Clouds 8 1021 70 10000 1 0 03:19 22.10.2019
5552 Clouds 8 1021 65 10000 0.5 0 02:28 22.10.2019
5553 Haze 8 1018 70 9000 2.1 230 01:31 22.10.2019
5554 Clear 8 1018 70 10000 2.1 240 00:58 22.10.2019
5555 Clear 8 1018 70 10000 2.1 240 00:40 22.10.2019
5556 Clear 10 1018 70 10000 2.1 240 00:21 22.10.2019
5557 Clouds 9 1021 57 10000 1 300 23:56 21.10.2019
5558 Clouds 9 1021 57 10000 1 300 23:37 21.10.2019
5559 Clouds 9 1021 57 10000 1 300 23:18 21.10.2019
5560 Clouds 9 1021 57 10000 1 300 23:18 21.10.2019
5561 Clouds 12 1021 57 10000 1.5 300 22:56 21.10.2019
5562 Clouds 12 1021 57 10000 1.5 300 22:56 21.10.2019
5563 Clouds 12 1021 57 10000 1.5 300 22:37 21.10.2019
5564 Clouds 12 1021 57 10000 1.5 300 22:19 21.10.2019
5565 Clouds 13 1021 54 10000 2.6 270 21:54 21.10.2019
5566 Clouds 13 1021 54 10000 2.6 270 21:54 21.10.2019
5567 Clouds 13 1021 54 10000 2.6 270 21:54 21.10.2019
5568 Clouds 13 1021 54 10000 2.6 270 21:36 21.10.2019
5569 Clouds 13 1021 54 10000 2.6 270 21:36 21.10.2019
5570 Clouds 13 1021 54 10000 2.6 270 21:18 21.10.2019
5571 Clouds 14 1021 47 10000 1 0 20:41 21.10.2019
5572 Clouds 14 1021 47 10000 1 0 20:21 21.10.2019
5573 Clouds 15 1021 47 10000 1 0 19:59 21.10.2019
5574 Clouds 15 1021 47 10000 1 0 19:41 21.10.2019
5575 Clouds 15 1021 47 10000 1 0 19:22 21.10.2019
5576 Clouds 16 1021 44 10000 1 0 18:56 21.10.2019
5577 Clouds 16 1021 44 10000 1 0 18:38 21.10.2019
5578 Clouds 16 1021 44 10000 1 0 18:19 21.10.2019
5579 Clouds 17 1021 38 10000 1 0 17:57 21.10.2019
5580 Clouds 17 1021 38 10000 1 0 17:38 21.10.2019
5581 Clouds 17 1021 38 10000 1 0 17:18 21.10.2019
5582 Clouds 18 1021 36 9000 2.1 0 16:56 21.10.2019
5583 Clouds 16 1021 36 9000 2.1 0 16:38 21.10.2019
5584 Clouds 18 1021 36 9000 2.1 0 16:20 21.10.2019
5585 Clouds 18 1021 36 9000 2.1 0 16:20 21.10.2019
5586 Clouds 18 1021 29 9000 3.6 360 15:46 21.10.2019
5587 Clouds 18 1021 29 9000 3.6 360 15:25 21.10.2019
5588 Clouds 21 1020 24 9000 4.1 10 14:58 21.10.2019
5589 Clouds 21 1020 24 9000 4.1 10 14:39 21.10.2019
5590 Clouds 21 1020 24 9000 4.1 10 14:20 21.10.2019
5591 Clouds 21 1021 22 9000 4.6 10 13:56 21.10.2019
5592 Clouds 21 1021 22 9000 4.6 10 13:38 21.10.2019
5593 Clouds 21 1021 22 9000 4.6 10 13:19 21.10.2019
5594 Clouds 21 1021 24 9000 3.1 30 12:41 21.10.2019
5595 Clouds 21 1021 24 9000 3.1 30 12:22 21.10.2019
5596 Clouds 21 1025 24 9000 2.1 0 11:57 21.10.2019
5597 Clouds 21 1025 24 9000 2.1 0 11:38 21.10.2019
5598 Clouds 21 1025 24 9000 2.1 0 11:20 21.10.2019
5599 Clouds 21 1023 24 9000 1.5 0 10:56 21.10.2019
5600 Clouds 21 1023 24 9000 1.5 0 10:38 21.10.2019
5601 Clouds 21 1023 24 9000 1.5 0 10:18 21.10.2019
5602 Clouds 19 1025 24 9000 1 0 09:44 21.10.2019
5603 Clouds 19 1025 24 9000 1 0 09:26 21.10.2019
5604 Haze 18 1026 29 9000 1 0 08:56 21.10.2019
5605 Haze 18 1026 29 9000 1 0 08:37 21.10.2019
5606 Haze 18 1026 29 9000 1 0 08:18 21.10.2019
5607 Haze 16 1026 33 9000 1 0 07:38 21.10.2019
5608 Haze 16 1026 33 9000 1 0 07:20 21.10.2019
5609 Haze 13 1026 41 8000 1.5 310 06:54 21.10.2019
5610 Haze 13 1026 41 8000 1.5 310 06:36 21.10.2019
5611 Haze 10 1025 50 10000 1 320 05:55 21.10.2019
5612 Haze 7 1025 57 10000 2.1 330 04:45 21.10.2019
5613 Haze 8 1024 70 10000 1 0 03:26 21.10.2019
5614 Haze 7 1024 66 10000 0.5 0 02:23 21.10.2019
5615 Haze 8 1024 66 10000 1 0 01:57 21.10.2019
5616 Haze 8 1024 66 10000 1 0 01:23 21.10.2019
5617 Clear 8 1024 70 10000 0.16 245.2 00:47 21.10.2019
5618 Clear 8 1024 70 10000 0.16 245.2 00:25 21.10.2019
5619 Clear 9 1024 61 10000 1.5 0 23:42 20.10.2019
5620 Clear 9 1024 61 10000 1.5 0 23:22 20.10.2019
5621 Clear 9 1024 57 10000 0.83 349.714 22:57 20.10.2019
5622 Clear 9 1024 57 10000 0.83 349.714 22:38 20.10.2019
5623 Clear 9 1024 57 10000 0.83 349.714 22:18 20.10.2019
5624 Clouds 10 1024 57 10000 0.83 349.714 21:57 20.10.2019
5625 Clouds 10 1024 57 10000 0.83 349.714 21:57 20.10.2019
5626 Clouds 10 1024 57 10000 0.83 349.714 21:38 20.10.2019
5627 Clouds 10 1024 57 10000 0.74 358.843 21:20 20.10.2019
5628 Clouds 11 1025 50 10000 1 0 20:41 20.10.2019
5629 Clouds 11 1025 50 10000 1 0 20:19 20.10.2019
5630 Clouds 12 1025 47 10000 1 300 19:57 20.10.2019
5631 Clouds 12 1025 47 10000 1 300 19:57 20.10.2019
5632 Clouds 12 1025 47 10000 1 300 19:38 20.10.2019
5633 Clouds 12 1025 47 10000 1 300 19:20 20.10.2019
5634 Clouds 13 1024 41 10000 2.6 240 18:55 20.10.2019
5635 Clouds 13 1024 41 10000 2.6 240 18:37 20.10.2019
5636 Clouds 13 1024 41 10000 2.6 240 18:19 20.10.2019
5637 Clouds 16 1025 39 10000 1.3 13.672 17:43 20.10.2019
5638 Clouds 16 1025 39 10000 1.3 13.672 17:24 20.10.2019
5639 Clouds 16 1024 39 10000 1.5 0 16:59 20.10.2019
5640 Clouds 16 1024 39 10000 1.5 0 16:41 20.10.2019
5641 Clouds 16 1024 39 10000 1.5 0 16:23 20.10.2019
5642 Clouds 17 1024 29 10000 3.6 10 15:57 20.10.2019
5643 Clouds 17 1024 29 10000 3.6 10 15:38 20.10.2019
5644 Clouds 17 1024 29 10000 3.6 10 15:19 20.10.2019
5645 Clouds 20 1023 25 10000 4.1 350 14:57 20.10.2019
5646 Clouds 20 1023 25 10000 4.1 350 14:37 20.10.2019
5647 Clouds 20 1023 25 10000 4.1 350 14:19 20.10.2019
5648 Clouds 20 1024 25 10000 1.5 0 13:55 20.10.2019
5649 Clouds 20 1024 25 10000 1.5 0 13:36 20.10.2019
5650 Clouds 20 1024 25 10000 1.5 0 13:18 20.10.2019
5651 Clouds 21 1024 35 10000 3.6 350 12:55 20.10.2019
5652 Clouds 21 1024 35 10000 3.6 350 12:37 20.10.2019
5653 Clouds 21 1024 30 10000 3.6 350 12:19 20.10.2019
5654 Clouds 21 1024 26 10000 3.6 320 11:41 20.10.2019
5655 Clouds 21 1024 26 10000 3.6 320 11:23 20.10.2019
5656 Clouds 20 1025 29 10000 1.5 0 10:59 20.10.2019
5657 Clouds 20 1025 29 10000 1.5 0 10:39 20.10.2019
5658 Clouds 20 1025 29 10000 1.5 0 10:21 20.10.2019
5659 Clouds 19 1026 34 0 1.5 0 09:56 20.10.2019
5660 Clouds 19 1026 34 0 1.5 0 09:38 20.10.2019
5661 Clouds 19 1026 34 0 1.5 0 09:19 20.10.2019
5662 Haze 18 1027 32 10000 1 0 08:44 20.10.2019
5663 Haze 18 1027 32 10000 1 0 08:22 20.10.2019
5664 Haze 16 1025 39 6000 1.5 120 07:49 20.10.2019
5665 Haze 15 1028 41 10000 1.5 0 07:29 20.10.2019
5666 Haze 13 1028 47 10000 1.5 0 06:31 20.10.2019
5667 Haze 6 1027 81 10000 0.5 0 04:41 20.10.2019
5668 Haze 7 1026 81 10000 0.54 296.327 03:53 20.10.2019
5669 Haze 7 1026 81 10000 0.51 13.496 03:23 20.10.2019
5670 Clear 8 1026 75 10000 1.5 0 02:55 20.10.2019
5671 Haze 7 1026 75 10000 1.5 0 02:26 20.10.2019
5672 Haze 8 1026 70 10000 1.5 260 01:53 20.10.2019
5673 Haze 8 1026 70 10000 1.5 260 01:22 20.10.2019
5674 Clear 8 1026 66 10000 1.5 350 00:53 20.10.2019
5675 Clear 8 1026 66 10000 1.5 350 00:21 20.10.2019
5676 Clear 8 1026 66 10000 1.5 350 00:21 20.10.2019
5677 Clear 10 1026 66 10000 1 0 23:55 19.10.2019
5678 Clear 10 1026 66 10000 1 0 23:36 19.10.2019
5679 Clear 10 1026 66 10000 1 0 23:18 19.10.2019
5680 Clear 9 1026 66 10000 1 220 22:41 19.10.2019
5681 Clear 9 1026 66 10000 1 220 22:22 19.10.2019
5682 Clear 9 1026 66 10000 1.5 310 21:58 19.10.2019
5683 Clear 9 1026 66 10000 1.5 310 21:39 19.10.2019
5684 Clear 9 1026 66 10000 1.5 310 21:20 19.10.2019
5685 Clear 10 1027 57 10000 1.5 300 20:43 19.10.2019
5686 Clear 10 1027 57 10000 1.5 300 20:21 19.10.2019
5687 Clear 12 1027 54 10000 1.5 0 19:45 19.10.2019
5688 Clear 12 1027 54 10000 1.5 0 19:27 19.10.2019
5689 Clear 14 1026 50 10000 1.5 0 18:59 19.10.2019
5690 Clear 14 1026 50 10000 1.5 0 18:41 19.10.2019
5691 Clear 14 1026 50 10000 1.5 0 18:21 19.10.2019
5692 Clear 16 1026 47 10000 1.5 0 17:41 19.10.2019
5693 Clear 16 1026 47 10000 1.5 0 17:41 19.10.2019
5694 Clear 16 1026 47 10000 1.5 0 17:23 19.10.2019
5695 Clear 17 1025 41 10000 2.1 80 16:57 19.10.2019
5696 Clear 17 1025 41 10000 2.1 80 16:38 19.10.2019
5697 Clear 17 1025 41 10000 2.1 80 16:19 19.10.2019
5698 Clouds 17 1025 37 10000 2.6 100 15:43 19.10.2019
5699 Clouds 17 1025 37 10000 2.6 100 15:25 19.10.2019
5700 Clouds 20 1025 29 10000 1 0 14:40 19.10.2019
5701 Clouds 20 1025 29 10000 1 0 14:40 19.10.2019
5702 Clouds 20 1025 29 10000 1 0 14:40 19.10.2019
5703 Clouds 20 1025 29 10000 1 0 14:40 19.10.2019
5704 Clouds 20 1025 29 10000 1 0 14:21 19.10.2019
5705 Clouds 20 1025 29 10000 1.5 0 13:59 19.10.2019
5706 Clouds 20 1025 29 10000 1.5 0 13:40 19.10.2019
5707 Clouds 20 1025 29 10000 1.5 0 13:20 19.10.2019
5708 Clouds 20 1025 29 10000 1.5 0 12:58 19.10.2019
5709 Clouds 20 1025 29 10000 1.5 0 12:38 19.10.2019
5710 Clouds 20 1025 29 10000 1.5 0 12:19 19.10.2019
5711 Clouds 19 1026 34 10000 2.1 0 11:41 19.10.2019
5712 Clouds 19 1026 34 10000 2.1 0 11:23 19.10.2019
5713 Clouds 19 1027 36 10000 2.1 0 10:58 19.10.2019
5714 Clouds 19 1027 36 10000 2.1 0 10:39 19.10.2019
5715 Clouds 18 1027 36 10000 2.1 0 10:21 19.10.2019
5716 Clouds 17 1028 41 10000 1.5 0 09:44 19.10.2019
5717 Clouds 17 1028 41 10000 1.5 0 09:26 19.10.2019
5718 Haze 17 1029 44 10000 1 0 09:00 19.10.2019
5719 Haze 17 1029 44 10000 1 0 08:59 19.10.2019
5720 Haze 17 1029 44 10000 1 0 08:40 19.10.2019
5721 Clouds 15 1029 44 10000 1 0 08:21 19.10.2019
5722 Clouds 15 1029 50 10000 1 0 07:44 19.10.2019
5723 Clouds 15 1029 50 10000 1 0 07:25 19.10.2019
5724 Haze 13 1029 62 9000 1.5 330 06:47 19.10.2019
5725 Haze 13 1029 62 9000 1.5 330 06:26 19.10.2019
5726 Haze 9 1028 81 8000 1 0 05:34 19.10.2019
5727 Haze 6 1028 86 8000 1 0 04:24 19.10.2019
5728 Haze 7 1027 81 10000 1.5 110 02:47 19.10.2019
5729 Clear 7 1027 81 10000 1 0 01:53 19.10.2019
5730 Clear 7 1027 81 10000 1 0 01:25 19.10.2019
5731 Clear 9 1027 75 10000 1.5 0 00:48 19.10.2019
5732 Clear 9 1027 75 10000 1.5 0 00:27 19.10.2019
5733 Clear 9 1027 75 10000 1.5 0 23:45 18.10.2019
5734 Clear 9 1027 75 10000 1.5 0 23:27 18.10.2019
5735 Clear 11 1027 66 10000 1.5 30 22:58 18.10.2019
5736 Clear 11 1027 66 10000 1.5 30 22:40 18.10.2019
5737 Clear 11 1027 66 10000 1.5 30 22:20 18.10.2019
5738 Clear 11 1027 66 10000 1.5 30 22:20 18.10.2019
5739 Clear 12 1027 61 10000 1.5 80 21:59 18.10.2019
5740 Clear 12 1027 61 10000 1.5 80 21:39 18.10.2019
5741 Clear 12 1027 61 10000 1.5 80 21:20 18.10.2019
5742 Clear 12 1027 66 10000 2.1 90 20:56 18.10.2019
5743 Clear 12 1027 66 10000 2.1 90 20:56 18.10.2019
5744 Clear 12 1027 66 10000 2.1 90 20:38 18.10.2019
5745 Clear 12 1027 66 10000 2.1 90 20:20 18.10.2019
5746 Clear 12 1027 66 10000 3.1 80 19:57 18.10.2019
5747 Clear 12 1027 66 10000 3.1 80 19:57 18.10.2019
5748 Clear 12 1027 66 10000 3.1 80 19:38 18.10.2019
5749 Clear 12 1027 66 10000 3.1 80 19:38 18.10.2019
5750 Clear 12 1027 66 10000 3.1 80 19:20 18.10.2019
5751 Clear 13 1026 62 10000 2.6 100 18:55 18.10.2019
5752 Clear 13 1026 62 10000 2.6 100 18:37 18.10.2019
5753 Clear 13 1026 62 10000 2.6 100 18:19 18.10.2019
5754 Clear 14 1025 54 10000 4.1 100 17:39 18.10.2019
5755 Clear 14 1025 54 10000 4.1 100 17:39 18.10.2019
5756 Clear 14 1025 54 10000 4.1 100 17:20 18.10.2019
5757 Clear 14 1025 54 10000 5.1 100 16:56 18.10.2019
5758 Clear 14 1025 54 10000 5.1 100 16:37 18.10.2019
5759 Clear 14 1025 54 10000 5.1 100 16:19 18.10.2019
5760 Clear 14 1025 54 10000 5.1 100 16:19 18.10.2019
5761 Clear 16 1024 41 10000 4.6 120 15:41 18.10.2019
5762 Clear 16 1024 41 10000 4.6 120 15:21 18.10.2019
5763 Clear 16 1024 41 10000 4.6 120 15:21 18.10.2019
5764 Clear 17 1024 38 10000 6.7 120 14:59 18.10.2019
5765 Clear 17 1024 38 10000 6.7 120 14:40 18.10.2019
5766 Clear 17 1024 38 10000 6.7 120 14:22 18.10.2019
5767 Clear 18 1024 36 10000 6.2 100 13:59 18.10.2019
5768 Clear 18 1024 36 10000 6.2 100 13:40 18.10.2019
5769 Clear 18 1024 36 10000 6.2 100 13:22 18.10.2019
5770 Clouds 18 1024 39 10000 9.3 110 12:56 18.10.2019
5771 Clouds 18 1024 39 10000 9.3 110 12:38 18.10.2019
5772 Clouds 18 1024 39 10000 9.3 110 12:38 18.10.2019
5773 Clouds 18 1024 39 10000 9.3 110 12:20 18.10.2019
5774 Clouds 18 1024 39 10000 9.3 110 12:20 18.10.2019
5775 Clouds 18 1024 51 10000 5.7 130 11:55 18.10.2019
5776 Clouds 18 1024 51 10000 5.7 130 11:37 18.10.2019
5777 Clouds 18 1024 51 10000 5.7 130 11:18 18.10.2019
5778 Clouds 17 1025 30 10000 4.1 60 10:42 18.10.2019
5779 Clouds 17 1025 30 10000 4.1 60 10:22 18.10.2019
5780 Clouds 17 1026 41 10000 1.5 0 09:58 18.10.2019
5781 Clouds 17 1026 41 10000 1.5 0 09:40 18.10.2019
5782 Clouds 17 1026 41 10000 1.5 0 09:20 18.10.2019
5783 Clouds 16 1026 47 10000 1.5 0 08:57 18.10.2019
5784 Clouds 16 1026 47 10000 1.5 0 08:38 18.10.2019
5785 Clouds 16 1026 47 10000 1.5 0 08:20 18.10.2019
5786 Clouds 15 1026 54 10000 1 0 07:42 18.10.2019
5787 Clouds 15 1026 54 10000 1 0 07:20 18.10.2019
5788 Clouds 14 1025 58 10000 1 0 06:39 18.10.2019
5789 Clouds 14 1025 58 10000 1 0 06:20 18.10.2019
5790 Haze 13 1024 62 10000 1 0 05:54 18.10.2019
5791 Haze 13 1024 62 10000 1 0 05:21 18.10.2019
5792 Haze 10 1023 70 10000 1.29 16.721 03:43 18.10.2019
5793 Haze 10 1023 70 10000 1.32 25.553 03:23 18.10.2019
5794 Clear 9 1022 70 10000 1 0 02:33 18.10.2019
5795 Clear 8 1022 66 10000 1 110 01:43 18.10.2019
5796 Clear 8 1022 66 10000 1 110 01:25 18.10.2019
5797 Clear 10 1022 62 10000 1.5 180 00:44 18.10.2019
5798 Clear 10 1022 62 10000 1.5 180 00:20 18.10.2019
5799 Clear 10 1022 62 10000 1.5 180 00:20 18.10.2019
5800 Clear 10 1023 57 10000 1 0 23:42 17.10.2019
5801 Clear 10 1023 57 10000 1 0 23:21 17.10.2019
5802 Clear 12 1023 57 10000 1.5 80 22:58 17.10.2019
5803 Clear 12 1023 57 10000 1.5 80 22:39 17.10.2019
5804 Clear 12 1023 57 10000 1.5 80 22:20 17.10.2019
5805 Clouds 14 1023 54 10000 2.1 190 21:58 17.10.2019
5806 Clouds 14 1023 54 10000 2.1 190 21:40 17.10.2019
5807 Clouds 14 1023 54 10000 2.1 190 21:40 17.10.2019
5808 Clouds 14 1023 54 10000 2.1 190 21:21 17.10.2019
5809 Clouds 14 1024 50 10000 3.6 150 20:58 17.10.2019
5810 Clouds 14 1024 50 10000 3.6 150 20:40 17.10.2019
5811 Clouds 14 1024 50 10000 3.6 150 20:20 17.10.2019
5812 Clouds 15 1024 50 10000 2.1 110 19:59 17.10.2019
5813 -273 0 0 0 0 0 19:41 17.10.2019
5814 Clouds 15 1024 50 10000 2.1 110 19:20 17.10.2019
5815 Clouds 15 1024 50 10000 2.1 110 19:20 17.10.2019
5816 Clouds 15 1025 50 0 2.6 120 18:58 17.10.2019
5817 Clouds 15 1025 50 0 2.6 120 18:38 17.10.2019
5818 Clouds 15 1025 50 0 2.6 120 18:20 17.10.2019
5819 Rain 16 1024 44 10000 1.5 200 17:42 17.10.2019
5820 Rain 16 1024 44 10000 1.5 200 17:23 17.10.2019
5821 Rain 17 1023 41 10000 3.6 120 16:57 17.10.2019
5822 Rain 17 1023 41 10000 3.6 120 16:39 17.10.2019
5823 Rain 17 1023 41 10000 3.6 120 16:18 17.10.2019
5824 Clouds 19 1023 36 9000 5.1 120 15:56 17.10.2019
5825 Clouds 19 1023 36 9000 5.1 120 15:56 17.10.2019
5826 Clouds 19 1023 36 9000 5.1 120 15:38 17.10.2019
5827 Clouds 19 1023 36 9000 5.1 120 15:19 17.10.2019
5828 Clouds 20 1023 32 9000 2.6 0 14:55 17.10.2019
5829 Clouds 20 1023 32 9000 2.6 0 14:36 17.10.2019
5830 Clouds 20 1019 22 10000 2.491 69 14:18 17.10.2019
5831 Clouds 21 1022 32 8000 7.2 130 13:39 17.10.2019
5832 Clouds 21 1022 32 8000 7.2 130 13:19 17.10.2019
5833 Clouds 22 1022 18 9000 5.1 110 12:43 17.10.2019
5834 Clouds 22 1022 19 9000 5.1 110 12:22 17.10.2019
5835 Thunderstorm 21 1022 28 9000 6.2 10 11:59 17.10.2019
5836 Thunderstorm 21 1022 28 9000 6.2 10 11:41 17.10.2019
5837 Thunderstorm 22 1022 28 9000 6.2 10 11:21 17.10.2019
5838 Haze 22 1023 40 9000 5.1 350 10:58 17.10.2019
5839 Haze 22 1023 40 9000 5.1 350 10:39 17.10.2019
5840 Haze 22 1023 40 9000 5.1 350 10:19 17.10.2019
5841 -273 0 0 0 0 0 09:55 17.10.2019
5842 Haze 23 1024 35 8000 2.6 290 09:55 17.10.2019
5843 Haze 23 1024 35 8000 2.6 290 09:55 17.10.2019
5844 Haze 23 1024 35 8000 2.6 290 09:36 17.10.2019
5845 Haze 23 1024 35 8000 2.6 290 09:18 17.10.2019
5846 Haze 23 1024 35 8000 2.6 290 09:18 17.10.2019
5847 Haze 20 1026 46 8000 2.1 0 08:46 17.10.2019
5848 -273 0 0 0 0 0 08:26 17.10.2019
5849 Haze 18 1026 48 7000 2.1 0 07:56 17.10.2019
5850 Haze 18 1026 48 7000 2.1 0 07:38 17.10.2019
5851 Haze 18 1026 48 7000 2.1 0 07:19 17.10.2019
5852 Haze 16 1026 51 7000 1.5 0 06:40 17.10.2019
5853 Haze 16 1026 51 7000 1.5 0 06:21 17.10.2019
5854 Clear 12 1026 62 9000 1.5 0 05:57 17.10.2019
5855 Clear 12 1026 62 9000 1.5 0 05:32 17.10.2019
5856 Haze 10 1022 76 8000 1.5 180 04:56 17.10.2019
5857 Clear 10 1025 71 10000 1 270 03:55 17.10.2019
5858 Rain 11 1024 66 10000 1 290 02:50 17.10.2019
5859 Rain 11 1024 62 10000 1 240 01:39 17.10.2019
5860 Rain 10 1024 62 10000 1.5 330 00:40 17.10.2019
5861 Clear 10 1024 62 10000 1.5 330 00:19 17.10.2019
5862 Clear 11 1024 58 10000 1.5 290 23:42 16.10.2019
5863 Clear 11 1024 58 10000 1.5 290 23:21 16.10.2019
5864 Clear 11 1024 62 10000 1.5 320 22:56 16.10.2019
5865 Clear 11 1024 62 10000 1.5 320 22:56 16.10.2019
5866 Clear 11 1024 62 10000 1.5 320 22:37 16.10.2019
5867 Clear 11 1024 62 10000 1.5 320 22:19 16.10.2019
5868 Clear 11 1024 62 10000 1.5 320 22:19 16.10.2019
5869 Clear 12 1024 50 10000 1 300 21:57 16.10.2019
5870 Clear 12 1024 50 10000 1 300 21:37 16.10.2019
5871 Clear 12 1024 50 10000 1 300 21:19 16.10.2019
5872 Clear 14 1024 47 8000 1.5 310 20:58 16.10.2019
5873 Clear 14 1024 47 8000 1.5 310 20:39 16.10.2019
5874 Clear 14 1024 47 8000 1.5 310 20:20 16.10.2019
5875 Clear 14 1024 41 8000 1 0 19:58 16.10.2019
5876 Clear 14 1024 41 8000 1 0 19:38 16.10.2019
5877 Clear 14 1024 41 8000 1 0 19:20 16.10.2019
5878 Clear 15 1024 41 9000 1.339 10 18:39 16.10.2019
5879 Clear 15 1024 41 9000 2.082 0 18:19 16.10.2019
5880 Clear 19 1023 33 10000 1 0 17:58 16.10.2019
5881 Clear 19 1023 33 10000 1 0 17:58 16.10.2019
5882 Clear 19 1023 33 10000 1 0 17:39 16.10.2019
5883 Clear 19 1023 33 10000 1 0 17:21 16.10.2019
5884 Clear 21 1022 20 10000 1 0 16:59 16.10.2019
5885 Clear 21 1022 20 10000 1 0 16:41 16.10.2019
5886 Clear 21 1022 20 10000 1 0 16:41 16.10.2019
5887 Clear 21 1022 20 10000 1 0 16:20 16.10.2019
5888 Clear 21 1022 19 10000 3.1 80 15:56 16.10.2019
5889 Clear 21 1022 19 10000 3.1 80 15:56 16.10.2019
5890 Clear 20 1022 19 10000 3.1 80 15:37 16.10.2019
5891 Clouds 23 1022 19 10000 3.1 80 15:18 16.10.2019
5892 Clouds 24 1022 12 10000 4.1 30 14:56 16.10.2019
5893 Clouds 24 1022 12 10000 4.1 30 14:38 16.10.2019
5894 Clouds 24 1022 12 10000 4.1 30 14:18 16.10.2019
5895 Clouds 25 1022 10 10000 2.1 0 13:56 16.10.2019
5896 Clouds 25 1022 10 10000 2.1 0 13:36 16.10.2019
5897 Clouds 25 1022 10 10000 2.1 0 13:18 16.10.2019
5898 Clouds 25 1023 11 10000 1.5 0 12:40 16.10.2019
5899 Clouds 25 1023 11 10000 1.5 0 12:18 16.10.2019
5900 Clouds 25 1023 11 10000 1.5 0 12:18 16.10.2019
5901 Clouds 24 1023 14 10000 2.6 80 11:43 16.10.2019
5902 Clouds 24 1020 14 10000 1.5 350 11:18 16.10.2019
5903 Clouds 24 1021 15 10000 1.5 350 10:39 16.10.2019
5904 Clouds 23 1021 15 10000 1.5 350 10:20 16.10.2019
5905 Clouds 22 1025 18 10000 0.5 0 09:56 16.10.2019
5906 Clouds 22 1025 18 10000 0.5 0 09:38 16.10.2019
5907 Clear 22 1025 18 10000 0.5 0 09:19 16.10.2019
5908 Haze 20 1023 21 8000 1.603 137 08:43 16.10.2019
5909 Clear 20 1026 20 10000 1 0 08:24 16.10.2019
5910 Clear 17 1027 20 10000 2.1 330 07:46 16.10.2019
5911 -273 0 0 0 0 0 07:25 16.10.2019
5912 Clear 17 1027 20 10000 2.1 330 07:25 16.10.2019
5913 Clear 14 1027 26 10000 3.1 350 06:59 16.10.2019
5914 Clear 14 1027 26 10000 3.1 350 06:39 16.10.2019
5915 Clear 14 1027 26 10000 3.1 350 06:39 16.10.2019
5916 Clear 11 1024 50 10000 0.578 226 05:54 16.10.2019
5917 Clear 7 1025 61 7000 0.5 0 03:26 16.10.2019
5918 Clear 8 1025 57 10000 1.5 0 02:49 16.10.2019
5919 Clear 9 1025 50 10000 1 270 01:19 16.10.2019
5920 Clear 9 1025 53 10000 1.5 310 00:50 16.10.2019
5921 Clear 9 1025 53 10000 1.5 310 00:28 16.10.2019
5922 Clear 9 1025 50 9000 1.5 300 23:41 15.10.2019
5923 Clear 9 1025 50 9000 1.5 300 23:22 15.10.2019
5924 Clear 11 1025 46 9000 1 0 22:56 15.10.2019
5925 Clear 11 1025 46 9000 1 0 22:38 15.10.2019
5926 Clear 11 1025 46 9000 1 0 22:38 15.10.2019
5927 Clear 11 1025 46 9000 1 0 22:20 15.10.2019
5928 Clear 11 1025 43 9000 1.5 290 21:56 15.10.2019
5929 -273 0 0 0 0 0 21:56 15.10.2019
5930 Clear 11 1025 43 9000 1.5 290 21:56 15.10.2019
5931 Clear 11 1025 43 9000 1.5 290 21:56 15.10.2019
5932 Clear 11 1025 43 9000 1.5 290 21:38 15.10.2019
5933 Clear 11 1025 43 9000 1.5 290 21:38 15.10.2019
5934 Clear 11 1025 43 9000 1.5 290 21:20 15.10.2019
5935 Clear 12 1025 26 6000 1 320 20:57 15.10.2019
5936 Clear 12 1025 26 6000 1 320 20:39 15.10.2019
5937 Clear 12 1025 26 6000 1 320 20:39 15.10.2019
5938 Clear 12 1025 26 6000 1 320 20:20 15.10.2019
5939 Clear 12 1025 26 7000 1 290 19:58 15.10.2019
5940 -273 0 0 0 0 0 19:40 15.10.2019
5941 Clear 12 1025 26 7000 1 290 19:20 15.10.2019
5942 Clear 14 1025 26 10000 1.5 340 18:47 15.10.2019
5943 Clear 14 1025 26 10000 1.5 340 18:29 15.10.2019
5944 Clear 15 1024 23 10000 1.302 358 17:59 15.10.2019
5945 Clear 15 1024 23 10000 1.302 358 17:40 15.10.2019
5946 Clear 15 1024 23 10000 1.302 358 17:40 15.10.2019
5947 Clear 15 1024 23 10000 1.302 358 17:20 15.10.2019
5948 Clear 18 1024 20 10000 1.5 250 16:56 15.10.2019
5949 Clear 18 1024 20 10000 1.5 250 16:37 15.10.2019
5950 Clear 18 1024 20 10000 1.5 250 16:19 15.10.2019
5951 Clear 22 1023 14 10000 3.6 350 15:43 15.10.2019
5952 Clear 22 1023 14 10000 3.6 350 15:21 15.10.2019
5953 Clear 24 1023 10 10000 2.6 0 14:59 15.10.2019
5954 Clear 24 1023 10 10000 2.6 0 14:38 15.10.2019
5955 Clear 24 1023 10 10000 2.6 0 14:20 15.10.2019
5956 Clear 24 1023 10 10000 2.6 0 14:20 15.10.2019
5957 Clear 25 1023 7 10000 1.5 0 13:58 15.10.2019
5958 Clear 25 1023 7 10000 1.5 0 13:40 15.10.2019
5959 Clear 25 1023 7 10000 1.5 0 13:19 15.10.2019
5960 Clear 25 1024 7 10000 1.5 0 12:43 15.10.2019
5961 Clear 25 1024 7 10000 1.5 0 12:22 15.10.2019
5962 Clear 24 1024 8 10000 2.6 150 11:57 15.10.2019
5963 Clear 24 1024 8 10000 2.6 150 11:38 15.10.2019
5964 Clear 24 1024 8 10000 2.6 150 11:19 15.10.2019
5965 Clear 23 1025 12 10000 2.1 0 10:45 15.10.2019
5966 Clear 23 1025 12 10000 2.1 0 10:22 15.10.2019
5967 Clear 22 1026 12 10000 1.5 0 09:58 15.10.2019
5968 Clear 22 1026 12 10000 1.5 0 09:38 15.10.2019
5969 Clear 22 1026 12 10000 1.5 0 09:20 15.10.2019
5970 Haze 20 1027 15 9000 1.5 0 08:56 15.10.2019
5971 Haze 20 1027 15 9000 1.5 0 08:36 15.10.2019
5972 Haze 20 1027 15 9000 1.5 0 08:18 15.10.2019
5973 Haze 18 1027 19 9000 1.5 0 07:41 15.10.2019
5974 Haze 18 1027 19 9000 1.5 0 07:21 15.10.2019
5975 Haze 16 1027 29 8000 2.6 320 06:47 15.10.2019
5976 Haze 16 1027 29 8000 2.6 320 06:29 15.10.2019
5977 Haze 13 1024 33 6000 1.13 211.574 05:48 15.10.2019
5978 Haze 11 1026 26 9000 1.5 220 05:29 15.10.2019
5979 Haze 7 1025 26 10000 1 0 04:39 15.10.2019
5980 Clear 7 1025 61 8000 1 0 03:38 15.10.2019
5981 Clear 7 1025 61 8000 1.5 310 02:51 15.10.2019
5982 Clear 7 1025 36 7000 1.5 320 01:49 15.10.2019
5983 Clear 7 1025 35 7000 1.5 320 01:23 15.10.2019
5984 Clear 8 1025 35 7000 0.5 0 00:50 15.10.2019
5985 Clear 8 1025 36 7000 0.5 0 00:22 15.10.2019
5986 Clear 9 1025 43 8000 0.5 0 23:46 14.10.2019
5987 Clear 9 1025 43 8000 0.5 0 23:21 14.10.2019
5988 Clear 11 1025 40 8000 0.5 0 22:59 14.10.2019
5989 Clear 11 1025 40 8000 0.5 0 22:38 14.10.2019
5990 Clear 11 1025 40 8000 0.5 0 22:19 14.10.2019
5991 Clear 11 1025 40 8000 0.5 0 22:19 14.10.2019
5992 Clear 11 1025 40 8000 0.5 0 22:19 14.10.2019
5993 Clear 11 1025 46 8000 1 130 21:56 14.10.2019
5994 Clear 11 1025 46 8000 1 130 21:56 14.10.2019
5995 Clear 11 1025 46 8000 1 130 21:37 14.10.2019
5996 Clear 11 1025 46 8000 1 130 21:19 14.10.2019
5997 Clear 13 1025 37 10000 1.5 290 20:55 14.10.2019
5998 Clear 13 1025 37 10000 1.5 290 20:37 14.10.2019
5999 Clear 13 1025 37 10000 1.5 290 20:18 14.10.2019
6000 Clear 15 1024 33 10000 1 0 19:42 14.10.2019
6001 Clear 15 1024 33 10000 1 0 19:23 14.10.2019
6002 Clear 16 1024 18 10000 2.6 340 18:59 14.10.2019
6003 Clear 16 1024 18 10000 2.6 340 18:39 14.10.2019
6004 Clear 16 1024 18 10000 2.6 340 18:19 14.10.2019
6005 Clear 16 1024 18 10000 2.6 340 18:19 14.10.2019
6006 Clear 19 1024 20 10000 4.1 310 17:57 14.10.2019
6007 Clear 19 1024 20 10000 4.1 310 17:57 14.10.2019
6008 Clear 19 1024 20 10000 4.1 310 17:39 14.10.2019
6009 Clear 19 1024 20 10000 4.1 310 17:20 14.10.2019
6010 Clear 20 1023 16 10000 4.1 360 16:44 14.10.2019
6011 Clear 20 1023 16 10000 4.1 360 16:44 14.10.2019
6012 Clear 20 1023 16 10000 4.1 360 16:21 14.10.2019
6013 Clear 21 1023 16 10000 4.1 350 15:54 14.10.2019
6014 Clear 21 1023 16 10000 4.1 350 15:36 14.10.2019
6015 Clear 21 1023 16 10000 4.1 350 15:18 14.10.2019
6016 Clear 24 1022 13 10000 4.1 350 14:43 14.10.2019
6017 Clear 24 1022 13 10000 4.1 350 14:23 14.10.2019
6018 Clear 25 1022 7 10000 3.1 0 13:45 14.10.2019
6019 Clear 25 1022 7 10000 3.1 0 13:22 14.10.2019
6020 Clear 26 1023 7 10000 2.6 360 12:59 14.10.2019
6021 Clear 26 1023 7 10000 2.6 360 12:40 14.10.2019
6022 Clear 26 1023 7 10000 2.6 360 12:19 14.10.2019
6023 Clear 25 1023 11 10000 2.1 0 11:46 14.10.2019
6024 Clear 25 1023 11 10000 2.1 0 11:26 14.10.2019
6025 Clear 25 1023 11 10000 2.1 0 11:26 14.10.2019
6026 Clear 24 1024 11 10000 1.5 0 10:58 14.10.2019
6027 Clear 24 1024 11 10000 1.5 0 10:38 14.10.2019
6028 Clear 24 1024 11 10000 1.5 0 10:20 14.10.2019
6029 Clear 24 1025 10 10000 1 0 09:55 14.10.2019
6030 Clear 24 1025 10 10000 1 0 09:36 14.10.2019
6031 Clear 24 1025 10 10000 1 0 09:18 14.10.2019
6032 Clear 22 1026 12 10000 1.5 0 08:43 14.10.2019
6033 Clear 22 1026 12 10000 1.5 0 08:22 14.10.2019
6034 -273 0 0 0 0 0 07:42 14.10.2019
6035 Haze 19 1026 15 9000 1.5 0 07:19 14.10.2019
6036 Haze 18 1026 23 9000 2.1 320 06:38 14.10.2019
6037 Haze 18 1026 23 9000 2.1 320 06:20 14.10.2019
6038 Haze 12 1025 40 10000 1.5 330 05:46 14.10.2019
6039 Clear 7 1025 56 10000 0.5 0 04:42 14.10.2019
6040 Clear 7 1024 56 8000 0.5 0 03:27 14.10.2019
6041 Clear 8 1024 49 7000 0.5 0 02:42 14.10.2019
6042 Clear 9 1024 49 8000 2.1 140 01:23 14.10.2019
6043 Clear 10 1024 39 8000 1 0 00:53 14.10.2019
6044 Clear 10 1024 39 8000 1 0 00:53 14.10.2019
6045 Clear 10 1024 39 8000 1 0 00:19 14.10.2019
6046 Clear 11 1024 46 10000 1 0 23:44 13.10.2019
6047 Clear 11 1024 46 10000 1 0 23:20 13.10.2019
6048 Clear 13 1024 40 10000 1 0 22:58 13.10.2019
6049 Clear 13 1024 40 10000 1 0 22:40 13.10.2019
6050 Clear 13 1024 40 10000 1 0 22:21 13.10.2019
6051 Clear 13 1024 40 10000 1 0 22:21 13.10.2019
6052 Clear 14 1024 37 8000 1.5 0 21:58 13.10.2019
6053 Clear 14 1024 37 8000 1.5 0 21:37 13.10.2019
6054 Clear 14 1024 37 8000 1.5 0 21:18 13.10.2019
6055 Clear 17 1024 43 10000 1 0 20:57 13.10.2019
6056 Clear 17 1024 43 10000 1 0 20:57 13.10.2019
6057 Clear 17 1024 43 10000 1 0 20:57 13.10.2019
6058 Clear 17 1024 43 10000 1 0 20:38 13.10.2019
6059 Clear 17 1024 43 10000 1 0 20:20 13.10.2019
6060 Clear 15 1024 28 10000 0.5 0 19:57 13.10.2019
6061 Clear 15 1024 28 10000 0.5 0 19:39 13.10.2019
6062 Clear 15 1024 28 10000 0.5 0 19:39 13.10.2019
6063 Clear 15 1024 28 10000 0.5 0 19:21 13.10.2019
6064 -273 0 0 0 0 0 18:56 13.10.2019
6065 Clear 16 1023 25 10000 1.5 0 18:56 13.10.2019
6066 Clear 16 1023 25 10000 1.5 0 18:36 13.10.2019
6067 Clear 16 1023 25 10000 1.5 0 18:36 13.10.2019
6068 Clear 16 1023 25 10000 1.5 0 18:18 13.10.2019
6069 Clear 18 1023 22 10000 1 0 17:54 13.10.2019
6070 Clear 18 1023 22 10000 1 0 17:36 13.10.2019
6071 Clear 18 1023 22 10000 1 0 17:18 13.10.2019
6072 Clear 19 1022 16 10000 1 0 16:41 13.10.2019
6073 Clear 19 1022 16 10000 1 0 16:18 13.10.2019
6074 Clear 23 1021 14 10000 1 0 15:56 13.10.2019
6075 Clear 23 1021 14 10000 1 0 15:56 13.10.2019
6076 Clear 23 1021 14 10000 1 0 15:37 13.10.2019
6077 Clear 23 1021 14 10000 1 0 15:37 13.10.2019
6078 Clear 23 1021 14 10000 1 0 15:18 13.10.2019
6079 Clear 23 1021 14 10000 1 0 15:18 13.10.2019
6080 Clear 26 1021 9 10000 1 0 14:56 13.10.2019
6081 Clear 26 1021 9 10000 1 0 14:38 13.10.2019
6082 Clear 26 1021 9 10000 1 0 14:18 13.10.2019
6083 Clear 26 1021 9 10000 2.6 0 13:39 13.10.2019
6084 Clear 26 1017 12 10000 1.5 140 13:21 13.10.2019
6085 Clear 26 1021 10 10000 3.1 210 12:59 13.10.2019
6086 Clear 26 1021 10 10000 3.1 210 12:39 13.10.2019
6087 Clear 26 1021 10 10000 3.1 210 12:20 13.10.2019
6088 Clear 26 1022 12 10000 2.6 0 11:58 13.10.2019
6089 Clear 26 1022 12 10000 2.6 0 11:38 13.10.2019
6090 Clear 26 1022 12 10000 2.6 0 11:19 13.10.2019
6091 Clear 24 1023 15 10000 2.6 0 10:43 13.10.2019
6092 Clear 24 1023 15 10000 2.6 0 10:24 13.10.2019
6093 Clear 24 1024 15 10000 2.6 0 09:59 13.10.2019
6094 Clear 23 1024 15 10000 2.6 0 09:39 13.10.2019
6095 Clear 23 1024 15 10000 2.6 0 09:20 13.10.2019
6096 Clear 23 1024 15 10000 2.6 0 09:20 13.10.2019
6097 Haze 20 1024 19 9000 2.6 200 08:43 13.10.2019
6098 Haze 20 1024 19 9000 2.6 200 08:23 13.10.2019
6099 Haze 17 1025 25 8000 2.6 340 07:51 13.10.2019
6100 Haze 17 1025 25 8000 2.6 340 07:32 13.10.2019
6101 Haze 15 1025 27 8000 2.6 320 06:49 13.10.2019
6102 Haze 11 1025 30 10000 2.6 320 05:59 13.10.2019
6103 Haze 7 1024 65 8000 0.5 0 04:59 13.10.2019
6104 Haze 7 1024 65 8000 0.5 0 04:33 13.10.2019
6105 Haze 9 1024 66 6000 1 0 02:50 13.10.2019
6106 Haze 9 1024 66 6000 1 0 02:25 13.10.2019
6107 Haze 10 1023 61 6000 0.5 0 01:34 13.10.2019
6108 Haze 9 1023 61 6000 1.5 310 00:53 13.10.2019
6109 Haze 9 1023 61 6000 1.5 310 00:23 13.10.2019
6110 Haze 10 1024 54 6000 1.5 310 23:59 12.10.2019
6111 Haze 10 1024 54 6000 1.5 310 23:40 12.10.2019
6112 Haze 10 1024 54 6000 1.5 310 23:40 12.10.2019
6113 Haze 10 1024 54 6000 1.5 310 23:21 12.10.2019
6114 Haze 10 1024 53 6000 0.5 0 22:58 12.10.2019
6115 Haze 10 1024 53 6000 0.5 0 22:39 12.10.2019
6116 Haze 10 1024 53 6000 0.5 0 22:21 12.10.2019
6117 Haze 11 1024 37 6000 1 0 21:56 12.10.2019
6118 Haze 11 1024 37 6000 1 0 21:37 12.10.2019
6119 Haze 11 1024 36 6000 1 0 21:19 12.10.2019
6120 Haze 12 1023 50 6000 1 0 20:44 12.10.2019
6121 Haze 12 1023 50 6000 1 0 20:26 12.10.2019
6122 Haze 13 1023 41 8000 1 0 19:42 12.10.2019
6123 Haze 13 1023 41 8000 1 0 19:23 12.10.2019
6124 Haze 14 1020 66 6000 1.5 200 18:59 12.10.2019
6125 Haze 14 1023 37 8000 0.5 0 18:41 12.10.2019
6126 Haze 14 1023 35 8000 0.5 0 18:23 12.10.2019
6127 Haze 16 1023 23 10000 2.1 140 17:45 12.10.2019
6128 Haze 16 1023 23 10000 2.1 140 17:21 12.10.2019
6129 Haze 19 1022 19 10000 2.6 340 16:57 12.10.2019
6130 Haze 19 1022 19 10000 2.6 340 16:38 12.10.2019
6131 Haze 19 1022 19 10000 2.6 340 16:19 12.10.2019
6132 Clear 22 1022 14 10000 2.6 350 15:44 12.10.2019
6133 Clear 22 1022 14 10000 2.6 350 15:25 12.10.2019
6134 Clear 22 1022 14 10000 2.6 350 15:25 12.10.2019
6135 Clear 24 1021 10 10000 3.6 360 14:59 12.10.2019
6136 Clear 24 1021 10 10000 3.6 360 14:38 12.10.2019
6137 Clear 24 1021 10 10000 3.6 360 14:19 12.10.2019
6138 Clear 25 1022 8 10000 3.6 350 13:45 12.10.2019
6139 Clear 25 1022 8 10000 3.6 350 13:27 12.10.2019
6140 Clear 25 1022 16 10000 4.1 350 12:55 12.10.2019
6141 Clear 25 1022 16 10000 4.1 350 12:36 12.10.2019
6142 Clear 25 1022 16 10000 4.1 350 12:18 12.10.2019
6143 Clear 24 1022 16 10000 1 0 11:40 12.10.2019
6144 Clear 24 1022 16 10000 1 0 11:22 12.10.2019
6145 Clear 23 1023 17 9000 0.5 0 10:56 12.10.2019
6146 Clear 23 1023 17 9000 0.5 0 10:37 12.10.2019
6147 Clear 23 1023 17 9000 0.5 0 10:19 12.10.2019
6148 -273 0 0 0 0 0 09:56 12.10.2019
6149 Clear 22 1024 19 8000 1.5 0 09:56 12.10.2019
6150 Clear 22 1024 19 8000 1.5 0 09:55 12.10.2019
6151 Clear 22 1024 19 8000 1.5 0 09:37 12.10.2019
6152 Clear 22 1024 19 8000 1.5 0 09:18 12.10.2019
6153 Clear 22 1024 19 8000 1.5 0 09:18 12.10.2019
6154 Clear 20 1024 22 9000 1 0 08:41 12.10.2019
6155 Clear 20 1024 22 9000 1 0 08:41 12.10.2019
6156 Clear 20 1024 22 9000 1 0 08:22 12.10.2019
6157 Clear 18 1025 25 10000 1.5 300 07:36 12.10.2019
6158 Clear 18 1025 25 10000 1.5 300 07:18 12.10.2019
6159 Haze 13 1024 31 10000 2.1 320 05:53 12.10.2019
6160 Haze 13 1024 31 10000 2.1 320 05:24 12.10.2019
6161 Haze 8 1023 53 10000 2.1 320 04:26 12.10.2019
6162 Haze 8 1023 53 10000 2.1 320 04:26 12.10.2019
6163 Clear 8 1022 53 10000 1.5 270 03:42 12.10.2019
6164 Clear 8 1022 57 9000 1 0 02:28 12.10.2019
6165 Clear 8 1022 42 10000 1.5 90 01:29 12.10.2019
6166 Clear 9 1021 53 10000 1.5 150 00:43 12.10.2019
6167 Clear 9 1021 53 10000 1.5 150 00:19 12.10.2019
6168 Clear 9 1021 53 10000 1.5 150 00:19 12.10.2019
6169 Clear 10 1022 43 10000 1 0 23:40 11.10.2019
6170 Clear 10 1022 43 10000 1 0 23:20 11.10.2019
6171 Clear 11 1022 46 10000 1 0 22:56 11.10.2019
6172 Clear 11 1022 46 10000 1 0 22:37 11.10.2019
6173 Clear 11 1022 46 10000 1 0 22:18 11.10.2019
6174 Clear 12 1022 37 10000 0.5 0 21:40 11.10.2019
6175 Clear 12 1022 37 10000 0.5 0 21:21 11.10.2019
6176 Haze 14 1022 37 10000 2.6 120 20:54 11.10.2019
6177 Haze 14 1022 37 10000 2.6 120 20:36 11.10.2019
6178 Haze 14 1022 37 10000 2.6 120 20:18 11.10.2019
6179 Haze 15 1022 25 10000 4.1 320 19:39 11.10.2019
6180 Clear 15 1022 25 10000 4.1 320 19:18 11.10.2019
6181 Clear 15 1022 25 10000 4.1 320 19:18 11.10.2019
6182 Clear 15 1022 25 10000 4.1 320 19:18 11.10.2019
6183 Clear 15 1022 25 10000 4.1 320 19:18 11.10.2019
6184 Clear 15 1022 26 10000 3.1 310 18:59 11.10.2019
6185 Clear 15 1022 26 10000 3.1 310 18:39 11.10.2019
6186 Clear 15 1022 26 10000 3.1 310 18:19 11.10.2019
6187 Clear 19 1021 22 10000 2.1 300 17:59 11.10.2019
6188 Clear 19 1021 22 10000 2.1 300 17:38 11.10.2019
6189 Clear 19 1021 22 10000 2.1 300 17:19 11.10.2019
6190 Clear 19 1021 22 10000 2.1 300 17:19 11.10.2019
6191 Clear 20 1017 19 10000 5.7 360 16:59 11.10.2019
6192 Clear 20 1017 19 10000 5.7 360 16:39 11.10.2019
6193 Clear 20 1017 19 10000 5.7 360 16:19 11.10.2019
6194 Clouds 21 1016 19 10000 6.7 360 15:55 11.10.2019
6195 Clouds 21 1016 19 10000 6.7 360 15:36 11.10.2019
6196 Clouds 22 1016 19 10000 6.7 360 15:18 11.10.2019
6197 Clouds 23 1020 18 10000 4.6 350 14:41 11.10.2019
6198 Clouds 23 1020 18 10000 4.6 350 14:21 11.10.2019
6199 Clouds 24 1020 17 10000 5.1 360 13:46 11.10.2019
6200 Clouds 24 1020 17 10000 5.1 360 13:26 11.10.2019
6201 Clouds 25 1020 18 10000 5.7 350 12:58 11.10.2019
6202 Clouds 25 1020 18 10000 5.7 350 12:39 11.10.2019
6203 Clouds 25 1020 18 10000 5.7 350 12:20 11.10.2019
6204 Clouds 25 1021 16 10000 1.5 0 11:59 11.10.2019
6205 Clouds 25 1021 16 10000 1.5 0 11:39 11.10.2019
6206 Clouds 25 1021 16 10000 1.5 0 11:21 11.10.2019
6207 Clouds 24 1022 18 10000 3.6 350 10:56 11.10.2019
6208 Clouds 24 1022 18 10000 3.6 350 10:56 11.10.2019
6209 Clouds 24 1022 18 10000 3.6 350 10:36 11.10.2019
6210 Clouds 24 1022 18 10000 3.6 350 10:18 11.10.2019
6211 Clear 23 1023 19 10000 3.1 230 09:42 11.10.2019
6212 Clear 23 1023 19 10000 3.1 230 09:21 11.10.2019
6213 Clear 22 1023 22 10000 1.5 0 08:59 11.10.2019
6214 Clear 22 1023 22 10000 1.5 0 08:38 11.10.2019
6215 Clear 22 1023 22 10000 1.5 0 08:20 11.10.2019
6216 Clear 21 1023 33 10000 1.5 0 07:53 11.10.2019
6217 Clear 21 1023 33 10000 1.5 0 07:34 11.10.2019
6218 Clear 19 1024 29 10000 2.6 320 06:50 11.10.2019
6219 Clear 19 1024 29 10000 2.6 320 06:25 11.10.2019
6220 Clear 13 1023 54 10000 1 0 05:47 11.10.2019
6221 Clear 13 1023 54 10000 1 0 05:47 11.10.2019
6222 Clear 13 1023 54 10000 1 0 05:29 11.10.2019
6223 Clear 15 1022 53 10000 1.5 0 04:58 11.10.2019
6224 Clear 12 1022 50 10000 1.5 300 03:27 11.10.2019
6225 Clear 15 1022 47 10000 1.5 0 01:18 11.10.2019
6226 Clear 15 1022 47 10000 1.5 0 01:18 11.10.2019
6227 Clear 16 1022 47 10000 1.5 0 00:31 11.10.2019
6228 Clear 17 1022 35 10000 2.6 0 23:58 10.10.2019
6229 Clear 17 1022 35 10000 2.6 0 23:40 10.10.2019
6230 Clear 17 1022 35 10000 2.6 0 23:19 10.10.2019
6231 Clear 17 1023 35 10000 2.6 0 22:55 10.10.2019
6232 Clear 17 1023 35 10000 2.6 0 22:36 10.10.2019
6233 Clear 17 1023 35 10000 2.6 0 22:18 10.10.2019
6234 Clear 18 1023 27 10000 6.7 10 21:42 10.10.2019
6235 Clear 18 1023 27 10000 6.7 10 21:22 10.10.2019
6236 Clear 17 1023 25 10000 6.2 360 20:58 10.10.2019
6237 Clear 17 1023 25 10000 6.2 360 20:39 10.10.2019
6238 Clear 17 1023 25 10000 6.2 360 20:19 10.10.2019
6239 Clear 16 1023 29 10000 2.6 0 19:56 10.10.2019
6240 Clear 16 1023 29 10000 2.6 0 19:38 10.10.2019
6241 Clear 16 1023 29 10000 2.6 0 19:19 10.10.2019
6242 Clear 20 1023 22 10000 6.2 10 18:42 10.10.2019
6243 Clear 20 1023 22 10000 6.2 10 18:21 10.10.2019
6244 Clear 19 1022 25 10000 4.1 350 17:58 10.10.2019
6245 Clear 19 1022 25 10000 4.1 350 17:39 10.10.2019
6246 Clear 19 1022 25 10000 4.1 350 17:18 10.10.2019
6247 Clear 21 1022 20 10000 4.6 10 16:55 10.10.2019
6248 Clear 21 1022 20 10000 4.6 10 16:37 10.10.2019
6249 Clear 21 1022 20 10000 4.6 10 16:18 10.10.2019
6250 Clouds 21 1022 21 10000 5.1 360 15:39 10.10.2019
6251 Clouds 21 1022 21 10000 5.1 360 15:21 10.10.2019
6252 Clouds 23 1021 14 10000 5.1 10 14:56 10.10.2019
6253 Clouds 23 1021 14 10000 5.1 10 14:37 10.10.2019
6254 Clouds 23 1021 14 10000 5.1 10 14:19 10.10.2019
6255 Clouds 24 1022 15 10000 2.6 0 13:55 10.10.2019
6256 Clouds 24 1022 15 10000 2.6 0 13:37 10.10.2019
6257 Clouds 24 1022 15 10000 2.6 0 13:18 10.10.2019
6258 Clear 24 1021 15 10000 3.1 0 12:41 10.10.2019
6259 Clear 24 1021 15 10000 3.1 0 12:20 10.10.2019
6260 Clear 24 1022 18 10000 4.1 340 11:58 10.10.2019
6261 Clear 24 1022 18 10000 4.1 340 11:58 10.10.2019
6262 Clear 24 1022 18 10000 4.1 340 11:58 10.10.2019
6263 Clear 24 1022 18 10000 4.1 340 11:39 10.10.2019
6264 Clear 24 1022 18 10000 4.1 340 11:19 10.10.2019
6265 Clear 24 1019 17 10000 2.6 160 10:45 10.10.2019
6266 Clear 23 1019 17 10000 2.6 160 10:27 10.10.2019
6267 Clear 22 1024 19 10000 1.5 0 09:58 10.10.2019
6268 Clear 22 1024 19 10000 1.5 0 09:40 10.10.2019
6269 Clear 21 1024 19 10000 1.5 0 09:21 10.10.2019
6270 Clear 21 1024 21 10000 1.5 0 08:58 10.10.2019
6271 Clear 21 1024 21 10000 1.5 0 08:38 10.10.2019
6272 Clear 21 1024 21 10000 1.5 0 08:19 10.10.2019
6273 Clear 19 1024 26 10000 1.5 300 07:45 10.10.2019
6274 Clear 19 1024 26 10000 1.5 300 07:23 10.10.2019
6275 Haze 15 1024 36 8000 3.1 320 06:49 10.10.2019
6276 Haze 15 1024 36 8000 3.1 320 06:49 10.10.2019
6277 Haze 15 1024 36 8000 3.1 320 06:29 10.10.2019
6278 Haze 12 1024 50 9000 2.1 330 05:28 10.10.2019
6279 Haze 12 1024 50 9000 2.1 330 05:28 10.10.2019
6280 Clear 9 1023 65 10000 0.42 231.828 04:54 10.10.2019
6281 Clear 9 1023 65 10000 0.42 231.828 04:33 10.10.2019
6282 Haze 9 1022 61 10000 1 0 01:46 10.10.2019
6283 Haze 9 1022 61 10000 1 0 01:46 10.10.2019
6284 Haze 9 1022 61 10000 1 0 01:26 10.10.2019
6285 Haze 11 1022 53 10000 1.5 340 00:59 10.10.2019
6286 Haze 11 1022 53 10000 1.5 340 00:23 10.10.2019
6287 Clear 11 1022 53 10000 1.5 0 23:40 09.10.2019
6288 Clear 12 1019 71 10000 1.05 31.461 23:22 09.10.2019
6289 Clear 11 1022 54 10000 1.5 140 22:59 09.10.2019
6290 Clear 11 1022 54 10000 1.5 140 22:40 09.10.2019
6291 Clear 11 1022 54 10000 1.5 140 22:22 09.10.2019
6292 Clear 12 1022 47 10000 1 200 21:41 09.10.2019
6293 Clear 12 1022 47 10000 1 200 21:21 09.10.2019
6294 Clear 13 1023 47 10000 2.6 0 20:56 09.10.2019
6295 Clear 13 1023 47 10000 2.6 0 20:38 09.10.2019
6296 Clear 13 1023 47 10000 2.6 0 20:19 09.10.2019
6297 Clear 13 1023 47 10000 2.6 0 20:19 09.10.2019
6298 Clear 13 1023 47 10000 2.6 0 20:19 09.10.2019
6299 Clear 15 1022 38 10000 1.5 0 19:58 09.10.2019
6300 Clear 15 1022 38 10000 1.5 0 19:40 09.10.2019
6301 Clear 15 1022 38 10000 1.5 0 19:21 09.10.2019
6302 Clear 18 1022 27 10000 2.1 320 18:38 09.10.2019
6303 Clear 17 1022 27 10000 2.1 320 18:20 09.10.2019
6304 Clear 16 1022 39 10000 2.6 320 17:57 09.10.2019
6305 Clear 16 1022 39 10000 2.6 320 17:37 09.10.2019
6306 Clear 16 1022 39 10000 2.6 320 17:19 09.10.2019
6307 Clear 20 1022 22 10000 2.1 350 16:55 09.10.2019
6308 Clear 20 1022 22 10000 2.1 350 16:36 09.10.2019
6309 Clear 20 1022 22 10000 2.1 350 16:18 09.10.2019
6310 Clear 21 1021 18 10000 2.1 360 15:55 09.10.2019
6311 Clear 21 1021 18 10000 2.1 360 15:55 09.10.2019
6312 Clear 21 1021 18 10000 2.1 360 15:36 09.10.2019
6313 Clear 21 1021 18 10000 2.1 360 15:18 09.10.2019
6314 Clear 24 1021 17 10000 4.1 20 14:42 09.10.2019
6315 Clear 24 1021 17 10000 4.1 20 14:42 09.10.2019
6316 Clear 24 1021 17 10000 4.1 20 14:18 09.10.2019
6317 Clear 24 1022 15 10000 2.1 0 13:58 09.10.2019
6318 Clear 24 1022 15 10000 2.1 0 13:36 09.10.2019
6319 Clear 24 1022 15 10000 2.1 0 13:18 09.10.2019
6320 Clear 25 1022 16 10000 1.5 0 12:42 09.10.2019
6321 Clear 25 1022 16 10000 1.5 0 12:22 09.10.2019
6322 Clear 25 1023 16 10000 5.1 350 11:58 09.10.2019
6323 Clear 25 1023 16 10000 5.1 350 11:39 09.10.2019
6324 Clear 25 1023 16 10000 5.1 350 11:20 09.10.2019
6325 Clear 24 1024 18 10000 4.6 330 10:55 09.10.2019
6326 Clear 24 1024 18 10000 4.6 330 10:37 09.10.2019
6327 Clear 24 1024 18 10000 4.6 330 10:18 09.10.2019
6328 Clear 23 1024 18 10000 4.1 40 09:42 09.10.2019
6329 Clear 23 1024 18 10000 4.1 40 09:19 09.10.2019
6330 Clear 23 1025 19 10000 2.6 330 08:56 09.10.2019
6331 Clear 23 1025 19 10000 2.6 330 08:37 09.10.2019
6332 Clear 22 1025 19 10000 2.6 330 08:18 09.10.2019
6333 Clear 22 1025 19 10000 2.6 330 08:18 09.10.2019
6334 Clear 21 1025 29 10000 3.1 310 07:43 09.10.2019
6335 Clear 21 1025 29 10000 3.1 310 07:23 09.10.2019
6336 Clear 17 1026 41 10000 3.6 330 06:52 09.10.2019
6337 Clear 17 1026 41 10000 3.6 330 06:20 09.10.2019
6338 Clear 13 1026 47 10000 2.6 320 05:46 09.10.2019
6339 Clear 13 1026 47 10000 2.6 320 05:46 09.10.2019
6340 Clear 10 1025 50 10000 1 0 04:27 09.10.2019
6341 Clear 12 1024 57 10000 2.6 340 02:54 09.10.2019
6342 Clear 11 1025 54 10000 1.5 270 01:48 09.10.2019
6343 Clear 11 1025 54 10000 1.5 270 01:21 09.10.2019
6344 Clear 12 1025 53 10000 1.5 320 00:58 09.10.2019
6345 Clear 12 1025 53 10000 1.5 320 00:40 09.10.2019
6346 Clear 12 1025 53 10000 1.5 320 00:21 09.10.2019
6347 Clear 15 1025 50 10000 2.1 320 23:57 08.10.2019
6348 Clear 15 1025 50 10000 2.1 320 23:36 08.10.2019
6349 Clear 15 1025 50 10000 2.1 320 23:18 08.10.2019
6350 Clear 15 1026 43 10000 0.5 0 22:39 08.10.2019
6351 Clear 15 1026 43 10000 0.5 0 22:20 08.10.2019
6352 Clear 15 1026 43 10000 0.5 0 22:20 08.10.2019
6353 Clear 15 1026 43 10000 0.5 0 22:20 08.10.2019
6354 Clear 16 1026 47 10000 1.5 0 21:57 08.10.2019
6355 Clear 16 1026 47 10000 1.5 0 21:39 08.10.2019
6356 Clear 16 1026 43 10000 1.5 0 21:19 08.10.2019
6357 Clear 17 1026 43 10000 3.6 350 20:56 08.10.2019
6358 Clear 17 1026 42 10000 3.6 350 20:38 08.10.2019
6359 Clear 17 1026 42 10000 3.6 350 20:20 08.10.2019
6360 Clear 18 1026 42 10000 6.2 360 19:58 08.10.2019
6361 Clear 18 1026 42 10000 6.2 360 19:39 08.10.2019
6362 Clear 18 1026 42 10000 6.2 360 19:20 08.10.2019
6363 Clear 19 1026 27 10000 7.7 30 18:54 08.10.2019
6364 Clear 19 1026 27 10000 7.7 30 18:36 08.10.2019
6365 Clear 19 1026 27 10000 7.7 30 18:18 08.10.2019
6366 Clear 19 1025 24 10000 10.3 20 17:40 08.10.2019
6367 Clear 19 1025 24 10000 10.3 20 17:20 08.10.2019
6368 Clouds 20 1025 22 10000 6.2 40 16:58 08.10.2019
6369 Clouds 20 1025 22 10000 6.2 40 16:38 08.10.2019
6370 Clouds 20 1025 22 10000 6.2 40 16:20 08.10.2019
6371 Clouds 21 1024 20 10000 8.2 40 15:41 08.10.2019
6372 Clouds 21 1024 20 10000 8.2 40 15:41 08.10.2019
6373 Clouds 21 1024 20 10000 8.2 40 15:21 08.10.2019
6374 Clouds 22 1024 19 10000 5.7 30 14:58 08.10.2019
6375 Clouds 22 1024 19 10000 5.7 30 14:39 08.10.2019
6376 Clouds 22 1024 19 10000 5.7 30 14:20 08.10.2019
6377 Clouds 23 1024 18 10000 5.1 360 13:56 08.10.2019
6378 Clouds 23 1024 18 10000 5.1 360 13:38 08.10.2019
6379 Clouds 23 1024 18 10000 5.1 360 13:18 08.10.2019
6380 Clouds 24 1024 17 10000 5.1 360 12:56 08.10.2019
6381 Clouds 24 1024 17 10000 5.1 360 12:37 08.10.2019
6382 Clouds 24 1024 17 10000 5.1 360 12:37 08.10.2019
6383 Clouds 24 1024 17 10000 5.1 360 12:18 08.10.2019
6384 Clouds 24 1024 19 10000 5.1 350 11:41 08.10.2019
6385 Clouds 24 1024 19 10000 5.1 350 11:22 08.10.2019
6386 Clouds 24 1025 18 10000 5.1 350 10:56 08.10.2019
6387 Clouds 24 1025 18 10000 5.1 350 10:36 08.10.2019
6388 Clouds 24 1025 18 10000 5.1 350 10:18 08.10.2019
6389 Clouds 23 1026 24 10000 3.1 0 09:41 08.10.2019
6390 Clouds 23 1026 24 10000 3.1 0 09:41 08.10.2019
6391 Clouds 23 1026 24 10000 3.1 0 09:41 08.10.2019
6392 Clouds 23 1026 24 10000 3.1 0 09:23 08.10.2019
6393 Haze 22 1026 35 9000 1.5 0 08:57 08.10.2019
6394 Haze 22 1026 35 9000 1.5 0 08:39 08.10.2019
6395 Haze 20 1023 37 8000 2.27 29.003 08:21 08.10.2019
6396 Haze 18 1027 45 8000 1.5 0 07:41 08.10.2019
6397 Haze 18 1027 45 8000 1.5 0 07:20 08.10.2019
6398 Haze 18 1027 45 8000 1.5 0 07:20 08.10.2019
6399 Haze 15 1026 58 8000 3.1 310 06:47 08.10.2019
6400 Haze 15 1026 58 8000 3.1 310 06:26 08.10.2019
6401 Haze 13 1026 76 9000 1 290 05:44 08.10.2019
6402 Haze 13 1026 76 9000 1 290 05:24 08.10.2019
6403 Haze 10 1025 81 10000 2.1 310 03:32 08.10.2019
6404 Clear 10 1024 87 10000 1 280 02:46 08.10.2019
6405 Mist 9 1024 87 10000 1 280 02:26 08.10.2019
6406 Mist 9 1024 81 10000 0.5 0 01:42 08.10.2019
6407 Mist 9 1024 81 10000 0.5 0 01:19 08.10.2019
6408 Mist 11 1025 81 10000 1.5 260 00:36 08.10.2019
6409 Clear 10 1025 81 10000 1.5 260 00:18 08.10.2019
6410 Clear 10 1025 81 10000 0.5 0 23:38 07.10.2019
6411 Clear 10 1025 81 10000 0.5 0 23:19 07.10.2019
6412 Clear 12 1025 81 8000 0.49 239.398 22:55 07.10.2019
6413 Clear 12 1025 81 8000 0.49 239.398 22:37 07.10.2019
6414 Clear 12 1025 81 8000 0.49 239.398 22:19 07.10.2019
6415 Clear 13 1026 71 10000 1.5 270 21:55 07.10.2019
6416 Clear 13 1026 71 10000 1.5 270 21:37 07.10.2019
6417 Haze 13 1026 71 10000 1.5 270 21:18 07.10.2019
6418 Haze 13 1026 71 7000 2.6 0 20:56 07.10.2019
6419 Haze 13 1026 71 7000 2.6 0 20:38 07.10.2019
6420 Haze 13 1026 71 7000 2.6 0 20:18 07.10.2019
6421 Haze 13 1026 66 8000 0.5 0 19:42 07.10.2019
6422 Haze 13 1026 66 8000 0.5 0 19:21 07.10.2019
6423 Haze 14 1026 66 10000 1.5 0 19:00 07.10.2019
6424 Haze 14 1026 66 10000 1.5 0 18:41 07.10.2019
6425 Haze 14 1026 66 10000 1.5 0 18:19 07.10.2019
6426 Clear 15 1026 54 10000 1 0 17:58 07.10.2019
6427 Clear 15 1026 54 10000 1 0 17:40 07.10.2019
6428 Clear 15 1026 54 10000 1 0 17:18 07.10.2019
6429 Clear 16 1025 48 10000 3.1 350 16:44 07.10.2019
6430 Clear 16 1025 48 10000 3.1 350 16:25 07.10.2019
6431 Clear 18 1025 48 10000 3.1 350 15:57 07.10.2019
6432 Clear 18 1025 48 10000 3.1 350 15:38 07.10.2019
6433 Clear 18 1025 48 10000 3.1 350 15:20 07.10.2019
6434 Clouds 20 1025 39 10000 4.1 350 14:41 07.10.2019
6435 Clouds 19 1022 40 10000 2.1 310 14:23 07.10.2019
6436 Clouds 20 1024 39 10000 1.5 0 13:45 07.10.2019
6437 Clouds 20 1024 39 10000 1.5 0 13:21 07.10.2019
6438 Clouds 20 1025 40 10000 2.6 340 12:58 07.10.2019
6439 Clouds 20 1025 40 10000 2.6 340 12:39 07.10.2019
6440 Clouds 20 1025 40 10000 2.6 340 12:20 07.10.2019
6441 Clouds 19 1025 42 10000 1.5 0 11:59 07.10.2019
6442 Clouds 19 1025 42 10000 1.5 0 11:40 07.10.2019
6443 Clouds 19 1025 42 10000 1.5 0 11:20 07.10.2019
6444 Clouds 19 1026 45 10000 1.5 0 10:43 07.10.2019
6445 Clouds 19 1026 45 10000 1.5 0 10:23 07.10.2019
6446 Clouds 18 1027 51 10000 1.5 0 09:58 07.10.2019
6447 Clouds 18 1027 51 10000 1.5 0 09:38 07.10.2019
6448 Clouds 18 1027 51 10000 1.5 0 09:20 07.10.2019
6449 Clouds 17 1027 59 10000 1 0 08:43 07.10.2019
6450 Clouds 17 1027 59 10000 1 0 08:20 07.10.2019
6451 Haze 15 1028 67 8000 1 320 07:49 07.10.2019
6452 Haze 15 1028 67 8000 1 320 07:28 07.10.2019
6453 Haze 14 1025 71 8000 1.5 250 06:58 07.10.2019
6454 Haze 14 1025 71 8000 1.5 250 06:38 07.10.2019
6455 Haze 14 1025 71 8000 1.5 250 06:18 07.10.2019
6456 Haze 12 1024 76 8000 1.5 250 05:26 07.10.2019
6457 Mist 10 1023 87 6000 0.81 179.154 04:49 07.10.2019
6458 Mist 10 1022 87 8000 0.81 179.154 03:46 07.10.2019
6459 Mist 10 1022 87 8000 0.81 179.154 03:27 07.10.2019
6460 Mist 10 1024 87 7000 1 340 02:37 07.10.2019
6461 Mist 10 1024 87 7000 1 340 02:18 07.10.2019
6462 Mist 10 1024 87 6000 1.5 310 01:23 07.10.2019
6463 Clouds 10 1024 93 6000 0.5 120 00:51 07.10.2019
6464 Clouds 10 1024 93 6000 0.5 120 00:24 07.10.2019
6465 Clouds 10 1024 93 6000 2.1 110 23:59 06.10.2019
6466 Clouds 10 1024 93 6000 2.1 110 23:40 06.10.2019
6467 Clouds 10 1024 93 6000 2.1 110 23:20 06.10.2019
6468 Clouds 10 1024 93 10000 1.5 130 22:56 06.10.2019
6469 Clouds 10 1024 93 10000 1.5 130 22:37 06.10.2019
6470 Clouds 10 1024 93 10000 1.5 130 22:18 06.10.2019
6471 Clouds 11 1024 87 10000 1 0 21:55 06.10.2019
6472 Clouds 11 1024 87 10000 1 0 21:55 06.10.2019
6473 Clouds 11 1024 87 10000 1 0 21:55 06.10.2019
6474 Clouds 11 1024 87 10000 1 0 21:36 06.10.2019
6475 Clouds 11 1024 87 10000 1 0 21:18 06.10.2019
6476 Clouds 10 1022 93 10000 1.5 200 20:54 06.10.2019
6477 Clouds 10 1022 93 10000 1.5 200 20:54 06.10.2019
6478 Clouds 11 1025 87 10000 4.1 340 20:36 06.10.2019
6479 Clouds 11 1025 87 10000 4.1 340 20:18 06.10.2019
6480 Clouds 11 1025 81 10000 3.1 360 19:54 06.10.2019
6481 Clouds 11 1025 81 10000 3.1 360 19:36 06.10.2019
6482 Clouds 11 1025 81 10000 3.1 360 19:18 06.10.2019
6483 Clouds 11 1024 81 10000 1.5 160 18:54 06.10.2019
6484 Clouds 11 1024 81 10000 1.5 160 18:54 06.10.2019
6485 Clouds 11 1024 81 10000 1.5 160 18:36 06.10.2019
6486 Rain 12 1024 81 10000 1.5 160 18:18 06.10.2019
6487 Rain 12 1024 76 10000 1.5 0 17:42 06.10.2019
6488 Rain 12 1024 76 10000 1.5 0 17:20 06.10.2019
6489 Rain 12 1023 76 10000 4.1 330 16:55 06.10.2019
6490 Rain 12 1023 76 10000 4.1 330 16:55 06.10.2019
6491 Rain 12 1023 76 10000 4.1 330 16:36 06.10.2019
6492 Rain 12 1023 76 10000 4.1 330 16:18 06.10.2019
6493 Rain 13 1023 76 10000 5.1 340 15:42 06.10.2019
6494 Rain 13 1023 76 10000 5.1 340 15:19 06.10.2019
6495 Rain 13 1023 76 10000 5.1 340 15:19 06.10.2019
6496 Rain 13 1023 76 10000 5.1 340 15:19 06.10.2019
6497 Rain 13 1023 76 10000 5.1 340 15:19 06.10.2019
6498 Rain 13 1023 76 10000 5.1 340 15:19 06.10.2019
6499 Rain 13 1023 81 10000 6.2 350 14:44 06.10.2019
6500 Rain 13 1023 81 10000 6.2 350 14:25 06.10.2019
6501 Rain 13 1023 76 9000 5.7 330 13:58 06.10.2019
6502 Rain 13 1023 76 9000 5.7 330 13:39 06.10.2019
6503 Rain 13 1023 76 9000 5.7 330 13:21 06.10.2019
6504 Rain 13 1022 76 10000 5.1 60 12:58 06.10.2019
6505 Rain 13 1022 76 10000 5.1 60 12:39 06.10.2019
6506 Rain 13 1022 76 10000 5.1 60 12:39 06.10.2019
6507 Rain 13 1022 76 10000 5.1 60 12:21 06.10.2019
6508 Clouds 11 1021 87 10000 2.1 70 11:58 06.10.2019
6509 Thunderstorm 12 1022 81 10000 4.6 40 11:39 06.10.2019
6510 Thunderstorm 12 1022 81 10000 4.6 40 11:20 06.10.2019
6511 Thunderstorm 13 1023 76 8000 5.1 340 10:45 06.10.2019
6512 Rain 13 1023 67 9000 7.2 360 10:26 06.10.2019
6513 Clouds 13 1023 71 9000 3.6 70 09:58 06.10.2019
6514 Clouds 13 1023 71 9000 3.6 70 09:40 06.10.2019
6515 Clouds 13 1023 71 9000 3.6 70 09:19 06.10.2019
6516 Rain 13 1022 87 8000 2.1 60 08:43 06.10.2019
6517 Rain 12 1024 71 8000 1.5 0 08:21 06.10.2019
6518 Rain 12 1023 87 9000 1.58 63.549 07:57 06.10.2019
6519 Rain 11 1024 81 8000 3.1 270 07:35 06.10.2019
6520 Rain 11 1024 93 7000 5.7 90 06:23 06.10.2019
6521 Rain 11 1024 87 8000 2.6 230 05:35 06.10.2019
6522 Rain 11 1023 81 10000 1 40 04:26 06.10.2019
6523 Clouds 11 1023 81 10000 1 150 02:46 06.10.2019
6524 Clouds 11 1022 81 10000 2.6 350 02:27 06.10.2019
6525 Clouds 12 1022 76 10000 2.1 340 01:46 06.10.2019
6526 Clouds 12 1022 76 10000 2.1 340 01:27 06.10.2019
6527 Rain 11 1022 76 10000 1 290 00:57 06.10.2019
6528 Rain 11 1022 76 10000 1 290 00:28 06.10.2019
6529 Rain 12 1023 76 10000 2.1 140 23:45 05.10.2019
6530 Rain 12 1023 76 10000 2.1 140 23:23 05.10.2019
6531 Rain 11 1021 76 10000 1.42 70.392 22:58 05.10.2019
6532 Thunderstorm 12 1023 71 10000 3.1 330 22:40 05.10.2019
6533 Thunderstorm 12 1023 71 10000 3.1 330 22:20 05.10.2019
6534 Rain 13 1022 66 10000 7.7 360 21:57 05.10.2019
6535 Rain 13 1022 66 10000 7.7 360 21:39 05.10.2019
6536 Rain 13 1022 66 10000 7.7 360 21:39 05.10.2019
6537 Rain 13 1022 66 10000 7.7 360 21:20 05.10.2019
6538 Rain 13 1020 76 10000 2.1 250 20:56 05.10.2019
6539 Rain 14 1022 71 10000 2.6 40 20:37 05.10.2019
6540 Rain 14 1022 71 10000 2.6 40 20:19 05.10.2019
6541 Rain 14 1022 71 10000 2.6 40 20:19 05.10.2019
6542 Rain 14 1023 66 10000 1.5 30 19:38 05.10.2019
6543 Rain 14 1023 66 10000 1.5 30 19:19 05.10.2019
6544 Clouds 14 1022 58 10000 6.2 10 18:56 05.10.2019
6545 Clouds 14 1022 58 10000 6.2 10 18:38 05.10.2019
6546 Clouds 14 1022 58 10000 6.2 10 18:20 05.10.2019
6547 Clouds 13 1022 58 10000 6.2 10 17:46 05.10.2019
6548 Clouds 14 1022 58 10000 6.2 10 17:27 05.10.2019
6549 Clouds 14 1022 62 10000 7.7 360 16:59 05.10.2019
6550 Clouds 14 1022 62 10000 7.7 360 16:41 05.10.2019
6551 Clouds 14 1022 62 10000 7.7 360 16:21 05.10.2019
6552 Clouds 14 1022 62 10000 7.7 360 15:57 05.10.2019
6553 Clouds 14 1022 62 10000 7.7 360 15:38 05.10.2019
6554 Clouds 14 1022 62 10000 7.7 360 15:20 05.10.2019
6555 Clouds 15 1021 62 10000 7.2 360 14:44 05.10.2019
6556 Clouds 15 1021 62 10000 7.2 360 14:26 05.10.2019
6557 Clouds 15 1021 55 10000 4.6 20 13:59 05.10.2019
6558 Clouds 15 1021 55 10000 4.6 20 13:40 05.10.2019
6559 Clouds 15 1021 55 10000 4.6 20 13:20 05.10.2019
6560 Rain 16 1021 62 10000 6.2 40 12:44 05.10.2019
6561 Rain 15 1021 67 10000 6.2 60 12:20 05.10.2019
6562 Thunderstorm 14 1021 66 10000 4.6 40 11:45 05.10.2019
6563 Thunderstorm 14 1021 62 10000 5.7 10 11:23 05.10.2019
6564 Thunderstorm 16 1020 48 10000 7.2 110 10:59 05.10.2019
6565 Thunderstorm 16 1020 48 10000 7.2 110 10:41 05.10.2019
6566 Rain 16 1021 48 10000 8.7 120 10:23 05.10.2019
6567 Rain 17 1022 48 10000 7.7 120 09:56 05.10.2019
6568 Rain 17 1022 48 10000 7.7 120 09:37 05.10.2019
6569 Rain 17 1022 48 10000 7.7 120 09:19 05.10.2019
6570 Thunderstorm 18 1022 55 10000 7.2 140 08:39 05.10.2019
6571 Thunderstorm 18 1022 55 10000 7.2 140 08:19 05.10.2019
6572 Clouds 17 1019 52 10000 8.7 120 07:52 05.10.2019
6573 Thunderstorm 18 1022 55 10000 6.2 120 07:31 05.10.2019
6574 Clouds 16 1022 62 10000 5.1 130 06:57 05.10.2019
6575 Clouds 15 1022 62 10000 5.1 130 06:26 05.10.2019
6576 Clouds 12 1022 76 10000 1 0 05:40 05.10.2019
6577 Mist 11 1020 76 10000 0.5 40 03:39 05.10.2019
6578 Mist 11 1020 76 10000 0.5 40 03:20 05.10.2019
6579 Clouds 11 1020 76 10000 1 100 01:29 05.10.2019
6580 Clouds 13 1020 76 10000 1.5 340 00:51 05.10.2019
6581 Clouds 13 1020 76 10000 1.5 340 00:51 05.10.2019
6582 Clouds 13 1020 76 10000 1.5 340 00:28 05.10.2019
6583 Clouds 13 1020 76 10000 0.5 0 23:59 04.10.2019
6584 Clouds 13 1020 76 10000 0.5 0 23:41 04.10.2019
6585 Clouds 13 1020 76 10000 0.5 0 23:23 04.10.2019
6586 Clouds 12 1017 76 10000 1.25 349.229 22:57 04.10.2019
6587 Clouds 13 1020 76 10000 1 140 22:38 04.10.2019
6588 Clouds 13 1020 76 10000 1 140 22:19 04.10.2019
6589 Clouds 13 1020 71 10000 3.6 80 21:41 04.10.2019
6590 Clouds 13 1020 71 10000 3.6 80 21:23 04.10.2019
6591 Clouds 12 1020 71 10000 3.1 360 21:00 04.10.2019
6592 Clouds 12 1020 71 10000 3.1 360 20:41 04.10.2019
6593 Clouds 12 1020 71 10000 3.1 360 20:23 04.10.2019
6594 Clouds 13 1020 71 10000 2.1 40 19:57 04.10.2019
6595 Clouds 13 1020 71 10000 2.1 40 19:38 04.10.2019
6596 Clouds 13 1020 71 10000 2.1 40 19:20 04.10.2019
6597 Clouds 13 1020 71 10000 4.1 360 18:55 04.10.2019
6598 Clouds 13 1020 71 10000 4.1 360 18:36 04.10.2019
6599 Clouds 13 1020 71 10000 4.1 360 18:18 04.10.2019
6600 Clouds 14 1020 71 10000 6.2 350 17:40 04.10.2019
6601 Clouds 14 1020 71 10000 6.2 350 17:22 04.10.2019
6602 Clouds 14 1020 76 10000 7.7 350 16:58 04.10.2019
6603 Clouds 14 1020 76 10000 7.7 350 16:39 04.10.2019
6604 Clouds 14 1020 76 10000 7.7 350 16:18 04.10.2019
6605 Clouds 14 1020 76 10000 7.7 350 16:18 04.10.2019
6606 Clouds 14 1020 76 10000 7.7 350 16:18 04.10.2019
6607 Clouds 14 1019 71 10000 6.7 360 15:56 04.10.2019
6608 Clouds 14 1019 71 10000 6.7 360 15:37 04.10.2019
6609 Clouds 14 1019 71 10000 6.7 360 15:37 04.10.2019
6610 Clouds 14 1019 71 10000 6.7 360 15:19 04.10.2019
6611 Clouds 15 1018 62 10000 3.1 70 14:55 04.10.2019
6612 Clouds 15 1018 62 10000 3.1 70 14:55 04.10.2019
6613 Clouds 15 1018 62 10000 3.1 70 14:36 04.10.2019
6614 Clouds 15 1018 62 10000 3.1 70 14:18 04.10.2019
6615 Rain 15 1019 76 10000 5.1 20 13:43 04.10.2019
6616 Rain 15 1019 76 10000 5.1 20 13:21 04.10.2019
6617 Rain 14 1018 76 10000 6.7 10 12:47 04.10.2019
6618 Thunderstorm 13 1018 71 9000 6.7 60 12:29 04.10.2019
6619 Thunderstorm 18 1015 67 8000 5.1 10 11:59 04.10.2019
6620 Thunderstorm 18 1015 67 8000 5.1 10 11:59 04.10.2019
6621 Thunderstorm 18 1015 67 8000 5.1 10 11:59 04.10.2019
6622 Thunderstorm 18 1015 67 8000 5.1 10 11:59 04.10.2019
6623 Thunderstorm 17 1018 48 10000 6.2 120 11:41 04.10.2019
6624 Thunderstorm 17 1018 48 10000 6.2 120 11:20 04.10.2019
6625 Thunderstorm 17 1018 48 10000 6.2 120 11:20 04.10.2019
6626 Clouds 19 1020 45 10000 5.1 60 10:41 04.10.2019
6627 Clouds 19 1020 45 10000 5.1 60 10:21 04.10.2019
6628 Clouds 18 1018 52 10000 6.7 310 09:48 04.10.2019
6629 Thunderstorm 18 1022 51 10000 5.1 100 09:30 04.10.2019
6630 Clouds 17 1023 62 10000 3.1 40 08:57 04.10.2019
6631 Clouds 17 1023 62 10000 3.1 40 08:38 04.10.2019
6632 Clouds 17 1023 62 10000 3.1 40 08:20 04.10.2019
6633 Clouds 17 1023 62 9000 2.1 70 07:45 04.10.2019
6634 Clouds 17 1023 62 9000 2.1 70 07:22 04.10.2019
6635 Mist 15 1023 76 6000 1.5 70 06:44 04.10.2019
6636 Mist 15 1023 76 6000 1.5 70 06:25 04.10.2019
6637 Mist 13 1022 81 6000 1.51 41.168 05:42 04.10.2019
6638 Mist 13 1022 81 6000 1.51 41.168 05:18 04.10.2019
6639 Mist 9 1021 93 3000 1 120 03:50 04.10.2019
6640 Rain 10 1021 93 8000 1 0 02:54 04.10.2019
6641 Clear 11 1021 87 10000 1 170 01:56 04.10.2019
6642 Clear 11 1021 87 10000 1 170 01:30 04.10.2019
6643 Clear 13 1021 81 10000 1 190 00:58 04.10.2019
6644 Rain 13 1021 81 8000 1 160 23:59 03.10.2019
6645 Rain 13 1021 81 8000 1 160 23:37 03.10.2019
6646 Rain 13 1021 81 8000 1 160 23:18 03.10.2019
6647 Rain 13 1021 81 8000 1 160 23:18 03.10.2019
6648 Clear 13 1021 87 10000 2.1 130 22:56 03.10.2019
6649 Clear 13 1021 87 10000 2.1 130 22:38 03.10.2019
6650 Clear 13 1021 87 10000 2.1 130 22:38 03.10.2019
6651 Clear 13 1021 87 10000 2.1 130 22:20 03.10.2019
6652 -273 0 0 0 0 0 21:56 03.10.2019
6653 Clear 14 1021 71 10000 1.5 150 21:37 03.10.2019
6654 Clear 14 1021 71 10000 1.5 150 21:19 03.10.2019
6655 Clouds 14 1022 71 10000 1.5 0 20:55 03.10.2019
6656 Clouds 14 1022 71 10000 1.5 0 20:37 03.10.2019
6657 Clouds 14 1022 71 10000 1.5 0 20:37 03.10.2019
6658 Clouds 14 1022 71 10000 1.5 0 20:19 03.10.2019
6659 Rain 15 1022 82 10000 1 0 19:41 03.10.2019
6660 Rain 15 1022 82 10000 1 0 19:22 03.10.2019
6661 Rain 16 1021 58 10000 1 180 18:59 03.10.2019
6662 Rain 16 1021 58 10000 1 180 18:39 03.10.2019
6663 Rain 16 1021 58 10000 1 180 18:39 03.10.2019
6664 Rain 16 1021 58 10000 1 180 18:19 03.10.2019
6665 Clouds 16 1020 54 10000 3.1 40 17:56 03.10.2019
6666 Clouds 16 1020 54 10000 3.1 40 17:37 03.10.2019
6667 Clouds 16 1020 54 10000 3.1 40 17:19 03.10.2019
6668 Clouds 16 1020 54 10000 3.1 40 17:19 03.10.2019
6669 Clouds 18 1019 48 10000 2.6 20 16:43 03.10.2019
6670 Clouds 18 1019 48 10000 2.6 20 16:25 03.10.2019
6671 Clouds 18 1020 48 10000 5.1 10 15:56 03.10.2019
6672 Clouds 18 1020 48 10000 5.1 10 15:38 03.10.2019
6673 Clouds 18 1020 48 10000 5.1 10 15:38 03.10.2019
6674 Clouds 18 1020 48 10000 5.1 10 15:19 03.10.2019
6675 Clouds 19 1018 45 10000 8.7 360 14:45 03.10.2019
6676 Clouds 19 1018 45 10000 8.7 360 14:26 03.10.2019
6677 Clouds 20 1018 52 10000 5.7 360 13:57 03.10.2019
6678 Clouds 20 1018 52 10000 5.7 360 13:39 03.10.2019
6679 Clouds 20 1018 52 10000 5.7 360 13:19 03.10.2019
6680 Clouds 21 1017 48 10000 7.7 350 12:55 03.10.2019
6681 Rain 20 1017 48 10000 7.7 350 12:36 03.10.2019
6682 Rain 19 1018 59 10000 6.7 330 12:18 03.10.2019
6683 Thunderstorm 19 1019 67 10000 5.1 300 11:41 03.10.2019
6684 Thunderstorm 20 1019 63 2500 7.2 320 11:22 03.10.2019
6685 Thunderstorm 21 1015 28 10000 4.1 110 10:58 03.10.2019
6686 Thunderstorm 22 1018 52 10000 7.7 360 10:40 03.10.2019
6687 Thunderstorm 22 1018 52 10000 7.7 360 10:18 03.10.2019
6688 Thunderstorm 22 1018 46 10000 8.2 360 09:57 03.10.2019
6689 Thunderstorm 21 1018 46 10000 8.2 360 09:39 03.10.2019
6690 Thunderstorm 21 1019 43 10000 5.1 10 09:20 03.10.2019
6691 Thunderstorm 21 1019 43 10000 5.1 10 09:20 03.10.2019
6692 Thunderstorm 21 1016 49 10000 3.6 360 08:44 03.10.2019
6693 Clouds 21 1020 49 8000 3.6 140 08:26 03.10.2019
6694 Haze 21 1021 52 8000 2.1 0 07:57 03.10.2019
6695 Haze 21 1021 52 8000 2.1 0 07:38 03.10.2019
6696 Haze 21 1021 52 8000 2.1 0 07:19 03.10.2019
6697 Haze 19 1020 55 6000 1.5 0 06:45 03.10.2019
6698 Haze 19 1020 55 6000 1.5 0 06:18 03.10.2019
6699 Haze 16 1021 67 8000 0.5 310 05:38 03.10.2019
6700 Haze 14 1020 76 8000 1 0 04:50 03.10.2019
6701 Haze 14 1020 76 8000 1 0 04:25 03.10.2019
6702 Haze 14 1020 76 8000 1 0 04:25 03.10.2019
6703 Haze 13 1020 76 10000 2.1 290 03:21 03.10.2019
6704 Haze 15 1019 72 10000 1.5 250 02:33 03.10.2019
6705 Haze 15 1019 67 9000 1.5 260 01:50 03.10.2019
6706 Haze 15 1019 67 9000 1.5 260 01:31 03.10.2019
6707 Rain 17 1020 67 9000 1 0 00:45 03.10.2019
6708 Rain 17 1020 63 9000 1 90 23:58 02.10.2019
6709 Rain 17 1020 63 9000 1 90 23:38 02.10.2019
6710 Rain 17 1020 63 9000 1 90 23:19 02.10.2019
6711 Rain 18 1020 63 9000 1.5 0 22:43 02.10.2019
6712 Rain 18 1020 63 9000 1.5 0 22:21 02.10.2019
6713 Clear 19 1020 59 10000 2.6 80 21:56 02.10.2019
6714 Clear 17 1020 59 10000 2.6 80 21:38 02.10.2019
6715 Clear 20 1020 59 10000 2.6 80 21:19 02.10.2019
6716 Clear 20 1020 59 10000 1.5 0 20:56 02.10.2019
6717 Clear 20 1020 59 10000 1.5 0 20:37 02.10.2019
6718 Clear 20 1020 59 10000 1.5 0 20:19 02.10.2019
6719 Clouds 19 1020 52 10000 1.5 0 19:46 02.10.2019
6720 Clouds 19 1020 52 10000 1.5 0 19:23 02.10.2019
6721 Clouds 19 1020 52 10000 1.5 0 19:23 02.10.2019
6722 -273 0 0 0 0 0 18:59 02.10.2019
6723 Clouds 19 1020 55 10000 5.1 90 18:59 02.10.2019
6724 Clouds 19 1020 55 10000 5.1 90 18:40 02.10.2019
6725 Clouds 19 1020 55 10000 5.1 90 18:21 02.10.2019
6726 Clear 20 1019 52 10000 5.1 120 17:58 02.10.2019
6727 Clear 20 1019 52 10000 5.1 120 17:40 02.10.2019
6728 Clear 22 1019 52 10000 5.1 120 17:21 02.10.2019
6729 Clouds 22 1019 46 10000 5.1 120 16:57 02.10.2019
6730 Clouds 21 1019 46 10000 5.1 120 16:37 02.10.2019
6731 Clouds 24 1019 46 10000 5.1 120 16:19 02.10.2019
6732 Clouds 24 1018 35 10000 5.1 30 15:55 02.10.2019
6733 Clouds 24 1018 35 10000 5.1 30 15:37 02.10.2019
6734 Clouds 25 1018 35 10000 5.1 30 15:18 02.10.2019
6735 Clouds 25 1018 29 10000 4.6 360 14:43 02.10.2019
6736 Clouds 25 1018 29 10000 4.6 360 14:23 02.10.2019
6737 Clouds 26 1018 29 10000 6.2 360 13:56 02.10.2019
6738 Clouds 26 1018 29 10000 6.2 360 13:37 02.10.2019
6739 Clouds 26 1018 29 10000 6.2 360 13:19 02.10.2019
6740 Clouds 26 1019 29 10000 5.1 20 12:39 02.10.2019
6741 Clouds 26 1019 29 10000 5.1 20 12:39 02.10.2019
6742 Clouds 26 1019 29 10000 5.1 20 12:21 02.10.2019
6743 Clouds 25 1020 31 10000 5.1 360 11:55 02.10.2019
6744 Clouds 25 1020 31 10000 5.1 360 11:36 02.10.2019
6745 Clouds 25 1020 31 10000 5.1 360 11:18 02.10.2019
6746 Clouds 25 1021 33 10000 4.1 360 10:38 02.10.2019
6747 Clouds 25 1021 33 10000 4.1 360 10:18 02.10.2019
6748 Clouds 24 1022 37 10000 4.1 350 09:39 02.10.2019
6749 Clouds 24 1022 37 10000 4.1 350 09:20 02.10.2019
6750 Clouds 23 1022 43 9000 1.5 0 08:55 02.10.2019
6751 Clouds 23 1022 43 9000 1.5 0 08:36 02.10.2019
6752 Clouds 23 1022 43 9000 1.5 0 08:18 02.10.2019
6753 Haze 21 1023 52 8000 2.1 320 07:39 02.10.2019
6754 Haze 19 1023 52 8000 2.1 320 07:20 02.10.2019
6755 Haze 19 1023 52 80